<?xml version="1.0" encoding="UTF-8" standalone="no" ?>
<gpx xmlns="http://www.topografix.com/GPX/1/1" xmlns:xsi="http://www.w3.org/2001/XMLSchema-instance" xsi:schemaLocation="http://www.topografix.com/GPX/1/1 http://www.topografix.com/GPX/1/1/gpx.xsd" version="1.1" creator="VisuGPX - https://www.visugpx.com">
  <metadata>
    <name>2017-02-02 Walk from Chateau de La Palud-Quincie</name>
    <desc><![CDATA[2017-02-02 Walk from Chateau de La Palud-Quincie]]></desc>
  </metadata>
  <wpt lat="46.11346" lon="4.62025">
    <ele>268</ele>
    <name><![CDATA[I (Start)]]></name>
  </wpt>
  <wpt lat="46.1135" lon="4.62001">
    <ele>268</ele>
    <name><![CDATA[I (End)]]></name>
    <desc><![CDATA[Created by Google My Tracks on Android  Name: I Activity type: walking Description: - Total distance: 23.24 km (14.4 mi) Total time: 6:56:42 Moving time: 6:47:07 Average speed: 3.35 km/h (2.1 mi/h) Average moving speed: 3.42 km/h (2.1 mi/h) Max speed: 5.40 km/h (3.4 mi/h) Average pace: 17:56 min/km (28:52 min/mi) Average moving pace: 17:31 min/km (28:12 min/mi) Fastest pace: 11:07 min/km (17:53 min/mi) Max elevation: 844 m (2768 ft) Min elevation: 84 m (275 ft) Elevation gain: 1265 m (4152 ft) Max grade: 155 % Min grade: -35 % Recorded: 02/02/2017 09:27]]></desc>
  </wpt>
  <trk>
    <name><![CDATA[I]]></name>
    <trkseg>
      <trkpt lat="46.11346" lon="4.62025">
        <ele>268</ele>
        <time>2017-02-02T08:27:01.931Z</time>
      </trkpt>
      <trkpt lat="46.11346" lon="4.62027">
        <ele>268</ele>
        <time>2017-02-02T08:27:09.401Z</time>
      </trkpt>
      <trkpt lat="46.11368" lon="4.62012">
        <ele>269</ele>
        <time>2017-02-02T08:27:10.404Z</time>
      </trkpt>
      <trkpt lat="46.11358" lon="4.62006">
        <ele>268</ele>
        <time>2017-02-02T08:27:11.402Z</time>
      </trkpt>
      <trkpt lat="46.11356" lon="4.62">
        <ele>268</ele>
        <time>2017-02-02T08:27:12.381Z</time>
      </trkpt>
      <trkpt lat="46.11345" lon="4.62003">
        <ele>268</ele>
        <time>2017-02-02T08:27:13.38Z</time>
      </trkpt>
      <trkpt lat="46.11351" lon="4.62012">
        <ele>268</ele>
        <time>2017-02-02T08:30:15Z</time>
      </trkpt>
      <trkpt lat="46.11351" lon="4.62012">
        <ele>268</ele>
        <time>2017-02-02T08:30:16Z</time>
      </trkpt>
      <trkpt lat="46.11354" lon="4.62024">
        <ele>268</ele>
        <time>2017-02-02T08:30:34Z</time>
      </trkpt>
      <trkpt lat="46.11355" lon="4.62026">
        <ele>268</ele>
        <time>2017-02-02T08:30:35Z</time>
      </trkpt>
      <trkpt lat="46.11348" lon="4.62034">
        <ele>268</ele>
        <time>2017-02-02T08:30:59Z</time>
      </trkpt>
      <trkpt lat="46.11347" lon="4.62035">
        <ele>267</ele>
        <time>2017-02-02T08:31:00Z</time>
      </trkpt>
      <trkpt lat="46.11339" lon="4.6204">
        <ele>267</ele>
        <time>2017-02-02T08:31:23Z</time>
      </trkpt>
      <trkpt lat="46.11338" lon="4.6204">
        <ele>267</ele>
        <time>2017-02-02T08:31:24Z</time>
      </trkpt>
      <trkpt lat="46.1133" lon="4.62044">
        <ele>264</ele>
        <time>2017-02-02T08:31:33Z</time>
      </trkpt>
      <trkpt lat="46.11329" lon="4.62045">
        <ele>264</ele>
        <time>2017-02-02T08:31:34Z</time>
      </trkpt>
      <trkpt lat="46.11322" lon="4.62048">
        <ele>264</ele>
        <time>2017-02-02T08:31:41Z</time>
      </trkpt>
      <trkpt lat="46.11321" lon="4.62049">
        <ele>264</ele>
        <time>2017-02-02T08:31:42Z</time>
      </trkpt>
      <trkpt lat="46.11312" lon="4.62053">
        <ele>264</ele>
        <time>2017-02-02T08:31:49Z</time>
      </trkpt>
      <trkpt lat="46.11311" lon="4.62053">
        <ele>264</ele>
        <time>2017-02-02T08:31:50Z</time>
      </trkpt>
      <trkpt lat="46.11302" lon="4.62057">
        <ele>264</ele>
        <time>2017-02-02T08:31:57Z</time>
      </trkpt>
      <trkpt lat="46.11301" lon="4.62057">
        <ele>264</ele>
        <time>2017-02-02T08:31:58Z</time>
      </trkpt>
      <trkpt lat="46.11293" lon="4.62062">
        <ele>264</ele>
        <time>2017-02-02T08:32:05Z</time>
      </trkpt>
      <trkpt lat="46.11292" lon="4.62062">
        <ele>264</ele>
        <time>2017-02-02T08:32:06Z</time>
      </trkpt>
      <trkpt lat="46.11284" lon="4.62066">
        <ele>264</ele>
        <time>2017-02-02T08:32:14Z</time>
      </trkpt>
      <trkpt lat="46.11283" lon="4.62067">
        <ele>264</ele>
        <time>2017-02-02T08:32:15Z</time>
      </trkpt>
      <trkpt lat="46.11275" lon="4.6207">
        <ele>264</ele>
        <time>2017-02-02T08:32:23Z</time>
      </trkpt>
      <trkpt lat="46.11273" lon="4.62071">
        <ele>264</ele>
        <time>2017-02-02T08:32:24Z</time>
      </trkpt>
      <trkpt lat="46.11265" lon="4.62072">
        <ele>264</ele>
        <time>2017-02-02T08:32:31Z</time>
      </trkpt>
      <trkpt lat="46.11264" lon="4.62073">
        <ele>264</ele>
        <time>2017-02-02T08:32:32Z</time>
      </trkpt>
      <trkpt lat="46.11256" lon="4.62073">
        <ele>264</ele>
        <time>2017-02-02T08:32:39Z</time>
      </trkpt>
      <trkpt lat="46.11255" lon="4.62074">
        <ele>264</ele>
        <time>2017-02-02T08:32:40Z</time>
      </trkpt>
      <trkpt lat="46.11247" lon="4.62071">
        <ele>268</ele>
        <time>2017-02-02T08:32:48Z</time>
      </trkpt>
      <trkpt lat="46.11245" lon="4.6207">
        <ele>268</ele>
        <time>2017-02-02T08:32:49Z</time>
      </trkpt>
      <trkpt lat="46.11241" lon="4.62061">
        <ele>269</ele>
        <time>2017-02-02T08:32:56Z</time>
      </trkpt>
      <trkpt lat="46.1124" lon="4.6206">
        <ele>270</ele>
        <time>2017-02-02T08:32:57Z</time>
      </trkpt>
      <trkpt lat="46.11238" lon="4.62048">
        <ele>270</ele>
        <time>2017-02-02T08:33:05Z</time>
      </trkpt>
      <trkpt lat="46.11237" lon="4.62047">
        <ele>270</ele>
        <time>2017-02-02T08:33:06Z</time>
      </trkpt>
      <trkpt lat="46.11235" lon="4.62036">
        <ele>270</ele>
        <time>2017-02-02T08:33:13Z</time>
      </trkpt>
      <trkpt lat="46.11234" lon="4.62034">
        <ele>270</ele>
        <time>2017-02-02T08:33:14Z</time>
      </trkpt>
      <trkpt lat="46.1123" lon="4.62023">
        <ele>270</ele>
        <time>2017-02-02T08:33:22Z</time>
      </trkpt>
      <trkpt lat="46.1123" lon="4.62021">
        <ele>270</ele>
        <time>2017-02-02T08:33:23Z</time>
      </trkpt>
      <trkpt lat="46.11222" lon="4.62024">
        <ele>271</ele>
        <time>2017-02-02T08:33:34Z</time>
      </trkpt>
      <trkpt lat="46.11221" lon="4.62025">
        <ele>271</ele>
        <time>2017-02-02T08:33:35Z</time>
      </trkpt>
      <trkpt lat="46.11212" lon="4.62025">
        <ele>273</ele>
        <time>2017-02-02T08:33:43Z</time>
      </trkpt>
      <trkpt lat="46.11211" lon="4.62025">
        <ele>273</ele>
        <time>2017-02-02T08:33:44Z</time>
      </trkpt>
      <trkpt lat="46.11203" lon="4.62029">
        <ele>274</ele>
        <time>2017-02-02T08:33:53Z</time>
      </trkpt>
      <trkpt lat="46.11203" lon="4.62029">
        <ele>274</ele>
        <time>2017-02-02T08:33:54Z</time>
      </trkpt>
      <trkpt lat="46.11195" lon="4.62033">
        <ele>275</ele>
        <time>2017-02-02T08:34:04Z</time>
      </trkpt>
      <trkpt lat="46.11194" lon="4.62033">
        <ele>275</ele>
        <time>2017-02-02T08:34:05Z</time>
      </trkpt>
      <trkpt lat="46.11185" lon="4.62034">
        <ele>276</ele>
        <time>2017-02-02T08:34:15Z</time>
      </trkpt>
      <trkpt lat="46.11185" lon="4.62034">
        <ele>276</ele>
        <time>2017-02-02T08:34:16Z</time>
      </trkpt>
      <trkpt lat="46.11176" lon="4.62032">
        <ele>276</ele>
        <time>2017-02-02T08:34:27Z</time>
      </trkpt>
      <trkpt lat="46.11176" lon="4.62032">
        <ele>276</ele>
        <time>2017-02-02T08:34:28Z</time>
      </trkpt>
      <trkpt lat="46.11167" lon="4.62031">
        <ele>277</ele>
        <time>2017-02-02T08:34:41Z</time>
      </trkpt>
      <trkpt lat="46.11166" lon="4.62031">
        <ele>292</ele>
        <time>2017-02-02T08:34:42Z</time>
      </trkpt>
      <trkpt lat="46.11159" lon="4.62037">
        <ele>293</ele>
        <time>2017-02-02T08:34:55Z</time>
      </trkpt>
      <trkpt lat="46.11158" lon="4.62037">
        <ele>293</ele>
        <time>2017-02-02T08:34:56Z</time>
      </trkpt>
      <trkpt lat="46.11153" lon="4.62027">
        <ele>293</ele>
        <time>2017-02-02T08:35:10Z</time>
      </trkpt>
      <trkpt lat="46.11153" lon="4.62025">
        <ele>293</ele>
        <time>2017-02-02T08:35:11Z</time>
      </trkpt>
      <trkpt lat="46.11155" lon="4.62014">
        <ele>290</ele>
        <time>2017-02-02T08:35:20Z</time>
      </trkpt>
      <trkpt lat="46.11155" lon="4.62013">
        <ele>290</ele>
        <time>2017-02-02T08:35:21Z</time>
      </trkpt>
      <trkpt lat="46.11153" lon="4.62001">
        <ele>288</ele>
        <time>2017-02-02T08:35:32Z</time>
      </trkpt>
      <trkpt lat="46.11154" lon="4.62">
        <ele>287</ele>
        <time>2017-02-02T08:35:33Z</time>
      </trkpt>
      <trkpt lat="46.11155" lon="4.61988">
        <ele>288</ele>
        <time>2017-02-02T08:35:43Z</time>
      </trkpt>
      <trkpt lat="46.11155" lon="4.61986">
        <ele>289</ele>
        <time>2017-02-02T08:35:44Z</time>
      </trkpt>
      <trkpt lat="46.11155" lon="4.61974">
        <ele>291</ele>
        <time>2017-02-02T08:35:53Z</time>
      </trkpt>
      <trkpt lat="46.11155" lon="4.61972">
        <ele>291</ele>
        <time>2017-02-02T08:35:54Z</time>
      </trkpt>
      <trkpt lat="46.11154" lon="4.61959">
        <ele>292</ele>
        <time>2017-02-02T08:36:02Z</time>
      </trkpt>
      <trkpt lat="46.11154" lon="4.61958">
        <ele>292</ele>
        <time>2017-02-02T08:36:03Z</time>
      </trkpt>
      <trkpt lat="46.11151" lon="4.61946">
        <ele>291</ele>
        <time>2017-02-02T08:36:11Z</time>
      </trkpt>
      <trkpt lat="46.11151" lon="4.61945">
        <ele>291</ele>
        <time>2017-02-02T08:36:12Z</time>
      </trkpt>
      <trkpt lat="46.11146" lon="4.61935">
        <ele>291</ele>
        <time>2017-02-02T08:36:20Z</time>
      </trkpt>
      <trkpt lat="46.11146" lon="4.61933">
        <ele>291</ele>
        <time>2017-02-02T08:36:21Z</time>
      </trkpt>
      <trkpt lat="46.11142" lon="4.61923">
        <ele>292</ele>
        <time>2017-02-02T08:36:30Z</time>
      </trkpt>
      <trkpt lat="46.11141" lon="4.61922">
        <ele>292</ele>
        <time>2017-02-02T08:36:31Z</time>
      </trkpt>
      <trkpt lat="46.11135" lon="4.61914">
        <ele>292</ele>
        <time>2017-02-02T08:36:39Z</time>
      </trkpt>
      <trkpt lat="46.11135" lon="4.61913">
        <ele>292</ele>
        <time>2017-02-02T08:36:40Z</time>
      </trkpt>
      <trkpt lat="46.1113" lon="4.61903">
        <ele>293</ele>
        <time>2017-02-02T08:36:50Z</time>
      </trkpt>
      <trkpt lat="46.11129" lon="4.61903">
        <ele>294</ele>
        <time>2017-02-02T08:36:51Z</time>
      </trkpt>
      <trkpt lat="46.11123" lon="4.61893">
        <ele>295</ele>
        <time>2017-02-02T08:37:02Z</time>
      </trkpt>
      <trkpt lat="46.11123" lon="4.61892">
        <ele>295</ele>
        <time>2017-02-02T08:37:03Z</time>
      </trkpt>
      <trkpt lat="46.11117" lon="4.61885">
        <ele>296</ele>
        <time>2017-02-02T08:37:10Z</time>
      </trkpt>
      <trkpt lat="46.11115" lon="4.61885">
        <ele>296</ele>
        <time>2017-02-02T08:37:11Z</time>
      </trkpt>
      <trkpt lat="46.1111" lon="4.61875">
        <ele>297</ele>
        <time>2017-02-02T08:37:19Z</time>
      </trkpt>
      <trkpt lat="46.11109" lon="4.61874">
        <ele>297</ele>
        <time>2017-02-02T08:37:20Z</time>
      </trkpt>
      <trkpt lat="46.11103" lon="4.61866">
        <ele>298</ele>
        <time>2017-02-02T08:37:31Z</time>
      </trkpt>
      <trkpt lat="46.11103" lon="4.61865">
        <ele>298</ele>
        <time>2017-02-02T08:37:32Z</time>
      </trkpt>
      <trkpt lat="46.11096" lon="4.61857">
        <ele>299</ele>
        <time>2017-02-02T08:37:43Z</time>
      </trkpt>
      <trkpt lat="46.11095" lon="4.61856">
        <ele>300</ele>
        <time>2017-02-02T08:37:44Z</time>
      </trkpt>
      <trkpt lat="46.11088" lon="4.61847">
        <ele>302</ele>
        <time>2017-02-02T08:37:54Z</time>
      </trkpt>
      <trkpt lat="46.11088" lon="4.61847">
        <ele>302</ele>
        <time>2017-02-02T08:37:55Z</time>
      </trkpt>
      <trkpt lat="46.11081" lon="4.61838">
        <ele>312</ele>
        <time>2017-02-02T08:38:05Z</time>
      </trkpt>
      <trkpt lat="46.1108" lon="4.61838">
        <ele>312</ele>
        <time>2017-02-02T08:38:06Z</time>
      </trkpt>
      <trkpt lat="46.11074" lon="4.61828">
        <ele>313</ele>
        <time>2017-02-02T08:38:16Z</time>
      </trkpt>
      <trkpt lat="46.11073" lon="4.61827">
        <ele>314</ele>
        <time>2017-02-02T08:38:17Z</time>
      </trkpt>
      <trkpt lat="46.11069" lon="4.61816">
        <ele>316</ele>
        <time>2017-02-02T08:38:28Z</time>
      </trkpt>
      <trkpt lat="46.11069" lon="4.61815">
        <ele>317</ele>
        <time>2017-02-02T08:38:29Z</time>
      </trkpt>
      <trkpt lat="46.11063" lon="4.61806">
        <ele>318</ele>
        <time>2017-02-02T08:38:38Z</time>
      </trkpt>
      <trkpt lat="46.11062" lon="4.61805">
        <ele>319</ele>
        <time>2017-02-02T08:38:39Z</time>
      </trkpt>
      <trkpt lat="46.11057" lon="4.61795">
        <ele>320</ele>
        <time>2017-02-02T08:38:49Z</time>
      </trkpt>
      <trkpt lat="46.11057" lon="4.61794">
        <ele>320</ele>
        <time>2017-02-02T08:38:50Z</time>
      </trkpt>
      <trkpt lat="46.11051" lon="4.61785">
        <ele>320</ele>
        <time>2017-02-02T08:39:01Z</time>
      </trkpt>
      <trkpt lat="46.1105" lon="4.61784">
        <ele>320</ele>
        <time>2017-02-02T08:39:02Z</time>
      </trkpt>
      <trkpt lat="46.11042" lon="4.61791">
        <ele>322</ele>
        <time>2017-02-02T08:39:14Z</time>
      </trkpt>
      <trkpt lat="46.11042" lon="4.61792">
        <ele>322</ele>
        <time>2017-02-02T08:39:15Z</time>
      </trkpt>
      <trkpt lat="46.11044" lon="4.61804">
        <ele>323</ele>
        <time>2017-02-02T08:39:24Z</time>
      </trkpt>
      <trkpt lat="46.11044" lon="4.61805">
        <ele>323</ele>
        <time>2017-02-02T08:39:25Z</time>
      </trkpt>
      <trkpt lat="46.11043" lon="4.61817">
        <ele>323</ele>
        <time>2017-02-02T08:39:34Z</time>
      </trkpt>
      <trkpt lat="46.11043" lon="4.61819">
        <ele>323</ele>
        <time>2017-02-02T08:39:35Z</time>
      </trkpt>
      <trkpt lat="46.11044" lon="4.61831">
        <ele>323</ele>
        <time>2017-02-02T08:39:44Z</time>
      </trkpt>
      <trkpt lat="46.11045" lon="4.61832">
        <ele>323</ele>
        <time>2017-02-02T08:39:45Z</time>
      </trkpt>
      <trkpt lat="46.11047" lon="4.61843">
        <ele>326</ele>
        <time>2017-02-02T08:39:53Z</time>
      </trkpt>
      <trkpt lat="46.11048" lon="4.61845">
        <ele>326</ele>
        <time>2017-02-02T08:39:54Z</time>
      </trkpt>
      <trkpt lat="46.11047" lon="4.61856">
        <ele>326</ele>
        <time>2017-02-02T08:40:02Z</time>
      </trkpt>
      <trkpt lat="46.11047" lon="4.61858">
        <ele>326</ele>
        <time>2017-02-02T08:40:03Z</time>
      </trkpt>
      <trkpt lat="46.11049" lon="4.61869">
        <ele>326</ele>
        <time>2017-02-02T08:40:11Z</time>
      </trkpt>
      <trkpt lat="46.11049" lon="4.61871">
        <ele>326</ele>
        <time>2017-02-02T08:40:12Z</time>
      </trkpt>
      <trkpt lat="46.11049" lon="4.61883">
        <ele>326</ele>
        <time>2017-02-02T08:40:20Z</time>
      </trkpt>
      <trkpt lat="46.11049" lon="4.61884">
        <ele>326</ele>
        <time>2017-02-02T08:40:21Z</time>
      </trkpt>
      <trkpt lat="46.11049" lon="4.61895">
        <ele>326</ele>
        <time>2017-02-02T08:40:28Z</time>
      </trkpt>
      <trkpt lat="46.11049" lon="4.61897">
        <ele>326</ele>
        <time>2017-02-02T08:40:29Z</time>
      </trkpt>
      <trkpt lat="46.1105" lon="4.61909">
        <ele>326</ele>
        <time>2017-02-02T08:40:37Z</time>
      </trkpt>
      <trkpt lat="46.1105" lon="4.6191">
        <ele>326</ele>
        <time>2017-02-02T08:40:38Z</time>
      </trkpt>
      <trkpt lat="46.11049" lon="4.61922">
        <ele>328</ele>
        <time>2017-02-02T08:40:45Z</time>
      </trkpt>
      <trkpt lat="46.11049" lon="4.61924">
        <ele>328</ele>
        <time>2017-02-02T08:40:46Z</time>
      </trkpt>
      <trkpt lat="46.11047" lon="4.61935">
        <ele>329</ele>
        <time>2017-02-02T08:40:53Z</time>
      </trkpt>
      <trkpt lat="46.11047" lon="4.61937">
        <ele>329</ele>
        <time>2017-02-02T08:40:54Z</time>
      </trkpt>
      <trkpt lat="46.11047" lon="4.61949">
        <ele>330</ele>
        <time>2017-02-02T08:41:03Z</time>
      </trkpt>
      <trkpt lat="46.11046" lon="4.61951">
        <ele>330</ele>
        <time>2017-02-02T08:41:04Z</time>
      </trkpt>
      <trkpt lat="46.11045" lon="4.61963">
        <ele>330</ele>
        <time>2017-02-02T08:41:12Z</time>
      </trkpt>
      <trkpt lat="46.11044" lon="4.61965">
        <ele>330</ele>
        <time>2017-02-02T08:41:13Z</time>
      </trkpt>
      <trkpt lat="46.11043" lon="4.61977">
        <ele>331</ele>
        <time>2017-02-02T08:41:21Z</time>
      </trkpt>
      <trkpt lat="46.11043" lon="4.61979">
        <ele>331</ele>
        <time>2017-02-02T08:41:22Z</time>
      </trkpt>
      <trkpt lat="46.11042" lon="4.6199">
        <ele>331</ele>
        <time>2017-02-02T08:41:31Z</time>
      </trkpt>
      <trkpt lat="46.11042" lon="4.61992">
        <ele>331</ele>
        <time>2017-02-02T08:41:32Z</time>
      </trkpt>
      <trkpt lat="46.11038" lon="4.62002">
        <ele>334</ele>
        <time>2017-02-02T08:41:39Z</time>
      </trkpt>
      <trkpt lat="46.11038" lon="4.62004">
        <ele>334</ele>
        <time>2017-02-02T08:41:40Z</time>
      </trkpt>
      <trkpt lat="46.11036" lon="4.62016">
        <ele>334</ele>
        <time>2017-02-02T08:41:48Z</time>
      </trkpt>
      <trkpt lat="46.11035" lon="4.62017">
        <ele>334</ele>
        <time>2017-02-02T08:41:49Z</time>
      </trkpt>
      <trkpt lat="46.11035" lon="4.62006">
        <ele>335</ele>
        <time>2017-02-02T08:42:08Z</time>
      </trkpt>
      <trkpt lat="46.11035" lon="4.62004">
        <ele>335</ele>
        <time>2017-02-02T08:42:09Z</time>
      </trkpt>
      <trkpt lat="46.11034" lon="4.61992">
        <ele>334</ele>
        <time>2017-02-02T08:42:16Z</time>
      </trkpt>
      <trkpt lat="46.11033" lon="4.6199">
        <ele>334</ele>
        <time>2017-02-02T08:42:17Z</time>
      </trkpt>
      <trkpt lat="46.11032" lon="4.61978">
        <ele>334</ele>
        <time>2017-02-02T08:42:25Z</time>
      </trkpt>
      <trkpt lat="46.11032" lon="4.61977">
        <ele>334</ele>
        <time>2017-02-02T08:42:26Z</time>
      </trkpt>
      <trkpt lat="46.11032" lon="4.61964">
        <ele>333</ele>
        <time>2017-02-02T08:42:37Z</time>
      </trkpt>
      <trkpt lat="46.11031" lon="4.61963">
        <ele>334</ele>
        <time>2017-02-02T08:42:38Z</time>
      </trkpt>
      <trkpt lat="46.11026" lon="4.61953">
        <ele>335</ele>
        <time>2017-02-02T08:42:46Z</time>
      </trkpt>
      <trkpt lat="46.11025" lon="4.61952">
        <ele>335</ele>
        <time>2017-02-02T08:42:47Z</time>
      </trkpt>
      <trkpt lat="46.11021" lon="4.61941">
        <ele>336</ele>
        <time>2017-02-02T08:42:56Z</time>
      </trkpt>
      <trkpt lat="46.1102" lon="4.6194">
        <ele>336</ele>
        <time>2017-02-02T08:42:57Z</time>
      </trkpt>
      <trkpt lat="46.11015" lon="4.61931">
        <ele>339</ele>
        <time>2017-02-02T08:43:05Z</time>
      </trkpt>
      <trkpt lat="46.11015" lon="4.61929">
        <ele>339</ele>
        <time>2017-02-02T08:43:06Z</time>
      </trkpt>
      <trkpt lat="46.11012" lon="4.61917">
        <ele>342</ele>
        <time>2017-02-02T08:43:15Z</time>
      </trkpt>
      <trkpt lat="46.11012" lon="4.61916">
        <ele>341</ele>
        <time>2017-02-02T08:43:16Z</time>
      </trkpt>
      <trkpt lat="46.11009" lon="4.61905">
        <ele>340</ele>
        <time>2017-02-02T08:43:25Z</time>
      </trkpt>
      <trkpt lat="46.11009" lon="4.61904">
        <ele>339</ele>
        <time>2017-02-02T08:43:26Z</time>
      </trkpt>
      <trkpt lat="46.11005" lon="4.61893">
        <ele>337</ele>
        <time>2017-02-02T08:43:35Z</time>
      </trkpt>
      <trkpt lat="46.11005" lon="4.61891">
        <ele>337</ele>
        <time>2017-02-02T08:43:36Z</time>
      </trkpt>
      <trkpt lat="46.11001" lon="4.6188">
        <ele>335</ele>
        <time>2017-02-02T08:43:45Z</time>
      </trkpt>
      <trkpt lat="46.11001" lon="4.61879">
        <ele>335</ele>
        <time>2017-02-02T08:43:46Z</time>
      </trkpt>
      <trkpt lat="46.10996" lon="4.61869">
        <ele>358</ele>
        <time>2017-02-02T08:43:55Z</time>
      </trkpt>
      <trkpt lat="46.10996" lon="4.61867">
        <ele>358</ele>
        <time>2017-02-02T08:43:56Z</time>
      </trkpt>
      <trkpt lat="46.10992" lon="4.61857">
        <ele>356</ele>
        <time>2017-02-02T08:44:05Z</time>
      </trkpt>
      <trkpt lat="46.10991" lon="4.61856">
        <ele>356</ele>
        <time>2017-02-02T08:44:06Z</time>
      </trkpt>
      <trkpt lat="46.10987" lon="4.61846">
        <ele>355</ele>
        <time>2017-02-02T08:44:15Z</time>
      </trkpt>
      <trkpt lat="46.10986" lon="4.61844">
        <ele>355</ele>
        <time>2017-02-02T08:44:16Z</time>
      </trkpt>
      <trkpt lat="46.1098" lon="4.61835">
        <ele>356</ele>
        <time>2017-02-02T08:44:25Z</time>
      </trkpt>
      <trkpt lat="46.10979" lon="4.61834">
        <ele>356</ele>
        <time>2017-02-02T08:44:26Z</time>
      </trkpt>
      <trkpt lat="46.10974" lon="4.61825">
        <ele>354</ele>
        <time>2017-02-02T08:44:35Z</time>
      </trkpt>
      <trkpt lat="46.10973" lon="4.61823">
        <ele>354</ele>
        <time>2017-02-02T08:44:36Z</time>
      </trkpt>
      <trkpt lat="46.10968" lon="4.61813">
        <ele>356</ele>
        <time>2017-02-02T08:44:46Z</time>
      </trkpt>
      <trkpt lat="46.10967" lon="4.61812">
        <ele>356</ele>
        <time>2017-02-02T08:44:47Z</time>
      </trkpt>
      <trkpt lat="46.10961" lon="4.61804">
        <ele>357</ele>
        <time>2017-02-02T08:44:56Z</time>
      </trkpt>
      <trkpt lat="46.1096" lon="4.61803">
        <ele>357</ele>
        <time>2017-02-02T08:44:57Z</time>
      </trkpt>
      <trkpt lat="46.10954" lon="4.61795">
        <ele>358</ele>
        <time>2017-02-02T08:45:06Z</time>
      </trkpt>
      <trkpt lat="46.10954" lon="4.61794">
        <ele>358</ele>
        <time>2017-02-02T08:45:07Z</time>
      </trkpt>
      <trkpt lat="46.10948" lon="4.61786">
        <ele>359</ele>
        <time>2017-02-02T08:45:16Z</time>
      </trkpt>
      <trkpt lat="46.10947" lon="4.61785">
        <ele>359</ele>
        <time>2017-02-02T08:45:17Z</time>
      </trkpt>
      <trkpt lat="46.10941" lon="4.61777">
        <ele>360</ele>
        <time>2017-02-02T08:45:27Z</time>
      </trkpt>
      <trkpt lat="46.1094" lon="4.61776">
        <ele>360</ele>
        <time>2017-02-02T08:45:28Z</time>
      </trkpt>
      <trkpt lat="46.10937" lon="4.61788">
        <ele>361</ele>
        <time>2017-02-02T08:46:31Z</time>
      </trkpt>
      <trkpt lat="46.10938" lon="4.61789">
        <ele>361</ele>
        <time>2017-02-02T08:46:32Z</time>
      </trkpt>
      <trkpt lat="46.10938" lon="4.61802">
        <ele>362</ele>
        <time>2017-02-02T08:46:40Z</time>
      </trkpt>
      <trkpt lat="46.10938" lon="4.61803">
        <ele>363</ele>
        <time>2017-02-02T08:46:41Z</time>
      </trkpt>
      <trkpt lat="46.10939" lon="4.61816">
        <ele>364</ele>
        <time>2017-02-02T08:46:49Z</time>
      </trkpt>
      <trkpt lat="46.1094" lon="4.61817">
        <ele>364</ele>
        <time>2017-02-02T08:46:50Z</time>
      </trkpt>
      <trkpt lat="46.10942" lon="4.61828">
        <ele>364</ele>
        <time>2017-02-02T08:46:57Z</time>
      </trkpt>
      <trkpt lat="46.10943" lon="4.6183">
        <ele>364</ele>
        <time>2017-02-02T08:46:58Z</time>
      </trkpt>
      <trkpt lat="46.10946" lon="4.61841">
        <ele>368</ele>
        <time>2017-02-02T08:47:05Z</time>
      </trkpt>
      <trkpt lat="46.10946" lon="4.61843">
        <ele>368</ele>
        <time>2017-02-02T08:47:06Z</time>
      </trkpt>
      <trkpt lat="46.10948" lon="4.61855">
        <ele>367</ele>
        <time>2017-02-02T08:47:14Z</time>
      </trkpt>
      <trkpt lat="46.10947" lon="4.61857">
        <ele>367</ele>
        <time>2017-02-02T08:47:15Z</time>
      </trkpt>
      <trkpt lat="46.10944" lon="4.61869">
        <ele>368</ele>
        <time>2017-02-02T08:47:24Z</time>
      </trkpt>
      <trkpt lat="46.10943" lon="4.61871">
        <ele>368</ele>
        <time>2017-02-02T08:47:25Z</time>
      </trkpt>
      <trkpt lat="46.10943" lon="4.61883">
        <ele>369</ele>
        <time>2017-02-02T08:47:33Z</time>
      </trkpt>
      <trkpt lat="46.10942" lon="4.61885">
        <ele>369</ele>
        <time>2017-02-02T08:47:34Z</time>
      </trkpt>
      <trkpt lat="46.1094" lon="4.61897">
        <ele>371</ele>
        <time>2017-02-02T08:47:42Z</time>
      </trkpt>
      <trkpt lat="46.1094" lon="4.61898">
        <ele>371</ele>
        <time>2017-02-02T08:47:43Z</time>
      </trkpt>
      <trkpt lat="46.1094" lon="4.6191">
        <ele>372</ele>
        <time>2017-02-02T08:47:51Z</time>
      </trkpt>
      <trkpt lat="46.1094" lon="4.61912">
        <ele>372</ele>
        <time>2017-02-02T08:47:52Z</time>
      </trkpt>
      <trkpt lat="46.10939" lon="4.61924">
        <ele>374</ele>
        <time>2017-02-02T08:48:01Z</time>
      </trkpt>
      <trkpt lat="46.10939" lon="4.61925">
        <ele>374</ele>
        <time>2017-02-02T08:48:02Z</time>
      </trkpt>
      <trkpt lat="46.10938" lon="4.61937">
        <ele>373</ele>
        <time>2017-02-02T08:48:10Z</time>
      </trkpt>
      <trkpt lat="46.10938" lon="4.61939">
        <ele>373</ele>
        <time>2017-02-02T08:48:11Z</time>
      </trkpt>
      <trkpt lat="46.10938" lon="4.61951">
        <ele>372</ele>
        <time>2017-02-02T08:48:20Z</time>
      </trkpt>
      <trkpt lat="46.10938" lon="4.61952">
        <ele>372</ele>
        <time>2017-02-02T08:48:21Z</time>
      </trkpt>
      <trkpt lat="46.10935" lon="4.6194">
        <ele>374</ele>
        <time>2017-02-02T08:48:45Z</time>
      </trkpt>
      <trkpt lat="46.10935" lon="4.61939">
        <ele>374</ele>
        <time>2017-02-02T08:48:46Z</time>
      </trkpt>
      <trkpt lat="46.10933" lon="4.61927">
        <ele>376</ele>
        <time>2017-02-02T08:48:55Z</time>
      </trkpt>
      <trkpt lat="46.10933" lon="4.61925">
        <ele>376</ele>
        <time>2017-02-02T08:48:56Z</time>
      </trkpt>
      <trkpt lat="46.10931" lon="4.61914">
        <ele>377</ele>
        <time>2017-02-02T08:49:04Z</time>
      </trkpt>
      <trkpt lat="46.10931" lon="4.61913">
        <ele>376</ele>
        <time>2017-02-02T08:49:05Z</time>
      </trkpt>
      <trkpt lat="46.10929" lon="4.619">
        <ele>374</ele>
        <time>2017-02-02T08:49:13Z</time>
      </trkpt>
      <trkpt lat="46.10928" lon="4.61899">
        <ele>374</ele>
        <time>2017-02-02T08:49:14Z</time>
      </trkpt>
      <trkpt lat="46.10925" lon="4.61888">
        <ele>372</ele>
        <time>2017-02-02T08:49:21Z</time>
      </trkpt>
      <trkpt lat="46.10924" lon="4.61886">
        <ele>372</ele>
        <time>2017-02-02T08:49:22Z</time>
      </trkpt>
      <trkpt lat="46.10922" lon="4.61875">
        <ele>371</ele>
        <time>2017-02-02T08:49:29Z</time>
      </trkpt>
      <trkpt lat="46.10922" lon="4.61873">
        <ele>371</ele>
        <time>2017-02-02T08:49:30Z</time>
      </trkpt>
      <trkpt lat="46.1092" lon="4.61862">
        <ele>372</ele>
        <time>2017-02-02T08:49:37Z</time>
      </trkpt>
      <trkpt lat="46.1092" lon="4.6186">
        <ele>372</ele>
        <time>2017-02-02T08:49:38Z</time>
      </trkpt>
      <trkpt lat="46.10915" lon="4.6185">
        <ele>389</ele>
        <time>2017-02-02T08:49:45Z</time>
      </trkpt>
      <trkpt lat="46.10914" lon="4.61849">
        <ele>388</ele>
        <time>2017-02-02T08:49:46Z</time>
      </trkpt>
      <trkpt lat="46.10909" lon="4.6184">
        <ele>386</ele>
        <time>2017-02-02T08:49:52Z</time>
      </trkpt>
      <trkpt lat="46.10908" lon="4.61839">
        <ele>386</ele>
        <time>2017-02-02T08:49:53Z</time>
      </trkpt>
      <trkpt lat="46.10903" lon="4.61831">
        <ele>385</ele>
        <time>2017-02-02T08:49:58Z</time>
      </trkpt>
      <trkpt lat="46.10902" lon="4.61829">
        <ele>385</ele>
        <time>2017-02-02T08:49:59Z</time>
      </trkpt>
      <trkpt lat="46.10897" lon="4.6182">
        <ele>387</ele>
        <time>2017-02-02T08:50:06Z</time>
      </trkpt>
      <trkpt lat="46.10896" lon="4.61818">
        <ele>387</ele>
        <time>2017-02-02T08:50:07Z</time>
      </trkpt>
      <trkpt lat="46.10892" lon="4.61808">
        <ele>388</ele>
        <time>2017-02-02T08:50:13Z</time>
      </trkpt>
      <trkpt lat="46.10891" lon="4.61806">
        <ele>388</ele>
        <time>2017-02-02T08:50:14Z</time>
      </trkpt>
      <trkpt lat="46.10887" lon="4.61795">
        <ele>388</ele>
        <time>2017-02-02T08:50:21Z</time>
      </trkpt>
      <trkpt lat="46.10887" lon="4.61794">
        <ele>388</ele>
        <time>2017-02-02T08:50:22Z</time>
      </trkpt>
      <trkpt lat="46.10879" lon="4.61788">
        <ele>389</ele>
        <time>2017-02-02T08:50:29Z</time>
      </trkpt>
      <trkpt lat="46.10878" lon="4.61786">
        <ele>389</ele>
        <time>2017-02-02T08:50:30Z</time>
      </trkpt>
      <trkpt lat="46.10872" lon="4.61778">
        <ele>390</ele>
        <time>2017-02-02T08:50:36Z</time>
      </trkpt>
      <trkpt lat="46.10871" lon="4.61777">
        <ele>390</ele>
        <time>2017-02-02T08:50:37Z</time>
      </trkpt>
      <trkpt lat="46.10865" lon="4.61768">
        <ele>391</ele>
        <time>2017-02-02T08:50:45Z</time>
      </trkpt>
      <trkpt lat="46.10863" lon="4.61768">
        <ele>391</ele>
        <time>2017-02-02T08:50:46Z</time>
      </trkpt>
      <trkpt lat="46.10858" lon="4.61759">
        <ele>392</ele>
        <time>2017-02-02T08:50:53Z</time>
      </trkpt>
      <trkpt lat="46.10857" lon="4.61757">
        <ele>392</ele>
        <time>2017-02-02T08:50:54Z</time>
      </trkpt>
      <trkpt lat="46.10857" lon="4.6177">
        <ele>392</ele>
        <time>2017-02-02T08:51:15Z</time>
      </trkpt>
      <trkpt lat="46.10858" lon="4.61771">
        <ele>392</ele>
        <time>2017-02-02T08:51:16Z</time>
      </trkpt>
      <trkpt lat="46.10858" lon="4.61783">
        <ele>392</ele>
        <time>2017-02-02T08:51:24Z</time>
      </trkpt>
      <trkpt lat="46.10858" lon="4.61785">
        <ele>392</ele>
        <time>2017-02-02T08:51:25Z</time>
      </trkpt>
      <trkpt lat="46.10861" lon="4.61797">
        <ele>393</ele>
        <time>2017-02-02T08:51:33Z</time>
      </trkpt>
      <trkpt lat="46.10861" lon="4.61798">
        <ele>393</ele>
        <time>2017-02-02T08:51:34Z</time>
      </trkpt>
      <trkpt lat="46.10861" lon="4.61811">
        <ele>394</ele>
        <time>2017-02-02T08:51:43Z</time>
      </trkpt>
      <trkpt lat="46.10862" lon="4.61812">
        <ele>395</ele>
        <time>2017-02-02T08:51:44Z</time>
      </trkpt>
      <trkpt lat="46.10866" lon="4.61822">
        <ele>394</ele>
        <time>2017-02-02T08:51:52Z</time>
      </trkpt>
      <trkpt lat="46.10867" lon="4.61824">
        <ele>394</ele>
        <time>2017-02-02T08:51:53Z</time>
      </trkpt>
      <trkpt lat="46.10868" lon="4.61836">
        <ele>400</ele>
        <time>2017-02-02T08:52:01Z</time>
      </trkpt>
      <trkpt lat="46.10868" lon="4.61837">
        <ele>400</ele>
        <time>2017-02-02T08:52:02Z</time>
      </trkpt>
      <trkpt lat="46.10869" lon="4.6185">
        <ele>400</ele>
        <time>2017-02-02T08:52:11Z</time>
      </trkpt>
      <trkpt lat="46.10869" lon="4.61851">
        <ele>399</ele>
        <time>2017-02-02T08:52:12Z</time>
      </trkpt>
      <trkpt lat="46.1087" lon="4.61863">
        <ele>399</ele>
        <time>2017-02-02T08:52:21Z</time>
      </trkpt>
      <trkpt lat="46.1087" lon="4.61865">
        <ele>399</ele>
        <time>2017-02-02T08:52:22Z</time>
      </trkpt>
      <trkpt lat="46.10871" lon="4.61877">
        <ele>400</ele>
        <time>2017-02-02T08:52:31Z</time>
      </trkpt>
      <trkpt lat="46.10871" lon="4.61879">
        <ele>400</ele>
        <time>2017-02-02T08:52:32Z</time>
      </trkpt>
      <trkpt lat="46.1087" lon="4.61891">
        <ele>400</ele>
        <time>2017-02-02T08:52:41Z</time>
      </trkpt>
      <trkpt lat="46.1087" lon="4.61892">
        <ele>400</ele>
        <time>2017-02-02T08:52:42Z</time>
      </trkpt>
      <trkpt lat="46.10867" lon="4.61903">
        <ele>402</ele>
        <time>2017-02-02T08:52:55Z</time>
      </trkpt>
      <trkpt lat="46.10867" lon="4.61904">
        <ele>402</ele>
        <time>2017-02-02T08:52:56Z</time>
      </trkpt>
      <trkpt lat="46.10863" lon="4.61915">
        <ele>403</ele>
        <time>2017-02-02T08:53:08Z</time>
      </trkpt>
      <trkpt lat="46.10862" lon="4.61916">
        <ele>404</ele>
        <time>2017-02-02T08:53:09Z</time>
      </trkpt>
      <trkpt lat="46.10857" lon="4.61926">
        <ele>406</ele>
        <time>2017-02-02T08:53:20Z</time>
      </trkpt>
      <trkpt lat="46.10856" lon="4.61927">
        <ele>406</ele>
        <time>2017-02-02T08:53:21Z</time>
      </trkpt>
      <trkpt lat="46.1085" lon="4.61934">
        <ele>407</ele>
        <time>2017-02-02T08:53:30Z</time>
      </trkpt>
      <trkpt lat="46.10849" lon="4.61935">
        <ele>407</ele>
        <time>2017-02-02T08:53:31Z</time>
      </trkpt>
      <trkpt lat="46.10843" lon="4.61943">
        <ele>407</ele>
        <time>2017-02-02T08:53:40Z</time>
      </trkpt>
      <trkpt lat="46.10842" lon="4.61944">
        <ele>407</ele>
        <time>2017-02-02T08:53:41Z</time>
      </trkpt>
      <trkpt lat="46.10837" lon="4.61955">
        <ele>406</ele>
        <time>2017-02-02T08:53:50Z</time>
      </trkpt>
      <trkpt lat="46.10837" lon="4.61956">
        <ele>406</ele>
        <time>2017-02-02T08:53:51Z</time>
      </trkpt>
      <trkpt lat="46.10836" lon="4.61968">
        <ele>406</ele>
        <time>2017-02-02T08:54:00Z</time>
      </trkpt>
      <trkpt lat="46.10836" lon="4.6197">
        <ele>406</ele>
        <time>2017-02-02T08:54:01Z</time>
      </trkpt>
      <trkpt lat="46.10832" lon="4.6198">
        <ele>423</ele>
        <time>2017-02-02T08:54:08Z</time>
      </trkpt>
      <trkpt lat="46.10831" lon="4.61981">
        <ele>422</ele>
        <time>2017-02-02T08:54:09Z</time>
      </trkpt>
      <trkpt lat="46.10829" lon="4.61993">
        <ele>419</ele>
        <time>2017-02-02T08:54:16Z</time>
      </trkpt>
      <trkpt lat="46.10828" lon="4.61995">
        <ele>418</ele>
        <time>2017-02-02T08:54:17Z</time>
      </trkpt>
      <trkpt lat="46.10826" lon="4.62006">
        <ele>418</ele>
        <time>2017-02-02T08:54:26Z</time>
      </trkpt>
      <trkpt lat="46.10826" lon="4.62007">
        <ele>419</ele>
        <time>2017-02-02T08:54:27Z</time>
      </trkpt>
      <trkpt lat="46.10824" lon="4.62019">
        <ele>421</ele>
        <time>2017-02-02T08:54:34Z</time>
      </trkpt>
      <trkpt lat="46.10824" lon="4.62021">
        <ele>421</ele>
        <time>2017-02-02T08:54:35Z</time>
      </trkpt>
      <trkpt lat="46.10821" lon="4.62032">
        <ele>422</ele>
        <time>2017-02-02T08:54:43Z</time>
      </trkpt>
      <trkpt lat="46.10821" lon="4.62034">
        <ele>423</ele>
        <time>2017-02-02T08:54:44Z</time>
      </trkpt>
      <trkpt lat="46.10819" lon="4.62045">
        <ele>422</ele>
        <time>2017-02-02T08:54:51Z</time>
      </trkpt>
      <trkpt lat="46.10819" lon="4.62047">
        <ele>422</ele>
        <time>2017-02-02T08:54:52Z</time>
      </trkpt>
      <trkpt lat="46.10823" lon="4.62057">
        <ele>421</ele>
        <time>2017-02-02T08:54:58Z</time>
      </trkpt>
      <trkpt lat="46.10824" lon="4.62058">
        <ele>420</ele>
        <time>2017-02-02T08:54:59Z</time>
      </trkpt>
      <trkpt lat="46.10827" lon="4.62066">
        <ele>418</ele>
        <time>2017-02-02T08:55:03Z</time>
      </trkpt>
      <trkpt lat="46.10827" lon="4.6207">
        <ele>417</ele>
        <time>2017-02-02T08:55:04Z</time>
      </trkpt>
      <trkpt lat="46.10827" lon="4.62082">
        <ele>413</ele>
        <time>2017-02-02T08:55:09Z</time>
      </trkpt>
      <trkpt lat="46.10826" lon="4.62084">
        <ele>413</ele>
        <time>2017-02-02T08:55:10Z</time>
      </trkpt>
      <trkpt lat="46.10827" lon="4.62095">
        <ele>416</ele>
        <time>2017-02-02T08:55:17Z</time>
      </trkpt>
      <trkpt lat="46.10826" lon="4.62098">
        <ele>417</ele>
        <time>2017-02-02T08:55:18Z</time>
      </trkpt>
      <trkpt lat="46.10827" lon="4.6211">
        <ele>419</ele>
        <time>2017-02-02T08:55:24Z</time>
      </trkpt>
      <trkpt lat="46.10827" lon="4.62112">
        <ele>419</ele>
        <time>2017-02-02T08:55:25Z</time>
      </trkpt>
      <trkpt lat="46.10828" lon="4.62124">
        <ele>420</ele>
        <time>2017-02-02T08:55:31Z</time>
      </trkpt>
      <trkpt lat="46.10828" lon="4.62126">
        <ele>420</ele>
        <time>2017-02-02T08:55:32Z</time>
      </trkpt>
      <trkpt lat="46.10829" lon="4.62137">
        <ele>420</ele>
        <time>2017-02-02T08:55:39Z</time>
      </trkpt>
      <trkpt lat="46.10829" lon="4.62139">
        <ele>420</ele>
        <time>2017-02-02T08:55:40Z</time>
      </trkpt>
      <trkpt lat="46.10831" lon="4.62152">
        <ele>418</ele>
        <time>2017-02-02T08:55:47Z</time>
      </trkpt>
      <trkpt lat="46.10831" lon="4.62153">
        <ele>418</ele>
        <time>2017-02-02T08:55:48Z</time>
      </trkpt>
      <trkpt lat="46.10835" lon="4.62165">
        <ele>412</ele>
        <time>2017-02-02T08:55:56Z</time>
      </trkpt>
      <trkpt lat="46.10835" lon="4.62167">
        <ele>412</ele>
        <time>2017-02-02T08:55:57Z</time>
      </trkpt>
      <trkpt lat="46.10838" lon="4.62177">
        <ele>410</ele>
        <time>2017-02-02T08:56:03Z</time>
      </trkpt>
      <trkpt lat="46.10838" lon="4.62179">
        <ele>410</ele>
        <time>2017-02-02T08:56:04Z</time>
      </trkpt>
      <trkpt lat="46.10842" lon="4.62191">
        <ele>409</ele>
        <time>2017-02-02T08:56:11Z</time>
      </trkpt>
      <trkpt lat="46.10842" lon="4.62192">
        <ele>408</ele>
        <time>2017-02-02T08:56:12Z</time>
      </trkpt>
      <trkpt lat="46.10846" lon="4.62203">
        <ele>408</ele>
        <time>2017-02-02T08:56:19Z</time>
      </trkpt>
      <trkpt lat="46.10847" lon="4.62205">
        <ele>408</ele>
        <time>2017-02-02T08:56:20Z</time>
      </trkpt>
      <trkpt lat="46.1085" lon="4.62216">
        <ele>409</ele>
        <time>2017-02-02T08:56:27Z</time>
      </trkpt>
      <trkpt lat="46.10851" lon="4.62217">
        <ele>409</ele>
        <time>2017-02-02T08:56:28Z</time>
      </trkpt>
      <trkpt lat="46.10855" lon="4.62227">
        <ele>409</ele>
        <time>2017-02-02T08:56:35Z</time>
      </trkpt>
      <trkpt lat="46.10856" lon="4.62228">
        <ele>409</ele>
        <time>2017-02-02T08:56:36Z</time>
      </trkpt>
      <trkpt lat="46.1086" lon="4.62237">
        <ele>409</ele>
        <time>2017-02-02T08:56:42Z</time>
      </trkpt>
      <trkpt lat="46.10861" lon="4.62238">
        <ele>409</ele>
        <time>2017-02-02T08:56:43Z</time>
      </trkpt>
      <trkpt lat="46.10866" lon="4.62248">
        <ele>409</ele>
        <time>2017-02-02T08:56:49Z</time>
      </trkpt>
      <trkpt lat="46.10867" lon="4.62249">
        <ele>409</ele>
        <time>2017-02-02T08:56:50Z</time>
      </trkpt>
      <trkpt lat="46.10871" lon="4.62258">
        <ele>414</ele>
        <time>2017-02-02T08:56:56Z</time>
      </trkpt>
      <trkpt lat="46.10872" lon="4.6226">
        <ele>414</ele>
        <time>2017-02-02T08:56:57Z</time>
      </trkpt>
      <trkpt lat="46.10876" lon="4.6227">
        <ele>414</ele>
        <time>2017-02-02T08:57:04Z</time>
      </trkpt>
      <trkpt lat="46.10877" lon="4.62272">
        <ele>413</ele>
        <time>2017-02-02T08:57:05Z</time>
      </trkpt>
      <trkpt lat="46.10882" lon="4.6228">
        <ele>413</ele>
        <time>2017-02-02T08:57:11Z</time>
      </trkpt>
      <trkpt lat="46.10883" lon="4.62282">
        <ele>413</ele>
        <time>2017-02-02T08:57:12Z</time>
      </trkpt>
      <trkpt lat="46.10888" lon="4.6229">
        <ele>413</ele>
        <time>2017-02-02T08:57:18Z</time>
      </trkpt>
      <trkpt lat="46.10889" lon="4.62291">
        <ele>413</ele>
        <time>2017-02-02T08:57:19Z</time>
      </trkpt>
      <trkpt lat="46.10895" lon="4.62299">
        <ele>413</ele>
        <time>2017-02-02T08:57:25Z</time>
      </trkpt>
      <trkpt lat="46.10895" lon="4.62301">
        <ele>413</ele>
        <time>2017-02-02T08:57:26Z</time>
      </trkpt>
      <trkpt lat="46.109" lon="4.6231">
        <ele>413</ele>
        <time>2017-02-02T08:57:32Z</time>
      </trkpt>
      <trkpt lat="46.10901" lon="4.62311">
        <ele>413</ele>
        <time>2017-02-02T08:57:33Z</time>
      </trkpt>
      <trkpt lat="46.10906" lon="4.6232">
        <ele>413</ele>
        <time>2017-02-02T08:57:39Z</time>
      </trkpt>
      <trkpt lat="46.10906" lon="4.62321">
        <ele>413</ele>
        <time>2017-02-02T08:57:40Z</time>
      </trkpt>
      <trkpt lat="46.1091" lon="4.62331">
        <ele>412</ele>
        <time>2017-02-02T08:57:46Z</time>
      </trkpt>
      <trkpt lat="46.10911" lon="4.62332">
        <ele>412</ele>
        <time>2017-02-02T08:57:47Z</time>
      </trkpt>
      <trkpt lat="46.10915" lon="4.62343">
        <ele>414</ele>
        <time>2017-02-02T08:57:53Z</time>
      </trkpt>
      <trkpt lat="46.10916" lon="4.62344">
        <ele>414</ele>
        <time>2017-02-02T08:57:54Z</time>
      </trkpt>
      <trkpt lat="46.1092" lon="4.62355">
        <ele>407</ele>
        <time>2017-02-02T08:58:01Z</time>
      </trkpt>
      <trkpt lat="46.1092" lon="4.62356">
        <ele>407</ele>
        <time>2017-02-02T08:58:02Z</time>
      </trkpt>
      <trkpt lat="46.10925" lon="4.62366">
        <ele>406</ele>
        <time>2017-02-02T08:58:25Z</time>
      </trkpt>
      <trkpt lat="46.10926" lon="4.62367">
        <ele>406</ele>
        <time>2017-02-02T08:58:26Z</time>
      </trkpt>
      <trkpt lat="46.10929" lon="4.62378">
        <ele>406</ele>
        <time>2017-02-02T08:58:33Z</time>
      </trkpt>
      <trkpt lat="46.1093" lon="4.62379">
        <ele>406</ele>
        <time>2017-02-02T08:58:34Z</time>
      </trkpt>
      <trkpt lat="46.10933" lon="4.6239">
        <ele>407</ele>
        <time>2017-02-02T08:58:41Z</time>
      </trkpt>
      <trkpt lat="46.10933" lon="4.62392">
        <ele>407</ele>
        <time>2017-02-02T08:58:42Z</time>
      </trkpt>
      <trkpt lat="46.10937" lon="4.62403">
        <ele>408</ele>
        <time>2017-02-02T08:58:49Z</time>
      </trkpt>
      <trkpt lat="46.10938" lon="4.62405">
        <ele>408</ele>
        <time>2017-02-02T08:58:50Z</time>
      </trkpt>
      <trkpt lat="46.1094" lon="4.62416">
        <ele>408</ele>
        <time>2017-02-02T08:58:56Z</time>
      </trkpt>
      <trkpt lat="46.10941" lon="4.62418">
        <ele>408</ele>
        <time>2017-02-02T08:58:57Z</time>
      </trkpt>
      <trkpt lat="46.10941" lon="4.6243">
        <ele>408</ele>
        <time>2017-02-02T08:59:03Z</time>
      </trkpt>
      <trkpt lat="46.10941" lon="4.62432">
        <ele>408</ele>
        <time>2017-02-02T08:59:04Z</time>
      </trkpt>
      <trkpt lat="46.10937" lon="4.62442">
        <ele>407</ele>
        <time>2017-02-02T08:59:11Z</time>
      </trkpt>
      <trkpt lat="46.10937" lon="4.62444">
        <ele>407</ele>
        <time>2017-02-02T08:59:12Z</time>
      </trkpt>
      <trkpt lat="46.10934" lon="4.62454">
        <ele>407</ele>
        <time>2017-02-02T08:59:18Z</time>
      </trkpt>
      <trkpt lat="46.10933" lon="4.62455">
        <ele>407</ele>
        <time>2017-02-02T08:59:19Z</time>
      </trkpt>
      <trkpt lat="46.1093" lon="4.62466">
        <ele>407</ele>
        <time>2017-02-02T08:59:25Z</time>
      </trkpt>
      <trkpt lat="46.10929" lon="4.62467">
        <ele>407</ele>
        <time>2017-02-02T08:59:26Z</time>
      </trkpt>
      <trkpt lat="46.10926" lon="4.62478">
        <ele>408</ele>
        <time>2017-02-02T08:59:32Z</time>
      </trkpt>
      <trkpt lat="46.10925" lon="4.62479">
        <ele>408</ele>
        <time>2017-02-02T08:59:33Z</time>
      </trkpt>
      <trkpt lat="46.10925" lon="4.62491">
        <ele>410</ele>
        <time>2017-02-02T08:59:39Z</time>
      </trkpt>
      <trkpt lat="46.10925" lon="4.62493">
        <ele>410</ele>
        <time>2017-02-02T08:59:40Z</time>
      </trkpt>
      <trkpt lat="46.10927" lon="4.62504">
        <ele>409</ele>
        <time>2017-02-02T08:59:46Z</time>
      </trkpt>
      <trkpt lat="46.10928" lon="4.62505">
        <ele>408</ele>
        <time>2017-02-02T08:59:47Z</time>
      </trkpt>
      <trkpt lat="46.10931" lon="4.62516">
        <ele>406</ele>
        <time>2017-02-02T08:59:54Z</time>
      </trkpt>
      <trkpt lat="46.10932" lon="4.62517">
        <ele>405</ele>
        <time>2017-02-02T08:59:55Z</time>
      </trkpt>
      <trkpt lat="46.10936" lon="4.62527">
        <ele>403</ele>
        <time>2017-02-02T09:00:02Z</time>
      </trkpt>
      <trkpt lat="46.10937" lon="4.62529">
        <ele>403</ele>
        <time>2017-02-02T09:00:03Z</time>
      </trkpt>
      <trkpt lat="46.10939" lon="4.6254">
        <ele>402</ele>
        <time>2017-02-02T09:00:10Z</time>
      </trkpt>
      <trkpt lat="46.10939" lon="4.62542">
        <ele>402</ele>
        <time>2017-02-02T09:00:11Z</time>
      </trkpt>
      <trkpt lat="46.10937" lon="4.62554">
        <ele>402</ele>
        <time>2017-02-02T09:00:18Z</time>
      </trkpt>
      <trkpt lat="46.10937" lon="4.62556">
        <ele>402</ele>
        <time>2017-02-02T09:00:19Z</time>
      </trkpt>
      <trkpt lat="46.10936" lon="4.62568">
        <ele>402</ele>
        <time>2017-02-02T09:00:26Z</time>
      </trkpt>
      <trkpt lat="46.10935" lon="4.62569">
        <ele>402</ele>
        <time>2017-02-02T09:00:27Z</time>
      </trkpt>
      <trkpt lat="46.10934" lon="4.62581">
        <ele>403</ele>
        <time>2017-02-02T09:00:34Z</time>
      </trkpt>
      <trkpt lat="46.10934" lon="4.62582">
        <ele>403</ele>
        <time>2017-02-02T09:00:35Z</time>
      </trkpt>
      <trkpt lat="46.10932" lon="4.62594">
        <ele>400</ele>
        <time>2017-02-02T09:00:43Z</time>
      </trkpt>
      <trkpt lat="46.10931" lon="4.62596">
        <ele>400</ele>
        <time>2017-02-02T09:00:44Z</time>
      </trkpt>
      <trkpt lat="46.10929" lon="4.62607">
        <ele>399</ele>
        <time>2017-02-02T09:00:49Z</time>
      </trkpt>
      <trkpt lat="46.10928" lon="4.62609">
        <ele>398</ele>
        <time>2017-02-02T09:00:50Z</time>
      </trkpt>
      <trkpt lat="46.10924" lon="4.6262">
        <ele>398</ele>
        <time>2017-02-02T09:00:56Z</time>
      </trkpt>
      <trkpt lat="46.10924" lon="4.62622">
        <ele>397</ele>
        <time>2017-02-02T09:00:57Z</time>
      </trkpt>
      <trkpt lat="46.10921" lon="4.62633">
        <ele>397</ele>
        <time>2017-02-02T09:01:03Z</time>
      </trkpt>
      <trkpt lat="46.1092" lon="4.62635">
        <ele>397</ele>
        <time>2017-02-02T09:01:04Z</time>
      </trkpt>
      <trkpt lat="46.10919" lon="4.62646">
        <ele>397</ele>
        <time>2017-02-02T09:01:10Z</time>
      </trkpt>
      <trkpt lat="46.10918" lon="4.62648">
        <ele>397</ele>
        <time>2017-02-02T09:01:11Z</time>
      </trkpt>
      <trkpt lat="46.10916" lon="4.6266">
        <ele>402</ele>
        <time>2017-02-02T09:01:18Z</time>
      </trkpt>
      <trkpt lat="46.10915" lon="4.62662">
        <ele>402</ele>
        <time>2017-02-02T09:01:19Z</time>
      </trkpt>
      <trkpt lat="46.10912" lon="4.62672">
        <ele>400</ele>
        <time>2017-02-02T09:01:25Z</time>
      </trkpt>
      <trkpt lat="46.10911" lon="4.62674">
        <ele>400</ele>
        <time>2017-02-02T09:01:26Z</time>
      </trkpt>
      <trkpt lat="46.10906" lon="4.62684">
        <ele>399</ele>
        <time>2017-02-02T09:01:33Z</time>
      </trkpt>
      <trkpt lat="46.10905" lon="4.62685">
        <ele>399</ele>
        <time>2017-02-02T09:01:34Z</time>
      </trkpt>
      <trkpt lat="46.10899" lon="4.62692">
        <ele>399</ele>
        <time>2017-02-02T09:01:40Z</time>
      </trkpt>
      <trkpt lat="46.10898" lon="4.62693">
        <ele>399</ele>
        <time>2017-02-02T09:01:41Z</time>
      </trkpt>
      <trkpt lat="46.10891" lon="4.627">
        <ele>399</ele>
        <time>2017-02-02T09:01:47Z</time>
      </trkpt>
      <trkpt lat="46.1089" lon="4.62701">
        <ele>398</ele>
        <time>2017-02-02T09:01:48Z</time>
      </trkpt>
      <trkpt lat="46.10883" lon="4.62708">
        <ele>398</ele>
        <time>2017-02-02T09:01:54Z</time>
      </trkpt>
      <trkpt lat="46.10882" lon="4.62709">
        <ele>398</ele>
        <time>2017-02-02T09:01:55Z</time>
      </trkpt>
      <trkpt lat="46.10873" lon="4.62711">
        <ele>399</ele>
        <time>2017-02-02T09:02:02Z</time>
      </trkpt>
      <trkpt lat="46.10872" lon="4.62712">
        <ele>399</ele>
        <time>2017-02-02T09:02:03Z</time>
      </trkpt>
      <trkpt lat="46.10864" lon="4.62712">
        <ele>399</ele>
        <time>2017-02-02T09:02:11Z</time>
      </trkpt>
      <trkpt lat="46.10863" lon="4.62711">
        <ele>399</ele>
        <time>2017-02-02T09:02:12Z</time>
      </trkpt>
      <trkpt lat="46.10854" lon="4.62707">
        <ele>400</ele>
        <time>2017-02-02T09:02:20Z</time>
      </trkpt>
      <trkpt lat="46.10853" lon="4.62706">
        <ele>400</ele>
        <time>2017-02-02T09:02:21Z</time>
      </trkpt>
      <trkpt lat="46.10845" lon="4.62701">
        <ele>401</ele>
        <time>2017-02-02T09:02:29Z</time>
      </trkpt>
      <trkpt lat="46.10844" lon="4.62701">
        <ele>401</ele>
        <time>2017-02-02T09:02:30Z</time>
      </trkpt>
      <trkpt lat="46.10837" lon="4.62697">
        <ele>403</ele>
        <time>2017-02-02T09:02:38Z</time>
      </trkpt>
      <trkpt lat="46.10836" lon="4.62696">
        <ele>403</ele>
        <time>2017-02-02T09:02:39Z</time>
      </trkpt>
      <trkpt lat="46.10829" lon="4.62689">
        <ele>408</ele>
        <time>2017-02-02T09:02:46Z</time>
      </trkpt>
      <trkpt lat="46.10828" lon="4.62688">
        <ele>408</ele>
        <time>2017-02-02T09:02:47Z</time>
      </trkpt>
      <trkpt lat="46.10821" lon="4.62681">
        <ele>409</ele>
        <time>2017-02-02T09:02:56Z</time>
      </trkpt>
      <trkpt lat="46.10821" lon="4.6268">
        <ele>409</ele>
        <time>2017-02-02T09:02:57Z</time>
      </trkpt>
      <trkpt lat="46.10814" lon="4.62672">
        <ele>409</ele>
        <time>2017-02-02T09:03:05Z</time>
      </trkpt>
      <trkpt lat="46.10813" lon="4.62672">
        <ele>409</ele>
        <time>2017-02-02T09:03:06Z</time>
      </trkpt>
      <trkpt lat="46.10806" lon="4.62677">
        <ele>409</ele>
        <time>2017-02-02T09:03:12Z</time>
      </trkpt>
      <trkpt lat="46.10805" lon="4.62677">
        <ele>409</ele>
        <time>2017-02-02T09:03:13Z</time>
      </trkpt>
      <trkpt lat="46.10796" lon="4.62679">
        <ele>409</ele>
        <time>2017-02-02T09:03:19Z</time>
      </trkpt>
      <trkpt lat="46.10795" lon="4.6268">
        <ele>409</ele>
        <time>2017-02-02T09:03:20Z</time>
      </trkpt>
      <trkpt lat="46.10786" lon="4.6268">
        <ele>409</ele>
        <time>2017-02-02T09:03:27Z</time>
      </trkpt>
      <trkpt lat="46.10785" lon="4.6268">
        <ele>409</ele>
        <time>2017-02-02T09:03:28Z</time>
      </trkpt>
      <trkpt lat="46.10776" lon="4.62681">
        <ele>410</ele>
        <time>2017-02-02T09:03:36Z</time>
      </trkpt>
      <trkpt lat="46.10775" lon="4.62681">
        <ele>410</ele>
        <time>2017-02-02T09:03:37Z</time>
      </trkpt>
      <trkpt lat="46.10767" lon="4.62677">
        <ele>411</ele>
        <time>2017-02-02T09:03:46Z</time>
      </trkpt>
      <trkpt lat="46.10766" lon="4.62676">
        <ele>411</ele>
        <time>2017-02-02T09:03:47Z</time>
      </trkpt>
      <trkpt lat="46.10757" lon="4.62673">
        <ele>413</ele>
        <time>2017-02-02T09:03:56Z</time>
      </trkpt>
      <trkpt lat="46.10757" lon="4.62672">
        <ele>413</ele>
        <time>2017-02-02T09:03:57Z</time>
      </trkpt>
      <trkpt lat="46.10749" lon="4.6267">
        <ele>415</ele>
        <time>2017-02-02T09:04:05Z</time>
      </trkpt>
      <trkpt lat="46.10748" lon="4.62669">
        <ele>415</ele>
        <time>2017-02-02T09:04:06Z</time>
      </trkpt>
      <trkpt lat="46.10739" lon="4.62666">
        <ele>418</ele>
        <time>2017-02-02T09:04:15Z</time>
      </trkpt>
      <trkpt lat="46.10738" lon="4.62667">
        <ele>418</ele>
        <time>2017-02-02T09:04:16Z</time>
      </trkpt>
      <trkpt lat="46.1073" lon="4.62665">
        <ele>419</ele>
        <time>2017-02-02T09:04:24Z</time>
      </trkpt>
      <trkpt lat="46.10729" lon="4.62665">
        <ele>419</ele>
        <time>2017-02-02T09:04:25Z</time>
      </trkpt>
      <trkpt lat="46.1072" lon="4.62663">
        <ele>420</ele>
        <time>2017-02-02T09:04:33Z</time>
      </trkpt>
      <trkpt lat="46.10719" lon="4.62662">
        <ele>420</ele>
        <time>2017-02-02T09:04:34Z</time>
      </trkpt>
      <trkpt lat="46.10711" lon="4.62656">
        <ele>420</ele>
        <time>2017-02-02T09:04:42Z</time>
      </trkpt>
      <trkpt lat="46.1071" lon="4.62656">
        <ele>420</ele>
        <time>2017-02-02T09:04:43Z</time>
      </trkpt>
      <trkpt lat="46.10703" lon="4.6265">
        <ele>421</ele>
        <time>2017-02-02T09:04:51Z</time>
      </trkpt>
      <trkpt lat="46.10702" lon="4.6265">
        <ele>421</ele>
        <time>2017-02-02T09:04:52Z</time>
      </trkpt>
      <trkpt lat="46.10694" lon="4.62647">
        <ele>421</ele>
        <time>2017-02-02T09:05:02Z</time>
      </trkpt>
      <trkpt lat="46.10693" lon="4.62646">
        <ele>421</ele>
        <time>2017-02-02T09:05:03Z</time>
      </trkpt>
      <trkpt lat="46.10685" lon="4.62641">
        <ele>421</ele>
        <time>2017-02-02T09:05:11Z</time>
      </trkpt>
      <trkpt lat="46.10684" lon="4.62641">
        <ele>421</ele>
        <time>2017-02-02T09:05:12Z</time>
      </trkpt>
      <trkpt lat="46.10676" lon="4.62634">
        <ele>422</ele>
        <time>2017-02-02T09:05:22Z</time>
      </trkpt>
      <trkpt lat="46.10676" lon="4.62634">
        <ele>422</ele>
        <time>2017-02-02T09:05:23Z</time>
      </trkpt>
      <trkpt lat="46.10673" lon="4.62622">
        <ele>423</ele>
        <time>2017-02-02T09:07:43Z</time>
      </trkpt>
      <trkpt lat="46.10673" lon="4.62621">
        <ele>423</ele>
        <time>2017-02-02T09:07:44Z</time>
      </trkpt>
      <trkpt lat="46.10665" lon="4.62617">
        <ele>427</ele>
        <time>2017-02-02T09:07:53Z</time>
      </trkpt>
      <trkpt lat="46.10664" lon="4.62616">
        <ele>427</ele>
        <time>2017-02-02T09:07:54Z</time>
      </trkpt>
      <trkpt lat="46.10656" lon="4.62612">
        <ele>428</ele>
        <time>2017-02-02T09:08:04Z</time>
      </trkpt>
      <trkpt lat="46.10655" lon="4.62611">
        <ele>428</ele>
        <time>2017-02-02T09:08:05Z</time>
      </trkpt>
      <trkpt lat="46.1065" lon="4.62601">
        <ele>429</ele>
        <time>2017-02-02T09:08:19Z</time>
      </trkpt>
      <trkpt lat="46.10649" lon="4.626">
        <ele>429</ele>
        <time>2017-02-02T09:08:20Z</time>
      </trkpt>
      <trkpt lat="46.10643" lon="4.62592">
        <ele>430</ele>
        <time>2017-02-02T09:09:01Z</time>
      </trkpt>
      <trkpt lat="46.10643" lon="4.62591">
        <ele>430</ele>
        <time>2017-02-02T09:09:02Z</time>
      </trkpt>
      <trkpt lat="46.10639" lon="4.6258">
        <ele>442</ele>
        <time>2017-02-02T09:09:57Z</time>
      </trkpt>
      <trkpt lat="46.10639" lon="4.62579">
        <ele>442</ele>
        <time>2017-02-02T09:09:58Z</time>
      </trkpt>
      <trkpt lat="46.10635" lon="4.62567">
        <ele>443</ele>
        <time>2017-02-02T09:10:10Z</time>
      </trkpt>
      <trkpt lat="46.10635" lon="4.62566">
        <ele>443</ele>
        <time>2017-02-02T09:10:11Z</time>
      </trkpt>
      <trkpt lat="46.1063" lon="4.62556">
        <ele>445</ele>
        <time>2017-02-02T09:10:28Z</time>
      </trkpt>
      <trkpt lat="46.1063" lon="4.62556">
        <ele>445</ele>
        <time>2017-02-02T09:10:29Z</time>
      </trkpt>
      <trkpt lat="46.10625" lon="4.62545">
        <ele>447</ele>
        <time>2017-02-02T09:10:48Z</time>
      </trkpt>
      <trkpt lat="46.10625" lon="4.62544">
        <ele>447</ele>
        <time>2017-02-02T09:10:49Z</time>
      </trkpt>
      <trkpt lat="46.10622" lon="4.62532">
        <ele>448</ele>
        <time>2017-02-02T09:11:10Z</time>
      </trkpt>
      <trkpt lat="46.10621" lon="4.62532">
        <ele>448</ele>
        <time>2017-02-02T09:11:11Z</time>
      </trkpt>
      <trkpt lat="46.10618" lon="4.6252">
        <ele>450</ele>
        <time>2017-02-02T09:11:40Z</time>
      </trkpt>
      <trkpt lat="46.10618" lon="4.6252">
        <ele>450</ele>
        <time>2017-02-02T09:11:41Z</time>
      </trkpt>
      <trkpt lat="46.10615" lon="4.62508">
        <ele>452</ele>
        <time>2017-02-02T09:11:59Z</time>
      </trkpt>
      <trkpt lat="46.10615" lon="4.62507">
        <ele>452</ele>
        <time>2017-02-02T09:12:00Z</time>
      </trkpt>
      <trkpt lat="46.10608" lon="4.62499">
        <ele>463</ele>
        <time>2017-02-02T09:12:20Z</time>
      </trkpt>
      <trkpt lat="46.10607" lon="4.62499">
        <ele>463</ele>
        <time>2017-02-02T09:12:21Z</time>
      </trkpt>
      <trkpt lat="46.10601" lon="4.62492">
        <ele>464</ele>
        <time>2017-02-02T09:12:41Z</time>
      </trkpt>
      <trkpt lat="46.106" lon="4.62491">
        <ele>464</ele>
        <time>2017-02-02T09:12:42Z</time>
      </trkpt>
      <trkpt lat="46.10592" lon="4.62485">
        <ele>465</ele>
        <time>2017-02-02T09:12:54Z</time>
      </trkpt>
      <trkpt lat="46.10591" lon="4.62485">
        <ele>465</ele>
        <time>2017-02-02T09:12:55Z</time>
      </trkpt>
      <trkpt lat="46.10583" lon="4.6248">
        <ele>465</ele>
        <time>2017-02-02T09:13:09Z</time>
      </trkpt>
      <trkpt lat="46.10583" lon="4.6248">
        <ele>472</ele>
        <time>2017-02-02T09:13:10Z</time>
      </trkpt>
      <trkpt lat="46.10575" lon="4.62474">
        <ele>473</ele>
        <time>2017-02-02T09:13:25Z</time>
      </trkpt>
      <trkpt lat="46.10575" lon="4.62474">
        <ele>473</ele>
        <time>2017-02-02T09:13:26Z</time>
      </trkpt>
      <trkpt lat="46.10571" lon="4.62462">
        <ele>475</ele>
        <time>2017-02-02T09:15:02Z</time>
      </trkpt>
      <trkpt lat="46.1057" lon="4.62461">
        <ele>475</ele>
        <time>2017-02-02T09:15:03Z</time>
      </trkpt>
      <trkpt lat="46.10571" lon="4.62449">
        <ele>477</ele>
        <time>2017-02-02T09:15:18Z</time>
      </trkpt>
      <trkpt lat="46.10571" lon="4.62448">
        <ele>477</ele>
        <time>2017-02-02T09:15:19Z</time>
      </trkpt>
      <trkpt lat="46.10572" lon="4.62436">
        <ele>479</ele>
        <time>2017-02-02T09:15:31Z</time>
      </trkpt>
      <trkpt lat="46.10572" lon="4.62435">
        <ele>479</ele>
        <time>2017-02-02T09:15:32Z</time>
      </trkpt>
      <trkpt lat="46.10571" lon="4.62422">
        <ele>480</ele>
        <time>2017-02-02T09:15:43Z</time>
      </trkpt>
      <trkpt lat="46.10571" lon="4.62421">
        <ele>480</ele>
        <time>2017-02-02T09:15:44Z</time>
      </trkpt>
      <trkpt lat="46.10569" lon="4.62409">
        <ele>487</ele>
        <time>2017-02-02T09:15:56Z</time>
      </trkpt>
      <trkpt lat="46.10569" lon="4.62408">
        <ele>487</ele>
        <time>2017-02-02T09:15:57Z</time>
      </trkpt>
      <trkpt lat="46.10566" lon="4.62396">
        <ele>489</ele>
        <time>2017-02-02T09:16:08Z</time>
      </trkpt>
      <trkpt lat="46.10566" lon="4.62395">
        <ele>489</ele>
        <time>2017-02-02T09:16:09Z</time>
      </trkpt>
      <trkpt lat="46.10564" lon="4.62383">
        <ele>490</ele>
        <time>2017-02-02T09:16:21Z</time>
      </trkpt>
      <trkpt lat="46.10563" lon="4.62382">
        <ele>490</ele>
        <time>2017-02-02T09:16:22Z</time>
      </trkpt>
      <trkpt lat="46.10563" lon="4.6237">
        <ele>491</ele>
        <time>2017-02-02T09:16:34Z</time>
      </trkpt>
      <trkpt lat="46.10563" lon="4.62369">
        <ele>491</ele>
        <time>2017-02-02T09:16:35Z</time>
      </trkpt>
      <trkpt lat="46.10562" lon="4.62356">
        <ele>492</ele>
        <time>2017-02-02T09:16:47Z</time>
      </trkpt>
      <trkpt lat="46.10561" lon="4.62355">
        <ele>492</ele>
        <time>2017-02-02T09:16:48Z</time>
      </trkpt>
      <trkpt lat="46.1056" lon="4.62344">
        <ele>492</ele>
        <time>2017-02-02T09:16:58Z</time>
      </trkpt>
      <trkpt lat="46.1056" lon="4.62342">
        <ele>492</ele>
        <time>2017-02-02T09:16:59Z</time>
      </trkpt>
      <trkpt lat="46.1056" lon="4.6233">
        <ele>494</ele>
        <time>2017-02-02T09:17:10Z</time>
      </trkpt>
      <trkpt lat="46.10559" lon="4.62328">
        <ele>494</ele>
        <time>2017-02-02T09:17:11Z</time>
      </trkpt>
      <trkpt lat="46.10558" lon="4.62316">
        <ele>494</ele>
        <time>2017-02-02T09:17:22Z</time>
      </trkpt>
      <trkpt lat="46.10557" lon="4.62315">
        <ele>494</ele>
        <time>2017-02-02T09:17:23Z</time>
      </trkpt>
      <trkpt lat="46.1055" lon="4.62308">
        <ele>495</ele>
        <time>2017-02-02T09:17:39Z</time>
      </trkpt>
      <trkpt lat="46.1055" lon="4.62307">
        <ele>495</ele>
        <time>2017-02-02T09:17:40Z</time>
      </trkpt>
      <trkpt lat="46.10544" lon="4.62299">
        <ele>496</ele>
        <time>2017-02-02T09:17:53Z</time>
      </trkpt>
      <trkpt lat="46.10543" lon="4.62299">
        <ele>496</ele>
        <time>2017-02-02T09:17:54Z</time>
      </trkpt>
      <trkpt lat="46.10534" lon="4.62296">
        <ele>497</ele>
        <time>2017-02-02T09:18:06Z</time>
      </trkpt>
      <trkpt lat="46.10533" lon="4.62296">
        <ele>497</ele>
        <time>2017-02-02T09:18:07Z</time>
      </trkpt>
      <trkpt lat="46.10525" lon="4.62292">
        <ele>497</ele>
        <time>2017-02-02T09:18:21Z</time>
      </trkpt>
      <trkpt lat="46.10525" lon="4.62292">
        <ele>497</ele>
        <time>2017-02-02T09:18:22Z</time>
      </trkpt>
      <trkpt lat="46.10516" lon="4.62294">
        <ele>498</ele>
        <time>2017-02-02T09:18:35Z</time>
      </trkpt>
      <trkpt lat="46.10515" lon="4.62294">
        <ele>498</ele>
        <time>2017-02-02T09:18:36Z</time>
      </trkpt>
      <trkpt lat="46.10508" lon="4.62299">
        <ele>499</ele>
        <time>2017-02-02T09:18:47Z</time>
      </trkpt>
      <trkpt lat="46.10507" lon="4.623">
        <ele>499</ele>
        <time>2017-02-02T09:18:48Z</time>
      </trkpt>
      <trkpt lat="46.10499" lon="4.62304">
        <ele>507</ele>
        <time>2017-02-02T09:18:58Z</time>
      </trkpt>
      <trkpt lat="46.10498" lon="4.62304">
        <ele>507</ele>
        <time>2017-02-02T09:18:59Z</time>
      </trkpt>
      <trkpt lat="46.1049" lon="4.62306">
        <ele>508</ele>
        <time>2017-02-02T09:19:08Z</time>
      </trkpt>
      <trkpt lat="46.10489" lon="4.62306">
        <ele>508</ele>
        <time>2017-02-02T09:19:09Z</time>
      </trkpt>
      <trkpt lat="46.1048" lon="4.62307">
        <ele>508</ele>
        <time>2017-02-02T09:19:17Z</time>
      </trkpt>
      <trkpt lat="46.10479" lon="4.62308">
        <ele>508</ele>
        <time>2017-02-02T09:19:18Z</time>
      </trkpt>
      <trkpt lat="46.1047" lon="4.62308">
        <ele>509</ele>
        <time>2017-02-02T09:19:28Z</time>
      </trkpt>
      <trkpt lat="46.10469" lon="4.62308">
        <ele>509</ele>
        <time>2017-02-02T09:19:29Z</time>
      </trkpt>
      <trkpt lat="46.10461" lon="4.62307">
        <ele>510</ele>
        <time>2017-02-02T09:19:39Z</time>
      </trkpt>
      <trkpt lat="46.1046" lon="4.62306">
        <ele>510</ele>
        <time>2017-02-02T09:19:40Z</time>
      </trkpt>
      <trkpt lat="46.10451" lon="4.62306">
        <ele>510</ele>
        <time>2017-02-02T09:19:49Z</time>
      </trkpt>
      <trkpt lat="46.1045" lon="4.62306">
        <ele>510</ele>
        <time>2017-02-02T09:19:50Z</time>
      </trkpt>
      <trkpt lat="46.10442" lon="4.62305">
        <ele>511</ele>
        <time>2017-02-02T09:19:59Z</time>
      </trkpt>
      <trkpt lat="46.10441" lon="4.62305">
        <ele>511</ele>
        <time>2017-02-02T09:20:00Z</time>
      </trkpt>
      <trkpt lat="46.10433" lon="4.62304">
        <ele>511</ele>
        <time>2017-02-02T09:20:09Z</time>
      </trkpt>
      <trkpt lat="46.10432" lon="4.62304">
        <ele>512</ele>
        <time>2017-02-02T09:20:10Z</time>
      </trkpt>
      <trkpt lat="46.10423" lon="4.62305">
        <ele>512</ele>
        <time>2017-02-02T09:21:44Z</time>
      </trkpt>
      <trkpt lat="46.10422" lon="4.62304">
        <ele>512</ele>
        <time>2017-02-02T09:21:45Z</time>
      </trkpt>
      <trkpt lat="46.10414" lon="4.62305">
        <ele>519</ele>
        <time>2017-02-02T09:21:54Z</time>
      </trkpt>
      <trkpt lat="46.10413" lon="4.62305">
        <ele>519</ele>
        <time>2017-02-02T09:21:55Z</time>
      </trkpt>
      <trkpt lat="46.10405" lon="4.62303">
        <ele>519</ele>
        <time>2017-02-02T09:22:03Z</time>
      </trkpt>
      <trkpt lat="46.10404" lon="4.62303">
        <ele>519</ele>
        <time>2017-02-02T09:22:04Z</time>
      </trkpt>
      <trkpt lat="46.10396" lon="4.62303">
        <ele>520</ele>
        <time>2017-02-02T09:22:12Z</time>
      </trkpt>
      <trkpt lat="46.10395" lon="4.62304">
        <ele>520</ele>
        <time>2017-02-02T09:22:13Z</time>
      </trkpt>
      <trkpt lat="46.10388" lon="4.62311">
        <ele>520</ele>
        <time>2017-02-02T09:22:23Z</time>
      </trkpt>
      <trkpt lat="46.10387" lon="4.62312">
        <ele>520</ele>
        <time>2017-02-02T09:22:24Z</time>
      </trkpt>
      <trkpt lat="46.10385" lon="4.62324">
        <ele>520</ele>
        <time>2017-02-02T09:22:35Z</time>
      </trkpt>
      <trkpt lat="46.10385" lon="4.62325">
        <ele>520</ele>
        <time>2017-02-02T09:22:36Z</time>
      </trkpt>
      <trkpt lat="46.10386" lon="4.62312">
        <ele>520</ele>
        <time>2017-02-02T09:30:45Z</time>
      </trkpt>
      <trkpt lat="46.10386" lon="4.6231">
        <ele>520</ele>
        <time>2017-02-02T09:30:46Z</time>
      </trkpt>
      <trkpt lat="46.10381" lon="4.62301">
        <ele>521</ele>
        <time>2017-02-02T09:30:54Z</time>
      </trkpt>
      <trkpt lat="46.1038" lon="4.62301">
        <ele>521</ele>
        <time>2017-02-02T09:30:55Z</time>
      </trkpt>
      <trkpt lat="46.10372" lon="4.62301">
        <ele>521</ele>
        <time>2017-02-02T09:31:02Z</time>
      </trkpt>
      <trkpt lat="46.10371" lon="4.62301">
        <ele>521</ele>
        <time>2017-02-02T09:31:03Z</time>
      </trkpt>
      <trkpt lat="46.10363" lon="4.62304">
        <ele>522</ele>
        <time>2017-02-02T09:31:11Z</time>
      </trkpt>
      <trkpt lat="46.10362" lon="4.62305">
        <ele>522</ele>
        <time>2017-02-02T09:31:12Z</time>
      </trkpt>
      <trkpt lat="46.10354" lon="4.62307">
        <ele>523</ele>
        <time>2017-02-02T09:31:19Z</time>
      </trkpt>
      <trkpt lat="46.10353" lon="4.62308">
        <ele>523</ele>
        <time>2017-02-02T09:31:20Z</time>
      </trkpt>
      <trkpt lat="46.10344" lon="4.6231">
        <ele>524</ele>
        <time>2017-02-02T09:31:28Z</time>
      </trkpt>
      <trkpt lat="46.10343" lon="4.6231">
        <ele>524</ele>
        <time>2017-02-02T09:31:29Z</time>
      </trkpt>
      <trkpt lat="46.10335" lon="4.62313">
        <ele>525</ele>
        <time>2017-02-02T09:31:37Z</time>
      </trkpt>
      <trkpt lat="46.10334" lon="4.62314">
        <ele>525</ele>
        <time>2017-02-02T09:31:38Z</time>
      </trkpt>
      <trkpt lat="46.10325" lon="4.62318">
        <ele>529</ele>
        <time>2017-02-02T09:31:46Z</time>
      </trkpt>
      <trkpt lat="46.10324" lon="4.62319">
        <ele>529</ele>
        <time>2017-02-02T09:31:47Z</time>
      </trkpt>
      <trkpt lat="46.10316" lon="4.62321">
        <ele>529</ele>
        <time>2017-02-02T09:31:55Z</time>
      </trkpt>
      <trkpt lat="46.10315" lon="4.62322">
        <ele>529</ele>
        <time>2017-02-02T09:31:56Z</time>
      </trkpt>
      <trkpt lat="46.10307" lon="4.62324">
        <ele>529</ele>
        <time>2017-02-02T09:32:03Z</time>
      </trkpt>
      <trkpt lat="46.10306" lon="4.62324">
        <ele>529</ele>
        <time>2017-02-02T09:32:04Z</time>
      </trkpt>
      <trkpt lat="46.10298" lon="4.62325">
        <ele>530</ele>
        <time>2017-02-02T09:32:11Z</time>
      </trkpt>
      <trkpt lat="46.10296" lon="4.62325">
        <ele>530</ele>
        <time>2017-02-02T09:32:12Z</time>
      </trkpt>
      <trkpt lat="46.10288" lon="4.62326">
        <ele>530</ele>
        <time>2017-02-02T09:32:19Z</time>
      </trkpt>
      <trkpt lat="46.10287" lon="4.62326">
        <ele>530</ele>
        <time>2017-02-02T09:32:20Z</time>
      </trkpt>
      <trkpt lat="46.10279" lon="4.62329">
        <ele>531</ele>
        <time>2017-02-02T09:32:28Z</time>
      </trkpt>
      <trkpt lat="46.10278" lon="4.62329">
        <ele>531</ele>
        <time>2017-02-02T09:32:29Z</time>
      </trkpt>
      <trkpt lat="46.1027" lon="4.62333">
        <ele>532</ele>
        <time>2017-02-02T09:32:37Z</time>
      </trkpt>
      <trkpt lat="46.10269" lon="4.62334">
        <ele>532</ele>
        <time>2017-02-02T09:32:38Z</time>
      </trkpt>
      <trkpt lat="46.1026" lon="4.62337">
        <ele>533</ele>
        <time>2017-02-02T09:32:45Z</time>
      </trkpt>
      <trkpt lat="46.10259" lon="4.62337">
        <ele>533</ele>
        <time>2017-02-02T09:32:46Z</time>
      </trkpt>
      <trkpt lat="46.10251" lon="4.62337">
        <ele>534</ele>
        <time>2017-02-02T09:32:53Z</time>
      </trkpt>
      <trkpt lat="46.1025" lon="4.62337">
        <ele>535</ele>
        <time>2017-02-02T09:32:54Z</time>
      </trkpt>
      <trkpt lat="46.10241" lon="4.6234">
        <ele>536</ele>
        <time>2017-02-02T09:33:03Z</time>
      </trkpt>
      <trkpt lat="46.10241" lon="4.62341">
        <ele>536</ele>
        <time>2017-02-02T09:33:04Z</time>
      </trkpt>
      <trkpt lat="46.10232" lon="4.62341">
        <ele>536</ele>
        <time>2017-02-02T09:33:13Z</time>
      </trkpt>
      <trkpt lat="46.10231" lon="4.62342">
        <ele>537</ele>
        <time>2017-02-02T09:33:14Z</time>
      </trkpt>
      <trkpt lat="46.10223" lon="4.62346">
        <ele>537</ele>
        <time>2017-02-02T09:33:21Z</time>
      </trkpt>
      <trkpt lat="46.10222" lon="4.62347">
        <ele>537</ele>
        <time>2017-02-02T09:33:22Z</time>
      </trkpt>
      <trkpt lat="46.10214" lon="4.6235">
        <ele>538</ele>
        <time>2017-02-02T09:33:30Z</time>
      </trkpt>
      <trkpt lat="46.10213" lon="4.62351">
        <ele>538</ele>
        <time>2017-02-02T09:33:31Z</time>
      </trkpt>
      <trkpt lat="46.10204" lon="4.62351">
        <ele>538</ele>
        <time>2017-02-02T09:33:40Z</time>
      </trkpt>
      <trkpt lat="46.10203" lon="4.62351">
        <ele>539</ele>
        <time>2017-02-02T09:33:41Z</time>
      </trkpt>
      <trkpt lat="46.10195" lon="4.62351">
        <ele>539</ele>
        <time>2017-02-02T09:33:49Z</time>
      </trkpt>
      <trkpt lat="46.10194" lon="4.62351">
        <ele>539</ele>
        <time>2017-02-02T09:33:50Z</time>
      </trkpt>
      <trkpt lat="46.10185" lon="4.62349">
        <ele>541</ele>
        <time>2017-02-02T09:33:58Z</time>
      </trkpt>
      <trkpt lat="46.10184" lon="4.62349">
        <ele>541</ele>
        <time>2017-02-02T09:33:59Z</time>
      </trkpt>
      <trkpt lat="46.10175" lon="4.62347">
        <ele>542</ele>
        <time>2017-02-02T09:34:07Z</time>
      </trkpt>
      <trkpt lat="46.10174" lon="4.62347">
        <ele>542</ele>
        <time>2017-02-02T09:34:08Z</time>
      </trkpt>
      <trkpt lat="46.10165" lon="4.62347">
        <ele>548</ele>
        <time>2017-02-02T09:34:17Z</time>
      </trkpt>
      <trkpt lat="46.10164" lon="4.62347">
        <ele>548</ele>
        <time>2017-02-02T09:34:18Z</time>
      </trkpt>
      <trkpt lat="46.10155" lon="4.6235">
        <ele>548</ele>
        <time>2017-02-02T09:34:28Z</time>
      </trkpt>
      <trkpt lat="46.10155" lon="4.6235">
        <ele>549</ele>
        <time>2017-02-02T09:34:29Z</time>
      </trkpt>
      <trkpt lat="46.10146" lon="4.62351">
        <ele>549</ele>
        <time>2017-02-02T09:34:40Z</time>
      </trkpt>
      <trkpt lat="46.10145" lon="4.62351">
        <ele>549</ele>
        <time>2017-02-02T09:34:41Z</time>
      </trkpt>
      <trkpt lat="46.10137" lon="4.6235">
        <ele>550</ele>
        <time>2017-02-02T09:34:53Z</time>
      </trkpt>
      <trkpt lat="46.10136" lon="4.6235">
        <ele>550</ele>
        <time>2017-02-02T09:34:54Z</time>
      </trkpt>
      <trkpt lat="46.10127" lon="4.6235">
        <ele>552</ele>
        <time>2017-02-02T09:35:06Z</time>
      </trkpt>
      <trkpt lat="46.10126" lon="4.6235">
        <ele>552</ele>
        <time>2017-02-02T09:35:07Z</time>
      </trkpt>
      <trkpt lat="46.10118" lon="4.62349">
        <ele>553</ele>
        <time>2017-02-02T09:35:20Z</time>
      </trkpt>
      <trkpt lat="46.10117" lon="4.62349">
        <ele>553</ele>
        <time>2017-02-02T09:35:21Z</time>
      </trkpt>
      <trkpt lat="46.10109" lon="4.62346">
        <ele>555</ele>
        <time>2017-02-02T09:35:32Z</time>
      </trkpt>
      <trkpt lat="46.10108" lon="4.62345">
        <ele>555</ele>
        <time>2017-02-02T09:35:33Z</time>
      </trkpt>
      <trkpt lat="46.10101" lon="4.62339">
        <ele>557</ele>
        <time>2017-02-02T09:35:46Z</time>
      </trkpt>
      <trkpt lat="46.101" lon="4.62339">
        <ele>558</ele>
        <time>2017-02-02T09:35:47Z</time>
      </trkpt>
      <trkpt lat="46.10092" lon="4.62334">
        <ele>561</ele>
        <time>2017-02-02T09:35:59Z</time>
      </trkpt>
      <trkpt lat="46.10091" lon="4.62334">
        <ele>561</ele>
        <time>2017-02-02T09:36:00Z</time>
      </trkpt>
      <trkpt lat="46.10084" lon="4.62329">
        <ele>563</ele>
        <time>2017-02-02T09:36:12Z</time>
      </trkpt>
      <trkpt lat="46.10083" lon="4.62328">
        <ele>566</ele>
        <time>2017-02-02T09:36:13Z</time>
      </trkpt>
      <trkpt lat="46.10074" lon="4.62327">
        <ele>566</ele>
        <time>2017-02-02T09:36:25Z</time>
      </trkpt>
      <trkpt lat="46.10073" lon="4.62326">
        <ele>566</ele>
        <time>2017-02-02T09:36:26Z</time>
      </trkpt>
      <trkpt lat="46.10065" lon="4.62325">
        <ele>567</ele>
        <time>2017-02-02T09:36:36Z</time>
      </trkpt>
      <trkpt lat="46.10064" lon="4.62325">
        <ele>567</ele>
        <time>2017-02-02T09:36:37Z</time>
      </trkpt>
      <trkpt lat="46.10056" lon="4.62319">
        <ele>568</ele>
        <time>2017-02-02T09:36:46Z</time>
      </trkpt>
      <trkpt lat="46.10056" lon="4.62318">
        <ele>568</ele>
        <time>2017-02-02T09:36:47Z</time>
      </trkpt>
      <trkpt lat="46.1005" lon="4.62309">
        <ele>568</ele>
        <time>2017-02-02T09:36:56Z</time>
      </trkpt>
      <trkpt lat="46.10049" lon="4.62308">
        <ele>568</ele>
        <time>2017-02-02T09:36:57Z</time>
      </trkpt>
      <trkpt lat="46.10045" lon="4.62297">
        <ele>569</ele>
        <time>2017-02-02T09:37:06Z</time>
      </trkpt>
      <trkpt lat="46.10044" lon="4.62296">
        <ele>569</ele>
        <time>2017-02-02T09:37:07Z</time>
      </trkpt>
      <trkpt lat="46.10038" lon="4.62286">
        <ele>569</ele>
        <time>2017-02-02T09:37:16Z</time>
      </trkpt>
      <trkpt lat="46.10038" lon="4.62285">
        <ele>569</ele>
        <time>2017-02-02T09:37:17Z</time>
      </trkpt>
      <trkpt lat="46.10031" lon="4.62277">
        <ele>570</ele>
        <time>2017-02-02T09:37:26Z</time>
      </trkpt>
      <trkpt lat="46.10031" lon="4.62276">
        <ele>570</ele>
        <time>2017-02-02T09:37:27Z</time>
      </trkpt>
      <trkpt lat="46.10025" lon="4.62268">
        <ele>571</ele>
        <time>2017-02-02T09:37:35Z</time>
      </trkpt>
      <trkpt lat="46.10024" lon="4.62267">
        <ele>571</ele>
        <time>2017-02-02T09:37:36Z</time>
      </trkpt>
      <trkpt lat="46.10018" lon="4.62258">
        <ele>572</ele>
        <time>2017-02-02T09:37:45Z</time>
      </trkpt>
      <trkpt lat="46.10018" lon="4.62257">
        <ele>572</ele>
        <time>2017-02-02T09:37:46Z</time>
      </trkpt>
      <trkpt lat="46.10012" lon="4.62246">
        <ele>574</ele>
        <time>2017-02-02T09:37:56Z</time>
      </trkpt>
      <trkpt lat="46.10012" lon="4.62245">
        <ele>574</ele>
        <time>2017-02-02T09:37:57Z</time>
      </trkpt>
      <trkpt lat="46.10007" lon="4.62235">
        <ele>573</ele>
        <time>2017-02-02T09:38:05Z</time>
      </trkpt>
      <trkpt lat="46.10007" lon="4.62233">
        <ele>573</ele>
        <time>2017-02-02T09:38:06Z</time>
      </trkpt>
      <trkpt lat="46.10003" lon="4.62222">
        <ele>573</ele>
        <time>2017-02-02T09:38:14Z</time>
      </trkpt>
      <trkpt lat="46.10002" lon="4.62221">
        <ele>573</ele>
        <time>2017-02-02T09:38:15Z</time>
      </trkpt>
      <trkpt lat="46.09998" lon="4.6221">
        <ele>577</ele>
        <time>2017-02-02T09:38:23Z</time>
      </trkpt>
      <trkpt lat="46.09997" lon="4.62209">
        <ele>577</ele>
        <time>2017-02-02T09:38:24Z</time>
      </trkpt>
      <trkpt lat="46.09994" lon="4.62198">
        <ele>577</ele>
        <time>2017-02-02T09:38:33Z</time>
      </trkpt>
      <trkpt lat="46.09993" lon="4.62197">
        <ele>577</ele>
        <time>2017-02-02T09:38:34Z</time>
      </trkpt>
      <trkpt lat="46.0999" lon="4.62185">
        <ele>578</ele>
        <time>2017-02-02T09:38:44Z</time>
      </trkpt>
      <trkpt lat="46.09989" lon="4.62184">
        <ele>578</ele>
        <time>2017-02-02T09:38:45Z</time>
      </trkpt>
      <trkpt lat="46.09985" lon="4.62173">
        <ele>578</ele>
        <time>2017-02-02T09:38:55Z</time>
      </trkpt>
      <trkpt lat="46.09985" lon="4.62172">
        <ele>578</ele>
        <time>2017-02-02T09:38:56Z</time>
      </trkpt>
      <trkpt lat="46.0998" lon="4.62162">
        <ele>580</ele>
        <time>2017-02-02T09:39:06Z</time>
      </trkpt>
      <trkpt lat="46.09979" lon="4.62162">
        <ele>580</ele>
        <time>2017-02-02T09:39:07Z</time>
      </trkpt>
      <trkpt lat="46.09972" lon="4.62155">
        <ele>580</ele>
        <time>2017-02-02T09:39:15Z</time>
      </trkpt>
      <trkpt lat="46.09972" lon="4.62154">
        <ele>580</ele>
        <time>2017-02-02T09:39:16Z</time>
      </trkpt>
      <trkpt lat="46.09965" lon="4.62146">
        <ele>581</ele>
        <time>2017-02-02T09:39:24Z</time>
      </trkpt>
      <trkpt lat="46.09964" lon="4.62145">
        <ele>581</ele>
        <time>2017-02-02T09:39:25Z</time>
      </trkpt>
      <trkpt lat="46.09957" lon="4.62138">
        <ele>581</ele>
        <time>2017-02-02T09:39:33Z</time>
      </trkpt>
      <trkpt lat="46.09957" lon="4.62137">
        <ele>581</ele>
        <time>2017-02-02T09:39:34Z</time>
      </trkpt>
      <trkpt lat="46.0995" lon="4.62129">
        <ele>581</ele>
        <time>2017-02-02T09:39:43Z</time>
      </trkpt>
      <trkpt lat="46.09949" lon="4.62128">
        <ele>581</ele>
        <time>2017-02-02T09:39:44Z</time>
      </trkpt>
      <trkpt lat="46.09942" lon="4.62122">
        <ele>581</ele>
        <time>2017-02-02T09:39:52Z</time>
      </trkpt>
      <trkpt lat="46.09941" lon="4.62121">
        <ele>581</ele>
        <time>2017-02-02T09:39:53Z</time>
      </trkpt>
      <trkpt lat="46.09934" lon="4.62114">
        <ele>582</ele>
        <time>2017-02-02T09:40:00Z</time>
      </trkpt>
      <trkpt lat="46.09934" lon="4.62113">
        <ele>582</ele>
        <time>2017-02-02T09:40:01Z</time>
      </trkpt>
      <trkpt lat="46.09927" lon="4.62104">
        <ele>583</ele>
        <time>2017-02-02T09:40:09Z</time>
      </trkpt>
      <trkpt lat="46.09927" lon="4.62103">
        <ele>583</ele>
        <time>2017-02-02T09:40:10Z</time>
      </trkpt>
      <trkpt lat="46.0992" lon="4.62094">
        <ele>584</ele>
        <time>2017-02-02T09:40:18Z</time>
      </trkpt>
      <trkpt lat="46.09919" lon="4.62094">
        <ele>584</ele>
        <time>2017-02-02T09:40:19Z</time>
      </trkpt>
      <trkpt lat="46.09911" lon="4.62088">
        <ele>584</ele>
        <time>2017-02-02T09:40:27Z</time>
      </trkpt>
      <trkpt lat="46.0991" lon="4.62087">
        <ele>584</ele>
        <time>2017-02-02T09:40:28Z</time>
      </trkpt>
      <trkpt lat="46.09902" lon="4.62083">
        <ele>585</ele>
        <time>2017-02-02T09:40:36Z</time>
      </trkpt>
      <trkpt lat="46.09901" lon="4.62083">
        <ele>585</ele>
        <time>2017-02-02T09:40:37Z</time>
      </trkpt>
      <trkpt lat="46.09892" lon="4.6208">
        <ele>584</ele>
        <time>2017-02-02T09:40:44Z</time>
      </trkpt>
      <trkpt lat="46.09891" lon="4.6208">
        <ele>584</ele>
        <time>2017-02-02T09:40:45Z</time>
      </trkpt>
      <trkpt lat="46.09883" lon="4.62076">
        <ele>584</ele>
        <time>2017-02-02T09:40:53Z</time>
      </trkpt>
      <trkpt lat="46.09882" lon="4.62075">
        <ele>584</ele>
        <time>2017-02-02T09:40:54Z</time>
      </trkpt>
      <trkpt lat="46.09873" lon="4.62072">
        <ele>583</ele>
        <time>2017-02-02T09:41:01Z</time>
      </trkpt>
      <trkpt lat="46.09872" lon="4.62072">
        <ele>583</ele>
        <time>2017-02-02T09:41:02Z</time>
      </trkpt>
      <trkpt lat="46.09864" lon="4.62068">
        <ele>583</ele>
        <time>2017-02-02T09:41:09Z</time>
      </trkpt>
      <trkpt lat="46.09863" lon="4.62068">
        <ele>583</ele>
        <time>2017-02-02T09:41:10Z</time>
      </trkpt>
      <trkpt lat="46.09854" lon="4.62067">
        <ele>582</ele>
        <time>2017-02-02T09:41:17Z</time>
      </trkpt>
      <trkpt lat="46.09853" lon="4.62067">
        <ele>582</ele>
        <time>2017-02-02T09:41:18Z</time>
      </trkpt>
      <trkpt lat="46.09844" lon="4.62065">
        <ele>582</ele>
        <time>2017-02-02T09:41:25Z</time>
      </trkpt>
      <trkpt lat="46.09843" lon="4.62065">
        <ele>582</ele>
        <time>2017-02-02T09:41:26Z</time>
      </trkpt>
      <trkpt lat="46.09834" lon="4.62062">
        <ele>581</ele>
        <time>2017-02-02T09:41:33Z</time>
      </trkpt>
      <trkpt lat="46.09833" lon="4.62062">
        <ele>580</ele>
        <time>2017-02-02T09:41:34Z</time>
      </trkpt>
      <trkpt lat="46.09825" lon="4.62059">
        <ele>580</ele>
        <time>2017-02-02T09:41:41Z</time>
      </trkpt>
      <trkpt lat="46.09824" lon="4.62058">
        <ele>580</ele>
        <time>2017-02-02T09:41:42Z</time>
      </trkpt>
      <trkpt lat="46.09816" lon="4.62054">
        <ele>580</ele>
        <time>2017-02-02T09:41:49Z</time>
      </trkpt>
      <trkpt lat="46.09815" lon="4.62053">
        <ele>580</ele>
        <time>2017-02-02T09:41:50Z</time>
      </trkpt>
      <trkpt lat="46.09807" lon="4.62049">
        <ele>580</ele>
        <time>2017-02-02T09:41:57Z</time>
      </trkpt>
      <trkpt lat="46.09806" lon="4.62048">
        <ele>580</ele>
        <time>2017-02-02T09:41:58Z</time>
      </trkpt>
      <trkpt lat="46.09798" lon="4.62042">
        <ele>580</ele>
        <time>2017-02-02T09:42:05Z</time>
      </trkpt>
      <trkpt lat="46.09797" lon="4.62041">
        <ele>580</ele>
        <time>2017-02-02T09:42:06Z</time>
      </trkpt>
      <trkpt lat="46.0979" lon="4.62035">
        <ele>580</ele>
        <time>2017-02-02T09:42:13Z</time>
      </trkpt>
      <trkpt lat="46.09789" lon="4.62034">
        <ele>580</ele>
        <time>2017-02-02T09:42:14Z</time>
      </trkpt>
      <trkpt lat="46.09781" lon="4.62028">
        <ele>580</ele>
        <time>2017-02-02T09:42:22Z</time>
      </trkpt>
      <trkpt lat="46.0978" lon="4.62027">
        <ele>580</ele>
        <time>2017-02-02T09:42:23Z</time>
      </trkpt>
      <trkpt lat="46.09773" lon="4.62019">
        <ele>580</ele>
        <time>2017-02-02T09:42:31Z</time>
      </trkpt>
      <trkpt lat="46.09772" lon="4.62018">
        <ele>580</ele>
        <time>2017-02-02T09:42:32Z</time>
      </trkpt>
      <trkpt lat="46.09766" lon="4.62011">
        <ele>581</ele>
        <time>2017-02-02T09:42:40Z</time>
      </trkpt>
      <trkpt lat="46.09765" lon="4.6201">
        <ele>581</ele>
        <time>2017-02-02T09:42:41Z</time>
      </trkpt>
      <trkpt lat="46.09758" lon="4.62001">
        <ele>581</ele>
        <time>2017-02-02T09:42:49Z</time>
      </trkpt>
      <trkpt lat="46.09757" lon="4.62">
        <ele>581</ele>
        <time>2017-02-02T09:42:50Z</time>
      </trkpt>
      <trkpt lat="46.0975" lon="4.61993">
        <ele>581</ele>
        <time>2017-02-02T09:42:57Z</time>
      </trkpt>
      <trkpt lat="46.09749" lon="4.61992">
        <ele>581</ele>
        <time>2017-02-02T09:42:58Z</time>
      </trkpt>
      <trkpt lat="46.09741" lon="4.61986">
        <ele>580</ele>
        <time>2017-02-02T09:43:05Z</time>
      </trkpt>
      <trkpt lat="46.0974" lon="4.61985">
        <ele>580</ele>
        <time>2017-02-02T09:43:06Z</time>
      </trkpt>
      <trkpt lat="46.09733" lon="4.61979">
        <ele>580</ele>
        <time>2017-02-02T09:43:14Z</time>
      </trkpt>
      <trkpt lat="46.09732" lon="4.61978">
        <ele>580</ele>
        <time>2017-02-02T09:43:15Z</time>
      </trkpt>
      <trkpt lat="46.09725" lon="4.61971">
        <ele>579</ele>
        <time>2017-02-02T09:43:22Z</time>
      </trkpt>
      <trkpt lat="46.09724" lon="4.61969">
        <ele>579</ele>
        <time>2017-02-02T09:43:23Z</time>
      </trkpt>
      <trkpt lat="46.09718" lon="4.61962">
        <ele>579</ele>
        <time>2017-02-02T09:43:30Z</time>
      </trkpt>
      <trkpt lat="46.09717" lon="4.61961">
        <ele>579</ele>
        <time>2017-02-02T09:43:31Z</time>
      </trkpt>
      <trkpt lat="46.09709" lon="4.61955">
        <ele>579</ele>
        <time>2017-02-02T09:43:38Z</time>
      </trkpt>
      <trkpt lat="46.09708" lon="4.61954">
        <ele>579</ele>
        <time>2017-02-02T09:43:39Z</time>
      </trkpt>
      <trkpt lat="46.09701" lon="4.61948">
        <ele>579</ele>
        <time>2017-02-02T09:43:46Z</time>
      </trkpt>
      <trkpt lat="46.097" lon="4.61947">
        <ele>579</ele>
        <time>2017-02-02T09:43:47Z</time>
      </trkpt>
      <trkpt lat="46.09692" lon="4.61943">
        <ele>579</ele>
        <time>2017-02-02T09:43:54Z</time>
      </trkpt>
      <trkpt lat="46.09691" lon="4.61942">
        <ele>579</ele>
        <time>2017-02-02T09:43:55Z</time>
      </trkpt>
      <trkpt lat="46.09684" lon="4.61937">
        <ele>579</ele>
        <time>2017-02-02T09:44:02Z</time>
      </trkpt>
      <trkpt lat="46.09683" lon="4.61936">
        <ele>579</ele>
        <time>2017-02-02T09:44:03Z</time>
      </trkpt>
      <trkpt lat="46.09675" lon="4.61931">
        <ele>579</ele>
        <time>2017-02-02T09:44:10Z</time>
      </trkpt>
      <trkpt lat="46.09674" lon="4.6193">
        <ele>579</ele>
        <time>2017-02-02T09:44:11Z</time>
      </trkpt>
      <trkpt lat="46.09667" lon="4.61925">
        <ele>579</ele>
        <time>2017-02-02T09:44:18Z</time>
      </trkpt>
      <trkpt lat="46.09665" lon="4.61924">
        <ele>579</ele>
        <time>2017-02-02T09:44:19Z</time>
      </trkpt>
      <trkpt lat="46.09658" lon="4.61919">
        <ele>578</ele>
        <time>2017-02-02T09:44:26Z</time>
      </trkpt>
      <trkpt lat="46.09657" lon="4.61918">
        <ele>578</ele>
        <time>2017-02-02T09:44:27Z</time>
      </trkpt>
      <trkpt lat="46.09649" lon="4.61912">
        <ele>578</ele>
        <time>2017-02-02T09:44:34Z</time>
      </trkpt>
      <trkpt lat="46.09648" lon="4.61912">
        <ele>578</ele>
        <time>2017-02-02T09:44:35Z</time>
      </trkpt>
      <trkpt lat="46.0964" lon="4.61906">
        <ele>578</ele>
        <time>2017-02-02T09:44:42Z</time>
      </trkpt>
      <trkpt lat="46.09639" lon="4.61905">
        <ele>578</ele>
        <time>2017-02-02T09:44:43Z</time>
      </trkpt>
      <trkpt lat="46.09631" lon="4.619">
        <ele>577</ele>
        <time>2017-02-02T09:44:50Z</time>
      </trkpt>
      <trkpt lat="46.0963" lon="4.61899">
        <ele>577</ele>
        <time>2017-02-02T09:44:51Z</time>
      </trkpt>
      <trkpt lat="46.09623" lon="4.61893">
        <ele>577</ele>
        <time>2017-02-02T09:44:58Z</time>
      </trkpt>
      <trkpt lat="46.09622" lon="4.61892">
        <ele>577</ele>
        <time>2017-02-02T09:44:59Z</time>
      </trkpt>
      <trkpt lat="46.09614" lon="4.61888">
        <ele>577</ele>
        <time>2017-02-02T09:45:06Z</time>
      </trkpt>
      <trkpt lat="46.09613" lon="4.61887">
        <ele>577</ele>
        <time>2017-02-02T09:45:07Z</time>
      </trkpt>
      <trkpt lat="46.09606" lon="4.61882">
        <ele>577</ele>
        <time>2017-02-02T09:45:13Z</time>
      </trkpt>
      <trkpt lat="46.09605" lon="4.61881">
        <ele>577</ele>
        <time>2017-02-02T09:45:14Z</time>
      </trkpt>
      <trkpt lat="46.09598" lon="4.61875">
        <ele>577</ele>
        <time>2017-02-02T09:45:20Z</time>
      </trkpt>
      <trkpt lat="46.09597" lon="4.61874">
        <ele>577</ele>
        <time>2017-02-02T09:45:21Z</time>
      </trkpt>
      <trkpt lat="46.09589" lon="4.6187">
        <ele>577</ele>
        <time>2017-02-02T09:45:27Z</time>
      </trkpt>
      <trkpt lat="46.09588" lon="4.61869">
        <ele>577</ele>
        <time>2017-02-02T09:45:28Z</time>
      </trkpt>
      <trkpt lat="46.0958" lon="4.61864">
        <ele>577</ele>
        <time>2017-02-02T09:45:35Z</time>
      </trkpt>
      <trkpt lat="46.09579" lon="4.61863">
        <ele>577</ele>
        <time>2017-02-02T09:45:36Z</time>
      </trkpt>
      <trkpt lat="46.09572" lon="4.61858">
        <ele>577</ele>
        <time>2017-02-02T09:45:43Z</time>
      </trkpt>
      <trkpt lat="46.09571" lon="4.61857">
        <ele>577</ele>
        <time>2017-02-02T09:45:44Z</time>
      </trkpt>
      <trkpt lat="46.09563" lon="4.6185">
        <ele>578</ele>
        <time>2017-02-02T09:45:52Z</time>
      </trkpt>
      <trkpt lat="46.09562" lon="4.6185">
        <ele>578</ele>
        <time>2017-02-02T09:45:53Z</time>
      </trkpt>
      <trkpt lat="46.09555" lon="4.61842">
        <ele>578</ele>
        <time>2017-02-02T09:46:02Z</time>
      </trkpt>
      <trkpt lat="46.09555" lon="4.61842">
        <ele>578</ele>
        <time>2017-02-02T09:46:03Z</time>
      </trkpt>
      <trkpt lat="46.09547" lon="4.61835">
        <ele>578</ele>
        <time>2017-02-02T09:46:11Z</time>
      </trkpt>
      <trkpt lat="46.09546" lon="4.61834">
        <ele>578</ele>
        <time>2017-02-02T09:46:12Z</time>
      </trkpt>
      <trkpt lat="46.09539" lon="4.61828">
        <ele>582</ele>
        <time>2017-02-02T09:46:20Z</time>
      </trkpt>
      <trkpt lat="46.09538" lon="4.61827">
        <ele>583</ele>
        <time>2017-02-02T09:46:21Z</time>
      </trkpt>
      <trkpt lat="46.0953" lon="4.6182">
        <ele>583</ele>
        <time>2017-02-02T09:46:31Z</time>
      </trkpt>
      <trkpt lat="46.0953" lon="4.61819">
        <ele>583</ele>
        <time>2017-02-02T09:46:32Z</time>
      </trkpt>
      <trkpt lat="46.09522" lon="4.61813">
        <ele>584</ele>
        <time>2017-02-02T09:46:41Z</time>
      </trkpt>
      <trkpt lat="46.09522" lon="4.61813">
        <ele>584</ele>
        <time>2017-02-02T09:46:42Z</time>
      </trkpt>
      <trkpt lat="46.09514" lon="4.61807">
        <ele>584</ele>
        <time>2017-02-02T09:46:51Z</time>
      </trkpt>
      <trkpt lat="46.09513" lon="4.61806">
        <ele>584</ele>
        <time>2017-02-02T09:46:52Z</time>
      </trkpt>
      <trkpt lat="46.09506" lon="4.618">
        <ele>584</ele>
        <time>2017-02-02T09:47:01Z</time>
      </trkpt>
      <trkpt lat="46.09505" lon="4.618">
        <ele>584</ele>
        <time>2017-02-02T09:47:02Z</time>
      </trkpt>
      <trkpt lat="46.09498" lon="4.61793">
        <ele>592</ele>
        <time>2017-02-02T09:47:13Z</time>
      </trkpt>
      <trkpt lat="46.09497" lon="4.61792">
        <ele>592</ele>
        <time>2017-02-02T09:47:14Z</time>
      </trkpt>
      <trkpt lat="46.09489" lon="4.61789">
        <ele>593</ele>
        <time>2017-02-02T09:47:25Z</time>
      </trkpt>
      <trkpt lat="46.09488" lon="4.61789">
        <ele>593</ele>
        <time>2017-02-02T09:47:26Z</time>
      </trkpt>
      <trkpt lat="46.0948" lon="4.61787">
        <ele>594</ele>
        <time>2017-02-02T09:47:39Z</time>
      </trkpt>
      <trkpt lat="46.09479" lon="4.61787">
        <ele>594</ele>
        <time>2017-02-02T09:47:40Z</time>
      </trkpt>
      <trkpt lat="46.09471" lon="4.61781">
        <ele>594</ele>
        <time>2017-02-02T09:47:57Z</time>
      </trkpt>
      <trkpt lat="46.09471" lon="4.61781">
        <ele>594</ele>
        <time>2017-02-02T09:47:58Z</time>
      </trkpt>
      <trkpt lat="46.09463" lon="4.61774">
        <ele>595</ele>
        <time>2017-02-02T09:48:12Z</time>
      </trkpt>
      <trkpt lat="46.09463" lon="4.61774">
        <ele>595</ele>
        <time>2017-02-02T09:48:13Z</time>
      </trkpt>
      <trkpt lat="46.09455" lon="4.61768">
        <ele>596</ele>
        <time>2017-02-02T09:48:25Z</time>
      </trkpt>
      <trkpt lat="46.09455" lon="4.61767">
        <ele>597</ele>
        <time>2017-02-02T09:48:26Z</time>
      </trkpt>
      <trkpt lat="46.09447" lon="4.6176">
        <ele>598</ele>
        <time>2017-02-02T09:48:40Z</time>
      </trkpt>
      <trkpt lat="46.09447" lon="4.6176">
        <ele>598</ele>
        <time>2017-02-02T09:48:41Z</time>
      </trkpt>
      <trkpt lat="46.0944" lon="4.61751">
        <ele>600</ele>
        <time>2017-02-02T09:48:54Z</time>
      </trkpt>
      <trkpt lat="46.0944" lon="4.61751">
        <ele>600</ele>
        <time>2017-02-02T09:48:55Z</time>
      </trkpt>
      <trkpt lat="46.09432" lon="4.61743">
        <ele>604</ele>
        <time>2017-02-02T09:49:08Z</time>
      </trkpt>
      <trkpt lat="46.09432" lon="4.61742">
        <ele>604</ele>
        <time>2017-02-02T09:49:09Z</time>
      </trkpt>
      <trkpt lat="46.09424" lon="4.61735">
        <ele>605</ele>
        <time>2017-02-02T09:49:20Z</time>
      </trkpt>
      <trkpt lat="46.09424" lon="4.61734">
        <ele>605</ele>
        <time>2017-02-02T09:49:21Z</time>
      </trkpt>
      <trkpt lat="46.09417" lon="4.61727">
        <ele>610</ele>
        <time>2017-02-02T09:49:31Z</time>
      </trkpt>
      <trkpt lat="46.09416" lon="4.61726">
        <ele>610</ele>
        <time>2017-02-02T09:49:32Z</time>
      </trkpt>
      <trkpt lat="46.09409" lon="4.61719">
        <ele>611</ele>
        <time>2017-02-02T09:49:42Z</time>
      </trkpt>
      <trkpt lat="46.09408" lon="4.61718">
        <ele>611</ele>
        <time>2017-02-02T09:49:43Z</time>
      </trkpt>
      <trkpt lat="46.09401" lon="4.61711">
        <ele>612</ele>
        <time>2017-02-02T09:49:52Z</time>
      </trkpt>
      <trkpt lat="46.09401" lon="4.6171">
        <ele>612</ele>
        <time>2017-02-02T09:49:53Z</time>
      </trkpt>
      <trkpt lat="46.09394" lon="4.61703">
        <ele>612</ele>
        <time>2017-02-02T09:50:02Z</time>
      </trkpt>
      <trkpt lat="46.09393" lon="4.61702">
        <ele>612</ele>
        <time>2017-02-02T09:50:03Z</time>
      </trkpt>
      <trkpt lat="46.09386" lon="4.61696">
        <ele>613</ele>
        <time>2017-02-02T09:50:12Z</time>
      </trkpt>
      <trkpt lat="46.09385" lon="4.61695">
        <ele>613</ele>
        <time>2017-02-02T09:50:13Z</time>
      </trkpt>
      <trkpt lat="46.09378" lon="4.61688">
        <ele>614</ele>
        <time>2017-02-02T09:50:23Z</time>
      </trkpt>
      <trkpt lat="46.09377" lon="4.61687">
        <ele>614</ele>
        <time>2017-02-02T09:50:24Z</time>
      </trkpt>
      <trkpt lat="46.09371" lon="4.6168">
        <ele>614</ele>
        <time>2017-02-02T09:50:32Z</time>
      </trkpt>
      <trkpt lat="46.0937" lon="4.61679">
        <ele>614</ele>
        <time>2017-02-02T09:50:33Z</time>
      </trkpt>
      <trkpt lat="46.09363" lon="4.61671">
        <ele>615</ele>
        <time>2017-02-02T09:50:42Z</time>
      </trkpt>
      <trkpt lat="46.09363" lon="4.6167">
        <ele>615</ele>
        <time>2017-02-02T09:50:43Z</time>
      </trkpt>
      <trkpt lat="46.09355" lon="4.61665">
        <ele>618</ele>
        <time>2017-02-02T09:50:51Z</time>
      </trkpt>
      <trkpt lat="46.09355" lon="4.61664">
        <ele>618</ele>
        <time>2017-02-02T09:50:52Z</time>
      </trkpt>
      <trkpt lat="46.09346" lon="4.61659">
        <ele>618</ele>
        <time>2017-02-02T09:51:01Z</time>
      </trkpt>
      <trkpt lat="46.09345" lon="4.61658">
        <ele>618</ele>
        <time>2017-02-02T09:51:02Z</time>
      </trkpt>
      <trkpt lat="46.09338" lon="4.61652">
        <ele>618</ele>
        <time>2017-02-02T09:51:10Z</time>
      </trkpt>
      <trkpt lat="46.09338" lon="4.61651">
        <ele>618</ele>
        <time>2017-02-02T09:51:11Z</time>
      </trkpt>
      <trkpt lat="46.0933" lon="4.61645">
        <ele>622</ele>
        <time>2017-02-02T09:51:19Z</time>
      </trkpt>
      <trkpt lat="46.0933" lon="4.61645">
        <ele>622</ele>
        <time>2017-02-02T09:51:20Z</time>
      </trkpt>
      <trkpt lat="46.09323" lon="4.61638">
        <ele>622</ele>
        <time>2017-02-02T09:51:28Z</time>
      </trkpt>
      <trkpt lat="46.09322" lon="4.61637">
        <ele>622</ele>
        <time>2017-02-02T09:51:29Z</time>
      </trkpt>
      <trkpt lat="46.09315" lon="4.6163">
        <ele>622</ele>
        <time>2017-02-02T09:51:37Z</time>
      </trkpt>
      <trkpt lat="46.09314" lon="4.61629">
        <ele>622</ele>
        <time>2017-02-02T09:51:38Z</time>
      </trkpt>
      <trkpt lat="46.09307" lon="4.61623">
        <ele>622</ele>
        <time>2017-02-02T09:51:45Z</time>
      </trkpt>
      <trkpt lat="46.09306" lon="4.61623">
        <ele>622</ele>
        <time>2017-02-02T09:51:46Z</time>
      </trkpt>
      <trkpt lat="46.09298" lon="4.61618">
        <ele>622</ele>
        <time>2017-02-02T09:51:53Z</time>
      </trkpt>
      <trkpt lat="46.09297" lon="4.61617">
        <ele>622</ele>
        <time>2017-02-02T09:51:54Z</time>
      </trkpt>
      <trkpt lat="46.0929" lon="4.6161">
        <ele>623</ele>
        <time>2017-02-02T09:52:02Z</time>
      </trkpt>
      <trkpt lat="46.09289" lon="4.6161">
        <ele>623</ele>
        <time>2017-02-02T09:52:03Z</time>
      </trkpt>
      <trkpt lat="46.09281" lon="4.61606">
        <ele>623</ele>
        <time>2017-02-02T09:52:12Z</time>
      </trkpt>
      <trkpt lat="46.0928" lon="4.61606">
        <ele>623</ele>
        <time>2017-02-02T09:52:13Z</time>
      </trkpt>
      <trkpt lat="46.09272" lon="4.616">
        <ele>624</ele>
        <time>2017-02-02T09:52:21Z</time>
      </trkpt>
      <trkpt lat="46.09271" lon="4.616">
        <ele>624</ele>
        <time>2017-02-02T09:52:22Z</time>
      </trkpt>
      <trkpt lat="46.09263" lon="4.61595">
        <ele>625</ele>
        <time>2017-02-02T09:52:31Z</time>
      </trkpt>
      <trkpt lat="46.09263" lon="4.61594">
        <ele>625</ele>
        <time>2017-02-02T09:52:32Z</time>
      </trkpt>
      <trkpt lat="46.09255" lon="4.61587">
        <ele>627</ele>
        <time>2017-02-02T09:52:41Z</time>
      </trkpt>
      <trkpt lat="46.09255" lon="4.61587">
        <ele>627</ele>
        <time>2017-02-02T09:52:42Z</time>
      </trkpt>
      <trkpt lat="46.09246" lon="4.61586">
        <ele>627</ele>
        <time>2017-02-02T09:55:17Z</time>
      </trkpt>
      <trkpt lat="46.09245" lon="4.61586">
        <ele>627</ele>
        <time>2017-02-02T09:55:18Z</time>
      </trkpt>
      <trkpt lat="46.09237" lon="4.6159">
        <ele>625</ele>
        <time>2017-02-02T09:55:30Z</time>
      </trkpt>
      <trkpt lat="46.09236" lon="4.61591">
        <ele>625</ele>
        <time>2017-02-02T09:55:31Z</time>
      </trkpt>
      <trkpt lat="46.09229" lon="4.61593">
        <ele>624</ele>
        <time>2017-02-02T09:55:38Z</time>
      </trkpt>
      <trkpt lat="46.09227" lon="4.61593">
        <ele>624</ele>
        <time>2017-02-02T09:55:39Z</time>
      </trkpt>
      <trkpt lat="46.09219" lon="4.61592">
        <ele>623</ele>
        <time>2017-02-02T09:55:45Z</time>
      </trkpt>
      <trkpt lat="46.09218" lon="4.61592">
        <ele>623</ele>
        <time>2017-02-02T09:55:46Z</time>
      </trkpt>
      <trkpt lat="46.0921" lon="4.61591">
        <ele>623</ele>
        <time>2017-02-02T09:55:52Z</time>
      </trkpt>
      <trkpt lat="46.09209" lon="4.61591">
        <ele>623</ele>
        <time>2017-02-02T09:55:53Z</time>
      </trkpt>
      <trkpt lat="46.092" lon="4.6159">
        <ele>623</ele>
        <time>2017-02-02T09:56:01Z</time>
      </trkpt>
      <trkpt lat="46.09199" lon="4.61589">
        <ele>623</ele>
        <time>2017-02-02T09:56:02Z</time>
      </trkpt>
      <trkpt lat="46.0919" lon="4.6159">
        <ele>623</ele>
        <time>2017-02-02T09:56:12Z</time>
      </trkpt>
      <trkpt lat="46.09189" lon="4.6159">
        <ele>623</ele>
        <time>2017-02-02T09:56:13Z</time>
      </trkpt>
      <trkpt lat="46.09182" lon="4.61596">
        <ele>623</ele>
        <time>2017-02-02T09:56:23Z</time>
      </trkpt>
      <trkpt lat="46.09181" lon="4.61597">
        <ele>623</ele>
        <time>2017-02-02T09:56:24Z</time>
      </trkpt>
      <trkpt lat="46.09173" lon="4.61602">
        <ele>622</ele>
        <time>2017-02-02T09:56:31Z</time>
      </trkpt>
      <trkpt lat="46.09172" lon="4.61603">
        <ele>622</ele>
        <time>2017-02-02T09:56:32Z</time>
      </trkpt>
      <trkpt lat="46.09163" lon="4.61607">
        <ele>616</ele>
        <time>2017-02-02T09:56:39Z</time>
      </trkpt>
      <trkpt lat="46.09162" lon="4.61608">
        <ele>616</ele>
        <time>2017-02-02T09:56:40Z</time>
      </trkpt>
      <trkpt lat="46.09154" lon="4.61611">
        <ele>614</ele>
        <time>2017-02-02T09:56:47Z</time>
      </trkpt>
      <trkpt lat="46.09153" lon="4.61611">
        <ele>614</ele>
        <time>2017-02-02T09:56:48Z</time>
      </trkpt>
      <trkpt lat="46.09145" lon="4.61617">
        <ele>613</ele>
        <time>2017-02-02T09:56:57Z</time>
      </trkpt>
      <trkpt lat="46.09144" lon="4.61617">
        <ele>613</ele>
        <time>2017-02-02T09:56:58Z</time>
      </trkpt>
      <trkpt lat="46.09136" lon="4.61622">
        <ele>611</ele>
        <time>2017-02-02T09:57:06Z</time>
      </trkpt>
      <trkpt lat="46.09135" lon="4.61623">
        <ele>611</ele>
        <time>2017-02-02T09:57:07Z</time>
      </trkpt>
      <trkpt lat="46.09128" lon="4.61626">
        <ele>610</ele>
        <time>2017-02-02T09:57:13Z</time>
      </trkpt>
      <trkpt lat="46.09126" lon="4.61627">
        <ele>610</ele>
        <time>2017-02-02T09:57:14Z</time>
      </trkpt>
      <trkpt lat="46.09118" lon="4.61631">
        <ele>609</ele>
        <time>2017-02-02T09:57:29Z</time>
      </trkpt>
      <trkpt lat="46.09117" lon="4.61631">
        <ele>609</ele>
        <time>2017-02-02T09:57:30Z</time>
      </trkpt>
      <trkpt lat="46.09109" lon="4.61634">
        <ele>608</ele>
        <time>2017-02-02T09:57:41Z</time>
      </trkpt>
      <trkpt lat="46.09109" lon="4.61634">
        <ele>608</ele>
        <time>2017-02-02T09:57:42Z</time>
      </trkpt>
      <trkpt lat="46.09101" lon="4.61642">
        <ele>607</ele>
        <time>2017-02-02T09:57:54Z</time>
      </trkpt>
      <trkpt lat="46.09101" lon="4.61642">
        <ele>607</ele>
        <time>2017-02-02T09:57:55Z</time>
      </trkpt>
      <trkpt lat="46.09092" lon="4.61644">
        <ele>606</ele>
        <time>2017-02-02T09:58:04Z</time>
      </trkpt>
      <trkpt lat="46.09091" lon="4.61644">
        <ele>606</ele>
        <time>2017-02-02T09:58:05Z</time>
      </trkpt>
      <trkpt lat="46.09082" lon="4.61645">
        <ele>601</ele>
        <time>2017-02-02T09:58:18Z</time>
      </trkpt>
      <trkpt lat="46.09082" lon="4.61645">
        <ele>601</ele>
        <time>2017-02-02T09:58:19Z</time>
      </trkpt>
      <trkpt lat="46.09075" lon="4.61651">
        <ele>601</ele>
        <time>2017-02-02T09:58:29Z</time>
      </trkpt>
      <trkpt lat="46.09073" lon="4.61652">
        <ele>601</ele>
        <time>2017-02-02T09:58:30Z</time>
      </trkpt>
      <trkpt lat="46.09066" lon="4.61655">
        <ele>601</ele>
        <time>2017-02-02T09:58:34Z</time>
      </trkpt>
      <trkpt lat="46.09064" lon="4.61655">
        <ele>601</ele>
        <time>2017-02-02T09:58:35Z</time>
      </trkpt>
      <trkpt lat="46.09056" lon="4.61655">
        <ele>601</ele>
        <time>2017-02-02T09:58:40Z</time>
      </trkpt>
      <trkpt lat="46.09055" lon="4.61654">
        <ele>601</ele>
        <time>2017-02-02T09:58:41Z</time>
      </trkpt>
      <trkpt lat="46.09046" lon="4.61653">
        <ele>601</ele>
        <time>2017-02-02T09:58:48Z</time>
      </trkpt>
      <trkpt lat="46.09045" lon="4.61653">
        <ele>601</ele>
        <time>2017-02-02T09:58:49Z</time>
      </trkpt>
      <trkpt lat="46.09037" lon="4.61653">
        <ele>601</ele>
        <time>2017-02-02T09:58:55Z</time>
      </trkpt>
      <trkpt lat="46.09035" lon="4.61653">
        <ele>601</ele>
        <time>2017-02-02T09:58:56Z</time>
      </trkpt>
      <trkpt lat="46.09027" lon="4.61652">
        <ele>601</ele>
        <time>2017-02-02T09:59:03Z</time>
      </trkpt>
      <trkpt lat="46.09026" lon="4.61651">
        <ele>601</ele>
        <time>2017-02-02T09:59:04Z</time>
      </trkpt>
      <trkpt lat="46.09017" lon="4.61653">
        <ele>601</ele>
        <time>2017-02-02T09:59:11Z</time>
      </trkpt>
      <trkpt lat="46.09016" lon="4.61653">
        <ele>601</ele>
        <time>2017-02-02T09:59:12Z</time>
      </trkpt>
      <trkpt lat="46.09008" lon="4.61656">
        <ele>601</ele>
        <time>2017-02-02T09:59:19Z</time>
      </trkpt>
      <trkpt lat="46.09007" lon="4.61656">
        <ele>601</ele>
        <time>2017-02-02T09:59:20Z</time>
      </trkpt>
      <trkpt lat="46.08999" lon="4.61658">
        <ele>601</ele>
        <time>2017-02-02T09:59:29Z</time>
      </trkpt>
      <trkpt lat="46.08998" lon="4.61658">
        <ele>601</ele>
        <time>2017-02-02T09:59:30Z</time>
      </trkpt>
      <trkpt lat="46.08989" lon="4.61659">
        <ele>601</ele>
        <time>2017-02-02T09:59:39Z</time>
      </trkpt>
      <trkpt lat="46.08988" lon="4.61659">
        <ele>601</ele>
        <time>2017-02-02T09:59:40Z</time>
      </trkpt>
      <trkpt lat="46.0898" lon="4.61661">
        <ele>600</ele>
        <time>2017-02-02T09:59:47Z</time>
      </trkpt>
      <trkpt lat="46.08979" lon="4.61661">
        <ele>600</ele>
        <time>2017-02-02T09:59:48Z</time>
      </trkpt>
      <trkpt lat="46.08971" lon="4.61662">
        <ele>600</ele>
        <time>2017-02-02T09:59:55Z</time>
      </trkpt>
      <trkpt lat="46.0897" lon="4.61662">
        <ele>600</ele>
        <time>2017-02-02T09:59:56Z</time>
      </trkpt>
      <trkpt lat="46.08962" lon="4.61661">
        <ele>600</ele>
        <time>2017-02-02T10:00:04Z</time>
      </trkpt>
      <trkpt lat="46.08961" lon="4.6166">
        <ele>600</ele>
        <time>2017-02-02T10:00:05Z</time>
      </trkpt>
      <trkpt lat="46.08953" lon="4.61659">
        <ele>600</ele>
        <time>2017-02-02T10:00:11Z</time>
      </trkpt>
      <trkpt lat="46.08952" lon="4.61659">
        <ele>600</ele>
        <time>2017-02-02T10:00:12Z</time>
      </trkpt>
      <trkpt lat="46.08944" lon="4.61655">
        <ele>599</ele>
        <time>2017-02-02T10:00:19Z</time>
      </trkpt>
      <trkpt lat="46.08943" lon="4.61655">
        <ele>599</ele>
        <time>2017-02-02T10:00:20Z</time>
      </trkpt>
      <trkpt lat="46.08935" lon="4.61649">
        <ele>599</ele>
        <time>2017-02-02T10:00:27Z</time>
      </trkpt>
      <trkpt lat="46.08933" lon="4.61648">
        <ele>599</ele>
        <time>2017-02-02T10:00:28Z</time>
      </trkpt>
      <trkpt lat="46.08926" lon="4.61643">
        <ele>599</ele>
        <time>2017-02-02T10:00:35Z</time>
      </trkpt>
      <trkpt lat="46.08925" lon="4.61643">
        <ele>599</ele>
        <time>2017-02-02T10:00:36Z</time>
      </trkpt>
      <trkpt lat="46.08917" lon="4.61636">
        <ele>599</ele>
        <time>2017-02-02T10:00:43Z</time>
      </trkpt>
      <trkpt lat="46.08916" lon="4.61635">
        <ele>596</ele>
        <time>2017-02-02T10:00:44Z</time>
      </trkpt>
      <trkpt lat="46.08909" lon="4.61628">
        <ele>596</ele>
        <time>2017-02-02T10:00:50Z</time>
      </trkpt>
      <trkpt lat="46.08908" lon="4.61627">
        <ele>596</ele>
        <time>2017-02-02T10:00:51Z</time>
      </trkpt>
      <trkpt lat="46.08901" lon="4.61619">
        <ele>596</ele>
        <time>2017-02-02T10:00:58Z</time>
      </trkpt>
      <trkpt lat="46.089" lon="4.61618">
        <ele>596</ele>
        <time>2017-02-02T10:00:59Z</time>
      </trkpt>
      <trkpt lat="46.08893" lon="4.61611">
        <ele>596</ele>
        <time>2017-02-02T10:01:06Z</time>
      </trkpt>
      <trkpt lat="46.08892" lon="4.61609">
        <ele>596</ele>
        <time>2017-02-02T10:01:07Z</time>
      </trkpt>
      <trkpt lat="46.08886" lon="4.616">
        <ele>596</ele>
        <time>2017-02-02T10:01:13Z</time>
      </trkpt>
      <trkpt lat="46.08885" lon="4.61599">
        <ele>596</ele>
        <time>2017-02-02T10:01:14Z</time>
      </trkpt>
      <trkpt lat="46.08879" lon="4.6159">
        <ele>596</ele>
        <time>2017-02-02T10:01:20Z</time>
      </trkpt>
      <trkpt lat="46.08878" lon="4.61589">
        <ele>596</ele>
        <time>2017-02-02T10:01:21Z</time>
      </trkpt>
      <trkpt lat="46.08872" lon="4.61581">
        <ele>598</ele>
        <time>2017-02-02T10:01:28Z</time>
      </trkpt>
      <trkpt lat="46.08871" lon="4.6158">
        <ele>598</ele>
        <time>2017-02-02T10:01:29Z</time>
      </trkpt>
      <trkpt lat="46.08863" lon="4.61572">
        <ele>598</ele>
        <time>2017-02-02T10:01:37Z</time>
      </trkpt>
      <trkpt lat="46.08862" lon="4.61571">
        <ele>598</ele>
        <time>2017-02-02T10:01:38Z</time>
      </trkpt>
      <trkpt lat="46.08856" lon="4.61563">
        <ele>598</ele>
        <time>2017-02-02T10:01:44Z</time>
      </trkpt>
      <trkpt lat="46.08855" lon="4.61562">
        <ele>598</ele>
        <time>2017-02-02T10:01:45Z</time>
      </trkpt>
      <trkpt lat="46.08849" lon="4.61552">
        <ele>598</ele>
        <time>2017-02-02T10:01:51Z</time>
      </trkpt>
      <trkpt lat="46.08848" lon="4.61551">
        <ele>598</ele>
        <time>2017-02-02T10:01:52Z</time>
      </trkpt>
      <trkpt lat="46.08841" lon="4.61542">
        <ele>598</ele>
        <time>2017-02-02T10:01:58Z</time>
      </trkpt>
      <trkpt lat="46.0884" lon="4.61541">
        <ele>598</ele>
        <time>2017-02-02T10:01:59Z</time>
      </trkpt>
      <trkpt lat="46.08834" lon="4.61532">
        <ele>598</ele>
        <time>2017-02-02T10:02:05Z</time>
      </trkpt>
      <trkpt lat="46.08833" lon="4.61531">
        <ele>598</ele>
        <time>2017-02-02T10:02:06Z</time>
      </trkpt>
      <trkpt lat="46.08827" lon="4.61522">
        <ele>599</ele>
        <time>2017-02-02T10:02:12Z</time>
      </trkpt>
      <trkpt lat="46.08826" lon="4.61521">
        <ele>599</ele>
        <time>2017-02-02T10:02:13Z</time>
      </trkpt>
      <trkpt lat="46.08819" lon="4.61513">
        <ele>599</ele>
        <time>2017-02-02T10:02:20Z</time>
      </trkpt>
      <trkpt lat="46.08818" lon="4.61512">
        <ele>599</ele>
        <time>2017-02-02T10:02:21Z</time>
      </trkpt>
      <trkpt lat="46.08811" lon="4.61504">
        <ele>599</ele>
        <time>2017-02-02T10:02:29Z</time>
      </trkpt>
      <trkpt lat="46.08811" lon="4.61503">
        <ele>599</ele>
        <time>2017-02-02T10:02:30Z</time>
      </trkpt>
      <trkpt lat="46.08804" lon="4.61495">
        <ele>600</ele>
        <time>2017-02-02T10:02:38Z</time>
      </trkpt>
      <trkpt lat="46.08803" lon="4.61494">
        <ele>600</ele>
        <time>2017-02-02T10:02:39Z</time>
      </trkpt>
      <trkpt lat="46.08796" lon="4.61488">
        <ele>599</ele>
        <time>2017-02-02T10:02:46Z</time>
      </trkpt>
      <trkpt lat="46.08795" lon="4.61487">
        <ele>599</ele>
        <time>2017-02-02T10:02:47Z</time>
      </trkpt>
      <trkpt lat="46.08788" lon="4.6148">
        <ele>599</ele>
        <time>2017-02-02T10:02:54Z</time>
      </trkpt>
      <trkpt lat="46.08787" lon="4.61479">
        <ele>599</ele>
        <time>2017-02-02T10:02:55Z</time>
      </trkpt>
      <trkpt lat="46.08782" lon="4.61471">
        <ele>599</ele>
        <time>2017-02-02T10:03:01Z</time>
      </trkpt>
      <trkpt lat="46.08781" lon="4.61469">
        <ele>599</ele>
        <time>2017-02-02T10:03:02Z</time>
      </trkpt>
      <trkpt lat="46.08777" lon="4.6146">
        <ele>599</ele>
        <time>2017-02-02T10:03:08Z</time>
      </trkpt>
      <trkpt lat="46.08776" lon="4.61458">
        <ele>599</ele>
        <time>2017-02-02T10:03:09Z</time>
      </trkpt>
      <trkpt lat="46.08771" lon="4.61448">
        <ele>599</ele>
        <time>2017-02-02T10:03:16Z</time>
      </trkpt>
      <trkpt lat="46.0877" lon="4.61446">
        <ele>600</ele>
        <time>2017-02-02T10:03:17Z</time>
      </trkpt>
      <trkpt lat="46.08765" lon="4.61436">
        <ele>600</ele>
        <time>2017-02-02T10:03:24Z</time>
      </trkpt>
      <trkpt lat="46.08765" lon="4.61435">
        <ele>600</ele>
        <time>2017-02-02T10:03:25Z</time>
      </trkpt>
      <trkpt lat="46.08759" lon="4.61426">
        <ele>601</ele>
        <time>2017-02-02T10:03:32Z</time>
      </trkpt>
      <trkpt lat="46.08759" lon="4.61425">
        <ele>602</ele>
        <time>2017-02-02T10:03:33Z</time>
      </trkpt>
      <trkpt lat="46.08751" lon="4.61417">
        <ele>603</ele>
        <time>2017-02-02T10:03:41Z</time>
      </trkpt>
      <trkpt lat="46.0875" lon="4.61416">
        <ele>603</ele>
        <time>2017-02-02T10:03:42Z</time>
      </trkpt>
      <trkpt lat="46.08744" lon="4.61409">
        <ele>603</ele>
        <time>2017-02-02T10:03:48Z</time>
      </trkpt>
      <trkpt lat="46.08743" lon="4.61407">
        <ele>603</ele>
        <time>2017-02-02T10:03:49Z</time>
      </trkpt>
      <trkpt lat="46.08737" lon="4.61399">
        <ele>602</ele>
        <time>2017-02-02T10:03:56Z</time>
      </trkpt>
      <trkpt lat="46.08736" lon="4.61398">
        <ele>602</ele>
        <time>2017-02-02T10:03:57Z</time>
      </trkpt>
      <trkpt lat="46.0873" lon="4.61391">
        <ele>602</ele>
        <time>2017-02-02T10:04:03Z</time>
      </trkpt>
      <trkpt lat="46.08729" lon="4.6139">
        <ele>602</ele>
        <time>2017-02-02T10:04:04Z</time>
      </trkpt>
      <trkpt lat="46.08721" lon="4.61383">
        <ele>602</ele>
        <time>2017-02-02T10:04:11Z</time>
      </trkpt>
      <trkpt lat="46.0872" lon="4.61382">
        <ele>602</ele>
        <time>2017-02-02T10:04:12Z</time>
      </trkpt>
      <trkpt lat="46.08712" lon="4.61375">
        <ele>602</ele>
        <time>2017-02-02T10:04:20Z</time>
      </trkpt>
      <trkpt lat="46.08711" lon="4.61375">
        <ele>602</ele>
        <time>2017-02-02T10:04:21Z</time>
      </trkpt>
      <trkpt lat="46.08703" lon="4.61371">
        <ele>602</ele>
        <time>2017-02-02T10:04:29Z</time>
      </trkpt>
      <trkpt lat="46.08702" lon="4.6137">
        <ele>602</ele>
        <time>2017-02-02T10:04:30Z</time>
      </trkpt>
      <trkpt lat="46.08695" lon="4.61366">
        <ele>603</ele>
        <time>2017-02-02T10:04:37Z</time>
      </trkpt>
      <trkpt lat="46.08694" lon="4.61365">
        <ele>603</ele>
        <time>2017-02-02T10:04:38Z</time>
      </trkpt>
      <trkpt lat="46.08686" lon="4.61358">
        <ele>603</ele>
        <time>2017-02-02T10:04:46Z</time>
      </trkpt>
      <trkpt lat="46.08686" lon="4.61357">
        <ele>604</ele>
        <time>2017-02-02T10:04:47Z</time>
      </trkpt>
      <trkpt lat="46.08679" lon="4.6135">
        <ele>605</ele>
        <time>2017-02-02T10:04:55Z</time>
      </trkpt>
      <trkpt lat="46.08678" lon="4.61349">
        <ele>605</ele>
        <time>2017-02-02T10:04:56Z</time>
      </trkpt>
      <trkpt lat="46.08671" lon="4.61342">
        <ele>606</ele>
        <time>2017-02-02T10:05:03Z</time>
      </trkpt>
      <trkpt lat="46.0867" lon="4.61341">
        <ele>607</ele>
        <time>2017-02-02T10:05:04Z</time>
      </trkpt>
      <trkpt lat="46.08665" lon="4.61331">
        <ele>609</ele>
        <time>2017-02-02T10:05:11Z</time>
      </trkpt>
      <trkpt lat="46.08664" lon="4.6133">
        <ele>608</ele>
        <time>2017-02-02T10:05:12Z</time>
      </trkpt>
      <trkpt lat="46.08656" lon="4.61327">
        <ele>607</ele>
        <time>2017-02-02T10:05:20Z</time>
      </trkpt>
      <trkpt lat="46.08655" lon="4.61326">
        <ele>607</ele>
        <time>2017-02-02T10:05:21Z</time>
      </trkpt>
      <trkpt lat="46.08647" lon="4.6132">
        <ele>606</ele>
        <time>2017-02-02T10:05:43Z</time>
      </trkpt>
      <trkpt lat="46.08647" lon="4.6132">
        <ele>606</ele>
        <time>2017-02-02T10:05:44Z</time>
      </trkpt>
      <trkpt lat="46.08653" lon="4.61312">
        <ele>606</ele>
        <time>2017-02-02T10:08:31Z</time>
      </trkpt>
      <trkpt lat="46.08653" lon="4.61311">
        <ele>606</ele>
        <time>2017-02-02T10:08:32Z</time>
      </trkpt>
      <trkpt lat="46.08649" lon="4.613">
        <ele>606</ele>
        <time>2017-02-02T10:08:40Z</time>
      </trkpt>
      <trkpt lat="46.08649" lon="4.61299">
        <ele>605</ele>
        <time>2017-02-02T10:08:41Z</time>
      </trkpt>
      <trkpt lat="46.08642" lon="4.61292">
        <ele>605</ele>
        <time>2017-02-02T10:09:43Z</time>
      </trkpt>
      <trkpt lat="46.08641" lon="4.61291">
        <ele>605</ele>
        <time>2017-02-02T10:09:44Z</time>
      </trkpt>
      <trkpt lat="46.08637" lon="4.6128">
        <ele>605</ele>
        <time>2017-02-02T10:09:51Z</time>
      </trkpt>
      <trkpt lat="46.08637" lon="4.61279">
        <ele>605</ele>
        <time>2017-02-02T10:09:52Z</time>
      </trkpt>
      <trkpt lat="46.08635" lon="4.61268">
        <ele>605</ele>
        <time>2017-02-02T10:09:58Z</time>
      </trkpt>
      <trkpt lat="46.08634" lon="4.61266">
        <ele>605</ele>
        <time>2017-02-02T10:09:59Z</time>
      </trkpt>
      <trkpt lat="46.08631" lon="4.61255">
        <ele>605</ele>
        <time>2017-02-02T10:10:06Z</time>
      </trkpt>
      <trkpt lat="46.0863" lon="4.61254">
        <ele>605</ele>
        <time>2017-02-02T10:10:07Z</time>
      </trkpt>
      <trkpt lat="46.08627" lon="4.61242">
        <ele>606</ele>
        <time>2017-02-02T10:10:15Z</time>
      </trkpt>
      <trkpt lat="46.08628" lon="4.6124">
        <ele>606</ele>
        <time>2017-02-02T10:10:16Z</time>
      </trkpt>
      <trkpt lat="46.08627" lon="4.61228">
        <ele>606</ele>
        <time>2017-02-02T10:10:23Z</time>
      </trkpt>
      <trkpt lat="46.08627" lon="4.61227">
        <ele>606</ele>
        <time>2017-02-02T10:10:24Z</time>
      </trkpt>
      <trkpt lat="46.08625" lon="4.61216">
        <ele>606</ele>
        <time>2017-02-02T10:10:30Z</time>
      </trkpt>
      <trkpt lat="46.08625" lon="4.61214">
        <ele>606</ele>
        <time>2017-02-02T10:10:31Z</time>
      </trkpt>
      <trkpt lat="46.08623" lon="4.61202">
        <ele>606</ele>
        <time>2017-02-02T10:10:37Z</time>
      </trkpt>
      <trkpt lat="46.08623" lon="4.612">
        <ele>606</ele>
        <time>2017-02-02T10:10:38Z</time>
      </trkpt>
      <trkpt lat="46.08618" lon="4.6119">
        <ele>606</ele>
        <time>2017-02-02T10:10:45Z</time>
      </trkpt>
      <trkpt lat="46.08618" lon="4.61189">
        <ele>606</ele>
        <time>2017-02-02T10:10:46Z</time>
      </trkpt>
      <trkpt lat="46.08615" lon="4.61177">
        <ele>607</ele>
        <time>2017-02-02T10:10:55Z</time>
      </trkpt>
      <trkpt lat="46.08615" lon="4.61175">
        <ele>607</ele>
        <time>2017-02-02T10:10:56Z</time>
      </trkpt>
      <trkpt lat="46.08612" lon="4.61165">
        <ele>606</ele>
        <time>2017-02-02T10:11:03Z</time>
      </trkpt>
      <trkpt lat="46.08611" lon="4.61163">
        <ele>607</ele>
        <time>2017-02-02T10:11:04Z</time>
      </trkpt>
      <trkpt lat="46.08608" lon="4.61153">
        <ele>607</ele>
        <time>2017-02-02T10:11:11Z</time>
      </trkpt>
      <trkpt lat="46.08608" lon="4.61151">
        <ele>607</ele>
        <time>2017-02-02T10:11:12Z</time>
      </trkpt>
      <trkpt lat="46.08605" lon="4.61139">
        <ele>607</ele>
        <time>2017-02-02T10:11:20Z</time>
      </trkpt>
      <trkpt lat="46.08604" lon="4.61137">
        <ele>607</ele>
        <time>2017-02-02T10:11:21Z</time>
      </trkpt>
      <trkpt lat="46.08602" lon="4.61127">
        <ele>607</ele>
        <time>2017-02-02T10:11:27Z</time>
      </trkpt>
      <trkpt lat="46.08602" lon="4.61125">
        <ele>607</ele>
        <time>2017-02-02T10:11:28Z</time>
      </trkpt>
      <trkpt lat="46.08599" lon="4.61114">
        <ele>607</ele>
        <time>2017-02-02T10:11:35Z</time>
      </trkpt>
      <trkpt lat="46.08598" lon="4.61112">
        <ele>607</ele>
        <time>2017-02-02T10:11:36Z</time>
      </trkpt>
      <trkpt lat="46.08594" lon="4.61102">
        <ele>608</ele>
        <time>2017-02-02T10:11:42Z</time>
      </trkpt>
      <trkpt lat="46.08594" lon="4.611">
        <ele>608</ele>
        <time>2017-02-02T10:11:43Z</time>
      </trkpt>
      <trkpt lat="46.08593" lon="4.61089">
        <ele>610</ele>
        <time>2017-02-02T10:11:49Z</time>
      </trkpt>
      <trkpt lat="46.08593" lon="4.61087">
        <ele>610</ele>
        <time>2017-02-02T10:11:50Z</time>
      </trkpt>
      <trkpt lat="46.0859" lon="4.61075">
        <ele>609</ele>
        <time>2017-02-02T10:11:58Z</time>
      </trkpt>
      <trkpt lat="46.08589" lon="4.61073">
        <ele>609</ele>
        <time>2017-02-02T10:11:59Z</time>
      </trkpt>
      <trkpt lat="46.08583" lon="4.61064">
        <ele>607</ele>
        <time>2017-02-02T10:12:11Z</time>
      </trkpt>
      <trkpt lat="46.08583" lon="4.61063">
        <ele>606</ele>
        <time>2017-02-02T10:12:12Z</time>
      </trkpt>
      <trkpt lat="46.08578" lon="4.61053">
        <ele>604</ele>
        <time>2017-02-02T10:12:22Z</time>
      </trkpt>
      <trkpt lat="46.08577" lon="4.61052">
        <ele>604</ele>
        <time>2017-02-02T10:12:23Z</time>
      </trkpt>
      <trkpt lat="46.08572" lon="4.61043">
        <ele>603</ele>
        <time>2017-02-02T10:12:31Z</time>
      </trkpt>
      <trkpt lat="46.08571" lon="4.61042">
        <ele>603</ele>
        <time>2017-02-02T10:12:32Z</time>
      </trkpt>
      <trkpt lat="46.08567" lon="4.61032">
        <ele>603</ele>
        <time>2017-02-02T10:12:40Z</time>
      </trkpt>
      <trkpt lat="46.08567" lon="4.61031">
        <ele>603</ele>
        <time>2017-02-02T10:12:41Z</time>
      </trkpt>
      <trkpt lat="46.08562" lon="4.61021">
        <ele>603</ele>
        <time>2017-02-02T10:12:48Z</time>
      </trkpt>
      <trkpt lat="46.08561" lon="4.61019">
        <ele>603</ele>
        <time>2017-02-02T10:12:49Z</time>
      </trkpt>
      <trkpt lat="46.08555" lon="4.61012">
        <ele>602</ele>
        <time>2017-02-02T10:12:56Z</time>
      </trkpt>
      <trkpt lat="46.08554" lon="4.61011">
        <ele>602</ele>
        <time>2017-02-02T10:12:57Z</time>
      </trkpt>
      <trkpt lat="46.08547" lon="4.61003">
        <ele>601</ele>
        <time>2017-02-02T10:13:04Z</time>
      </trkpt>
      <trkpt lat="46.08546" lon="4.61002">
        <ele>601</ele>
        <time>2017-02-02T10:13:05Z</time>
      </trkpt>
      <trkpt lat="46.08543" lon="4.6099">
        <ele>597</ele>
        <time>2017-02-02T10:13:13Z</time>
      </trkpt>
      <trkpt lat="46.08542" lon="4.60989">
        <ele>597</ele>
        <time>2017-02-02T10:13:14Z</time>
      </trkpt>
      <trkpt lat="46.08538" lon="4.60979">
        <ele>596</ele>
        <time>2017-02-02T10:13:23Z</time>
      </trkpt>
      <trkpt lat="46.08538" lon="4.60978">
        <ele>596</ele>
        <time>2017-02-02T10:13:24Z</time>
      </trkpt>
      <trkpt lat="46.08531" lon="4.60971">
        <ele>596</ele>
        <time>2017-02-02T10:13:32Z</time>
      </trkpt>
      <trkpt lat="46.0853" lon="4.6097">
        <ele>595</ele>
        <time>2017-02-02T10:13:33Z</time>
      </trkpt>
      <trkpt lat="46.08525" lon="4.60959">
        <ele>595</ele>
        <time>2017-02-02T10:13:41Z</time>
      </trkpt>
      <trkpt lat="46.08525" lon="4.60958">
        <ele>595</ele>
        <time>2017-02-02T10:13:42Z</time>
      </trkpt>
      <trkpt lat="46.08521" lon="4.60948">
        <ele>594</ele>
        <time>2017-02-02T10:13:49Z</time>
      </trkpt>
      <trkpt lat="46.0852" lon="4.60946">
        <ele>594</ele>
        <time>2017-02-02T10:13:50Z</time>
      </trkpt>
      <trkpt lat="46.08514" lon="4.60937">
        <ele>593</ele>
        <time>2017-02-02T10:13:59Z</time>
      </trkpt>
      <trkpt lat="46.08513" lon="4.60935">
        <ele>593</ele>
        <time>2017-02-02T10:14:00Z</time>
      </trkpt>
      <trkpt lat="46.08508" lon="4.60926">
        <ele>593</ele>
        <time>2017-02-02T10:14:06Z</time>
      </trkpt>
      <trkpt lat="46.08508" lon="4.60924">
        <ele>592</ele>
        <time>2017-02-02T10:14:07Z</time>
      </trkpt>
      <trkpt lat="46.08503" lon="4.60914">
        <ele>590</ele>
        <time>2017-02-02T10:14:13Z</time>
      </trkpt>
      <trkpt lat="46.08502" lon="4.60912">
        <ele>590</ele>
        <time>2017-02-02T10:14:14Z</time>
      </trkpt>
      <trkpt lat="46.08497" lon="4.60903">
        <ele>587</ele>
        <time>2017-02-02T10:14:21Z</time>
      </trkpt>
      <trkpt lat="46.08496" lon="4.60901">
        <ele>587</ele>
        <time>2017-02-02T10:14:22Z</time>
      </trkpt>
      <trkpt lat="46.0849" lon="4.60892">
        <ele>585</ele>
        <time>2017-02-02T10:14:29Z</time>
      </trkpt>
      <trkpt lat="46.08489" lon="4.60891">
        <ele>585</ele>
        <time>2017-02-02T10:14:30Z</time>
      </trkpt>
      <trkpt lat="46.08481" lon="4.60886">
        <ele>584</ele>
        <time>2017-02-02T10:14:36Z</time>
      </trkpt>
      <trkpt lat="46.0848" lon="4.60886">
        <ele>584</ele>
        <time>2017-02-02T10:14:37Z</time>
      </trkpt>
      <trkpt lat="46.08473" lon="4.60879">
        <ele>583</ele>
        <time>2017-02-02T10:14:43Z</time>
      </trkpt>
      <trkpt lat="46.08472" lon="4.60878">
        <ele>583</ele>
        <time>2017-02-02T10:14:44Z</time>
      </trkpt>
      <trkpt lat="46.08466" lon="4.60869">
        <ele>583</ele>
        <time>2017-02-02T10:14:51Z</time>
      </trkpt>
      <trkpt lat="46.08466" lon="4.60868">
        <ele>583</ele>
        <time>2017-02-02T10:14:52Z</time>
      </trkpt>
      <trkpt lat="46.08461" lon="4.60857">
        <ele>582</ele>
        <time>2017-02-02T10:14:59Z</time>
      </trkpt>
      <trkpt lat="46.08461" lon="4.60855">
        <ele>582</ele>
        <time>2017-02-02T10:15:00Z</time>
      </trkpt>
      <trkpt lat="46.08457" lon="4.60845">
        <ele>582</ele>
        <time>2017-02-02T10:15:06Z</time>
      </trkpt>
      <trkpt lat="46.08457" lon="4.60843">
        <ele>582</ele>
        <time>2017-02-02T10:15:07Z</time>
      </trkpt>
      <trkpt lat="46.08455" lon="4.60832">
        <ele>580</ele>
        <time>2017-02-02T10:15:13Z</time>
      </trkpt>
      <trkpt lat="46.08454" lon="4.6083">
        <ele>580</ele>
        <time>2017-02-02T10:15:14Z</time>
      </trkpt>
      <trkpt lat="46.08452" lon="4.60818">
        <ele>579</ele>
        <time>2017-02-02T10:15:20Z</time>
      </trkpt>
      <trkpt lat="46.08451" lon="4.60816">
        <ele>579</ele>
        <time>2017-02-02T10:15:21Z</time>
      </trkpt>
      <trkpt lat="46.08447" lon="4.60805">
        <ele>579</ele>
        <time>2017-02-02T10:15:28Z</time>
      </trkpt>
      <trkpt lat="46.08446" lon="4.60804">
        <ele>579</ele>
        <time>2017-02-02T10:15:29Z</time>
      </trkpt>
      <trkpt lat="46.08442" lon="4.60794">
        <ele>579</ele>
        <time>2017-02-02T10:15:36Z</time>
      </trkpt>
      <trkpt lat="46.08441" lon="4.60793">
        <ele>579</ele>
        <time>2017-02-02T10:15:37Z</time>
      </trkpt>
      <trkpt lat="46.08437" lon="4.60781">
        <ele>578</ele>
        <time>2017-02-02T10:15:44Z</time>
      </trkpt>
      <trkpt lat="46.08437" lon="4.60779">
        <ele>578</ele>
        <time>2017-02-02T10:15:45Z</time>
      </trkpt>
      <trkpt lat="46.08434" lon="4.60767">
        <ele>578</ele>
        <time>2017-02-02T10:15:52Z</time>
      </trkpt>
      <trkpt lat="46.08433" lon="4.60766">
        <ele>578</ele>
        <time>2017-02-02T10:15:53Z</time>
      </trkpt>
      <trkpt lat="46.08429" lon="4.60755">
        <ele>577</ele>
        <time>2017-02-02T10:16:00Z</time>
      </trkpt>
      <trkpt lat="46.08428" lon="4.60753">
        <ele>577</ele>
        <time>2017-02-02T10:16:01Z</time>
      </trkpt>
      <trkpt lat="46.08424" lon="4.60743">
        <ele>575</ele>
        <time>2017-02-02T10:16:07Z</time>
      </trkpt>
      <trkpt lat="46.08424" lon="4.60742">
        <ele>575</ele>
        <time>2017-02-02T10:16:08Z</time>
      </trkpt>
      <trkpt lat="46.0842" lon="4.60731">
        <ele>574</ele>
        <time>2017-02-02T10:16:14Z</time>
      </trkpt>
      <trkpt lat="46.08419" lon="4.6073">
        <ele>574</ele>
        <time>2017-02-02T10:16:15Z</time>
      </trkpt>
      <trkpt lat="46.08413" lon="4.60721">
        <ele>575</ele>
        <time>2017-02-02T10:16:22Z</time>
      </trkpt>
      <trkpt lat="46.08412" lon="4.6072">
        <ele>575</ele>
        <time>2017-02-02T10:16:23Z</time>
      </trkpt>
      <trkpt lat="46.08406" lon="4.60712">
        <ele>574</ele>
        <time>2017-02-02T10:16:29Z</time>
      </trkpt>
      <trkpt lat="46.08404" lon="4.60711">
        <ele>574</ele>
        <time>2017-02-02T10:16:30Z</time>
      </trkpt>
      <trkpt lat="46.08396" lon="4.60705">
        <ele>574</ele>
        <time>2017-02-02T10:16:36Z</time>
      </trkpt>
      <trkpt lat="46.08395" lon="4.60705">
        <ele>574</ele>
        <time>2017-02-02T10:16:37Z</time>
      </trkpt>
      <trkpt lat="46.08388" lon="4.60699">
        <ele>574</ele>
        <time>2017-02-02T10:16:43Z</time>
      </trkpt>
      <trkpt lat="46.08386" lon="4.60697">
        <ele>574</ele>
        <time>2017-02-02T10:16:44Z</time>
      </trkpt>
      <trkpt lat="46.08381" lon="4.60689">
        <ele>574</ele>
        <time>2017-02-02T10:16:50Z</time>
      </trkpt>
      <trkpt lat="46.0838" lon="4.60688">
        <ele>574</ele>
        <time>2017-02-02T10:16:51Z</time>
      </trkpt>
      <trkpt lat="46.08373" lon="4.6068">
        <ele>574</ele>
        <time>2017-02-02T10:16:58Z</time>
      </trkpt>
      <trkpt lat="46.08372" lon="4.60678">
        <ele>575</ele>
        <time>2017-02-02T10:16:59Z</time>
      </trkpt>
      <trkpt lat="46.08367" lon="4.60668">
        <ele>575</ele>
        <time>2017-02-02T10:17:05Z</time>
      </trkpt>
      <trkpt lat="46.08367" lon="4.60666">
        <ele>576</ele>
        <time>2017-02-02T10:17:06Z</time>
      </trkpt>
      <trkpt lat="46.08362" lon="4.60656">
        <ele>576</ele>
        <time>2017-02-02T10:17:12Z</time>
      </trkpt>
      <trkpt lat="46.08361" lon="4.60655">
        <ele>576</ele>
        <time>2017-02-02T10:17:13Z</time>
      </trkpt>
      <trkpt lat="46.08353" lon="4.60652">
        <ele>577</ele>
        <time>2017-02-02T10:17:19Z</time>
      </trkpt>
      <trkpt lat="46.08351" lon="4.60652">
        <ele>577</ele>
        <time>2017-02-02T10:17:20Z</time>
      </trkpt>
      <trkpt lat="46.08344" lon="4.6066">
        <ele>577</ele>
        <time>2017-02-02T10:17:26Z</time>
      </trkpt>
      <trkpt lat="46.08343" lon="4.60661">
        <ele>577</ele>
        <time>2017-02-02T10:17:27Z</time>
      </trkpt>
      <trkpt lat="46.08336" lon="4.60666">
        <ele>578</ele>
        <time>2017-02-02T10:17:33Z</time>
      </trkpt>
      <trkpt lat="46.08335" lon="4.60667">
        <ele>578</ele>
        <time>2017-02-02T10:17:34Z</time>
      </trkpt>
      <trkpt lat="46.08326" lon="4.60668">
        <ele>575</ele>
        <time>2017-02-02T10:17:41Z</time>
      </trkpt>
      <trkpt lat="46.08325" lon="4.60668">
        <ele>575</ele>
        <time>2017-02-02T10:17:42Z</time>
      </trkpt>
      <trkpt lat="46.08316" lon="4.60669">
        <ele>572</ele>
        <time>2017-02-02T10:17:48Z</time>
      </trkpt>
      <trkpt lat="46.08315" lon="4.60669">
        <ele>572</ele>
        <time>2017-02-02T10:17:49Z</time>
      </trkpt>
      <trkpt lat="46.08306" lon="4.60668">
        <ele>571</ele>
        <time>2017-02-02T10:17:55Z</time>
      </trkpt>
      <trkpt lat="46.08305" lon="4.60667">
        <ele>570</ele>
        <time>2017-02-02T10:17:56Z</time>
      </trkpt>
      <trkpt lat="46.08296" lon="4.60668">
        <ele>569</ele>
        <time>2017-02-02T10:18:03Z</time>
      </trkpt>
      <trkpt lat="46.08295" lon="4.60669">
        <ele>569</ele>
        <time>2017-02-02T10:18:04Z</time>
      </trkpt>
      <trkpt lat="46.08286" lon="4.60669">
        <ele>569</ele>
        <time>2017-02-02T10:18:11Z</time>
      </trkpt>
      <trkpt lat="46.08285" lon="4.60669">
        <ele>569</ele>
        <time>2017-02-02T10:18:12Z</time>
      </trkpt>
      <trkpt lat="46.08276" lon="4.60667">
        <ele>568</ele>
        <time>2017-02-02T10:18:18Z</time>
      </trkpt>
      <trkpt lat="46.08275" lon="4.60668">
        <ele>568</ele>
        <time>2017-02-02T10:18:19Z</time>
      </trkpt>
      <trkpt lat="46.08267" lon="4.60667">
        <ele>568</ele>
        <time>2017-02-02T10:18:25Z</time>
      </trkpt>
      <trkpt lat="46.08265" lon="4.60667">
        <ele>568</ele>
        <time>2017-02-02T10:18:26Z</time>
      </trkpt>
      <trkpt lat="46.08257" lon="4.60666">
        <ele>572</ele>
        <time>2017-02-02T10:18:33Z</time>
      </trkpt>
      <trkpt lat="46.08255" lon="4.60666">
        <ele>572</ele>
        <time>2017-02-02T10:18:34Z</time>
      </trkpt>
      <trkpt lat="46.08247" lon="4.60665">
        <ele>570</ele>
        <time>2017-02-02T10:18:39Z</time>
      </trkpt>
      <trkpt lat="46.08246" lon="4.60665">
        <ele>571</ele>
        <time>2017-02-02T10:18:40Z</time>
      </trkpt>
      <trkpt lat="46.08238" lon="4.60661">
        <ele>571</ele>
        <time>2017-02-02T10:18:46Z</time>
      </trkpt>
      <trkpt lat="46.08236" lon="4.6066">
        <ele>571</ele>
        <time>2017-02-02T10:18:47Z</time>
      </trkpt>
      <trkpt lat="46.08229" lon="4.60659">
        <ele>572</ele>
        <time>2017-02-02T10:18:52Z</time>
      </trkpt>
      <trkpt lat="46.08227" lon="4.6066">
        <ele>572</ele>
        <time>2017-02-02T10:18:53Z</time>
      </trkpt>
      <trkpt lat="46.08219" lon="4.6066">
        <ele>571</ele>
        <time>2017-02-02T10:18:59Z</time>
      </trkpt>
      <trkpt lat="46.08218" lon="4.60659">
        <ele>571</ele>
        <time>2017-02-02T10:19:00Z</time>
      </trkpt>
      <trkpt lat="46.0821" lon="4.60656">
        <ele>571</ele>
        <time>2017-02-02T10:19:06Z</time>
      </trkpt>
      <trkpt lat="46.08209" lon="4.60655">
        <ele>571</ele>
        <time>2017-02-02T10:19:07Z</time>
      </trkpt>
      <trkpt lat="46.08201" lon="4.60651">
        <ele>570</ele>
        <time>2017-02-02T10:19:13Z</time>
      </trkpt>
      <trkpt lat="46.08199" lon="4.60651">
        <ele>570</ele>
        <time>2017-02-02T10:19:14Z</time>
      </trkpt>
      <trkpt lat="46.08192" lon="4.60647">
        <ele>570</ele>
        <time>2017-02-02T10:19:19Z</time>
      </trkpt>
      <trkpt lat="46.0819" lon="4.60646">
        <ele>570</ele>
        <time>2017-02-02T10:19:20Z</time>
      </trkpt>
      <trkpt lat="46.08183" lon="4.60645">
        <ele>569</ele>
        <time>2017-02-02T10:19:25Z</time>
      </trkpt>
      <trkpt lat="46.08181" lon="4.60645">
        <ele>569</ele>
        <time>2017-02-02T10:19:26Z</time>
      </trkpt>
      <trkpt lat="46.08173" lon="4.60644">
        <ele>568</ele>
        <time>2017-02-02T10:19:32Z</time>
      </trkpt>
      <trkpt lat="46.08172" lon="4.60644">
        <ele>568</ele>
        <time>2017-02-02T10:19:33Z</time>
      </trkpt>
      <trkpt lat="46.08164" lon="4.60642">
        <ele>564</ele>
        <time>2017-02-02T10:19:39Z</time>
      </trkpt>
      <trkpt lat="46.08163" lon="4.60642">
        <ele>564</ele>
        <time>2017-02-02T10:19:40Z</time>
      </trkpt>
      <trkpt lat="46.08154" lon="4.6064">
        <ele>565</ele>
        <time>2017-02-02T10:19:47Z</time>
      </trkpt>
      <trkpt lat="46.08153" lon="4.6064">
        <ele>565</ele>
        <time>2017-02-02T10:19:48Z</time>
      </trkpt>
      <trkpt lat="46.08145" lon="4.60643">
        <ele>565</ele>
        <time>2017-02-02T10:19:55Z</time>
      </trkpt>
      <trkpt lat="46.08143" lon="4.60644">
        <ele>564</ele>
        <time>2017-02-02T10:19:56Z</time>
      </trkpt>
      <trkpt lat="46.08136" lon="4.60646">
        <ele>564</ele>
        <time>2017-02-02T10:20:02Z</time>
      </trkpt>
      <trkpt lat="46.08134" lon="4.60646">
        <ele>564</ele>
        <time>2017-02-02T10:20:03Z</time>
      </trkpt>
      <trkpt lat="46.08126" lon="4.60644">
        <ele>564</ele>
        <time>2017-02-02T10:20:09Z</time>
      </trkpt>
      <trkpt lat="46.08125" lon="4.60644">
        <ele>564</ele>
        <time>2017-02-02T10:20:10Z</time>
      </trkpt>
      <trkpt lat="46.08117" lon="4.60647">
        <ele>564</ele>
        <time>2017-02-02T10:20:16Z</time>
      </trkpt>
      <trkpt lat="46.08116" lon="4.60648">
        <ele>564</ele>
        <time>2017-02-02T10:20:17Z</time>
      </trkpt>
      <trkpt lat="46.08109" lon="4.60652">
        <ele>563</ele>
        <time>2017-02-02T10:20:22Z</time>
      </trkpt>
      <trkpt lat="46.08107" lon="4.60652">
        <ele>563</ele>
        <time>2017-02-02T10:20:23Z</time>
      </trkpt>
      <trkpt lat="46.08099" lon="4.60655">
        <ele>561</ele>
        <time>2017-02-02T10:20:29Z</time>
      </trkpt>
      <trkpt lat="46.08097" lon="4.60655">
        <ele>561</ele>
        <time>2017-02-02T10:20:30Z</time>
      </trkpt>
      <trkpt lat="46.08088" lon="4.60657">
        <ele>560</ele>
        <time>2017-02-02T10:20:36Z</time>
      </trkpt>
      <trkpt lat="46.08087" lon="4.60658">
        <ele>559</ele>
        <time>2017-02-02T10:20:37Z</time>
      </trkpt>
      <trkpt lat="46.0808" lon="4.60664">
        <ele>556</ele>
        <time>2017-02-02T10:20:43Z</time>
      </trkpt>
      <trkpt lat="46.08079" lon="4.60665">
        <ele>556</ele>
        <time>2017-02-02T10:20:44Z</time>
      </trkpt>
      <trkpt lat="46.08071" lon="4.60666">
        <ele>557</ele>
        <time>2017-02-02T10:20:50Z</time>
      </trkpt>
      <trkpt lat="46.0807" lon="4.60666">
        <ele>557</ele>
        <time>2017-02-02T10:20:51Z</time>
      </trkpt>
      <trkpt lat="46.08062" lon="4.60665">
        <ele>557</ele>
        <time>2017-02-02T10:20:56Z</time>
      </trkpt>
      <trkpt lat="46.08061" lon="4.60666">
        <ele>557</ele>
        <time>2017-02-02T10:20:57Z</time>
      </trkpt>
      <trkpt lat="46.08053" lon="4.6067">
        <ele>548</ele>
        <time>2017-02-02T10:21:02Z</time>
      </trkpt>
      <trkpt lat="46.08052" lon="4.60671">
        <ele>548</ele>
        <time>2017-02-02T10:21:03Z</time>
      </trkpt>
      <trkpt lat="46.08043" lon="4.60673">
        <ele>547</ele>
        <time>2017-02-02T10:21:09Z</time>
      </trkpt>
      <trkpt lat="46.08042" lon="4.60673">
        <ele>547</ele>
        <time>2017-02-02T10:21:10Z</time>
      </trkpt>
      <trkpt lat="46.08033" lon="4.60672">
        <ele>546</ele>
        <time>2017-02-02T10:21:16Z</time>
      </trkpt>
      <trkpt lat="46.08032" lon="4.60671">
        <ele>546</ele>
        <time>2017-02-02T10:21:17Z</time>
      </trkpt>
      <trkpt lat="46.08023" lon="4.6067">
        <ele>546</ele>
        <time>2017-02-02T10:21:24Z</time>
      </trkpt>
      <trkpt lat="46.08022" lon="4.6067">
        <ele>546</ele>
        <time>2017-02-02T10:21:25Z</time>
      </trkpt>
      <trkpt lat="46.08013" lon="4.60669">
        <ele>547</ele>
        <time>2017-02-02T10:21:33Z</time>
      </trkpt>
      <trkpt lat="46.08012" lon="4.60668">
        <ele>547</ele>
        <time>2017-02-02T10:21:34Z</time>
      </trkpt>
      <trkpt lat="46.08004" lon="4.60664">
        <ele>550</ele>
        <time>2017-02-02T10:21:40Z</time>
      </trkpt>
      <trkpt lat="46.08003" lon="4.60663">
        <ele>550</ele>
        <time>2017-02-02T10:21:41Z</time>
      </trkpt>
      <trkpt lat="46.07997" lon="4.60656">
        <ele>545</ele>
        <time>2017-02-02T10:21:47Z</time>
      </trkpt>
      <trkpt lat="46.07995" lon="4.60655">
        <ele>545</ele>
        <time>2017-02-02T10:21:48Z</time>
      </trkpt>
      <trkpt lat="46.0799" lon="4.60647">
        <ele>543</ele>
        <time>2017-02-02T10:21:53Z</time>
      </trkpt>
      <trkpt lat="46.07989" lon="4.60646">
        <ele>543</ele>
        <time>2017-02-02T10:21:54Z</time>
      </trkpt>
      <trkpt lat="46.07982" lon="4.60637">
        <ele>542</ele>
        <time>2017-02-02T10:22:00Z</time>
      </trkpt>
      <trkpt lat="46.07981" lon="4.60636">
        <ele>542</ele>
        <time>2017-02-02T10:22:01Z</time>
      </trkpt>
      <trkpt lat="46.07975" lon="4.60629">
        <ele>541</ele>
        <time>2017-02-02T10:22:07Z</time>
      </trkpt>
      <trkpt lat="46.07973" lon="4.60627">
        <ele>541</ele>
        <time>2017-02-02T10:22:08Z</time>
      </trkpt>
      <trkpt lat="46.07968" lon="4.60618">
        <ele>540</ele>
        <time>2017-02-02T10:22:15Z</time>
      </trkpt>
      <trkpt lat="46.07967" lon="4.60616">
        <ele>540</ele>
        <time>2017-02-02T10:22:16Z</time>
      </trkpt>
      <trkpt lat="46.07963" lon="4.60607">
        <ele>540</ele>
        <time>2017-02-02T10:22:23Z</time>
      </trkpt>
      <trkpt lat="46.07962" lon="4.60605">
        <ele>540</ele>
        <time>2017-02-02T10:22:24Z</time>
      </trkpt>
      <trkpt lat="46.07961" lon="4.60593">
        <ele>540</ele>
        <time>2017-02-02T10:23:05Z</time>
      </trkpt>
      <trkpt lat="46.07961" lon="4.60592">
        <ele>540</ele>
        <time>2017-02-02T10:23:06Z</time>
      </trkpt>
      <trkpt lat="46.07958" lon="4.6058">
        <ele>542</ele>
        <time>2017-02-02T10:23:12Z</time>
      </trkpt>
      <trkpt lat="46.07957" lon="4.60578">
        <ele>542</ele>
        <time>2017-02-02T10:23:13Z</time>
      </trkpt>
      <trkpt lat="46.07953" lon="4.60568">
        <ele>541</ele>
        <time>2017-02-02T10:23:19Z</time>
      </trkpt>
      <trkpt lat="46.07952" lon="4.60566">
        <ele>541</ele>
        <time>2017-02-02T10:23:20Z</time>
      </trkpt>
      <trkpt lat="46.07949" lon="4.60555">
        <ele>541</ele>
        <time>2017-02-02T10:23:26Z</time>
      </trkpt>
      <trkpt lat="46.07949" lon="4.60553">
        <ele>541</ele>
        <time>2017-02-02T10:23:27Z</time>
      </trkpt>
      <trkpt lat="46.07946" lon="4.60541">
        <ele>541</ele>
        <time>2017-02-02T10:23:33Z</time>
      </trkpt>
      <trkpt lat="46.07946" lon="4.60539">
        <ele>541</ele>
        <time>2017-02-02T10:23:34Z</time>
      </trkpt>
      <trkpt lat="46.07943" lon="4.60528">
        <ele>541</ele>
        <time>2017-02-02T10:23:40Z</time>
      </trkpt>
      <trkpt lat="46.07942" lon="4.60527">
        <ele>541</ele>
        <time>2017-02-02T10:23:41Z</time>
      </trkpt>
      <trkpt lat="46.07939" lon="4.60516">
        <ele>540</ele>
        <time>2017-02-02T10:23:47Z</time>
      </trkpt>
      <trkpt lat="46.07939" lon="4.60514">
        <ele>540</ele>
        <time>2017-02-02T10:23:48Z</time>
      </trkpt>
      <trkpt lat="46.07936" lon="4.60503">
        <ele>539</ele>
        <time>2017-02-02T10:23:54Z</time>
      </trkpt>
      <trkpt lat="46.07936" lon="4.60501">
        <ele>539</ele>
        <time>2017-02-02T10:23:55Z</time>
      </trkpt>
      <trkpt lat="46.07933" lon="4.6049">
        <ele>539</ele>
        <time>2017-02-02T10:24:01Z</time>
      </trkpt>
      <trkpt lat="46.07932" lon="4.60489">
        <ele>539</ele>
        <time>2017-02-02T10:24:02Z</time>
      </trkpt>
      <trkpt lat="46.07927" lon="4.60479">
        <ele>539</ele>
        <time>2017-02-02T10:24:08Z</time>
      </trkpt>
      <trkpt lat="46.07926" lon="4.60477">
        <ele>539</ele>
        <time>2017-02-02T10:24:09Z</time>
      </trkpt>
      <trkpt lat="46.07925" lon="4.60466">
        <ele>539</ele>
        <time>2017-02-02T10:24:15Z</time>
      </trkpt>
      <trkpt lat="46.07925" lon="4.60464">
        <ele>540</ele>
        <time>2017-02-02T10:24:16Z</time>
      </trkpt>
      <trkpt lat="46.07926" lon="4.60451">
        <ele>539</ele>
        <time>2017-02-02T10:24:22Z</time>
      </trkpt>
      <trkpt lat="46.07926" lon="4.60449">
        <ele>539</ele>
        <time>2017-02-02T10:24:23Z</time>
      </trkpt>
      <trkpt lat="46.07925" lon="4.60437">
        <ele>538</ele>
        <time>2017-02-02T10:24:29Z</time>
      </trkpt>
      <trkpt lat="46.07925" lon="4.60435">
        <ele>537</ele>
        <time>2017-02-02T10:24:30Z</time>
      </trkpt>
      <trkpt lat="46.07922" lon="4.60424">
        <ele>535</ele>
        <time>2017-02-02T10:24:36Z</time>
      </trkpt>
      <trkpt lat="46.07922" lon="4.60422">
        <ele>534</ele>
        <time>2017-02-02T10:24:37Z</time>
      </trkpt>
      <trkpt lat="46.07927" lon="4.60412">
        <ele>534</ele>
        <time>2017-02-02T10:24:43Z</time>
      </trkpt>
      <trkpt lat="46.07928" lon="4.60411">
        <ele>534</ele>
        <time>2017-02-02T10:24:44Z</time>
      </trkpt>
      <trkpt lat="46.07934" lon="4.60402">
        <ele>536</ele>
        <time>2017-02-02T10:24:50Z</time>
      </trkpt>
      <trkpt lat="46.07935" lon="4.60401">
        <ele>536</ele>
        <time>2017-02-02T10:24:51Z</time>
      </trkpt>
      <trkpt lat="46.07939" lon="4.6039">
        <ele>537</ele>
        <time>2017-02-02T10:24:58Z</time>
      </trkpt>
      <trkpt lat="46.0794" lon="4.60388">
        <ele>537</ele>
        <time>2017-02-02T10:24:59Z</time>
      </trkpt>
      <trkpt lat="46.07943" lon="4.60377">
        <ele>537</ele>
        <time>2017-02-02T10:25:05Z</time>
      </trkpt>
      <trkpt lat="46.07943" lon="4.60376">
        <ele>537</ele>
        <time>2017-02-02T10:25:06Z</time>
      </trkpt>
      <trkpt lat="46.07945" lon="4.60364">
        <ele>537</ele>
        <time>2017-02-02T10:25:13Z</time>
      </trkpt>
      <trkpt lat="46.07946" lon="4.60362">
        <ele>537</ele>
        <time>2017-02-02T10:25:14Z</time>
      </trkpt>
      <trkpt lat="46.0795" lon="4.60353">
        <ele>537</ele>
        <time>2017-02-02T10:25:20Z</time>
      </trkpt>
      <trkpt lat="46.07951" lon="4.60352">
        <ele>537</ele>
        <time>2017-02-02T10:25:21Z</time>
      </trkpt>
      <trkpt lat="46.07958" lon="4.60344">
        <ele>538</ele>
        <time>2017-02-02T10:25:27Z</time>
      </trkpt>
      <trkpt lat="46.07959" lon="4.60342">
        <ele>538</ele>
        <time>2017-02-02T10:25:28Z</time>
      </trkpt>
      <trkpt lat="46.07964" lon="4.60331">
        <ele>537</ele>
        <time>2017-02-02T10:25:35Z</time>
      </trkpt>
      <trkpt lat="46.07965" lon="4.6033">
        <ele>538</ele>
        <time>2017-02-02T10:25:36Z</time>
      </trkpt>
      <trkpt lat="46.07971" lon="4.60323">
        <ele>539</ele>
        <time>2017-02-02T10:25:42Z</time>
      </trkpt>
      <trkpt lat="46.07972" lon="4.60322">
        <ele>539</ele>
        <time>2017-02-02T10:25:43Z</time>
      </trkpt>
      <trkpt lat="46.0798" lon="4.60316">
        <ele>540</ele>
        <time>2017-02-02T10:25:50Z</time>
      </trkpt>
      <trkpt lat="46.07981" lon="4.60315">
        <ele>540</ele>
        <time>2017-02-02T10:25:51Z</time>
      </trkpt>
      <trkpt lat="46.07985" lon="4.60304">
        <ele>539</ele>
        <time>2017-02-02T10:26:01Z</time>
      </trkpt>
      <trkpt lat="46.07986" lon="4.60303">
        <ele>539</ele>
        <time>2017-02-02T10:26:02Z</time>
      </trkpt>
      <trkpt lat="46.07991" lon="4.60292">
        <ele>540</ele>
        <time>2017-02-02T10:26:11Z</time>
      </trkpt>
      <trkpt lat="46.07992" lon="4.60291">
        <ele>540</ele>
        <time>2017-02-02T10:26:12Z</time>
      </trkpt>
      <trkpt lat="46.07993" lon="4.60278">
        <ele>540</ele>
        <time>2017-02-02T10:26:26Z</time>
      </trkpt>
      <trkpt lat="46.07993" lon="4.60277">
        <ele>540</ele>
        <time>2017-02-02T10:26:27Z</time>
      </trkpt>
      <trkpt lat="46.07997" lon="4.60266">
        <ele>541</ele>
        <time>2017-02-02T10:26:33Z</time>
      </trkpt>
      <trkpt lat="46.07997" lon="4.60265">
        <ele>542</ele>
        <time>2017-02-02T10:26:34Z</time>
      </trkpt>
      <trkpt lat="46.07998" lon="4.60252">
        <ele>544</ele>
        <time>2017-02-02T10:26:43Z</time>
      </trkpt>
      <trkpt lat="46.07998" lon="4.6025">
        <ele>544</ele>
        <time>2017-02-02T10:26:44Z</time>
      </trkpt>
      <trkpt lat="46.07998" lon="4.60238">
        <ele>543</ele>
        <time>2017-02-02T10:26:51Z</time>
      </trkpt>
      <trkpt lat="46.07998" lon="4.60237">
        <ele>543</ele>
        <time>2017-02-02T10:26:52Z</time>
      </trkpt>
      <trkpt lat="46.07999" lon="4.60224">
        <ele>542</ele>
        <time>2017-02-02T10:26:58Z</time>
      </trkpt>
      <trkpt lat="46.07999" lon="4.60222">
        <ele>542</ele>
        <time>2017-02-02T10:26:59Z</time>
      </trkpt>
      <trkpt lat="46.07998" lon="4.6021">
        <ele>542</ele>
        <time>2017-02-02T10:27:04Z</time>
      </trkpt>
      <trkpt lat="46.07998" lon="4.60208">
        <ele>542</ele>
        <time>2017-02-02T10:27:05Z</time>
      </trkpt>
      <trkpt lat="46.07995" lon="4.60196">
        <ele>543</ele>
        <time>2017-02-02T10:27:11Z</time>
      </trkpt>
      <trkpt lat="46.07995" lon="4.60195">
        <ele>543</ele>
        <time>2017-02-02T10:27:12Z</time>
      </trkpt>
      <trkpt lat="46.07991" lon="4.60183">
        <ele>545</ele>
        <time>2017-02-02T10:27:19Z</time>
      </trkpt>
      <trkpt lat="46.07991" lon="4.60182">
        <ele>545</ele>
        <time>2017-02-02T10:27:20Z</time>
      </trkpt>
      <trkpt lat="46.07987" lon="4.60171">
        <ele>546</ele>
        <time>2017-02-02T10:27:27Z</time>
      </trkpt>
      <trkpt lat="46.07987" lon="4.60169">
        <ele>546</ele>
        <time>2017-02-02T10:27:28Z</time>
      </trkpt>
      <trkpt lat="46.07985" lon="4.60157">
        <ele>549</ele>
        <time>2017-02-02T10:27:36Z</time>
      </trkpt>
      <trkpt lat="46.07985" lon="4.60156">
        <ele>549</ele>
        <time>2017-02-02T10:27:37Z</time>
      </trkpt>
      <trkpt lat="46.07981" lon="4.60145">
        <ele>549</ele>
        <time>2017-02-02T10:27:45Z</time>
      </trkpt>
      <trkpt lat="46.0798" lon="4.60144">
        <ele>549</ele>
        <time>2017-02-02T10:27:46Z</time>
      </trkpt>
      <trkpt lat="46.07979" lon="4.60132">
        <ele>549</ele>
        <time>2017-02-02T10:27:54Z</time>
      </trkpt>
      <trkpt lat="46.07978" lon="4.6013">
        <ele>549</ele>
        <time>2017-02-02T10:27:55Z</time>
      </trkpt>
      <trkpt lat="46.07975" lon="4.60119">
        <ele>550</ele>
        <time>2017-02-02T10:28:02Z</time>
      </trkpt>
      <trkpt lat="46.07975" lon="4.60118">
        <ele>550</ele>
        <time>2017-02-02T10:28:03Z</time>
      </trkpt>
      <trkpt lat="46.0797" lon="4.60107">
        <ele>550</ele>
        <time>2017-02-02T10:28:10Z</time>
      </trkpt>
      <trkpt lat="46.0797" lon="4.60106">
        <ele>550</ele>
        <time>2017-02-02T10:28:11Z</time>
      </trkpt>
      <trkpt lat="46.07964" lon="4.60096">
        <ele>550</ele>
        <time>2017-02-02T10:28:18Z</time>
      </trkpt>
      <trkpt lat="46.07963" lon="4.60094">
        <ele>550</ele>
        <time>2017-02-02T10:28:19Z</time>
      </trkpt>
      <trkpt lat="46.07958" lon="4.60085">
        <ele>550</ele>
        <time>2017-02-02T10:28:25Z</time>
      </trkpt>
      <trkpt lat="46.07957" lon="4.60084">
        <ele>550</ele>
        <time>2017-02-02T10:28:26Z</time>
      </trkpt>
      <trkpt lat="46.07952" lon="4.60074">
        <ele>555</ele>
        <time>2017-02-02T10:28:33Z</time>
      </trkpt>
      <trkpt lat="46.07951" lon="4.60072">
        <ele>555</ele>
        <time>2017-02-02T10:28:34Z</time>
      </trkpt>
      <trkpt lat="46.07949" lon="4.6006">
        <ele>556</ele>
        <time>2017-02-02T10:28:42Z</time>
      </trkpt>
      <trkpt lat="46.07948" lon="4.60059">
        <ele>556</ele>
        <time>2017-02-02T10:28:43Z</time>
      </trkpt>
      <trkpt lat="46.07946" lon="4.60047">
        <ele>556</ele>
        <time>2017-02-02T10:28:52Z</time>
      </trkpt>
      <trkpt lat="46.07945" lon="4.60045">
        <ele>556</ele>
        <time>2017-02-02T10:28:53Z</time>
      </trkpt>
      <trkpt lat="46.07939" lon="4.60037">
        <ele>557</ele>
        <time>2017-02-02T10:29:01Z</time>
      </trkpt>
      <trkpt lat="46.07938" lon="4.60036">
        <ele>557</ele>
        <time>2017-02-02T10:29:02Z</time>
      </trkpt>
      <trkpt lat="46.07935" lon="4.60025">
        <ele>557</ele>
        <time>2017-02-02T10:29:09Z</time>
      </trkpt>
      <trkpt lat="46.07935" lon="4.60024">
        <ele>557</ele>
        <time>2017-02-02T10:29:10Z</time>
      </trkpt>
      <trkpt lat="46.0793" lon="4.60013">
        <ele>557</ele>
        <time>2017-02-02T10:29:18Z</time>
      </trkpt>
      <trkpt lat="46.0793" lon="4.60012">
        <ele>557</ele>
        <time>2017-02-02T10:29:19Z</time>
      </trkpt>
      <trkpt lat="46.07923" lon="4.60004">
        <ele>557</ele>
        <time>2017-02-02T10:29:26Z</time>
      </trkpt>
      <trkpt lat="46.07923" lon="4.60003">
        <ele>557</ele>
        <time>2017-02-02T10:29:27Z</time>
      </trkpt>
      <trkpt lat="46.0792" lon="4.59991">
        <ele>559</ele>
        <time>2017-02-02T10:29:36Z</time>
      </trkpt>
      <trkpt lat="46.0792" lon="4.59989">
        <ele>560</ele>
        <time>2017-02-02T10:29:37Z</time>
      </trkpt>
      <trkpt lat="46.07921" lon="4.59977">
        <ele>561</ele>
        <time>2017-02-02T10:29:51Z</time>
      </trkpt>
      <trkpt lat="46.07921" lon="4.59975">
        <ele>562</ele>
        <time>2017-02-02T10:29:52Z</time>
      </trkpt>
      <trkpt lat="46.07925" lon="4.59964">
        <ele>563</ele>
        <time>2017-02-02T10:30:00Z</time>
      </trkpt>
      <trkpt lat="46.07925" lon="4.59964">
        <ele>563</ele>
        <time>2017-02-02T10:30:01Z</time>
      </trkpt>
      <trkpt lat="46.07931" lon="4.59955">
        <ele>564</ele>
        <time>2017-02-02T10:30:11Z</time>
      </trkpt>
      <trkpt lat="46.07932" lon="4.59954">
        <ele>564</ele>
        <time>2017-02-02T10:30:12Z</time>
      </trkpt>
      <trkpt lat="46.07938" lon="4.59945">
        <ele>564</ele>
        <time>2017-02-02T10:30:19Z</time>
      </trkpt>
      <trkpt lat="46.07938" lon="4.59945">
        <ele>564</ele>
        <time>2017-02-02T10:30:20Z</time>
      </trkpt>
      <trkpt lat="46.07945" lon="4.59937">
        <ele>565</ele>
        <time>2017-02-02T10:30:28Z</time>
      </trkpt>
      <trkpt lat="46.07946" lon="4.59936">
        <ele>565</ele>
        <time>2017-02-02T10:30:29Z</time>
      </trkpt>
      <trkpt lat="46.07953" lon="4.5993">
        <ele>565</ele>
        <time>2017-02-02T10:30:37Z</time>
      </trkpt>
      <trkpt lat="46.07954" lon="4.59929">
        <ele>565</ele>
        <time>2017-02-02T10:30:38Z</time>
      </trkpt>
      <trkpt lat="46.0796" lon="4.59922">
        <ele>565</ele>
        <time>2017-02-02T10:30:47Z</time>
      </trkpt>
      <trkpt lat="46.07961" lon="4.59921">
        <ele>565</ele>
        <time>2017-02-02T10:30:48Z</time>
      </trkpt>
      <trkpt lat="46.07966" lon="4.59911">
        <ele>566</ele>
        <time>2017-02-02T10:31:41Z</time>
      </trkpt>
      <trkpt lat="46.07967" lon="4.59911">
        <ele>566</ele>
        <time>2017-02-02T10:31:42Z</time>
      </trkpt>
      <trkpt lat="46.07969" lon="4.59899">
        <ele>566</ele>
        <time>2017-02-02T10:31:51Z</time>
      </trkpt>
      <trkpt lat="46.0797" lon="4.59897">
        <ele>566</ele>
        <time>2017-02-02T10:31:52Z</time>
      </trkpt>
      <trkpt lat="46.07974" lon="4.59887">
        <ele>566</ele>
        <time>2017-02-02T10:31:58Z</time>
      </trkpt>
      <trkpt lat="46.07975" lon="4.59886">
        <ele>566</ele>
        <time>2017-02-02T10:31:59Z</time>
      </trkpt>
      <trkpt lat="46.07979" lon="4.59875">
        <ele>566</ele>
        <time>2017-02-02T10:32:06Z</time>
      </trkpt>
      <trkpt lat="46.07979" lon="4.59873">
        <ele>566</ele>
        <time>2017-02-02T10:32:07Z</time>
      </trkpt>
      <trkpt lat="46.07979" lon="4.5986">
        <ele>566</ele>
        <time>2017-02-02T10:32:14Z</time>
      </trkpt>
      <trkpt lat="46.07979" lon="4.59858">
        <ele>566</ele>
        <time>2017-02-02T10:32:15Z</time>
      </trkpt>
      <trkpt lat="46.07977" lon="4.59846">
        <ele>565</ele>
        <time>2017-02-02T10:32:23Z</time>
      </trkpt>
      <trkpt lat="46.07977" lon="4.59845">
        <ele>566</ele>
        <time>2017-02-02T10:32:24Z</time>
      </trkpt>
      <trkpt lat="46.07975" lon="4.59833">
        <ele>565</ele>
        <time>2017-02-02T10:32:31Z</time>
      </trkpt>
      <trkpt lat="46.07975" lon="4.59832">
        <ele>565</ele>
        <time>2017-02-02T10:32:32Z</time>
      </trkpt>
      <trkpt lat="46.07973" lon="4.59821">
        <ele>565</ele>
        <time>2017-02-02T10:32:38Z</time>
      </trkpt>
      <trkpt lat="46.07973" lon="4.59819">
        <ele>565</ele>
        <time>2017-02-02T10:32:39Z</time>
      </trkpt>
      <trkpt lat="46.07972" lon="4.59808">
        <ele>565</ele>
        <time>2017-02-02T10:32:45Z</time>
      </trkpt>
      <trkpt lat="46.07972" lon="4.59806">
        <ele>565</ele>
        <time>2017-02-02T10:32:46Z</time>
      </trkpt>
      <trkpt lat="46.07969" lon="4.59794">
        <ele>565</ele>
        <time>2017-02-02T10:32:53Z</time>
      </trkpt>
      <trkpt lat="46.07969" lon="4.59793">
        <ele>565</ele>
        <time>2017-02-02T10:32:54Z</time>
      </trkpt>
      <trkpt lat="46.07966" lon="4.59781">
        <ele>565</ele>
        <time>2017-02-02T10:33:03Z</time>
      </trkpt>
      <trkpt lat="46.07966" lon="4.59779">
        <ele>565</ele>
        <time>2017-02-02T10:33:04Z</time>
      </trkpt>
      <trkpt lat="46.07963" lon="4.59768">
        <ele>565</ele>
        <time>2017-02-02T10:33:11Z</time>
      </trkpt>
      <trkpt lat="46.07962" lon="4.59766">
        <ele>565</ele>
        <time>2017-02-02T10:33:12Z</time>
      </trkpt>
      <trkpt lat="46.07959" lon="4.59756">
        <ele>565</ele>
        <time>2017-02-02T10:33:18Z</time>
      </trkpt>
      <trkpt lat="46.07959" lon="4.59754">
        <ele>565</ele>
        <time>2017-02-02T10:33:19Z</time>
      </trkpt>
      <trkpt lat="46.07955" lon="4.59743">
        <ele>562</ele>
        <time>2017-02-02T10:33:25Z</time>
      </trkpt>
      <trkpt lat="46.07954" lon="4.59741">
        <ele>562</ele>
        <time>2017-02-02T10:33:26Z</time>
      </trkpt>
      <trkpt lat="46.07949" lon="4.59731">
        <ele>562</ele>
        <time>2017-02-02T10:33:32Z</time>
      </trkpt>
      <trkpt lat="46.07949" lon="4.5973">
        <ele>563</ele>
        <time>2017-02-02T10:33:33Z</time>
      </trkpt>
      <trkpt lat="46.07944" lon="4.59719">
        <ele>563</ele>
        <time>2017-02-02T10:33:40Z</time>
      </trkpt>
      <trkpt lat="46.07943" lon="4.59718">
        <ele>563</ele>
        <time>2017-02-02T10:33:41Z</time>
      </trkpt>
      <trkpt lat="46.07939" lon="4.59708">
        <ele>563</ele>
        <time>2017-02-02T10:33:49Z</time>
      </trkpt>
      <trkpt lat="46.07938" lon="4.59706">
        <ele>563</ele>
        <time>2017-02-02T10:33:50Z</time>
      </trkpt>
      <trkpt lat="46.07935" lon="4.59695">
        <ele>563</ele>
        <time>2017-02-02T10:33:57Z</time>
      </trkpt>
      <trkpt lat="46.07935" lon="4.59693">
        <ele>563</ele>
        <time>2017-02-02T10:33:58Z</time>
      </trkpt>
      <trkpt lat="46.07933" lon="4.59682">
        <ele>564</ele>
        <time>2017-02-02T10:34:05Z</time>
      </trkpt>
      <trkpt lat="46.07933" lon="4.5968">
        <ele>564</ele>
        <time>2017-02-02T10:34:06Z</time>
      </trkpt>
      <trkpt lat="46.07929" lon="4.5967">
        <ele>566</ele>
        <time>2017-02-02T10:34:13Z</time>
      </trkpt>
      <trkpt lat="46.07929" lon="4.59668">
        <ele>566</ele>
        <time>2017-02-02T10:34:14Z</time>
      </trkpt>
      <trkpt lat="46.07927" lon="4.59656">
        <ele>563</ele>
        <time>2017-02-02T10:34:21Z</time>
      </trkpt>
      <trkpt lat="46.07927" lon="4.59654">
        <ele>563</ele>
        <time>2017-02-02T10:34:22Z</time>
      </trkpt>
      <trkpt lat="46.07928" lon="4.59642">
        <ele>561</ele>
        <time>2017-02-02T10:34:31Z</time>
      </trkpt>
      <trkpt lat="46.07928" lon="4.59641">
        <ele>561</ele>
        <time>2017-02-02T10:34:32Z</time>
      </trkpt>
      <trkpt lat="46.07925" lon="4.59629">
        <ele>560</ele>
        <time>2017-02-02T10:35:13Z</time>
      </trkpt>
      <trkpt lat="46.07925" lon="4.59628">
        <ele>560</ele>
        <time>2017-02-02T10:35:14Z</time>
      </trkpt>
      <trkpt lat="46.07925" lon="4.59615">
        <ele>560</ele>
        <time>2017-02-02T10:35:22Z</time>
      </trkpt>
      <trkpt lat="46.07925" lon="4.59614">
        <ele>560</ele>
        <time>2017-02-02T10:35:23Z</time>
      </trkpt>
      <trkpt lat="46.07924" lon="4.59603">
        <ele>562</ele>
        <time>2017-02-02T10:35:31Z</time>
      </trkpt>
      <trkpt lat="46.07925" lon="4.59601">
        <ele>562</ele>
        <time>2017-02-02T10:35:32Z</time>
      </trkpt>
      <trkpt lat="46.07928" lon="4.59589">
        <ele>563</ele>
        <time>2017-02-02T10:35:38Z</time>
      </trkpt>
      <trkpt lat="46.07929" lon="4.59585">
        <ele>563</ele>
        <time>2017-02-02T10:35:39Z</time>
      </trkpt>
      <trkpt lat="46.07931" lon="4.59574">
        <ele>561</ele>
        <time>2017-02-02T10:35:46Z</time>
      </trkpt>
      <trkpt lat="46.07931" lon="4.59572">
        <ele>561</ele>
        <time>2017-02-02T10:35:47Z</time>
      </trkpt>
      <trkpt lat="46.07932" lon="4.5956">
        <ele>559</ele>
        <time>2017-02-02T10:35:55Z</time>
      </trkpt>
      <trkpt lat="46.07932" lon="4.59558">
        <ele>559</ele>
        <time>2017-02-02T10:35:56Z</time>
      </trkpt>
      <trkpt lat="46.07933" lon="4.59545">
        <ele>558</ele>
        <time>2017-02-02T10:36:04Z</time>
      </trkpt>
      <trkpt lat="46.07934" lon="4.59544">
        <ele>558</ele>
        <time>2017-02-02T10:36:05Z</time>
      </trkpt>
      <trkpt lat="46.07934" lon="4.59532">
        <ele>558</ele>
        <time>2017-02-02T10:36:13Z</time>
      </trkpt>
      <trkpt lat="46.07934" lon="4.59531">
        <ele>558</ele>
        <time>2017-02-02T10:36:14Z</time>
      </trkpt>
      <trkpt lat="46.07935" lon="4.59519">
        <ele>559</ele>
        <time>2017-02-02T10:36:20Z</time>
      </trkpt>
      <trkpt lat="46.07935" lon="4.59516">
        <ele>559</ele>
        <time>2017-02-02T10:36:21Z</time>
      </trkpt>
      <trkpt lat="46.07935" lon="4.59504">
        <ele>560</ele>
        <time>2017-02-02T10:36:26Z</time>
      </trkpt>
      <trkpt lat="46.07934" lon="4.59502">
        <ele>560</ele>
        <time>2017-02-02T10:36:27Z</time>
      </trkpt>
      <trkpt lat="46.07936" lon="4.59491">
        <ele>559</ele>
        <time>2017-02-02T10:36:32Z</time>
      </trkpt>
      <trkpt lat="46.07936" lon="4.59489">
        <ele>559</ele>
        <time>2017-02-02T10:36:33Z</time>
      </trkpt>
      <trkpt lat="46.07938" lon="4.59476">
        <ele>558</ele>
        <time>2017-02-02T10:36:40Z</time>
      </trkpt>
      <trkpt lat="46.07938" lon="4.59474">
        <ele>558</ele>
        <time>2017-02-02T10:36:41Z</time>
      </trkpt>
      <trkpt lat="46.0794" lon="4.59463">
        <ele>557</ele>
        <time>2017-02-02T10:36:47Z</time>
      </trkpt>
      <trkpt lat="46.0794" lon="4.59461">
        <ele>557</ele>
        <time>2017-02-02T10:36:48Z</time>
      </trkpt>
      <trkpt lat="46.07939" lon="4.59449">
        <ele>557</ele>
        <time>2017-02-02T10:36:57Z</time>
      </trkpt>
      <trkpt lat="46.07939" lon="4.59447">
        <ele>557</ele>
        <time>2017-02-02T10:36:58Z</time>
      </trkpt>
      <trkpt lat="46.0794" lon="4.59434">
        <ele>557</ele>
        <time>2017-02-02T10:37:05Z</time>
      </trkpt>
      <trkpt lat="46.0794" lon="4.59433">
        <ele>558</ele>
        <time>2017-02-02T10:37:06Z</time>
      </trkpt>
      <trkpt lat="46.07941" lon="4.5942">
        <ele>558</ele>
        <time>2017-02-02T10:37:13Z</time>
      </trkpt>
      <trkpt lat="46.07942" lon="4.59418">
        <ele>558</ele>
        <time>2017-02-02T10:37:14Z</time>
      </trkpt>
      <trkpt lat="46.07942" lon="4.59406">
        <ele>557</ele>
        <time>2017-02-02T10:37:21Z</time>
      </trkpt>
      <trkpt lat="46.07941" lon="4.59405">
        <ele>557</ele>
        <time>2017-02-02T10:37:22Z</time>
      </trkpt>
      <trkpt lat="46.07943" lon="4.59393">
        <ele>556</ele>
        <time>2017-02-02T10:37:27Z</time>
      </trkpt>
      <trkpt lat="46.07942" lon="4.59391">
        <ele>556</ele>
        <time>2017-02-02T10:37:28Z</time>
      </trkpt>
      <trkpt lat="46.07942" lon="4.59379">
        <ele>556</ele>
        <time>2017-02-02T10:37:33Z</time>
      </trkpt>
      <trkpt lat="46.07942" lon="4.59377">
        <ele>556</ele>
        <time>2017-02-02T10:37:34Z</time>
      </trkpt>
      <trkpt lat="46.07942" lon="4.59365">
        <ele>556</ele>
        <time>2017-02-02T10:37:41Z</time>
      </trkpt>
      <trkpt lat="46.07942" lon="4.59364">
        <ele>556</ele>
        <time>2017-02-02T10:37:42Z</time>
      </trkpt>
      <trkpt lat="46.07942" lon="4.59351">
        <ele>556</ele>
        <time>2017-02-02T10:37:55Z</time>
      </trkpt>
      <trkpt lat="46.07942" lon="4.5935">
        <ele>556</ele>
        <time>2017-02-02T10:37:56Z</time>
      </trkpt>
      <trkpt lat="46.07943" lon="4.59337">
        <ele>556</ele>
        <time>2017-02-02T10:38:04Z</time>
      </trkpt>
      <trkpt lat="46.07943" lon="4.59335">
        <ele>556</ele>
        <time>2017-02-02T10:38:05Z</time>
      </trkpt>
      <trkpt lat="46.07946" lon="4.59323">
        <ele>555</ele>
        <time>2017-02-02T10:38:10Z</time>
      </trkpt>
      <trkpt lat="46.07946" lon="4.59321">
        <ele>555</ele>
        <time>2017-02-02T10:38:11Z</time>
      </trkpt>
      <trkpt lat="46.07948" lon="4.59309">
        <ele>554</ele>
        <time>2017-02-02T10:38:19Z</time>
      </trkpt>
      <trkpt lat="46.07948" lon="4.59307">
        <ele>554</ele>
        <time>2017-02-02T10:38:20Z</time>
      </trkpt>
      <trkpt lat="46.07948" lon="4.59295">
        <ele>554</ele>
        <time>2017-02-02T10:38:26Z</time>
      </trkpt>
      <trkpt lat="46.07948" lon="4.59293">
        <ele>554</ele>
        <time>2017-02-02T10:38:27Z</time>
      </trkpt>
      <trkpt lat="46.07949" lon="4.59281">
        <ele>554</ele>
        <time>2017-02-02T10:38:34Z</time>
      </trkpt>
      <trkpt lat="46.07949" lon="4.59279">
        <ele>554</ele>
        <time>2017-02-02T10:38:35Z</time>
      </trkpt>
      <trkpt lat="46.0795" lon="4.59267">
        <ele>554</ele>
        <time>2017-02-02T10:38:43Z</time>
      </trkpt>
      <trkpt lat="46.07951" lon="4.59266">
        <ele>554</ele>
        <time>2017-02-02T10:38:44Z</time>
      </trkpt>
      <trkpt lat="46.07951" lon="4.59254">
        <ele>554</ele>
        <time>2017-02-02T10:38:51Z</time>
      </trkpt>
      <trkpt lat="46.07951" lon="4.59252">
        <ele>554</ele>
        <time>2017-02-02T10:38:52Z</time>
      </trkpt>
      <trkpt lat="46.07951" lon="4.59242">
        <ele>554</ele>
        <time>2017-02-02T10:38:56Z</time>
      </trkpt>
      <trkpt lat="46.07952" lon="4.59239">
        <ele>554</ele>
        <time>2017-02-02T10:38:57Z</time>
      </trkpt>
      <trkpt lat="46.07953" lon="4.59227">
        <ele>554</ele>
        <time>2017-02-02T10:39:02Z</time>
      </trkpt>
      <trkpt lat="46.07953" lon="4.59225">
        <ele>554</ele>
        <time>2017-02-02T10:39:03Z</time>
      </trkpt>
      <trkpt lat="46.07955" lon="4.59213">
        <ele>554</ele>
        <time>2017-02-02T10:39:10Z</time>
      </trkpt>
      <trkpt lat="46.07955" lon="4.59211">
        <ele>554</ele>
        <time>2017-02-02T10:39:11Z</time>
      </trkpt>
      <trkpt lat="46.07958" lon="4.59199">
        <ele>554</ele>
        <time>2017-02-02T10:39:19Z</time>
      </trkpt>
      <trkpt lat="46.07958" lon="4.59197">
        <ele>554</ele>
        <time>2017-02-02T10:39:20Z</time>
      </trkpt>
      <trkpt lat="46.0796" lon="4.59185">
        <ele>554</ele>
        <time>2017-02-02T10:39:26Z</time>
      </trkpt>
      <trkpt lat="46.0796" lon="4.59184">
        <ele>554</ele>
        <time>2017-02-02T10:39:27Z</time>
      </trkpt>
      <trkpt lat="46.07965" lon="4.59174">
        <ele>554</ele>
        <time>2017-02-02T10:39:33Z</time>
      </trkpt>
      <trkpt lat="46.07966" lon="4.59172">
        <ele>554</ele>
        <time>2017-02-02T10:39:34Z</time>
      </trkpt>
      <trkpt lat="46.07974" lon="4.59167">
        <ele>554</ele>
        <time>2017-02-02T10:39:43Z</time>
      </trkpt>
      <trkpt lat="46.07975" lon="4.59166">
        <ele>554</ele>
        <time>2017-02-02T10:39:44Z</time>
      </trkpt>
      <trkpt lat="46.07983" lon="4.59163">
        <ele>554</ele>
        <time>2017-02-02T10:39:52Z</time>
      </trkpt>
      <trkpt lat="46.07984" lon="4.59162">
        <ele>554</ele>
        <time>2017-02-02T10:39:53Z</time>
      </trkpt>
      <trkpt lat="46.07993" lon="4.59159">
        <ele>554</ele>
        <time>2017-02-02T10:40:02Z</time>
      </trkpt>
      <trkpt lat="46.07994" lon="4.59159">
        <ele>554</ele>
        <time>2017-02-02T10:40:03Z</time>
      </trkpt>
      <trkpt lat="46.08002" lon="4.59157">
        <ele>555</ele>
        <time>2017-02-02T10:40:12Z</time>
      </trkpt>
      <trkpt lat="46.08003" lon="4.59157">
        <ele>555</ele>
        <time>2017-02-02T10:40:13Z</time>
      </trkpt>
      <trkpt lat="46.08011" lon="4.59152">
        <ele>556</ele>
        <time>2017-02-02T10:40:20Z</time>
      </trkpt>
      <trkpt lat="46.08012" lon="4.59151">
        <ele>556</ele>
        <time>2017-02-02T10:40:21Z</time>
      </trkpt>
      <trkpt lat="46.0802" lon="4.59149">
        <ele>557</ele>
        <time>2017-02-02T10:40:29Z</time>
      </trkpt>
      <trkpt lat="46.08021" lon="4.59148">
        <ele>557</ele>
        <time>2017-02-02T10:40:30Z</time>
      </trkpt>
      <trkpt lat="46.08024" lon="4.59136">
        <ele>558</ele>
        <time>2017-02-02T10:40:38Z</time>
      </trkpt>
      <trkpt lat="46.08023" lon="4.59135">
        <ele>558</ele>
        <time>2017-02-02T10:40:39Z</time>
      </trkpt>
      <trkpt lat="46.08017" lon="4.59126">
        <ele>558</ele>
        <time>2017-02-02T10:40:47Z</time>
      </trkpt>
      <trkpt lat="46.08017" lon="4.59125">
        <ele>558</ele>
        <time>2017-02-02T10:40:48Z</time>
      </trkpt>
      <trkpt lat="46.08012" lon="4.59114">
        <ele>558</ele>
        <time>2017-02-02T10:40:56Z</time>
      </trkpt>
      <trkpt lat="46.08011" lon="4.59113">
        <ele>557</ele>
        <time>2017-02-02T10:40:57Z</time>
      </trkpt>
      <trkpt lat="46.08008" lon="4.59102">
        <ele>557</ele>
        <time>2017-02-02T10:41:07Z</time>
      </trkpt>
      <trkpt lat="46.08007" lon="4.591">
        <ele>557</ele>
        <time>2017-02-02T10:41:08Z</time>
      </trkpt>
      <trkpt lat="46.08008" lon="4.59088">
        <ele>556</ele>
        <time>2017-02-02T10:41:37Z</time>
      </trkpt>
      <trkpt lat="46.08007" lon="4.59087">
        <ele>556</ele>
        <time>2017-02-02T10:41:38Z</time>
      </trkpt>
      <trkpt lat="46.08" lon="4.59081">
        <ele>554</ele>
        <time>2017-02-02T10:41:59Z</time>
      </trkpt>
      <trkpt lat="46.08" lon="4.5908">
        <ele>554</ele>
        <time>2017-02-02T10:42:00Z</time>
      </trkpt>
      <trkpt lat="46.07996" lon="4.59069">
        <ele>551</ele>
        <time>2017-02-02T10:42:11Z</time>
      </trkpt>
      <trkpt lat="46.07996" lon="4.59068">
        <ele>551</ele>
        <time>2017-02-02T10:42:12Z</time>
      </trkpt>
      <trkpt lat="46.07993" lon="4.59056">
        <ele>549</ele>
        <time>2017-02-02T10:42:24Z</time>
      </trkpt>
      <trkpt lat="46.07992" lon="4.59055">
        <ele>549</ele>
        <time>2017-02-02T10:42:25Z</time>
      </trkpt>
      <trkpt lat="46.07987" lon="4.59046">
        <ele>548</ele>
        <time>2017-02-02T10:42:33Z</time>
      </trkpt>
      <trkpt lat="46.07987" lon="4.59044">
        <ele>548</ele>
        <time>2017-02-02T10:42:34Z</time>
      </trkpt>
      <trkpt lat="46.07983" lon="4.59033">
        <ele>547</ele>
        <time>2017-02-02T10:42:44Z</time>
      </trkpt>
      <trkpt lat="46.07982" lon="4.59032">
        <ele>547</ele>
        <time>2017-02-02T10:42:45Z</time>
      </trkpt>
      <trkpt lat="46.07976" lon="4.59024">
        <ele>546</ele>
        <time>2017-02-02T10:42:53Z</time>
      </trkpt>
      <trkpt lat="46.07976" lon="4.59022">
        <ele>546</ele>
        <time>2017-02-02T10:42:54Z</time>
      </trkpt>
      <trkpt lat="46.07974" lon="4.5901">
        <ele>546</ele>
        <time>2017-02-02T10:43:05Z</time>
      </trkpt>
      <trkpt lat="46.07974" lon="4.59009">
        <ele>546</ele>
        <time>2017-02-02T10:43:06Z</time>
      </trkpt>
      <trkpt lat="46.07974" lon="4.58997">
        <ele>541</ele>
        <time>2017-02-02T10:43:17Z</time>
      </trkpt>
      <trkpt lat="46.07974" lon="4.58995">
        <ele>541</ele>
        <time>2017-02-02T10:43:18Z</time>
      </trkpt>
      <trkpt lat="46.07975" lon="4.58983">
        <ele>540</ele>
        <time>2017-02-02T10:43:27Z</time>
      </trkpt>
      <trkpt lat="46.07975" lon="4.58982">
        <ele>540</ele>
        <time>2017-02-02T10:43:28Z</time>
      </trkpt>
      <trkpt lat="46.07975" lon="4.58971">
        <ele>539</ele>
        <time>2017-02-02T10:43:38Z</time>
      </trkpt>
      <trkpt lat="46.07974" lon="4.58969">
        <ele>539</ele>
        <time>2017-02-02T10:43:39Z</time>
      </trkpt>
      <trkpt lat="46.07973" lon="4.58956">
        <ele>539</ele>
        <time>2017-02-02T10:43:48Z</time>
      </trkpt>
      <trkpt lat="46.07973" lon="4.58955">
        <ele>539</ele>
        <time>2017-02-02T10:43:49Z</time>
      </trkpt>
      <trkpt lat="46.07969" lon="4.58944">
        <ele>538</ele>
        <time>2017-02-02T10:44:00Z</time>
      </trkpt>
      <trkpt lat="46.07969" lon="4.58943">
        <ele>538</ele>
        <time>2017-02-02T10:44:01Z</time>
      </trkpt>
      <trkpt lat="46.07965" lon="4.58932">
        <ele>537</ele>
        <time>2017-02-02T10:44:10Z</time>
      </trkpt>
      <trkpt lat="46.07965" lon="4.58931">
        <ele>537</ele>
        <time>2017-02-02T10:44:11Z</time>
      </trkpt>
      <trkpt lat="46.07961" lon="4.5892">
        <ele>536</ele>
        <time>2017-02-02T10:44:21Z</time>
      </trkpt>
      <trkpt lat="46.0796" lon="4.58919">
        <ele>536</ele>
        <time>2017-02-02T10:44:22Z</time>
      </trkpt>
      <trkpt lat="46.07952" lon="4.58913">
        <ele>536</ele>
        <time>2017-02-02T10:44:31Z</time>
      </trkpt>
      <trkpt lat="46.07952" lon="4.58912">
        <ele>536</ele>
        <time>2017-02-02T10:44:32Z</time>
      </trkpt>
      <trkpt lat="46.07945" lon="4.58904">
        <ele>534</ele>
        <time>2017-02-02T10:44:46Z</time>
      </trkpt>
      <trkpt lat="46.07945" lon="4.58903">
        <ele>534</ele>
        <time>2017-02-02T10:44:47Z</time>
      </trkpt>
      <trkpt lat="46.07938" lon="4.58897">
        <ele>533</ele>
        <time>2017-02-02T10:44:56Z</time>
      </trkpt>
      <trkpt lat="46.07937" lon="4.58897">
        <ele>533</ele>
        <time>2017-02-02T10:44:57Z</time>
      </trkpt>
      <trkpt lat="46.0793" lon="4.5889">
        <ele>532</ele>
        <time>2017-02-02T10:45:06Z</time>
      </trkpt>
      <trkpt lat="46.07929" lon="4.58889">
        <ele>532</ele>
        <time>2017-02-02T10:45:07Z</time>
      </trkpt>
      <trkpt lat="46.07921" lon="4.58884">
        <ele>532</ele>
        <time>2017-02-02T10:45:16Z</time>
      </trkpt>
      <trkpt lat="46.07921" lon="4.58883">
        <ele>532</ele>
        <time>2017-02-02T10:45:17Z</time>
      </trkpt>
      <trkpt lat="46.07915" lon="4.58874">
        <ele>514</ele>
        <time>2017-02-02T10:45:25Z</time>
      </trkpt>
      <trkpt lat="46.07914" lon="4.58873">
        <ele>514</ele>
        <time>2017-02-02T10:45:26Z</time>
      </trkpt>
      <trkpt lat="46.07909" lon="4.58865">
        <ele>515</ele>
        <time>2017-02-02T10:45:33Z</time>
      </trkpt>
      <trkpt lat="46.07908" lon="4.58864">
        <ele>515</ele>
        <time>2017-02-02T10:45:34Z</time>
      </trkpt>
      <trkpt lat="46.079" lon="4.58857">
        <ele>515</ele>
        <time>2017-02-02T10:45:42Z</time>
      </trkpt>
      <trkpt lat="46.079" lon="4.58857">
        <ele>515</ele>
        <time>2017-02-02T10:45:43Z</time>
      </trkpt>
      <trkpt lat="46.07894" lon="4.58848">
        <ele>514</ele>
        <time>2017-02-02T10:45:51Z</time>
      </trkpt>
      <trkpt lat="46.07893" lon="4.58847">
        <ele>514</ele>
        <time>2017-02-02T10:45:52Z</time>
      </trkpt>
      <trkpt lat="46.07888" lon="4.58838">
        <ele>514</ele>
        <time>2017-02-02T10:45:59Z</time>
      </trkpt>
      <trkpt lat="46.07886" lon="4.58836">
        <ele>513</ele>
        <time>2017-02-02T10:46:00Z</time>
      </trkpt>
      <trkpt lat="46.0788" lon="4.5883">
        <ele>519</ele>
        <time>2017-02-02T10:46:06Z</time>
      </trkpt>
      <trkpt lat="46.07879" lon="4.58829">
        <ele>519</ele>
        <time>2017-02-02T10:46:07Z</time>
      </trkpt>
      <trkpt lat="46.07873" lon="4.58822">
        <ele>518</ele>
        <time>2017-02-02T10:46:13Z</time>
      </trkpt>
      <trkpt lat="46.07872" lon="4.5882">
        <ele>518</ele>
        <time>2017-02-02T10:46:14Z</time>
      </trkpt>
      <trkpt lat="46.07868" lon="4.5881">
        <ele>518</ele>
        <time>2017-02-02T10:46:20Z</time>
      </trkpt>
      <trkpt lat="46.07868" lon="4.58808">
        <ele>518</ele>
        <time>2017-02-02T10:46:21Z</time>
      </trkpt>
      <trkpt lat="46.07862" lon="4.58799">
        <ele>519</ele>
        <time>2017-02-02T10:46:28Z</time>
      </trkpt>
      <trkpt lat="46.0786" lon="4.58798">
        <ele>518</ele>
        <time>2017-02-02T10:46:29Z</time>
      </trkpt>
      <trkpt lat="46.07851" lon="4.58796">
        <ele>517</ele>
        <time>2017-02-02T10:46:35Z</time>
      </trkpt>
      <trkpt lat="46.0785" lon="4.58795">
        <ele>517</ele>
        <time>2017-02-02T10:46:36Z</time>
      </trkpt>
      <trkpt lat="46.07842" lon="4.58791">
        <ele>517</ele>
        <time>2017-02-02T10:46:45Z</time>
      </trkpt>
      <trkpt lat="46.07841" lon="4.5879">
        <ele>517</ele>
        <time>2017-02-02T10:46:46Z</time>
      </trkpt>
      <trkpt lat="46.07834" lon="4.58786">
        <ele>518</ele>
        <time>2017-02-02T10:46:54Z</time>
      </trkpt>
      <trkpt lat="46.07833" lon="4.58785">
        <ele>502</ele>
        <time>2017-02-02T10:46:55Z</time>
      </trkpt>
      <trkpt lat="46.07825" lon="4.5878">
        <ele>503</ele>
        <time>2017-02-02T10:47:02Z</time>
      </trkpt>
      <trkpt lat="46.07824" lon="4.58778">
        <ele>503</ele>
        <time>2017-02-02T10:47:03Z</time>
      </trkpt>
      <trkpt lat="46.07817" lon="4.58774">
        <ele>503</ele>
        <time>2017-02-02T10:47:09Z</time>
      </trkpt>
      <trkpt lat="46.07816" lon="4.58773">
        <ele>503</ele>
        <time>2017-02-02T10:47:10Z</time>
      </trkpt>
      <trkpt lat="46.07808" lon="4.58767">
        <ele>502</ele>
        <time>2017-02-02T10:47:16Z</time>
      </trkpt>
      <trkpt lat="46.07807" lon="4.58766">
        <ele>502</ele>
        <time>2017-02-02T10:47:17Z</time>
      </trkpt>
      <trkpt lat="46.07799" lon="4.58764">
        <ele>500</ele>
        <time>2017-02-02T10:47:24Z</time>
      </trkpt>
      <trkpt lat="46.07797" lon="4.58764">
        <ele>500</ele>
        <time>2017-02-02T10:47:25Z</time>
      </trkpt>
      <trkpt lat="46.0779" lon="4.58757">
        <ele>499</ele>
        <time>2017-02-02T10:47:32Z</time>
      </trkpt>
      <trkpt lat="46.07789" lon="4.58756">
        <ele>499</ele>
        <time>2017-02-02T10:47:33Z</time>
      </trkpt>
      <trkpt lat="46.07784" lon="4.58749">
        <ele>512</ele>
        <time>2017-02-02T10:47:39Z</time>
      </trkpt>
      <trkpt lat="46.07782" lon="4.58747">
        <ele>512</ele>
        <time>2017-02-02T10:47:40Z</time>
      </trkpt>
      <trkpt lat="46.07775" lon="4.58741">
        <ele>510</ele>
        <time>2017-02-02T10:47:46Z</time>
      </trkpt>
      <trkpt lat="46.07774" lon="4.5874">
        <ele>510</ele>
        <time>2017-02-02T10:47:47Z</time>
      </trkpt>
      <trkpt lat="46.07766" lon="4.58736">
        <ele>508</ele>
        <time>2017-02-02T10:47:53Z</time>
      </trkpt>
      <trkpt lat="46.07764" lon="4.58736">
        <ele>508</ele>
        <time>2017-02-02T10:47:54Z</time>
      </trkpt>
      <trkpt lat="46.07756" lon="4.58734">
        <ele>506</ele>
        <time>2017-02-02T10:48:00Z</time>
      </trkpt>
      <trkpt lat="46.07755" lon="4.58734">
        <ele>506</ele>
        <time>2017-02-02T10:48:01Z</time>
      </trkpt>
      <trkpt lat="46.07747" lon="4.58734">
        <ele>494</ele>
        <time>2017-02-02T10:48:07Z</time>
      </trkpt>
      <trkpt lat="46.07745" lon="4.58734">
        <ele>494</ele>
        <time>2017-02-02T10:48:08Z</time>
      </trkpt>
      <trkpt lat="46.07737" lon="4.58731">
        <ele>494</ele>
        <time>2017-02-02T10:48:15Z</time>
      </trkpt>
      <trkpt lat="46.07736" lon="4.58731">
        <ele>494</ele>
        <time>2017-02-02T10:48:16Z</time>
      </trkpt>
      <trkpt lat="46.07729" lon="4.58725">
        <ele>494</ele>
        <time>2017-02-02T10:48:23Z</time>
      </trkpt>
      <trkpt lat="46.07728" lon="4.58723">
        <ele>494</ele>
        <time>2017-02-02T10:48:24Z</time>
      </trkpt>
      <trkpt lat="46.07723" lon="4.58715">
        <ele>494</ele>
        <time>2017-02-02T10:48:30Z</time>
      </trkpt>
      <trkpt lat="46.07722" lon="4.58713">
        <ele>494</ele>
        <time>2017-02-02T10:48:31Z</time>
      </trkpt>
      <trkpt lat="46.07716" lon="4.58704">
        <ele>495</ele>
        <time>2017-02-02T10:48:37Z</time>
      </trkpt>
      <trkpt lat="46.07715" lon="4.58703">
        <ele>495</ele>
        <time>2017-02-02T10:48:38Z</time>
      </trkpt>
      <trkpt lat="46.0771" lon="4.58694">
        <ele>495</ele>
        <time>2017-02-02T10:48:44Z</time>
      </trkpt>
      <trkpt lat="46.07709" lon="4.58693">
        <ele>495</ele>
        <time>2017-02-02T10:48:45Z</time>
      </trkpt>
      <trkpt lat="46.07703" lon="4.58683">
        <ele>494</ele>
        <time>2017-02-02T10:48:51Z</time>
      </trkpt>
      <trkpt lat="46.07702" lon="4.58681">
        <ele>494</ele>
        <time>2017-02-02T10:48:52Z</time>
      </trkpt>
      <trkpt lat="46.07696" lon="4.58673">
        <ele>494</ele>
        <time>2017-02-02T10:48:58Z</time>
      </trkpt>
      <trkpt lat="46.07695" lon="4.58671">
        <ele>493</ele>
        <time>2017-02-02T10:48:59Z</time>
      </trkpt>
      <trkpt lat="46.07689" lon="4.58663">
        <ele>501</ele>
        <time>2017-02-02T10:49:05Z</time>
      </trkpt>
      <trkpt lat="46.07688" lon="4.58662">
        <ele>500</ele>
        <time>2017-02-02T10:49:06Z</time>
      </trkpt>
      <trkpt lat="46.07683" lon="4.58653">
        <ele>500</ele>
        <time>2017-02-02T10:49:12Z</time>
      </trkpt>
      <trkpt lat="46.07682" lon="4.58652">
        <ele>500</ele>
        <time>2017-02-02T10:49:13Z</time>
      </trkpt>
      <trkpt lat="46.07675" lon="4.58645">
        <ele>500</ele>
        <time>2017-02-02T10:49:19Z</time>
      </trkpt>
      <trkpt lat="46.07674" lon="4.58644">
        <ele>500</ele>
        <time>2017-02-02T10:49:20Z</time>
      </trkpt>
      <trkpt lat="46.07667" lon="4.58637">
        <ele>502</ele>
        <time>2017-02-02T10:49:26Z</time>
      </trkpt>
      <trkpt lat="46.07666" lon="4.58635">
        <ele>486</ele>
        <time>2017-02-02T10:49:27Z</time>
      </trkpt>
      <trkpt lat="46.0766" lon="4.58627">
        <ele>486</ele>
        <time>2017-02-02T10:49:34Z</time>
      </trkpt>
      <trkpt lat="46.07659" lon="4.58625">
        <ele>487</ele>
        <time>2017-02-02T10:49:35Z</time>
      </trkpt>
      <trkpt lat="46.07653" lon="4.58615">
        <ele>487</ele>
        <time>2017-02-02T10:49:42Z</time>
      </trkpt>
      <trkpt lat="46.07653" lon="4.58614">
        <ele>487</ele>
        <time>2017-02-02T10:49:43Z</time>
      </trkpt>
      <trkpt lat="46.0765" lon="4.58603">
        <ele>489</ele>
        <time>2017-02-02T10:49:49Z</time>
      </trkpt>
      <trkpt lat="46.0765" lon="4.58601">
        <ele>489</ele>
        <time>2017-02-02T10:49:50Z</time>
      </trkpt>
      <trkpt lat="46.07647" lon="4.58589">
        <ele>490</ele>
        <time>2017-02-02T10:49:56Z</time>
      </trkpt>
      <trkpt lat="46.07647" lon="4.58588">
        <ele>490</ele>
        <time>2017-02-02T10:49:57Z</time>
      </trkpt>
      <trkpt lat="46.07645" lon="4.58577">
        <ele>497</ele>
        <time>2017-02-02T10:50:03Z</time>
      </trkpt>
      <trkpt lat="46.07644" lon="4.58575">
        <ele>497</ele>
        <time>2017-02-02T10:50:04Z</time>
      </trkpt>
      <trkpt lat="46.07639" lon="4.58564">
        <ele>496</ele>
        <time>2017-02-02T10:50:11Z</time>
      </trkpt>
      <trkpt lat="46.07638" lon="4.58563">
        <ele>496</ele>
        <time>2017-02-02T10:50:12Z</time>
      </trkpt>
      <trkpt lat="46.07633" lon="4.58554">
        <ele>496</ele>
        <time>2017-02-02T10:50:18Z</time>
      </trkpt>
      <trkpt lat="46.07631" lon="4.58553">
        <ele>496</ele>
        <time>2017-02-02T10:50:19Z</time>
      </trkpt>
      <trkpt lat="46.07623" lon="4.58547">
        <ele>495</ele>
        <time>2017-02-02T10:50:25Z</time>
      </trkpt>
      <trkpt lat="46.07622" lon="4.58546">
        <ele>495</ele>
        <time>2017-02-02T10:50:26Z</time>
      </trkpt>
      <trkpt lat="46.07615" lon="4.58542">
        <ele>495</ele>
        <time>2017-02-02T10:50:32Z</time>
      </trkpt>
      <trkpt lat="46.07613" lon="4.58542">
        <ele>495</ele>
        <time>2017-02-02T10:50:33Z</time>
      </trkpt>
      <trkpt lat="46.07605" lon="4.58541">
        <ele>494</ele>
        <time>2017-02-02T10:50:40Z</time>
      </trkpt>
      <trkpt lat="46.07604" lon="4.58541">
        <ele>494</ele>
        <time>2017-02-02T10:50:41Z</time>
      </trkpt>
      <trkpt lat="46.07596" lon="4.58539">
        <ele>493</ele>
        <time>2017-02-02T10:50:48Z</time>
      </trkpt>
      <trkpt lat="46.07594" lon="4.58538">
        <ele>493</ele>
        <time>2017-02-02T10:50:49Z</time>
      </trkpt>
      <trkpt lat="46.07586" lon="4.58536">
        <ele>493</ele>
        <time>2017-02-02T10:50:55Z</time>
      </trkpt>
      <trkpt lat="46.07585" lon="4.58536">
        <ele>493</ele>
        <time>2017-02-02T10:50:56Z</time>
      </trkpt>
      <trkpt lat="46.07576" lon="4.58535">
        <ele>484</ele>
        <time>2017-02-02T10:51:02Z</time>
      </trkpt>
      <trkpt lat="46.07575" lon="4.58536">
        <ele>484</ele>
        <time>2017-02-02T10:51:03Z</time>
      </trkpt>
      <trkpt lat="46.07567" lon="4.58539">
        <ele>483</ele>
        <time>2017-02-02T10:51:09Z</time>
      </trkpt>
      <trkpt lat="46.07566" lon="4.58539">
        <ele>483</ele>
        <time>2017-02-02T10:51:10Z</time>
      </trkpt>
      <trkpt lat="46.07558" lon="4.5854">
        <ele>483</ele>
        <time>2017-02-02T10:51:16Z</time>
      </trkpt>
      <trkpt lat="46.07557" lon="4.58539">
        <ele>483</ele>
        <time>2017-02-02T10:51:17Z</time>
      </trkpt>
      <trkpt lat="46.07548" lon="4.58536">
        <ele>482</ele>
        <time>2017-02-02T10:51:24Z</time>
      </trkpt>
      <trkpt lat="46.07547" lon="4.58535">
        <ele>482</ele>
        <time>2017-02-02T10:51:25Z</time>
      </trkpt>
      <trkpt lat="46.07539" lon="4.58531">
        <ele>482</ele>
        <time>2017-02-02T10:51:32Z</time>
      </trkpt>
      <trkpt lat="46.07538" lon="4.5853">
        <ele>482</ele>
        <time>2017-02-02T10:51:33Z</time>
      </trkpt>
      <trkpt lat="46.07531" lon="4.58525">
        <ele>482</ele>
        <time>2017-02-02T10:51:39Z</time>
      </trkpt>
      <trkpt lat="46.0753" lon="4.58524">
        <ele>482</ele>
        <time>2017-02-02T10:51:40Z</time>
      </trkpt>
      <trkpt lat="46.07522" lon="4.58517">
        <ele>482</ele>
        <time>2017-02-02T10:51:47Z</time>
      </trkpt>
      <trkpt lat="46.07521" lon="4.58516">
        <ele>482</ele>
        <time>2017-02-02T10:51:48Z</time>
      </trkpt>
      <trkpt lat="46.07516" lon="4.58507">
        <ele>483</ele>
        <time>2017-02-02T10:51:53Z</time>
      </trkpt>
      <trkpt lat="46.07515" lon="4.58505">
        <ele>483</ele>
        <time>2017-02-02T10:51:54Z</time>
      </trkpt>
      <trkpt lat="46.0751" lon="4.58496">
        <ele>487</ele>
        <time>2017-02-02T10:52:00Z</time>
      </trkpt>
      <trkpt lat="46.07509" lon="4.58494">
        <ele>487</ele>
        <time>2017-02-02T10:52:01Z</time>
      </trkpt>
      <trkpt lat="46.07503" lon="4.58485">
        <ele>488</ele>
        <time>2017-02-02T10:52:08Z</time>
      </trkpt>
      <trkpt lat="46.07502" lon="4.58483">
        <ele>488</ele>
        <time>2017-02-02T10:52:09Z</time>
      </trkpt>
      <trkpt lat="46.07497" lon="4.58474">
        <ele>482</ele>
        <time>2017-02-02T10:52:15Z</time>
      </trkpt>
      <trkpt lat="46.07496" lon="4.58473">
        <ele>482</ele>
        <time>2017-02-02T10:52:16Z</time>
      </trkpt>
      <trkpt lat="46.0749" lon="4.58464">
        <ele>482</ele>
        <time>2017-02-02T10:52:23Z</time>
      </trkpt>
      <trkpt lat="46.07489" lon="4.58463">
        <ele>482</ele>
        <time>2017-02-02T10:52:24Z</time>
      </trkpt>
      <trkpt lat="46.07496" lon="4.58455">
        <ele>482</ele>
        <time>2017-02-02T10:55:23Z</time>
      </trkpt>
      <trkpt lat="46.07497" lon="4.58455">
        <ele>482</ele>
        <time>2017-02-02T10:55:24Z</time>
      </trkpt>
      <trkpt lat="46.07505" lon="4.58458">
        <ele>492</ele>
        <time>2017-02-02T10:55:33Z</time>
      </trkpt>
      <trkpt lat="46.07506" lon="4.58458">
        <ele>492</ele>
        <time>2017-02-02T10:55:34Z</time>
      </trkpt>
      <trkpt lat="46.07513" lon="4.58462">
        <ele>492</ele>
        <time>2017-02-02T10:55:42Z</time>
      </trkpt>
      <trkpt lat="46.07514" lon="4.58462">
        <ele>492</ele>
        <time>2017-02-02T10:55:43Z</time>
      </trkpt>
      <trkpt lat="46.07522" lon="4.58467">
        <ele>492</ele>
        <time>2017-02-02T10:55:51Z</time>
      </trkpt>
      <trkpt lat="46.07524" lon="4.58467">
        <ele>492</ele>
        <time>2017-02-02T10:55:52Z</time>
      </trkpt>
      <trkpt lat="46.07531" lon="4.58471">
        <ele>493</ele>
        <time>2017-02-02T10:56:01Z</time>
      </trkpt>
      <trkpt lat="46.07532" lon="4.58471">
        <ele>493</ele>
        <time>2017-02-02T10:56:02Z</time>
      </trkpt>
      <trkpt lat="46.0754" lon="4.58475">
        <ele>494</ele>
        <time>2017-02-02T10:56:11Z</time>
      </trkpt>
      <trkpt lat="46.07541" lon="4.58475">
        <ele>494</ele>
        <time>2017-02-02T10:56:12Z</time>
      </trkpt>
      <trkpt lat="46.07549" lon="4.58479">
        <ele>494</ele>
        <time>2017-02-02T10:56:21Z</time>
      </trkpt>
      <trkpt lat="46.0755" lon="4.58479">
        <ele>494</ele>
        <time>2017-02-02T10:56:22Z</time>
      </trkpt>
      <trkpt lat="46.07559" lon="4.58482">
        <ele>495</ele>
        <time>2017-02-02T10:56:31Z</time>
      </trkpt>
      <trkpt lat="46.07559" lon="4.58483">
        <ele>495</ele>
        <time>2017-02-02T10:56:32Z</time>
      </trkpt>
      <trkpt lat="46.0756" lon="4.5847">
        <ele>495</ele>
        <time>2017-02-02T10:56:49Z</time>
      </trkpt>
      <trkpt lat="46.07559" lon="4.58469">
        <ele>495</ele>
        <time>2017-02-02T10:56:50Z</time>
      </trkpt>
      <trkpt lat="46.07553" lon="4.58461">
        <ele>496</ele>
        <time>2017-02-02T10:57:35Z</time>
      </trkpt>
      <trkpt lat="46.07552" lon="4.58461">
        <ele>496</ele>
        <time>2017-02-02T10:57:36Z</time>
      </trkpt>
      <trkpt lat="46.07549" lon="4.58449">
        <ele>496</ele>
        <time>2017-02-02T10:59:33Z</time>
      </trkpt>
      <trkpt lat="46.07548" lon="4.58447">
        <ele>496</ele>
        <time>2017-02-02T10:59:34Z</time>
      </trkpt>
      <trkpt lat="46.07545" lon="4.58436">
        <ele>497</ele>
        <time>2017-02-02T10:59:42Z</time>
      </trkpt>
      <trkpt lat="46.07544" lon="4.58435">
        <ele>497</ele>
        <time>2017-02-02T10:59:43Z</time>
      </trkpt>
      <trkpt lat="46.0754" lon="4.58424">
        <ele>496</ele>
        <time>2017-02-02T10:59:52Z</time>
      </trkpt>
      <trkpt lat="46.07539" lon="4.58423">
        <ele>496</ele>
        <time>2017-02-02T10:59:53Z</time>
      </trkpt>
      <trkpt lat="46.07537" lon="4.58411">
        <ele>502</ele>
        <time>2017-02-02T11:00:01Z</time>
      </trkpt>
      <trkpt lat="46.07537" lon="4.5841">
        <ele>502</ele>
        <time>2017-02-02T11:00:02Z</time>
      </trkpt>
      <trkpt lat="46.07536" lon="4.58398">
        <ele>502</ele>
        <time>2017-02-02T11:00:11Z</time>
      </trkpt>
      <trkpt lat="46.07535" lon="4.58397">
        <ele>502</ele>
        <time>2017-02-02T11:00:12Z</time>
      </trkpt>
      <trkpt lat="46.07531" lon="4.58385">
        <ele>502</ele>
        <time>2017-02-02T11:00:26Z</time>
      </trkpt>
      <trkpt lat="46.07531" lon="4.58384">
        <ele>502</ele>
        <time>2017-02-02T11:00:27Z</time>
      </trkpt>
      <trkpt lat="46.07533" lon="4.58372">
        <ele>503</ele>
        <time>2017-02-02T11:00:36Z</time>
      </trkpt>
      <trkpt lat="46.07533" lon="4.58371">
        <ele>503</ele>
        <time>2017-02-02T11:00:37Z</time>
      </trkpt>
      <trkpt lat="46.07532" lon="4.58359">
        <ele>503</ele>
        <time>2017-02-02T11:00:47Z</time>
      </trkpt>
      <trkpt lat="46.07532" lon="4.58357">
        <ele>503</ele>
        <time>2017-02-02T11:00:48Z</time>
      </trkpt>
      <trkpt lat="46.07532" lon="4.58346">
        <ele>503</ele>
        <time>2017-02-02T11:00:57Z</time>
      </trkpt>
      <trkpt lat="46.07531" lon="4.58344">
        <ele>503</ele>
        <time>2017-02-02T11:00:58Z</time>
      </trkpt>
      <trkpt lat="46.07531" lon="4.58332">
        <ele>508</ele>
        <time>2017-02-02T11:01:06Z</time>
      </trkpt>
      <trkpt lat="46.07531" lon="4.58331">
        <ele>508</ele>
        <time>2017-02-02T11:01:07Z</time>
      </trkpt>
      <trkpt lat="46.0753" lon="4.5832">
        <ele>509</ele>
        <time>2017-02-02T11:01:16Z</time>
      </trkpt>
      <trkpt lat="46.07529" lon="4.58318">
        <ele>509</ele>
        <time>2017-02-02T11:01:17Z</time>
      </trkpt>
      <trkpt lat="46.07529" lon="4.58306">
        <ele>510</ele>
        <time>2017-02-02T11:01:27Z</time>
      </trkpt>
      <trkpt lat="46.07529" lon="4.58305">
        <ele>510</ele>
        <time>2017-02-02T11:01:28Z</time>
      </trkpt>
      <trkpt lat="46.07531" lon="4.58293">
        <ele>511</ele>
        <time>2017-02-02T11:01:39Z</time>
      </trkpt>
      <trkpt lat="46.07532" lon="4.58293">
        <ele>511</ele>
        <time>2017-02-02T11:01:40Z</time>
      </trkpt>
      <trkpt lat="46.07536" lon="4.58282">
        <ele>512</ele>
        <time>2017-02-02T11:01:50Z</time>
      </trkpt>
      <trkpt lat="46.07536" lon="4.58281">
        <ele>512</ele>
        <time>2017-02-02T11:01:51Z</time>
      </trkpt>
      <trkpt lat="46.07538" lon="4.5827">
        <ele>513</ele>
        <time>2017-02-02T11:02:03Z</time>
      </trkpt>
      <trkpt lat="46.07538" lon="4.58269">
        <ele>513</ele>
        <time>2017-02-02T11:02:04Z</time>
      </trkpt>
      <trkpt lat="46.07538" lon="4.58257">
        <ele>513</ele>
        <time>2017-02-02T11:02:15Z</time>
      </trkpt>
      <trkpt lat="46.07538" lon="4.58256">
        <ele>513</ele>
        <time>2017-02-02T11:02:16Z</time>
      </trkpt>
      <trkpt lat="46.07538" lon="4.58244">
        <ele>519</ele>
        <time>2017-02-02T11:02:28Z</time>
      </trkpt>
      <trkpt lat="46.07539" lon="4.58243">
        <ele>519</ele>
        <time>2017-02-02T11:02:29Z</time>
      </trkpt>
      <trkpt lat="46.07544" lon="4.58233">
        <ele>520</ele>
        <time>2017-02-02T11:02:45Z</time>
      </trkpt>
      <trkpt lat="46.07544" lon="4.58232">
        <ele>520</ele>
        <time>2017-02-02T11:02:46Z</time>
      </trkpt>
      <trkpt lat="46.0755" lon="4.58224">
        <ele>521</ele>
        <time>2017-02-02T11:02:56Z</time>
      </trkpt>
      <trkpt lat="46.07551" lon="4.58223">
        <ele>521</ele>
        <time>2017-02-02T11:02:57Z</time>
      </trkpt>
      <trkpt lat="46.07558" lon="4.58216">
        <ele>522</ele>
        <time>2017-02-02T11:03:08Z</time>
      </trkpt>
      <trkpt lat="46.07559" lon="4.58216">
        <ele>523</ele>
        <time>2017-02-02T11:03:09Z</time>
      </trkpt>
      <trkpt lat="46.07566" lon="4.58209">
        <ele>524</ele>
        <time>2017-02-02T11:03:20Z</time>
      </trkpt>
      <trkpt lat="46.07567" lon="4.58208">
        <ele>524</ele>
        <time>2017-02-02T11:03:21Z</time>
      </trkpt>
      <trkpt lat="46.07573" lon="4.58199">
        <ele>525</ele>
        <time>2017-02-02T11:03:33Z</time>
      </trkpt>
      <trkpt lat="46.07574" lon="4.58198">
        <ele>525</ele>
        <time>2017-02-02T11:03:34Z</time>
      </trkpt>
      <trkpt lat="46.07578" lon="4.58188">
        <ele>527</ele>
        <time>2017-02-02T11:03:45Z</time>
      </trkpt>
      <trkpt lat="46.07579" lon="4.58186">
        <ele>527</ele>
        <time>2017-02-02T11:03:46Z</time>
      </trkpt>
      <trkpt lat="46.07582" lon="4.58175">
        <ele>531</ele>
        <time>2017-02-02T11:03:56Z</time>
      </trkpt>
      <trkpt lat="46.07582" lon="4.58174">
        <ele>531</ele>
        <time>2017-02-02T11:03:57Z</time>
      </trkpt>
      <trkpt lat="46.07585" lon="4.58162">
        <ele>536</ele>
        <time>2017-02-02T11:04:07Z</time>
      </trkpt>
      <trkpt lat="46.07585" lon="4.58161">
        <ele>537</ele>
        <time>2017-02-02T11:04:08Z</time>
      </trkpt>
      <trkpt lat="46.07589" lon="4.5815">
        <ele>538</ele>
        <time>2017-02-02T11:04:18Z</time>
      </trkpt>
      <trkpt lat="46.07589" lon="4.58149">
        <ele>539</ele>
        <time>2017-02-02T11:04:19Z</time>
      </trkpt>
      <trkpt lat="46.07594" lon="4.58139">
        <ele>540</ele>
        <time>2017-02-02T11:04:29Z</time>
      </trkpt>
      <trkpt lat="46.07594" lon="4.58139">
        <ele>540</ele>
        <time>2017-02-02T11:04:30Z</time>
      </trkpt>
      <trkpt lat="46.07602" lon="4.58133">
        <ele>540</ele>
        <time>2017-02-02T11:04:39Z</time>
      </trkpt>
      <trkpt lat="46.07602" lon="4.58133">
        <ele>540</ele>
        <time>2017-02-02T11:04:40Z</time>
      </trkpt>
      <trkpt lat="46.07611" lon="4.58129">
        <ele>541</ele>
        <time>2017-02-02T11:04:50Z</time>
      </trkpt>
      <trkpt lat="46.07612" lon="4.58129">
        <ele>541</ele>
        <time>2017-02-02T11:04:51Z</time>
      </trkpt>
      <trkpt lat="46.07619" lon="4.58124">
        <ele>541</ele>
        <time>2017-02-02T11:05:01Z</time>
      </trkpt>
      <trkpt lat="46.0762" lon="4.58123">
        <ele>542</ele>
        <time>2017-02-02T11:05:02Z</time>
      </trkpt>
      <trkpt lat="46.07625" lon="4.58114">
        <ele>542</ele>
        <time>2017-02-02T11:05:12Z</time>
      </trkpt>
      <trkpt lat="46.07626" lon="4.58113">
        <ele>542</ele>
        <time>2017-02-02T11:05:13Z</time>
      </trkpt>
      <trkpt lat="46.07632" lon="4.58106">
        <ele>542</ele>
        <time>2017-02-02T11:05:21Z</time>
      </trkpt>
      <trkpt lat="46.07633" lon="4.58105">
        <ele>542</ele>
        <time>2017-02-02T11:05:22Z</time>
      </trkpt>
      <trkpt lat="46.07639" lon="4.58097">
        <ele>543</ele>
        <time>2017-02-02T11:05:30Z</time>
      </trkpt>
      <trkpt lat="46.0764" lon="4.58096">
        <ele>543</ele>
        <time>2017-02-02T11:05:31Z</time>
      </trkpt>
      <trkpt lat="46.07647" lon="4.5809">
        <ele>543</ele>
        <time>2017-02-02T11:05:38Z</time>
      </trkpt>
      <trkpt lat="46.07648" lon="4.58089">
        <ele>543</ele>
        <time>2017-02-02T11:05:39Z</time>
      </trkpt>
      <trkpt lat="46.07656" lon="4.58083">
        <ele>542</ele>
        <time>2017-02-02T11:05:47Z</time>
      </trkpt>
      <trkpt lat="46.07657" lon="4.58082">
        <ele>542</ele>
        <time>2017-02-02T11:05:48Z</time>
      </trkpt>
      <trkpt lat="46.07664" lon="4.58078">
        <ele>543</ele>
        <time>2017-02-02T11:05:55Z</time>
      </trkpt>
      <trkpt lat="46.07665" lon="4.58077">
        <ele>543</ele>
        <time>2017-02-02T11:05:56Z</time>
      </trkpt>
      <trkpt lat="46.07673" lon="4.58074">
        <ele>543</ele>
        <time>2017-02-02T11:06:03Z</time>
      </trkpt>
      <trkpt lat="46.07674" lon="4.58075">
        <ele>543</ele>
        <time>2017-02-02T11:06:04Z</time>
      </trkpt>
      <trkpt lat="46.07682" lon="4.58076">
        <ele>542</ele>
        <time>2017-02-02T11:06:10Z</time>
      </trkpt>
      <trkpt lat="46.07683" lon="4.58076">
        <ele>542</ele>
        <time>2017-02-02T11:06:11Z</time>
      </trkpt>
      <trkpt lat="46.07692" lon="4.58076">
        <ele>542</ele>
        <time>2017-02-02T11:06:18Z</time>
      </trkpt>
      <trkpt lat="46.07693" lon="4.58076">
        <ele>542</ele>
        <time>2017-02-02T11:06:19Z</time>
      </trkpt>
      <trkpt lat="46.07701" lon="4.58077">
        <ele>542</ele>
        <time>2017-02-02T11:06:26Z</time>
      </trkpt>
      <trkpt lat="46.07702" lon="4.58078">
        <ele>542</ele>
        <time>2017-02-02T11:06:27Z</time>
      </trkpt>
      <trkpt lat="46.0771" lon="4.58078">
        <ele>542</ele>
        <time>2017-02-02T11:06:34Z</time>
      </trkpt>
      <trkpt lat="46.07711" lon="4.58078">
        <ele>542</ele>
        <time>2017-02-02T11:06:35Z</time>
      </trkpt>
      <trkpt lat="46.07719" lon="4.5808">
        <ele>543</ele>
        <time>2017-02-02T11:06:42Z</time>
      </trkpt>
      <trkpt lat="46.0772" lon="4.5808">
        <ele>543</ele>
        <time>2017-02-02T11:06:43Z</time>
      </trkpt>
      <trkpt lat="46.07728" lon="4.58082">
        <ele>544</ele>
        <time>2017-02-02T11:06:50Z</time>
      </trkpt>
      <trkpt lat="46.07729" lon="4.58082">
        <ele>544</ele>
        <time>2017-02-02T11:06:51Z</time>
      </trkpt>
      <trkpt lat="46.07738" lon="4.58084">
        <ele>551</ele>
        <time>2017-02-02T11:06:58Z</time>
      </trkpt>
      <trkpt lat="46.07739" lon="4.58084">
        <ele>550</ele>
        <time>2017-02-02T11:06:59Z</time>
      </trkpt>
      <trkpt lat="46.07747" lon="4.58085">
        <ele>550</ele>
        <time>2017-02-02T11:07:05Z</time>
      </trkpt>
      <trkpt lat="46.07748" lon="4.58086">
        <ele>550</ele>
        <time>2017-02-02T11:07:06Z</time>
      </trkpt>
      <trkpt lat="46.07756" lon="4.58087">
        <ele>551</ele>
        <time>2017-02-02T11:07:12Z</time>
      </trkpt>
      <trkpt lat="46.07758" lon="4.58088">
        <ele>552</ele>
        <time>2017-02-02T11:07:13Z</time>
      </trkpt>
      <trkpt lat="46.07766" lon="4.58088">
        <ele>553</ele>
        <time>2017-02-02T11:07:19Z</time>
      </trkpt>
      <trkpt lat="46.07767" lon="4.58088">
        <ele>553</ele>
        <time>2017-02-02T11:07:20Z</time>
      </trkpt>
      <trkpt lat="46.07775" lon="4.58086">
        <ele>554</ele>
        <time>2017-02-02T11:07:26Z</time>
      </trkpt>
      <trkpt lat="46.07776" lon="4.58086">
        <ele>554</ele>
        <time>2017-02-02T11:07:27Z</time>
      </trkpt>
      <trkpt lat="46.07785" lon="4.58084">
        <ele>555</ele>
        <time>2017-02-02T11:07:35Z</time>
      </trkpt>
      <trkpt lat="46.07786" lon="4.58084">
        <ele>555</ele>
        <time>2017-02-02T11:07:36Z</time>
      </trkpt>
      <trkpt lat="46.07794" lon="4.58086">
        <ele>555</ele>
        <time>2017-02-02T11:07:43Z</time>
      </trkpt>
      <trkpt lat="46.07796" lon="4.58086">
        <ele>555</ele>
        <time>2017-02-02T11:07:44Z</time>
      </trkpt>
      <trkpt lat="46.07804" lon="4.5809">
        <ele>555</ele>
        <time>2017-02-02T11:07:51Z</time>
      </trkpt>
      <trkpt lat="46.07805" lon="4.5809">
        <ele>555</ele>
        <time>2017-02-02T11:07:52Z</time>
      </trkpt>
      <trkpt lat="46.07813" lon="4.58091">
        <ele>554</ele>
        <time>2017-02-02T11:07:59Z</time>
      </trkpt>
      <trkpt lat="46.07815" lon="4.58091">
        <ele>554</ele>
        <time>2017-02-02T11:08:00Z</time>
      </trkpt>
      <trkpt lat="46.07822" lon="4.58089">
        <ele>553</ele>
        <time>2017-02-02T11:08:06Z</time>
      </trkpt>
      <trkpt lat="46.07824" lon="4.58089">
        <ele>552</ele>
        <time>2017-02-02T11:08:07Z</time>
      </trkpt>
      <trkpt lat="46.07833" lon="4.58089">
        <ele>551</ele>
        <time>2017-02-02T11:08:14Z</time>
      </trkpt>
      <trkpt lat="46.07834" lon="4.58089">
        <ele>551</ele>
        <time>2017-02-02T11:08:15Z</time>
      </trkpt>
      <trkpt lat="46.07842" lon="4.58092">
        <ele>554</ele>
        <time>2017-02-02T11:08:22Z</time>
      </trkpt>
      <trkpt lat="46.07844" lon="4.58093">
        <ele>554</ele>
        <time>2017-02-02T11:08:23Z</time>
      </trkpt>
      <trkpt lat="46.07851" lon="4.58093">
        <ele>555</ele>
        <time>2017-02-02T11:08:28Z</time>
      </trkpt>
      <trkpt lat="46.07853" lon="4.58092">
        <ele>555</ele>
        <time>2017-02-02T11:08:29Z</time>
      </trkpt>
      <trkpt lat="46.0786" lon="4.58091">
        <ele>556</ele>
        <time>2017-02-02T11:08:34Z</time>
      </trkpt>
      <trkpt lat="46.07862" lon="4.58091">
        <ele>556</ele>
        <time>2017-02-02T11:08:35Z</time>
      </trkpt>
      <trkpt lat="46.0787" lon="4.58094">
        <ele>557</ele>
        <time>2017-02-02T11:08:41Z</time>
      </trkpt>
      <trkpt lat="46.07871" lon="4.58095">
        <ele>557</ele>
        <time>2017-02-02T11:08:42Z</time>
      </trkpt>
      <trkpt lat="46.07879" lon="4.58099">
        <ele>557</ele>
        <time>2017-02-02T11:08:50Z</time>
      </trkpt>
      <trkpt lat="46.0788" lon="4.581">
        <ele>557</ele>
        <time>2017-02-02T11:08:51Z</time>
      </trkpt>
      <trkpt lat="46.07888" lon="4.58104">
        <ele>558</ele>
        <time>2017-02-02T11:08:58Z</time>
      </trkpt>
      <trkpt lat="46.07889" lon="4.58104">
        <ele>558</ele>
        <time>2017-02-02T11:08:59Z</time>
      </trkpt>
      <trkpt lat="46.07898" lon="4.58105">
        <ele>557</ele>
        <time>2017-02-02T11:09:07Z</time>
      </trkpt>
      <trkpt lat="46.07899" lon="4.58105">
        <ele>557</ele>
        <time>2017-02-02T11:09:08Z</time>
      </trkpt>
      <trkpt lat="46.07907" lon="4.58104">
        <ele>556</ele>
        <time>2017-02-02T11:09:15Z</time>
      </trkpt>
      <trkpt lat="46.07908" lon="4.58104">
        <ele>556</ele>
        <time>2017-02-02T11:09:16Z</time>
      </trkpt>
      <trkpt lat="46.07916" lon="4.5811">
        <ele>558</ele>
        <time>2017-02-02T11:09:23Z</time>
      </trkpt>
      <trkpt lat="46.07917" lon="4.5811">
        <ele>558</ele>
        <time>2017-02-02T11:09:24Z</time>
      </trkpt>
      <trkpt lat="46.07924" lon="4.58116">
        <ele>559</ele>
        <time>2017-02-02T11:09:32Z</time>
      </trkpt>
      <trkpt lat="46.07925" lon="4.58117">
        <ele>560</ele>
        <time>2017-02-02T11:09:33Z</time>
      </trkpt>
      <trkpt lat="46.07934" lon="4.5812">
        <ele>560</ele>
        <time>2017-02-02T11:09:42Z</time>
      </trkpt>
      <trkpt lat="46.07935" lon="4.5812">
        <ele>560</ele>
        <time>2017-02-02T11:09:43Z</time>
      </trkpt>
      <trkpt lat="46.07941" lon="4.58129">
        <ele>562</ele>
        <time>2017-02-02T11:09:52Z</time>
      </trkpt>
      <trkpt lat="46.07942" lon="4.58129">
        <ele>562</ele>
        <time>2017-02-02T11:09:53Z</time>
      </trkpt>
      <trkpt lat="46.0795" lon="4.58135">
        <ele>563</ele>
        <time>2017-02-02T11:10:01Z</time>
      </trkpt>
      <trkpt lat="46.07951" lon="4.58135">
        <ele>563</ele>
        <time>2017-02-02T11:10:02Z</time>
      </trkpt>
      <trkpt lat="46.07959" lon="4.58138">
        <ele>563</ele>
        <time>2017-02-02T11:10:10Z</time>
      </trkpt>
      <trkpt lat="46.0796" lon="4.58139">
        <ele>563</ele>
        <time>2017-02-02T11:10:11Z</time>
      </trkpt>
      <trkpt lat="46.07968" lon="4.58142">
        <ele>564</ele>
        <time>2017-02-02T11:10:18Z</time>
      </trkpt>
      <trkpt lat="46.07969" lon="4.58142">
        <ele>564</ele>
        <time>2017-02-02T11:10:19Z</time>
      </trkpt>
      <trkpt lat="46.07978" lon="4.58144">
        <ele>565</ele>
        <time>2017-02-02T11:10:28Z</time>
      </trkpt>
      <trkpt lat="46.07979" lon="4.58144">
        <ele>565</ele>
        <time>2017-02-02T11:10:29Z</time>
      </trkpt>
      <trkpt lat="46.07987" lon="4.58147">
        <ele>566</ele>
        <time>2017-02-02T11:10:38Z</time>
      </trkpt>
      <trkpt lat="46.07988" lon="4.58147">
        <ele>566</ele>
        <time>2017-02-02T11:10:39Z</time>
      </trkpt>
      <trkpt lat="46.07996" lon="4.58149">
        <ele>567</ele>
        <time>2017-02-02T11:10:46Z</time>
      </trkpt>
      <trkpt lat="46.07998" lon="4.58149">
        <ele>567</ele>
        <time>2017-02-02T11:10:47Z</time>
      </trkpt>
      <trkpt lat="46.08006" lon="4.5815">
        <ele>567</ele>
        <time>2017-02-02T11:10:55Z</time>
      </trkpt>
      <trkpt lat="46.08008" lon="4.5815">
        <ele>567</ele>
        <time>2017-02-02T11:10:56Z</time>
      </trkpt>
      <trkpt lat="46.08016" lon="4.58152">
        <ele>566</ele>
        <time>2017-02-02T11:11:02Z</time>
      </trkpt>
      <trkpt lat="46.08018" lon="4.58153">
        <ele>566</ele>
        <time>2017-02-02T11:11:03Z</time>
      </trkpt>
      <trkpt lat="46.08026" lon="4.58154">
        <ele>565</ele>
        <time>2017-02-02T11:11:09Z</time>
      </trkpt>
      <trkpt lat="46.08027" lon="4.58155">
        <ele>565</ele>
        <time>2017-02-02T11:11:10Z</time>
      </trkpt>
      <trkpt lat="46.08035" lon="4.58159">
        <ele>565</ele>
        <time>2017-02-02T11:11:16Z</time>
      </trkpt>
      <trkpt lat="46.08036" lon="4.58159">
        <ele>565</ele>
        <time>2017-02-02T11:11:17Z</time>
      </trkpt>
      <trkpt lat="46.08043" lon="4.58163">
        <ele>565</ele>
        <time>2017-02-02T11:11:23Z</time>
      </trkpt>
      <trkpt lat="46.08044" lon="4.58164">
        <ele>565</ele>
        <time>2017-02-02T11:11:24Z</time>
      </trkpt>
      <trkpt lat="46.08052" lon="4.58169">
        <ele>581</ele>
        <time>2017-02-02T11:11:31Z</time>
      </trkpt>
      <trkpt lat="46.08053" lon="4.58169">
        <ele>581</ele>
        <time>2017-02-02T11:11:32Z</time>
      </trkpt>
      <trkpt lat="46.08061" lon="4.58172">
        <ele>580</ele>
        <time>2017-02-02T11:11:38Z</time>
      </trkpt>
      <trkpt lat="46.08062" lon="4.58173">
        <ele>580</ele>
        <time>2017-02-02T11:11:39Z</time>
      </trkpt>
      <trkpt lat="46.08069" lon="4.58178">
        <ele>579</ele>
        <time>2017-02-02T11:11:45Z</time>
      </trkpt>
      <trkpt lat="46.0807" lon="4.58179">
        <ele>579</ele>
        <time>2017-02-02T11:11:46Z</time>
      </trkpt>
      <trkpt lat="46.08078" lon="4.58181">
        <ele>579</ele>
        <time>2017-02-02T11:11:52Z</time>
      </trkpt>
      <trkpt lat="46.08079" lon="4.58181">
        <ele>578</ele>
        <time>2017-02-02T11:11:53Z</time>
      </trkpt>
      <trkpt lat="46.08088" lon="4.58182">
        <ele>582</ele>
        <time>2017-02-02T11:12:00Z</time>
      </trkpt>
      <trkpt lat="46.0809" lon="4.58182">
        <ele>582</ele>
        <time>2017-02-02T11:12:01Z</time>
      </trkpt>
      <trkpt lat="46.08097" lon="4.58184">
        <ele>585</ele>
        <time>2017-02-02T11:12:08Z</time>
      </trkpt>
      <trkpt lat="46.08098" lon="4.58184">
        <ele>585</ele>
        <time>2017-02-02T11:12:09Z</time>
      </trkpt>
      <trkpt lat="46.08107" lon="4.58188">
        <ele>588</ele>
        <time>2017-02-02T11:12:18Z</time>
      </trkpt>
      <trkpt lat="46.08108" lon="4.58188">
        <ele>588</ele>
        <time>2017-02-02T11:12:19Z</time>
      </trkpt>
      <trkpt lat="46.08116" lon="4.58188">
        <ele>589</ele>
        <time>2017-02-02T11:12:26Z</time>
      </trkpt>
      <trkpt lat="46.08118" lon="4.58188">
        <ele>590</ele>
        <time>2017-02-02T11:12:27Z</time>
      </trkpt>
      <trkpt lat="46.08126" lon="4.58189">
        <ele>591</ele>
        <time>2017-02-02T11:12:34Z</time>
      </trkpt>
      <trkpt lat="46.08127" lon="4.58189">
        <ele>591</ele>
        <time>2017-02-02T11:12:35Z</time>
      </trkpt>
      <trkpt lat="46.08133" lon="4.58183">
        <ele>591</ele>
        <time>2017-02-02T11:12:41Z</time>
      </trkpt>
      <trkpt lat="46.08134" lon="4.58181">
        <ele>591</ele>
        <time>2017-02-02T11:12:42Z</time>
      </trkpt>
      <trkpt lat="46.08139" lon="4.5817">
        <ele>591</ele>
        <time>2017-02-02T11:12:48Z</time>
      </trkpt>
      <trkpt lat="46.08139" lon="4.58168">
        <ele>591</ele>
        <time>2017-02-02T11:12:49Z</time>
      </trkpt>
      <trkpt lat="46.08141" lon="4.58156">
        <ele>580</ele>
        <time>2017-02-02T11:12:56Z</time>
      </trkpt>
      <trkpt lat="46.08141" lon="4.58154">
        <ele>579</ele>
        <time>2017-02-02T11:12:57Z</time>
      </trkpt>
      <trkpt lat="46.08142" lon="4.58142">
        <ele>578</ele>
        <time>2017-02-02T11:13:06Z</time>
      </trkpt>
      <trkpt lat="46.08142" lon="4.5814">
        <ele>578</ele>
        <time>2017-02-02T11:13:07Z</time>
      </trkpt>
      <trkpt lat="46.08145" lon="4.58129">
        <ele>577</ele>
        <time>2017-02-02T11:13:16Z</time>
      </trkpt>
      <trkpt lat="46.08145" lon="4.58127">
        <ele>577</ele>
        <time>2017-02-02T11:13:17Z</time>
      </trkpt>
      <trkpt lat="46.08149" lon="4.58116">
        <ele>576</ele>
        <time>2017-02-02T11:13:25Z</time>
      </trkpt>
      <trkpt lat="46.08149" lon="4.58115">
        <ele>576</ele>
        <time>2017-02-02T11:13:26Z</time>
      </trkpt>
      <trkpt lat="46.08152" lon="4.58103">
        <ele>576</ele>
        <time>2017-02-02T11:13:34Z</time>
      </trkpt>
      <trkpt lat="46.08152" lon="4.58101">
        <ele>576</ele>
        <time>2017-02-02T11:13:35Z</time>
      </trkpt>
      <trkpt lat="46.08153" lon="4.58089">
        <ele>577</ele>
        <time>2017-02-02T11:13:42Z</time>
      </trkpt>
      <trkpt lat="46.08153" lon="4.58087">
        <ele>577</ele>
        <time>2017-02-02T11:13:43Z</time>
      </trkpt>
      <trkpt lat="46.08154" lon="4.58075">
        <ele>572</ele>
        <time>2017-02-02T11:13:50Z</time>
      </trkpt>
      <trkpt lat="46.08154" lon="4.58073">
        <ele>571</ele>
        <time>2017-02-02T11:13:51Z</time>
      </trkpt>
      <trkpt lat="46.08154" lon="4.58061">
        <ele>568</ele>
        <time>2017-02-02T11:13:58Z</time>
      </trkpt>
      <trkpt lat="46.08155" lon="4.5806">
        <ele>568</ele>
        <time>2017-02-02T11:13:59Z</time>
      </trkpt>
      <trkpt lat="46.0816" lon="4.5805">
        <ele>566</ele>
        <time>2017-02-02T11:14:08Z</time>
      </trkpt>
      <trkpt lat="46.0816" lon="4.58048">
        <ele>566</ele>
        <time>2017-02-02T11:14:09Z</time>
      </trkpt>
      <trkpt lat="46.08166" lon="4.58039">
        <ele>565</ele>
        <time>2017-02-02T11:14:17Z</time>
      </trkpt>
      <trkpt lat="46.08167" lon="4.58038">
        <ele>565</ele>
        <time>2017-02-02T11:14:18Z</time>
      </trkpt>
      <trkpt lat="46.08174" lon="4.58032">
        <ele>579</ele>
        <time>2017-02-02T11:14:25Z</time>
      </trkpt>
      <trkpt lat="46.08175" lon="4.58031">
        <ele>579</ele>
        <time>2017-02-02T11:14:26Z</time>
      </trkpt>
      <trkpt lat="46.08181" lon="4.58022">
        <ele>578</ele>
        <time>2017-02-02T11:14:34Z</time>
      </trkpt>
      <trkpt lat="46.08182" lon="4.58022">
        <ele>578</ele>
        <time>2017-02-02T11:14:35Z</time>
      </trkpt>
      <trkpt lat="46.0819" lon="4.58017">
        <ele>579</ele>
        <time>2017-02-02T11:14:42Z</time>
      </trkpt>
      <trkpt lat="46.08191" lon="4.58017">
        <ele>579</ele>
        <time>2017-02-02T11:14:43Z</time>
      </trkpt>
      <trkpt lat="46.082" lon="4.58014">
        <ele>580</ele>
        <time>2017-02-02T11:14:50Z</time>
      </trkpt>
      <trkpt lat="46.08201" lon="4.58014">
        <ele>580</ele>
        <time>2017-02-02T11:14:51Z</time>
      </trkpt>
      <trkpt lat="46.08209" lon="4.58014">
        <ele>581</ele>
        <time>2017-02-02T11:14:58Z</time>
      </trkpt>
      <trkpt lat="46.08211" lon="4.58014">
        <ele>581</ele>
        <time>2017-02-02T11:14:59Z</time>
      </trkpt>
      <trkpt lat="46.08218" lon="4.58013">
        <ele>582</ele>
        <time>2017-02-02T11:15:05Z</time>
      </trkpt>
      <trkpt lat="46.0822" lon="4.58014">
        <ele>582</ele>
        <time>2017-02-02T11:15:06Z</time>
      </trkpt>
      <trkpt lat="46.08228" lon="4.58014">
        <ele>582</ele>
        <time>2017-02-02T11:15:12Z</time>
      </trkpt>
      <trkpt lat="46.08229" lon="4.58014">
        <ele>582</ele>
        <time>2017-02-02T11:15:13Z</time>
      </trkpt>
      <trkpt lat="46.08238" lon="4.58014">
        <ele>582</ele>
        <time>2017-02-02T11:15:20Z</time>
      </trkpt>
      <trkpt lat="46.08239" lon="4.58014">
        <ele>582</ele>
        <time>2017-02-02T11:15:21Z</time>
      </trkpt>
      <trkpt lat="46.08247" lon="4.58014">
        <ele>582</ele>
        <time>2017-02-02T11:15:27Z</time>
      </trkpt>
      <trkpt lat="46.08249" lon="4.58013">
        <ele>582</ele>
        <time>2017-02-02T11:15:28Z</time>
      </trkpt>
      <trkpt lat="46.08257" lon="4.58011">
        <ele>587</ele>
        <time>2017-02-02T11:15:35Z</time>
      </trkpt>
      <trkpt lat="46.08258" lon="4.58011">
        <ele>587</ele>
        <time>2017-02-02T11:15:36Z</time>
      </trkpt>
      <trkpt lat="46.08266" lon="4.58009">
        <ele>589</ele>
        <time>2017-02-02T11:15:44Z</time>
      </trkpt>
      <trkpt lat="46.08268" lon="4.58008">
        <ele>589</ele>
        <time>2017-02-02T11:15:45Z</time>
      </trkpt>
      <trkpt lat="46.08276" lon="4.58007">
        <ele>591</ele>
        <time>2017-02-02T11:15:52Z</time>
      </trkpt>
      <trkpt lat="46.08278" lon="4.58007">
        <ele>591</ele>
        <time>2017-02-02T11:15:53Z</time>
      </trkpt>
      <trkpt lat="46.08286" lon="4.58008">
        <ele>592</ele>
        <time>2017-02-02T11:16:00Z</time>
      </trkpt>
      <trkpt lat="46.08288" lon="4.58008">
        <ele>593</ele>
        <time>2017-02-02T11:16:01Z</time>
      </trkpt>
      <trkpt lat="46.08296" lon="4.58009">
        <ele>593</ele>
        <time>2017-02-02T11:16:07Z</time>
      </trkpt>
      <trkpt lat="46.08297" lon="4.58009">
        <ele>593</ele>
        <time>2017-02-02T11:16:08Z</time>
      </trkpt>
      <trkpt lat="46.08306" lon="4.58008">
        <ele>593</ele>
        <time>2017-02-02T11:16:16Z</time>
      </trkpt>
      <trkpt lat="46.08306" lon="4.58007">
        <ele>593</ele>
        <time>2017-02-02T11:16:17Z</time>
      </trkpt>
      <trkpt lat="46.08314" lon="4.58005">
        <ele>592</ele>
        <time>2017-02-02T11:16:25Z</time>
      </trkpt>
      <trkpt lat="46.08315" lon="4.58004">
        <ele>592</ele>
        <time>2017-02-02T11:16:26Z</time>
      </trkpt>
      <trkpt lat="46.08323" lon="4.58001">
        <ele>590</ele>
        <time>2017-02-02T11:16:33Z</time>
      </trkpt>
      <trkpt lat="46.08325" lon="4.58001">
        <ele>590</ele>
        <time>2017-02-02T11:16:34Z</time>
      </trkpt>
      <trkpt lat="46.08333" lon="4.58005">
        <ele>589</ele>
        <time>2017-02-02T11:16:41Z</time>
      </trkpt>
      <trkpt lat="46.08334" lon="4.58005">
        <ele>591</ele>
        <time>2017-02-02T11:16:42Z</time>
      </trkpt>
      <trkpt lat="46.08342" lon="4.58007">
        <ele>595</ele>
        <time>2017-02-02T11:16:49Z</time>
      </trkpt>
      <trkpt lat="46.08344" lon="4.58006">
        <ele>595</ele>
        <time>2017-02-02T11:16:50Z</time>
      </trkpt>
      <trkpt lat="46.08352" lon="4.58005">
        <ele>598</ele>
        <time>2017-02-02T11:16:57Z</time>
      </trkpt>
      <trkpt lat="46.08353" lon="4.58005">
        <ele>598</ele>
        <time>2017-02-02T11:16:58Z</time>
      </trkpt>
      <trkpt lat="46.08361" lon="4.58001">
        <ele>600</ele>
        <time>2017-02-02T11:17:04Z</time>
      </trkpt>
      <trkpt lat="46.08362" lon="4.58001">
        <ele>600</ele>
        <time>2017-02-02T11:17:05Z</time>
      </trkpt>
      <trkpt lat="46.0837" lon="4.58">
        <ele>602</ele>
        <time>2017-02-02T11:17:12Z</time>
      </trkpt>
      <trkpt lat="46.08372" lon="4.58">
        <ele>602</ele>
        <time>2017-02-02T11:17:13Z</time>
      </trkpt>
      <trkpt lat="46.08379" lon="4.57997">
        <ele>584</ele>
        <time>2017-02-02T11:17:19Z</time>
      </trkpt>
      <trkpt lat="46.08381" lon="4.57997">
        <ele>584</ele>
        <time>2017-02-02T11:17:20Z</time>
      </trkpt>
      <trkpt lat="46.08388" lon="4.57993">
        <ele>585</ele>
        <time>2017-02-02T11:17:26Z</time>
      </trkpt>
      <trkpt lat="46.08389" lon="4.57992">
        <ele>585</ele>
        <time>2017-02-02T11:17:27Z</time>
      </trkpt>
      <trkpt lat="46.08396" lon="4.57987">
        <ele>586</ele>
        <time>2017-02-02T11:17:33Z</time>
      </trkpt>
      <trkpt lat="46.08397" lon="4.57986">
        <ele>586</ele>
        <time>2017-02-02T11:17:34Z</time>
      </trkpt>
      <trkpt lat="46.08406" lon="4.57983">
        <ele>587</ele>
        <time>2017-02-02T11:17:40Z</time>
      </trkpt>
      <trkpt lat="46.08407" lon="4.57983">
        <ele>587</ele>
        <time>2017-02-02T11:17:41Z</time>
      </trkpt>
      <trkpt lat="46.08415" lon="4.5798">
        <ele>587</ele>
        <time>2017-02-02T11:17:47Z</time>
      </trkpt>
      <trkpt lat="46.08416" lon="4.5798">
        <ele>587</ele>
        <time>2017-02-02T11:17:48Z</time>
      </trkpt>
      <trkpt lat="46.08425" lon="4.57977">
        <ele>592</ele>
        <time>2017-02-02T11:17:55Z</time>
      </trkpt>
      <trkpt lat="46.08426" lon="4.57977">
        <ele>592</ele>
        <time>2017-02-02T11:17:56Z</time>
      </trkpt>
      <trkpt lat="46.08434" lon="4.57974">
        <ele>591</ele>
        <time>2017-02-02T11:18:03Z</time>
      </trkpt>
      <trkpt lat="46.08435" lon="4.57974">
        <ele>591</ele>
        <time>2017-02-02T11:18:04Z</time>
      </trkpt>
      <trkpt lat="46.08443" lon="4.57972">
        <ele>591</ele>
        <time>2017-02-02T11:18:11Z</time>
      </trkpt>
      <trkpt lat="46.08444" lon="4.57971">
        <ele>591</ele>
        <time>2017-02-02T11:18:12Z</time>
      </trkpt>
      <trkpt lat="46.08453" lon="4.57969">
        <ele>590</ele>
        <time>2017-02-02T11:18:18Z</time>
      </trkpt>
      <trkpt lat="46.08454" lon="4.57968">
        <ele>590</ele>
        <time>2017-02-02T11:18:19Z</time>
      </trkpt>
      <trkpt lat="46.08462" lon="4.5797">
        <ele>591</ele>
        <time>2017-02-02T11:18:39Z</time>
      </trkpt>
      <trkpt lat="46.08463" lon="4.57971">
        <ele>591</ele>
        <time>2017-02-02T11:18:40Z</time>
      </trkpt>
      <trkpt lat="46.08471" lon="4.5797">
        <ele>592</ele>
        <time>2017-02-02T11:18:51Z</time>
      </trkpt>
      <trkpt lat="46.08472" lon="4.5797">
        <ele>592</ele>
        <time>2017-02-02T11:18:52Z</time>
      </trkpt>
      <trkpt lat="46.0848" lon="4.57965">
        <ele>592</ele>
        <time>2017-02-02T11:19:00Z</time>
      </trkpt>
      <trkpt lat="46.08481" lon="4.57964">
        <ele>592</ele>
        <time>2017-02-02T11:19:01Z</time>
      </trkpt>
      <trkpt lat="46.0849" lon="4.57961">
        <ele>592</ele>
        <time>2017-02-02T11:19:07Z</time>
      </trkpt>
      <trkpt lat="46.08491" lon="4.57961">
        <ele>592</ele>
        <time>2017-02-02T11:19:08Z</time>
      </trkpt>
      <trkpt lat="46.085" lon="4.57959">
        <ele>591</ele>
        <time>2017-02-02T11:19:15Z</time>
      </trkpt>
      <trkpt lat="46.08501" lon="4.57959">
        <ele>599</ele>
        <time>2017-02-02T11:19:16Z</time>
      </trkpt>
      <trkpt lat="46.08508" lon="4.57954">
        <ele>598</ele>
        <time>2017-02-02T11:19:23Z</time>
      </trkpt>
      <trkpt lat="46.08509" lon="4.57954">
        <ele>598</ele>
        <time>2017-02-02T11:19:24Z</time>
      </trkpt>
      <trkpt lat="46.08518" lon="4.5795">
        <ele>598</ele>
        <time>2017-02-02T11:19:31Z</time>
      </trkpt>
      <trkpt lat="46.08519" lon="4.5795">
        <ele>598</ele>
        <time>2017-02-02T11:19:32Z</time>
      </trkpt>
      <trkpt lat="46.08528" lon="4.57946">
        <ele>598</ele>
        <time>2017-02-02T11:19:38Z</time>
      </trkpt>
      <trkpt lat="46.08529" lon="4.57946">
        <ele>599</ele>
        <time>2017-02-02T11:19:39Z</time>
      </trkpt>
      <trkpt lat="46.08538" lon="4.57945">
        <ele>599</ele>
        <time>2017-02-02T11:19:45Z</time>
      </trkpt>
      <trkpt lat="46.08539" lon="4.57945">
        <ele>600</ele>
        <time>2017-02-02T11:19:46Z</time>
      </trkpt>
      <trkpt lat="46.08546" lon="4.57942">
        <ele>600</ele>
        <time>2017-02-02T11:19:52Z</time>
      </trkpt>
      <trkpt lat="46.08548" lon="4.57942">
        <ele>600</ele>
        <time>2017-02-02T11:19:53Z</time>
      </trkpt>
      <trkpt lat="46.08555" lon="4.57939">
        <ele>600</ele>
        <time>2017-02-02T11:19:59Z</time>
      </trkpt>
      <trkpt lat="46.08557" lon="4.57939">
        <ele>601</ele>
        <time>2017-02-02T11:20:00Z</time>
      </trkpt>
      <trkpt lat="46.08565" lon="4.57935">
        <ele>601</ele>
        <time>2017-02-02T11:20:06Z</time>
      </trkpt>
      <trkpt lat="46.08566" lon="4.57935">
        <ele>601</ele>
        <time>2017-02-02T11:20:07Z</time>
      </trkpt>
      <trkpt lat="46.08573" lon="4.57928">
        <ele>600</ele>
        <time>2017-02-02T11:20:13Z</time>
      </trkpt>
      <trkpt lat="46.08574" lon="4.57927">
        <ele>600</ele>
        <time>2017-02-02T11:20:14Z</time>
      </trkpt>
      <trkpt lat="46.08579" lon="4.57917">
        <ele>599</ele>
        <time>2017-02-02T11:20:22Z</time>
      </trkpt>
      <trkpt lat="46.0858" lon="4.57915">
        <ele>597</ele>
        <time>2017-02-02T11:20:23Z</time>
      </trkpt>
      <trkpt lat="46.08584" lon="4.57904">
        <ele>602</ele>
        <time>2017-02-02T11:20:30Z</time>
      </trkpt>
      <trkpt lat="46.08585" lon="4.57902">
        <ele>602</ele>
        <time>2017-02-02T11:20:31Z</time>
      </trkpt>
      <trkpt lat="46.0859" lon="4.57891">
        <ele>603</ele>
        <time>2017-02-02T11:20:37Z</time>
      </trkpt>
      <trkpt lat="46.08591" lon="4.5789">
        <ele>603</ele>
        <time>2017-02-02T11:20:38Z</time>
      </trkpt>
      <trkpt lat="46.08595" lon="4.57879">
        <ele>603</ele>
        <time>2017-02-02T11:20:46Z</time>
      </trkpt>
      <trkpt lat="46.08595" lon="4.57878">
        <ele>603</ele>
        <time>2017-02-02T11:20:47Z</time>
      </trkpt>
      <trkpt lat="46.08599" lon="4.57867">
        <ele>602</ele>
        <time>2017-02-02T11:20:57Z</time>
      </trkpt>
      <trkpt lat="46.08599" lon="4.57866">
        <ele>602</ele>
        <time>2017-02-02T11:20:58Z</time>
      </trkpt>
      <trkpt lat="46.08604" lon="4.57856">
        <ele>601</ele>
        <time>2017-02-02T11:21:05Z</time>
      </trkpt>
      <trkpt lat="46.08605" lon="4.57854">
        <ele>601</ele>
        <time>2017-02-02T11:21:06Z</time>
      </trkpt>
      <trkpt lat="46.08611" lon="4.57845">
        <ele>601</ele>
        <time>2017-02-02T11:21:12Z</time>
      </trkpt>
      <trkpt lat="46.08612" lon="4.57844">
        <ele>601</ele>
        <time>2017-02-02T11:21:13Z</time>
      </trkpt>
      <trkpt lat="46.08617" lon="4.57835">
        <ele>602</ele>
        <time>2017-02-02T11:21:20Z</time>
      </trkpt>
      <trkpt lat="46.08618" lon="4.57834">
        <ele>602</ele>
        <time>2017-02-02T11:21:21Z</time>
      </trkpt>
      <trkpt lat="46.08623" lon="4.57824">
        <ele>604</ele>
        <time>2017-02-02T11:22:04Z</time>
      </trkpt>
      <trkpt lat="46.08624" lon="4.57824">
        <ele>604</ele>
        <time>2017-02-02T11:22:05Z</time>
      </trkpt>
      <trkpt lat="46.08632" lon="4.5783">
        <ele>606</ele>
        <time>2017-02-02T11:23:01Z</time>
      </trkpt>
      <trkpt lat="46.08632" lon="4.5783">
        <ele>606</ele>
        <time>2017-02-02T11:23:02Z</time>
      </trkpt>
      <trkpt lat="46.08628" lon="4.57819">
        <ele>605</ele>
        <time>2017-02-02T11:56:13Z</time>
      </trkpt>
      <trkpt lat="46.08627" lon="4.57818">
        <ele>605</ele>
        <time>2017-02-02T11:56:14Z</time>
      </trkpt>
      <trkpt lat="46.08627" lon="4.57806">
        <ele>606</ele>
        <time>2017-02-02T11:56:28Z</time>
      </trkpt>
      <trkpt lat="46.08627" lon="4.57805">
        <ele>606</ele>
        <time>2017-02-02T11:56:29Z</time>
      </trkpt>
      <trkpt lat="46.08625" lon="4.57793">
        <ele>606</ele>
        <time>2017-02-02T11:56:39Z</time>
      </trkpt>
      <trkpt lat="46.08625" lon="4.57792">
        <ele>606</ele>
        <time>2017-02-02T11:56:40Z</time>
      </trkpt>
      <trkpt lat="46.08622" lon="4.5778">
        <ele>606</ele>
        <time>2017-02-02T11:56:50Z</time>
      </trkpt>
      <trkpt lat="46.08622" lon="4.57779">
        <ele>606</ele>
        <time>2017-02-02T11:56:51Z</time>
      </trkpt>
      <trkpt lat="46.08622" lon="4.57766">
        <ele>607</ele>
        <time>2017-02-02T11:57:02Z</time>
      </trkpt>
      <trkpt lat="46.08622" lon="4.57764">
        <ele>607</ele>
        <time>2017-02-02T11:57:03Z</time>
      </trkpt>
      <trkpt lat="46.08619" lon="4.57752">
        <ele>606</ele>
        <time>2017-02-02T11:57:14Z</time>
      </trkpt>
      <trkpt lat="46.08619" lon="4.57752">
        <ele>606</ele>
        <time>2017-02-02T11:57:15Z</time>
      </trkpt>
      <trkpt lat="46.08615" lon="4.5774">
        <ele>616</ele>
        <time>2017-02-02T11:57:28Z</time>
      </trkpt>
      <trkpt lat="46.08614" lon="4.57739">
        <ele>616</ele>
        <time>2017-02-02T11:57:29Z</time>
      </trkpt>
      <trkpt lat="46.08608" lon="4.57729">
        <ele>616</ele>
        <time>2017-02-02T11:57:40Z</time>
      </trkpt>
      <trkpt lat="46.08608" lon="4.57728">
        <ele>616</ele>
        <time>2017-02-02T11:57:41Z</time>
      </trkpt>
      <trkpt lat="46.08602" lon="4.57719">
        <ele>617</ele>
        <time>2017-02-02T11:57:52Z</time>
      </trkpt>
      <trkpt lat="46.08601" lon="4.57719">
        <ele>617</ele>
        <time>2017-02-02T11:57:53Z</time>
      </trkpt>
      <trkpt lat="46.08594" lon="4.57711">
        <ele>618</ele>
        <time>2017-02-02T11:58:03Z</time>
      </trkpt>
      <trkpt lat="46.08593" lon="4.5771">
        <ele>618</ele>
        <time>2017-02-02T11:58:04Z</time>
      </trkpt>
      <trkpt lat="46.08587" lon="4.57702">
        <ele>619</ele>
        <time>2017-02-02T11:58:13Z</time>
      </trkpt>
      <trkpt lat="46.08586" lon="4.57701">
        <ele>619</ele>
        <time>2017-02-02T11:58:14Z</time>
      </trkpt>
      <trkpt lat="46.08578" lon="4.57696">
        <ele>606</ele>
        <time>2017-02-02T11:58:23Z</time>
      </trkpt>
      <trkpt lat="46.08577" lon="4.57695">
        <ele>606</ele>
        <time>2017-02-02T11:58:24Z</time>
      </trkpt>
      <trkpt lat="46.0857" lon="4.57687">
        <ele>608</ele>
        <time>2017-02-02T11:58:33Z</time>
      </trkpt>
      <trkpt lat="46.0857" lon="4.57686">
        <ele>608</ele>
        <time>2017-02-02T11:58:34Z</time>
      </trkpt>
      <trkpt lat="46.08563" lon="4.57678">
        <ele>608</ele>
        <time>2017-02-02T11:58:43Z</time>
      </trkpt>
      <trkpt lat="46.08562" lon="4.57677">
        <ele>608</ele>
        <time>2017-02-02T11:58:44Z</time>
      </trkpt>
      <trkpt lat="46.08555" lon="4.57671">
        <ele>607</ele>
        <time>2017-02-02T11:58:52Z</time>
      </trkpt>
      <trkpt lat="46.08554" lon="4.5767">
        <ele>607</ele>
        <time>2017-02-02T11:58:53Z</time>
      </trkpt>
      <trkpt lat="46.08547" lon="4.57664">
        <ele>622</ele>
        <time>2017-02-02T11:59:01Z</time>
      </trkpt>
      <trkpt lat="46.08546" lon="4.57664">
        <ele>622</ele>
        <time>2017-02-02T11:59:02Z</time>
      </trkpt>
      <trkpt lat="46.08538" lon="4.5766">
        <ele>621</ele>
        <time>2017-02-02T11:59:10Z</time>
      </trkpt>
      <trkpt lat="46.08537" lon="4.5766">
        <ele>621</ele>
        <time>2017-02-02T11:59:11Z</time>
      </trkpt>
      <trkpt lat="46.08529" lon="4.57656">
        <ele>620</ele>
        <time>2017-02-02T11:59:18Z</time>
      </trkpt>
      <trkpt lat="46.08527" lon="4.57656">
        <ele>619</ele>
        <time>2017-02-02T11:59:19Z</time>
      </trkpt>
      <trkpt lat="46.08519" lon="4.57653">
        <ele>618</ele>
        <time>2017-02-02T11:59:24Z</time>
      </trkpt>
      <trkpt lat="46.08517" lon="4.57653">
        <ele>617</ele>
        <time>2017-02-02T11:59:25Z</time>
      </trkpt>
      <trkpt lat="46.08509" lon="4.57647">
        <ele>617</ele>
        <time>2017-02-02T11:59:32Z</time>
      </trkpt>
      <trkpt lat="46.08508" lon="4.57647">
        <ele>617</ele>
        <time>2017-02-02T11:59:33Z</time>
      </trkpt>
      <trkpt lat="46.085" lon="4.57643">
        <ele>610</ele>
        <time>2017-02-02T11:59:40Z</time>
      </trkpt>
      <trkpt lat="46.08499" lon="4.57643">
        <ele>610</ele>
        <time>2017-02-02T11:59:41Z</time>
      </trkpt>
      <trkpt lat="46.08491" lon="4.57638">
        <ele>611</ele>
        <time>2017-02-02T11:59:50Z</time>
      </trkpt>
      <trkpt lat="46.0849" lon="4.57637">
        <ele>611</ele>
        <time>2017-02-02T11:59:51Z</time>
      </trkpt>
      <trkpt lat="46.08482" lon="4.57632">
        <ele>612</ele>
        <time>2017-02-02T12:00:00Z</time>
      </trkpt>
      <trkpt lat="46.08481" lon="4.57632">
        <ele>612</ele>
        <time>2017-02-02T12:00:01Z</time>
      </trkpt>
      <trkpt lat="46.08473" lon="4.57628">
        <ele>612</ele>
        <time>2017-02-02T12:00:08Z</time>
      </trkpt>
      <trkpt lat="46.08472" lon="4.57628">
        <ele>612</ele>
        <time>2017-02-02T12:00:09Z</time>
      </trkpt>
      <trkpt lat="46.08464" lon="4.57625">
        <ele>612</ele>
        <time>2017-02-02T12:00:15Z</time>
      </trkpt>
      <trkpt lat="46.08462" lon="4.57624">
        <ele>612</ele>
        <time>2017-02-02T12:00:16Z</time>
      </trkpt>
      <trkpt lat="46.08453" lon="4.57621">
        <ele>612</ele>
        <time>2017-02-02T12:00:23Z</time>
      </trkpt>
      <trkpt lat="46.08452" lon="4.57621">
        <ele>612</ele>
        <time>2017-02-02T12:00:24Z</time>
      </trkpt>
      <trkpt lat="46.08444" lon="4.57616">
        <ele>612</ele>
        <time>2017-02-02T12:00:32Z</time>
      </trkpt>
      <trkpt lat="46.08443" lon="4.57615">
        <ele>612</ele>
        <time>2017-02-02T12:00:33Z</time>
      </trkpt>
      <trkpt lat="46.08436" lon="4.57611">
        <ele>613</ele>
        <time>2017-02-02T12:00:39Z</time>
      </trkpt>
      <trkpt lat="46.08435" lon="4.5761">
        <ele>613</ele>
        <time>2017-02-02T12:00:40Z</time>
      </trkpt>
      <trkpt lat="46.08427" lon="4.57606">
        <ele>613</ele>
        <time>2017-02-02T12:00:46Z</time>
      </trkpt>
      <trkpt lat="46.08425" lon="4.57605">
        <ele>613</ele>
        <time>2017-02-02T12:00:47Z</time>
      </trkpt>
      <trkpt lat="46.08418" lon="4.57601">
        <ele>614</ele>
        <time>2017-02-02T12:00:53Z</time>
      </trkpt>
      <trkpt lat="46.08417" lon="4.57601">
        <ele>607</ele>
        <time>2017-02-02T12:00:54Z</time>
      </trkpt>
      <trkpt lat="46.08408" lon="4.57596">
        <ele>608</ele>
        <time>2017-02-02T12:01:02Z</time>
      </trkpt>
      <trkpt lat="46.08407" lon="4.57595">
        <ele>608</ele>
        <time>2017-02-02T12:01:03Z</time>
      </trkpt>
      <trkpt lat="46.08399" lon="4.57592">
        <ele>606</ele>
        <time>2017-02-02T12:01:12Z</time>
      </trkpt>
      <trkpt lat="46.08399" lon="4.57592">
        <ele>606</ele>
        <time>2017-02-02T12:01:13Z</time>
      </trkpt>
      <trkpt lat="46.0839" lon="4.57588">
        <ele>604</ele>
        <time>2017-02-02T12:01:21Z</time>
      </trkpt>
      <trkpt lat="46.08389" lon="4.57588">
        <ele>603</ele>
        <time>2017-02-02T12:01:22Z</time>
      </trkpt>
      <trkpt lat="46.0838" lon="4.57586">
        <ele>602</ele>
        <time>2017-02-02T12:01:30Z</time>
      </trkpt>
      <trkpt lat="46.08379" lon="4.57586">
        <ele>601</ele>
        <time>2017-02-02T12:01:31Z</time>
      </trkpt>
      <trkpt lat="46.0837" lon="4.57584">
        <ele>600</ele>
        <time>2017-02-02T12:01:38Z</time>
      </trkpt>
      <trkpt lat="46.08369" lon="4.57583">
        <ele>619</ele>
        <time>2017-02-02T12:01:39Z</time>
      </trkpt>
      <trkpt lat="46.08361" lon="4.57581">
        <ele>617</ele>
        <time>2017-02-02T12:01:46Z</time>
      </trkpt>
      <trkpt lat="46.0836" lon="4.5758">
        <ele>617</ele>
        <time>2017-02-02T12:01:47Z</time>
      </trkpt>
      <trkpt lat="46.08352" lon="4.57576">
        <ele>615</ele>
        <time>2017-02-02T12:01:55Z</time>
      </trkpt>
      <trkpt lat="46.08351" lon="4.57575">
        <ele>615</ele>
        <time>2017-02-02T12:01:56Z</time>
      </trkpt>
      <trkpt lat="46.08343" lon="4.5757">
        <ele>613</ele>
        <time>2017-02-02T12:02:03Z</time>
      </trkpt>
      <trkpt lat="46.08342" lon="4.5757">
        <ele>613</ele>
        <time>2017-02-02T12:02:04Z</time>
      </trkpt>
      <trkpt lat="46.08334" lon="4.57566">
        <ele>614</ele>
        <time>2017-02-02T12:02:11Z</time>
      </trkpt>
      <trkpt lat="46.08333" lon="4.57565">
        <ele>605</ele>
        <time>2017-02-02T12:02:12Z</time>
      </trkpt>
      <trkpt lat="46.08325" lon="4.57559">
        <ele>606</ele>
        <time>2017-02-02T12:02:21Z</time>
      </trkpt>
      <trkpt lat="46.08324" lon="4.57558">
        <ele>606</ele>
        <time>2017-02-02T12:02:22Z</time>
      </trkpt>
      <trkpt lat="46.08317" lon="4.57552">
        <ele>607</ele>
        <time>2017-02-02T12:02:29Z</time>
      </trkpt>
      <trkpt lat="46.08316" lon="4.57551">
        <ele>607</ele>
        <time>2017-02-02T12:02:30Z</time>
      </trkpt>
      <trkpt lat="46.08309" lon="4.57546">
        <ele>608</ele>
        <time>2017-02-02T12:02:37Z</time>
      </trkpt>
      <trkpt lat="46.08308" lon="4.57545">
        <ele>608</ele>
        <time>2017-02-02T12:02:38Z</time>
      </trkpt>
      <trkpt lat="46.083" lon="4.57539">
        <ele>608</ele>
        <time>2017-02-02T12:02:45Z</time>
      </trkpt>
      <trkpt lat="46.08299" lon="4.57539">
        <ele>608</ele>
        <time>2017-02-02T12:02:46Z</time>
      </trkpt>
      <trkpt lat="46.08292" lon="4.57534">
        <ele>608</ele>
        <time>2017-02-02T12:02:52Z</time>
      </trkpt>
      <trkpt lat="46.08291" lon="4.57532">
        <ele>608</ele>
        <time>2017-02-02T12:02:53Z</time>
      </trkpt>
      <trkpt lat="46.08283" lon="4.57527">
        <ele>608</ele>
        <time>2017-02-02T12:03:00Z</time>
      </trkpt>
      <trkpt lat="46.08282" lon="4.57526">
        <ele>608</ele>
        <time>2017-02-02T12:03:01Z</time>
      </trkpt>
      <trkpt lat="46.08274" lon="4.57521">
        <ele>608</ele>
        <time>2017-02-02T12:03:07Z</time>
      </trkpt>
      <trkpt lat="46.08273" lon="4.5752">
        <ele>608</ele>
        <time>2017-02-02T12:03:08Z</time>
      </trkpt>
      <trkpt lat="46.08265" lon="4.57513">
        <ele>609</ele>
        <time>2017-02-02T12:03:15Z</time>
      </trkpt>
      <trkpt lat="46.08264" lon="4.57512">
        <ele>609</ele>
        <time>2017-02-02T12:03:16Z</time>
      </trkpt>
      <trkpt lat="46.08256" lon="4.57507">
        <ele>610</ele>
        <time>2017-02-02T12:03:23Z</time>
      </trkpt>
      <trkpt lat="46.08255" lon="4.57506">
        <ele>611</ele>
        <time>2017-02-02T12:03:24Z</time>
      </trkpt>
      <trkpt lat="46.08248" lon="4.575">
        <ele>612</ele>
        <time>2017-02-02T12:03:30Z</time>
      </trkpt>
      <trkpt lat="46.08247" lon="4.57499">
        <ele>613</ele>
        <time>2017-02-02T12:03:31Z</time>
      </trkpt>
      <trkpt lat="46.08241" lon="4.57491">
        <ele>614</ele>
        <time>2017-02-02T12:03:37Z</time>
      </trkpt>
      <trkpt lat="46.0824" lon="4.57489">
        <ele>614</ele>
        <time>2017-02-02T12:03:38Z</time>
      </trkpt>
      <trkpt lat="46.08233" lon="4.57484">
        <ele>614</ele>
        <time>2017-02-02T12:03:44Z</time>
      </trkpt>
      <trkpt lat="46.08232" lon="4.57484">
        <ele>614</ele>
        <time>2017-02-02T12:03:45Z</time>
      </trkpt>
      <trkpt lat="46.08224" lon="4.57479">
        <ele>615</ele>
        <time>2017-02-02T12:03:52Z</time>
      </trkpt>
      <trkpt lat="46.08223" lon="4.57478">
        <ele>615</ele>
        <time>2017-02-02T12:03:53Z</time>
      </trkpt>
      <trkpt lat="46.08215" lon="4.57475">
        <ele>614</ele>
        <time>2017-02-02T12:04:00Z</time>
      </trkpt>
      <trkpt lat="46.08214" lon="4.57474">
        <ele>614</ele>
        <time>2017-02-02T12:04:01Z</time>
      </trkpt>
      <trkpt lat="46.08205" lon="4.57471">
        <ele>614</ele>
        <time>2017-02-02T12:04:08Z</time>
      </trkpt>
      <trkpt lat="46.08204" lon="4.5747">
        <ele>614</ele>
        <time>2017-02-02T12:04:09Z</time>
      </trkpt>
      <trkpt lat="46.08196" lon="4.57464">
        <ele>614</ele>
        <time>2017-02-02T12:04:16Z</time>
      </trkpt>
      <trkpt lat="46.08195" lon="4.57463">
        <ele>614</ele>
        <time>2017-02-02T12:04:17Z</time>
      </trkpt>
      <trkpt lat="46.08187" lon="4.57461">
        <ele>614</ele>
        <time>2017-02-02T12:04:24Z</time>
      </trkpt>
      <trkpt lat="46.08186" lon="4.5746">
        <ele>613</ele>
        <time>2017-02-02T12:04:25Z</time>
      </trkpt>
      <trkpt lat="46.08177" lon="4.57456">
        <ele>614</ele>
        <time>2017-02-02T12:04:32Z</time>
      </trkpt>
      <trkpt lat="46.08176" lon="4.57456">
        <ele>614</ele>
        <time>2017-02-02T12:04:33Z</time>
      </trkpt>
      <trkpt lat="46.08168" lon="4.57452">
        <ele>614</ele>
        <time>2017-02-02T12:04:40Z</time>
      </trkpt>
      <trkpt lat="46.08167" lon="4.57451">
        <ele>615</ele>
        <time>2017-02-02T12:04:41Z</time>
      </trkpt>
      <trkpt lat="46.08159" lon="4.57452">
        <ele>604</ele>
        <time>2017-02-02T12:04:48Z</time>
      </trkpt>
      <trkpt lat="46.08158" lon="4.57451">
        <ele>604</ele>
        <time>2017-02-02T12:04:49Z</time>
      </trkpt>
      <trkpt lat="46.08151" lon="4.57446">
        <ele>605</ele>
        <time>2017-02-02T12:04:56Z</time>
      </trkpt>
      <trkpt lat="46.0815" lon="4.57444">
        <ele>605</ele>
        <time>2017-02-02T12:04:57Z</time>
      </trkpt>
      <trkpt lat="46.08143" lon="4.57436">
        <ele>606</ele>
        <time>2017-02-02T12:05:04Z</time>
      </trkpt>
      <trkpt lat="46.08142" lon="4.57434">
        <ele>606</ele>
        <time>2017-02-02T12:05:05Z</time>
      </trkpt>
      <trkpt lat="46.08138" lon="4.57423">
        <ele>607</ele>
        <time>2017-02-02T12:05:10Z</time>
      </trkpt>
      <trkpt lat="46.08138" lon="4.57421">
        <ele>607</ele>
        <time>2017-02-02T12:05:11Z</time>
      </trkpt>
      <trkpt lat="46.08142" lon="4.5741">
        <ele>616</ele>
        <time>2017-02-02T12:05:17Z</time>
      </trkpt>
      <trkpt lat="46.08142" lon="4.57409">
        <ele>616</ele>
        <time>2017-02-02T12:05:18Z</time>
      </trkpt>
      <trkpt lat="46.08149" lon="4.57401">
        <ele>617</ele>
        <time>2017-02-02T12:05:30Z</time>
      </trkpt>
      <trkpt lat="46.08149" lon="4.574">
        <ele>617</ele>
        <time>2017-02-02T12:05:31Z</time>
      </trkpt>
      <trkpt lat="46.08156" lon="4.57393">
        <ele>617</ele>
        <time>2017-02-02T12:05:41Z</time>
      </trkpt>
      <trkpt lat="46.08157" lon="4.57392">
        <ele>617</ele>
        <time>2017-02-02T12:05:42Z</time>
      </trkpt>
      <trkpt lat="46.08165" lon="4.57387">
        <ele>617</ele>
        <time>2017-02-02T12:05:52Z</time>
      </trkpt>
      <trkpt lat="46.08166" lon="4.57386">
        <ele>617</ele>
        <time>2017-02-02T12:05:53Z</time>
      </trkpt>
      <trkpt lat="46.08174" lon="4.57381">
        <ele>629</ele>
        <time>2017-02-02T12:06:03Z</time>
      </trkpt>
      <trkpt lat="46.08174" lon="4.5738">
        <ele>629</ele>
        <time>2017-02-02T12:06:04Z</time>
      </trkpt>
      <trkpt lat="46.08181" lon="4.57374">
        <ele>629</ele>
        <time>2017-02-02T12:06:14Z</time>
      </trkpt>
      <trkpt lat="46.08182" lon="4.57374">
        <ele>629</ele>
        <time>2017-02-02T12:06:15Z</time>
      </trkpt>
      <trkpt lat="46.08191" lon="4.57371">
        <ele>630</ele>
        <time>2017-02-02T12:06:28Z</time>
      </trkpt>
      <trkpt lat="46.08191" lon="4.5737">
        <ele>630</ele>
        <time>2017-02-02T12:06:29Z</time>
      </trkpt>
      <trkpt lat="46.08199" lon="4.57368">
        <ele>631</ele>
        <time>2017-02-02T12:06:39Z</time>
      </trkpt>
      <trkpt lat="46.082" lon="4.57368">
        <ele>631</ele>
        <time>2017-02-02T12:06:40Z</time>
      </trkpt>
      <trkpt lat="46.08209" lon="4.57366">
        <ele>632</ele>
        <time>2017-02-02T12:06:50Z</time>
      </trkpt>
      <trkpt lat="46.08209" lon="4.57365">
        <ele>632</ele>
        <time>2017-02-02T12:06:51Z</time>
      </trkpt>
      <trkpt lat="46.08218" lon="4.57362">
        <ele>633</ele>
        <time>2017-02-02T12:07:03Z</time>
      </trkpt>
      <trkpt lat="46.08218" lon="4.57362">
        <ele>634</ele>
        <time>2017-02-02T12:07:04Z</time>
      </trkpt>
      <trkpt lat="46.08227" lon="4.57358">
        <ele>635</ele>
        <time>2017-02-02T12:07:18Z</time>
      </trkpt>
      <trkpt lat="46.08227" lon="4.57358">
        <ele>635</ele>
        <time>2017-02-02T12:07:19Z</time>
      </trkpt>
      <trkpt lat="46.08236" lon="4.57359">
        <ele>636</ele>
        <time>2017-02-02T12:07:30Z</time>
      </trkpt>
      <trkpt lat="46.08237" lon="4.57359">
        <ele>636</ele>
        <time>2017-02-02T12:07:31Z</time>
      </trkpt>
      <trkpt lat="46.08245" lon="4.57357">
        <ele>637</ele>
        <time>2017-02-02T12:07:41Z</time>
      </trkpt>
      <trkpt lat="46.08246" lon="4.57357">
        <ele>637</ele>
        <time>2017-02-02T12:07:42Z</time>
      </trkpt>
      <trkpt lat="46.08255" lon="4.57354">
        <ele>648</ele>
        <time>2017-02-02T12:07:53Z</time>
      </trkpt>
      <trkpt lat="46.08255" lon="4.57354">
        <ele>648</ele>
        <time>2017-02-02T12:07:54Z</time>
      </trkpt>
      <trkpt lat="46.08264" lon="4.57351">
        <ele>648</ele>
        <time>2017-02-02T12:08:06Z</time>
      </trkpt>
      <trkpt lat="46.08264" lon="4.57351">
        <ele>648</ele>
        <time>2017-02-02T12:08:07Z</time>
      </trkpt>
      <trkpt lat="46.08272" lon="4.57346">
        <ele>649</ele>
        <time>2017-02-02T12:08:19Z</time>
      </trkpt>
      <trkpt lat="46.08273" lon="4.57346">
        <ele>649</ele>
        <time>2017-02-02T12:08:20Z</time>
      </trkpt>
      <trkpt lat="46.08281" lon="4.57346">
        <ele>651</ele>
        <time>2017-02-02T12:08:33Z</time>
      </trkpt>
      <trkpt lat="46.08282" lon="4.57346">
        <ele>651</ele>
        <time>2017-02-02T12:08:34Z</time>
      </trkpt>
      <trkpt lat="46.08291" lon="4.57345">
        <ele>652</ele>
        <time>2017-02-02T12:08:48Z</time>
      </trkpt>
      <trkpt lat="46.08292" lon="4.57345">
        <ele>652</ele>
        <time>2017-02-02T12:08:49Z</time>
      </trkpt>
      <trkpt lat="46.083" lon="4.57345">
        <ele>654</ele>
        <time>2017-02-02T12:09:02Z</time>
      </trkpt>
      <trkpt lat="46.08301" lon="4.57345">
        <ele>654</ele>
        <time>2017-02-02T12:09:03Z</time>
      </trkpt>
      <trkpt lat="46.08309" lon="4.57344">
        <ele>655</ele>
        <time>2017-02-02T12:09:16Z</time>
      </trkpt>
      <trkpt lat="46.0831" lon="4.57344">
        <ele>656</ele>
        <time>2017-02-02T12:09:17Z</time>
      </trkpt>
      <trkpt lat="46.08318" lon="4.57341">
        <ele>658</ele>
        <time>2017-02-02T12:09:29Z</time>
      </trkpt>
      <trkpt lat="46.08318" lon="4.57341">
        <ele>658</ele>
        <time>2017-02-02T12:09:30Z</time>
      </trkpt>
      <trkpt lat="46.08326" lon="4.57336">
        <ele>661</ele>
        <time>2017-02-02T12:09:43Z</time>
      </trkpt>
      <trkpt lat="46.08327" lon="4.57336">
        <ele>661</ele>
        <time>2017-02-02T12:09:44Z</time>
      </trkpt>
      <trkpt lat="46.08336" lon="4.57335">
        <ele>665</ele>
        <time>2017-02-02T12:10:04Z</time>
      </trkpt>
      <trkpt lat="46.08336" lon="4.57335">
        <ele>665</ele>
        <time>2017-02-02T12:10:05Z</time>
      </trkpt>
      <trkpt lat="46.08345" lon="4.57336">
        <ele>667</ele>
        <time>2017-02-02T12:10:22Z</time>
      </trkpt>
      <trkpt lat="46.08345" lon="4.57336">
        <ele>667</ele>
        <time>2017-02-02T12:10:23Z</time>
      </trkpt>
      <trkpt lat="46.08354" lon="4.57334">
        <ele>669</ele>
        <time>2017-02-02T12:10:37Z</time>
      </trkpt>
      <trkpt lat="46.08355" lon="4.57334">
        <ele>669</ele>
        <time>2017-02-02T12:10:38Z</time>
      </trkpt>
      <trkpt lat="46.08363" lon="4.57332">
        <ele>670</ele>
        <time>2017-02-02T12:10:47Z</time>
      </trkpt>
      <trkpt lat="46.08365" lon="4.57333">
        <ele>671</ele>
        <time>2017-02-02T12:10:48Z</time>
      </trkpt>
      <trkpt lat="46.08373" lon="4.57331">
        <ele>672</ele>
        <time>2017-02-02T12:10:57Z</time>
      </trkpt>
      <trkpt lat="46.08374" lon="4.57331">
        <ele>672</ele>
        <time>2017-02-02T12:10:58Z</time>
      </trkpt>
      <trkpt lat="46.08382" lon="4.57326">
        <ele>674</ele>
        <time>2017-02-02T12:11:09Z</time>
      </trkpt>
      <trkpt lat="46.08383" lon="4.57325">
        <ele>674</ele>
        <time>2017-02-02T12:11:10Z</time>
      </trkpt>
      <trkpt lat="46.08391" lon="4.57322">
        <ele>675</ele>
        <time>2017-02-02T12:11:19Z</time>
      </trkpt>
      <trkpt lat="46.08391" lon="4.57322">
        <ele>675</ele>
        <time>2017-02-02T12:11:20Z</time>
      </trkpt>
      <trkpt lat="46.084" lon="4.57321">
        <ele>677</ele>
        <time>2017-02-02T12:11:36Z</time>
      </trkpt>
      <trkpt lat="46.08401" lon="4.57321">
        <ele>677</ele>
        <time>2017-02-02T12:11:37Z</time>
      </trkpt>
      <trkpt lat="46.08409" lon="4.57317">
        <ele>678</ele>
        <time>2017-02-02T12:11:47Z</time>
      </trkpt>
      <trkpt lat="46.0841" lon="4.57317">
        <ele>678</ele>
        <time>2017-02-02T12:11:48Z</time>
      </trkpt>
      <trkpt lat="46.08419" lon="4.57317">
        <ele>687</ele>
        <time>2017-02-02T12:12:01Z</time>
      </trkpt>
      <trkpt lat="46.08419" lon="4.57317">
        <ele>687</ele>
        <time>2017-02-02T12:12:02Z</time>
      </trkpt>
      <trkpt lat="46.08428" lon="4.57316">
        <ele>688</ele>
        <time>2017-02-02T12:12:12Z</time>
      </trkpt>
      <trkpt lat="46.08429" lon="4.57315">
        <ele>688</ele>
        <time>2017-02-02T12:12:13Z</time>
      </trkpt>
      <trkpt lat="46.08438" lon="4.57316">
        <ele>688</ele>
        <time>2017-02-02T12:12:25Z</time>
      </trkpt>
      <trkpt lat="46.08438" lon="4.57315">
        <ele>688</ele>
        <time>2017-02-02T12:12:26Z</time>
      </trkpt>
      <trkpt lat="46.08447" lon="4.57313">
        <ele>689</ele>
        <time>2017-02-02T12:12:36Z</time>
      </trkpt>
      <trkpt lat="46.08448" lon="4.57313">
        <ele>689</ele>
        <time>2017-02-02T12:12:37Z</time>
      </trkpt>
      <trkpt lat="46.08455" lon="4.57309">
        <ele>690</ele>
        <time>2017-02-02T12:12:52Z</time>
      </trkpt>
      <trkpt lat="46.08456" lon="4.57309">
        <ele>690</ele>
        <time>2017-02-02T12:12:53Z</time>
      </trkpt>
      <trkpt lat="46.08464" lon="4.57305">
        <ele>691</ele>
        <time>2017-02-02T12:13:04Z</time>
      </trkpt>
      <trkpt lat="46.08465" lon="4.57304">
        <ele>691</ele>
        <time>2017-02-02T12:13:05Z</time>
      </trkpt>
      <trkpt lat="46.08473" lon="4.57304">
        <ele>691</ele>
        <time>2017-02-02T12:13:16Z</time>
      </trkpt>
      <trkpt lat="46.08475" lon="4.57303">
        <ele>691</ele>
        <time>2017-02-02T12:13:17Z</time>
      </trkpt>
      <trkpt lat="46.08483" lon="4.57301">
        <ele>692</ele>
        <time>2017-02-02T12:13:26Z</time>
      </trkpt>
      <trkpt lat="46.08484" lon="4.573">
        <ele>692</ele>
        <time>2017-02-02T12:13:27Z</time>
      </trkpt>
      <trkpt lat="46.08491" lon="4.57296">
        <ele>692</ele>
        <time>2017-02-02T12:13:38Z</time>
      </trkpt>
      <trkpt lat="46.08492" lon="4.57296">
        <ele>692</ele>
        <time>2017-02-02T12:13:39Z</time>
      </trkpt>
      <trkpt lat="46.08501" lon="4.57294">
        <ele>697</ele>
        <time>2017-02-02T12:13:45Z</time>
      </trkpt>
      <trkpt lat="46.08502" lon="4.57294">
        <ele>697</ele>
        <time>2017-02-02T12:13:46Z</time>
      </trkpt>
      <trkpt lat="46.0851" lon="4.57288">
        <ele>697</ele>
        <time>2017-02-02T12:13:53Z</time>
      </trkpt>
      <trkpt lat="46.08511" lon="4.57287">
        <ele>697</ele>
        <time>2017-02-02T12:13:54Z</time>
      </trkpt>
      <trkpt lat="46.08519" lon="4.57282">
        <ele>697</ele>
        <time>2017-02-02T12:14:01Z</time>
      </trkpt>
      <trkpt lat="46.0852" lon="4.57282">
        <ele>697</ele>
        <time>2017-02-02T12:14:02Z</time>
      </trkpt>
      <trkpt lat="46.08528" lon="4.57278">
        <ele>697</ele>
        <time>2017-02-02T12:14:10Z</time>
      </trkpt>
      <trkpt lat="46.08529" lon="4.57278">
        <ele>697</ele>
        <time>2017-02-02T12:14:11Z</time>
      </trkpt>
      <trkpt lat="46.08532" lon="4.57266">
        <ele>697</ele>
        <time>2017-02-02T12:16:52Z</time>
      </trkpt>
      <trkpt lat="46.08531" lon="4.57264">
        <ele>697</ele>
        <time>2017-02-02T12:16:53Z</time>
      </trkpt>
      <trkpt lat="46.08529" lon="4.57253">
        <ele>697</ele>
        <time>2017-02-02T12:17:01Z</time>
      </trkpt>
      <trkpt lat="46.08529" lon="4.57252">
        <ele>697</ele>
        <time>2017-02-02T12:17:02Z</time>
      </trkpt>
      <trkpt lat="46.08533" lon="4.5724">
        <ele>696</ele>
        <time>2017-02-02T12:17:10Z</time>
      </trkpt>
      <trkpt lat="46.08533" lon="4.57239">
        <ele>696</ele>
        <time>2017-02-02T12:17:11Z</time>
      </trkpt>
      <trkpt lat="46.08536" lon="4.57227">
        <ele>696</ele>
        <time>2017-02-02T12:17:19Z</time>
      </trkpt>
      <trkpt lat="46.08536" lon="4.57225">
        <ele>696</ele>
        <time>2017-02-02T12:17:20Z</time>
      </trkpt>
      <trkpt lat="46.08539" lon="4.57213">
        <ele>696</ele>
        <time>2017-02-02T12:17:29Z</time>
      </trkpt>
      <trkpt lat="46.08539" lon="4.57212">
        <ele>696</ele>
        <time>2017-02-02T12:17:30Z</time>
      </trkpt>
      <trkpt lat="46.0854" lon="4.57201">
        <ele>696</ele>
        <time>2017-02-02T12:17:38Z</time>
      </trkpt>
      <trkpt lat="46.08541" lon="4.57199">
        <ele>696</ele>
        <time>2017-02-02T12:17:39Z</time>
      </trkpt>
      <trkpt lat="46.08542" lon="4.57187">
        <ele>696</ele>
        <time>2017-02-02T12:17:48Z</time>
      </trkpt>
      <trkpt lat="46.08542" lon="4.57186">
        <ele>696</ele>
        <time>2017-02-02T12:17:49Z</time>
      </trkpt>
      <trkpt lat="46.08541" lon="4.57173">
        <ele>696</ele>
        <time>2017-02-02T12:18:00Z</time>
      </trkpt>
      <trkpt lat="46.08541" lon="4.57172">
        <ele>696</ele>
        <time>2017-02-02T12:18:01Z</time>
      </trkpt>
      <trkpt lat="46.08542" lon="4.5716">
        <ele>696</ele>
        <time>2017-02-02T12:18:09Z</time>
      </trkpt>
      <trkpt lat="46.08542" lon="4.57159">
        <ele>696</ele>
        <time>2017-02-02T12:18:10Z</time>
      </trkpt>
      <trkpt lat="46.0854" lon="4.57146">
        <ele>697</ele>
        <time>2017-02-02T12:18:18Z</time>
      </trkpt>
      <trkpt lat="46.0854" lon="4.57145">
        <ele>697</ele>
        <time>2017-02-02T12:18:19Z</time>
      </trkpt>
      <trkpt lat="46.08539" lon="4.57133">
        <ele>697</ele>
        <time>2017-02-02T12:18:27Z</time>
      </trkpt>
      <trkpt lat="46.08539" lon="4.57132">
        <ele>697</ele>
        <time>2017-02-02T12:18:28Z</time>
      </trkpt>
      <trkpt lat="46.08536" lon="4.57121">
        <ele>697</ele>
        <time>2017-02-02T12:18:35Z</time>
      </trkpt>
      <trkpt lat="46.08535" lon="4.57119">
        <ele>697</ele>
        <time>2017-02-02T12:18:36Z</time>
      </trkpt>
      <trkpt lat="46.08534" lon="4.57107">
        <ele>697</ele>
        <time>2017-02-02T12:18:43Z</time>
      </trkpt>
      <trkpt lat="46.08534" lon="4.57105">
        <ele>697</ele>
        <time>2017-02-02T12:18:44Z</time>
      </trkpt>
      <trkpt lat="46.08533" lon="4.57094">
        <ele>697</ele>
        <time>2017-02-02T12:18:51Z</time>
      </trkpt>
      <trkpt lat="46.08533" lon="4.57092">
        <ele>697</ele>
        <time>2017-02-02T12:18:52Z</time>
      </trkpt>
      <trkpt lat="46.08533" lon="4.57079">
        <ele>698</ele>
        <time>2017-02-02T12:19:00Z</time>
      </trkpt>
      <trkpt lat="46.08532" lon="4.57078">
        <ele>698</ele>
        <time>2017-02-02T12:19:01Z</time>
      </trkpt>
      <trkpt lat="46.08531" lon="4.57066">
        <ele>698</ele>
        <time>2017-02-02T12:19:09Z</time>
      </trkpt>
      <trkpt lat="46.08531" lon="4.57065">
        <ele>698</ele>
        <time>2017-02-02T12:19:10Z</time>
      </trkpt>
      <trkpt lat="46.0853" lon="4.57052">
        <ele>698</ele>
        <time>2017-02-02T12:19:18Z</time>
      </trkpt>
      <trkpt lat="46.0853" lon="4.5705">
        <ele>698</ele>
        <time>2017-02-02T12:19:19Z</time>
      </trkpt>
      <trkpt lat="46.0853" lon="4.57038">
        <ele>698</ele>
        <time>2017-02-02T12:19:26Z</time>
      </trkpt>
      <trkpt lat="46.0853" lon="4.57036">
        <ele>698</ele>
        <time>2017-02-02T12:19:27Z</time>
      </trkpt>
      <trkpt lat="46.08528" lon="4.57024">
        <ele>698</ele>
        <time>2017-02-02T12:19:34Z</time>
      </trkpt>
      <trkpt lat="46.08528" lon="4.57023">
        <ele>698</ele>
        <time>2017-02-02T12:19:35Z</time>
      </trkpt>
      <trkpt lat="46.08526" lon="4.57012">
        <ele>698</ele>
        <time>2017-02-02T12:19:42Z</time>
      </trkpt>
      <trkpt lat="46.08525" lon="4.5701">
        <ele>698</ele>
        <time>2017-02-02T12:19:43Z</time>
      </trkpt>
      <trkpt lat="46.08526" lon="4.56998">
        <ele>699</ele>
        <time>2017-02-02T12:19:50Z</time>
      </trkpt>
      <trkpt lat="46.08526" lon="4.56996">
        <ele>699</ele>
        <time>2017-02-02T12:19:51Z</time>
      </trkpt>
      <trkpt lat="46.08522" lon="4.56985">
        <ele>699</ele>
        <time>2017-02-02T12:19:58Z</time>
      </trkpt>
      <trkpt lat="46.08522" lon="4.56984">
        <ele>699</ele>
        <time>2017-02-02T12:19:59Z</time>
      </trkpt>
      <trkpt lat="46.08521" lon="4.56972">
        <ele>700</ele>
        <time>2017-02-02T12:20:07Z</time>
      </trkpt>
      <trkpt lat="46.08521" lon="4.56971">
        <ele>700</ele>
        <time>2017-02-02T12:20:08Z</time>
      </trkpt>
      <trkpt lat="46.08519" lon="4.5696">
        <ele>700</ele>
        <time>2017-02-02T12:20:17Z</time>
      </trkpt>
      <trkpt lat="46.08518" lon="4.56958">
        <ele>700</ele>
        <time>2017-02-02T12:20:18Z</time>
      </trkpt>
      <trkpt lat="46.08519" lon="4.56945">
        <ele>701</ele>
        <time>2017-02-02T12:20:28Z</time>
      </trkpt>
      <trkpt lat="46.08518" lon="4.56944">
        <ele>701</ele>
        <time>2017-02-02T12:20:29Z</time>
      </trkpt>
      <trkpt lat="46.08517" lon="4.56932">
        <ele>702</ele>
        <time>2017-02-02T12:20:37Z</time>
      </trkpt>
      <trkpt lat="46.08517" lon="4.5693">
        <ele>702</ele>
        <time>2017-02-02T12:20:38Z</time>
      </trkpt>
      <trkpt lat="46.08516" lon="4.56918">
        <ele>703</ele>
        <time>2017-02-02T12:20:46Z</time>
      </trkpt>
      <trkpt lat="46.08516" lon="4.56917">
        <ele>705</ele>
        <time>2017-02-02T12:20:47Z</time>
      </trkpt>
      <trkpt lat="46.08514" lon="4.56905">
        <ele>705</ele>
        <time>2017-02-02T12:20:54Z</time>
      </trkpt>
      <trkpt lat="46.08514" lon="4.56904">
        <ele>705</ele>
        <time>2017-02-02T12:20:55Z</time>
      </trkpt>
      <trkpt lat="46.08511" lon="4.56893">
        <ele>705</ele>
        <time>2017-02-02T12:21:02Z</time>
      </trkpt>
      <trkpt lat="46.0851" lon="4.56891">
        <ele>705</ele>
        <time>2017-02-02T12:21:03Z</time>
      </trkpt>
      <trkpt lat="46.08508" lon="4.5688">
        <ele>705</ele>
        <time>2017-02-02T12:21:10Z</time>
      </trkpt>
      <trkpt lat="46.08508" lon="4.56879">
        <ele>706</ele>
        <time>2017-02-02T12:21:11Z</time>
      </trkpt>
      <trkpt lat="46.08506" lon="4.56866">
        <ele>706</ele>
        <time>2017-02-02T12:21:20Z</time>
      </trkpt>
      <trkpt lat="46.08506" lon="4.56865">
        <ele>707</ele>
        <time>2017-02-02T12:21:21Z</time>
      </trkpt>
      <trkpt lat="46.08504" lon="4.56854">
        <ele>708</ele>
        <time>2017-02-02T12:21:29Z</time>
      </trkpt>
      <trkpt lat="46.08503" lon="4.56853">
        <ele>708</ele>
        <time>2017-02-02T12:21:30Z</time>
      </trkpt>
      <trkpt lat="46.08501" lon="4.5684">
        <ele>711</ele>
        <time>2017-02-02T12:21:41Z</time>
      </trkpt>
      <trkpt lat="46.08501" lon="4.56839">
        <ele>712</ele>
        <time>2017-02-02T12:21:42Z</time>
      </trkpt>
      <trkpt lat="46.08502" lon="4.56826">
        <ele>713</ele>
        <time>2017-02-02T12:21:53Z</time>
      </trkpt>
      <trkpt lat="46.08501" lon="4.56825">
        <ele>713</ele>
        <time>2017-02-02T12:21:54Z</time>
      </trkpt>
      <trkpt lat="46.08499" lon="4.56813">
        <ele>715</ele>
        <time>2017-02-02T12:22:04Z</time>
      </trkpt>
      <trkpt lat="46.08498" lon="4.56812">
        <ele>715</ele>
        <time>2017-02-02T12:22:05Z</time>
      </trkpt>
      <trkpt lat="46.08494" lon="4.56802">
        <ele>715</ele>
        <time>2017-02-02T12:22:15Z</time>
      </trkpt>
      <trkpt lat="46.08493" lon="4.56801">
        <ele>716</ele>
        <time>2017-02-02T12:22:16Z</time>
      </trkpt>
      <trkpt lat="46.08487" lon="4.56792">
        <ele>716</ele>
        <time>2017-02-02T12:22:27Z</time>
      </trkpt>
      <trkpt lat="46.08487" lon="4.56791">
        <ele>716</ele>
        <time>2017-02-02T12:22:28Z</time>
      </trkpt>
      <trkpt lat="46.08483" lon="4.56781">
        <ele>717</ele>
        <time>2017-02-02T12:22:38Z</time>
      </trkpt>
      <trkpt lat="46.08482" lon="4.5678">
        <ele>718</ele>
        <time>2017-02-02T12:22:39Z</time>
      </trkpt>
      <trkpt lat="46.08479" lon="4.56768">
        <ele>719</ele>
        <time>2017-02-02T12:22:52Z</time>
      </trkpt>
      <trkpt lat="46.08479" lon="4.56767">
        <ele>719</ele>
        <time>2017-02-02T12:22:53Z</time>
      </trkpt>
      <trkpt lat="46.08477" lon="4.56755">
        <ele>720</ele>
        <time>2017-02-02T12:23:06Z</time>
      </trkpt>
      <trkpt lat="46.08477" lon="4.56754">
        <ele>720</ele>
        <time>2017-02-02T12:23:07Z</time>
      </trkpt>
      <trkpt lat="46.08475" lon="4.56742">
        <ele>727</ele>
        <time>2017-02-02T12:23:17Z</time>
      </trkpt>
      <trkpt lat="46.08474" lon="4.56741">
        <ele>727</ele>
        <time>2017-02-02T12:23:18Z</time>
      </trkpt>
      <trkpt lat="46.0847" lon="4.56731">
        <ele>728</ele>
        <time>2017-02-02T12:23:29Z</time>
      </trkpt>
      <trkpt lat="46.0847" lon="4.5673">
        <ele>728</ele>
        <time>2017-02-02T12:23:30Z</time>
      </trkpt>
      <trkpt lat="46.08467" lon="4.56718">
        <ele>728</ele>
        <time>2017-02-02T12:23:39Z</time>
      </trkpt>
      <trkpt lat="46.08467" lon="4.56717">
        <ele>728</ele>
        <time>2017-02-02T12:23:40Z</time>
      </trkpt>
      <trkpt lat="46.08464" lon="4.56706">
        <ele>729</ele>
        <time>2017-02-02T12:23:50Z</time>
      </trkpt>
      <trkpt lat="46.08464" lon="4.56704">
        <ele>729</ele>
        <time>2017-02-02T12:23:51Z</time>
      </trkpt>
      <trkpt lat="46.08465" lon="4.56692">
        <ele>730</ele>
        <time>2017-02-02T12:24:12Z</time>
      </trkpt>
      <trkpt lat="46.08465" lon="4.56691">
        <ele>730</ele>
        <time>2017-02-02T12:24:13Z</time>
      </trkpt>
      <trkpt lat="46.08464" lon="4.56679">
        <ele>730</ele>
        <time>2017-02-02T12:26:15Z</time>
      </trkpt>
      <trkpt lat="46.08464" lon="4.56678">
        <ele>730</ele>
        <time>2017-02-02T12:26:16Z</time>
      </trkpt>
      <trkpt lat="46.08462" lon="4.56665">
        <ele>735</ele>
        <time>2017-02-02T12:26:26Z</time>
      </trkpt>
      <trkpt lat="46.08462" lon="4.56664">
        <ele>735</ele>
        <time>2017-02-02T12:26:27Z</time>
      </trkpt>
      <trkpt lat="46.08458" lon="4.56653">
        <ele>735</ele>
        <time>2017-02-02T12:26:41Z</time>
      </trkpt>
      <trkpt lat="46.08457" lon="4.56652">
        <ele>735</ele>
        <time>2017-02-02T12:26:42Z</time>
      </trkpt>
      <trkpt lat="46.08452" lon="4.56641">
        <ele>735</ele>
        <time>2017-02-02T12:26:51Z</time>
      </trkpt>
      <trkpt lat="46.08451" lon="4.5664">
        <ele>735</ele>
        <time>2017-02-02T12:26:52Z</time>
      </trkpt>
      <trkpt lat="46.08451" lon="4.56628">
        <ele>736</ele>
        <time>2017-02-02T12:27:03Z</time>
      </trkpt>
      <trkpt lat="46.08451" lon="4.56627">
        <ele>736</ele>
        <time>2017-02-02T12:27:04Z</time>
      </trkpt>
      <trkpt lat="46.08449" lon="4.56614">
        <ele>736</ele>
        <time>2017-02-02T12:27:12Z</time>
      </trkpt>
      <trkpt lat="46.08449" lon="4.56613">
        <ele>736</ele>
        <time>2017-02-02T12:27:13Z</time>
      </trkpt>
      <trkpt lat="46.08445" lon="4.56601">
        <ele>737</ele>
        <time>2017-02-02T12:27:21Z</time>
      </trkpt>
      <trkpt lat="46.08444" lon="4.56599">
        <ele>737</ele>
        <time>2017-02-02T12:27:22Z</time>
      </trkpt>
      <trkpt lat="46.08442" lon="4.56588">
        <ele>737</ele>
        <time>2017-02-02T12:27:28Z</time>
      </trkpt>
      <trkpt lat="46.08442" lon="4.56587">
        <ele>737</ele>
        <time>2017-02-02T12:27:29Z</time>
      </trkpt>
      <trkpt lat="46.0844" lon="4.56575">
        <ele>738</ele>
        <time>2017-02-02T12:27:36Z</time>
      </trkpt>
      <trkpt lat="46.0844" lon="4.56572">
        <ele>738</ele>
        <time>2017-02-02T12:27:37Z</time>
      </trkpt>
      <trkpt lat="46.0844" lon="4.56559">
        <ele>738</ele>
        <time>2017-02-02T12:27:44Z</time>
      </trkpt>
      <trkpt lat="46.0844" lon="4.56558">
        <ele>738</ele>
        <time>2017-02-02T12:27:45Z</time>
      </trkpt>
      <trkpt lat="46.08438" lon="4.56546">
        <ele>738</ele>
        <time>2017-02-02T12:27:52Z</time>
      </trkpt>
      <trkpt lat="46.08437" lon="4.56545">
        <ele>738</ele>
        <time>2017-02-02T12:27:53Z</time>
      </trkpt>
      <trkpt lat="46.08433" lon="4.56534">
        <ele>738</ele>
        <time>2017-02-02T12:28:01Z</time>
      </trkpt>
      <trkpt lat="46.08433" lon="4.56532">
        <ele>738</ele>
        <time>2017-02-02T12:28:02Z</time>
      </trkpt>
      <trkpt lat="46.08427" lon="4.56523">
        <ele>739</ele>
        <time>2017-02-02T12:28:09Z</time>
      </trkpt>
      <trkpt lat="46.08426" lon="4.56522">
        <ele>739</ele>
        <time>2017-02-02T12:28:10Z</time>
      </trkpt>
      <trkpt lat="46.08418" lon="4.56518">
        <ele>740</ele>
        <time>2017-02-02T12:28:17Z</time>
      </trkpt>
      <trkpt lat="46.08417" lon="4.56517">
        <ele>741</ele>
        <time>2017-02-02T12:28:18Z</time>
      </trkpt>
      <trkpt lat="46.0841" lon="4.56511">
        <ele>741</ele>
        <time>2017-02-02T12:28:24Z</time>
      </trkpt>
      <trkpt lat="46.08409" lon="4.5651">
        <ele>741</ele>
        <time>2017-02-02T12:28:25Z</time>
      </trkpt>
      <trkpt lat="46.08402" lon="4.56502">
        <ele>741</ele>
        <time>2017-02-02T12:28:32Z</time>
      </trkpt>
      <trkpt lat="46.08401" lon="4.56501">
        <ele>741</ele>
        <time>2017-02-02T12:28:33Z</time>
      </trkpt>
      <trkpt lat="46.08396" lon="4.56492">
        <ele>742</ele>
        <time>2017-02-02T12:28:40Z</time>
      </trkpt>
      <trkpt lat="46.08395" lon="4.5649">
        <ele>741</ele>
        <time>2017-02-02T12:28:41Z</time>
      </trkpt>
      <trkpt lat="46.08391" lon="4.56479">
        <ele>741</ele>
        <time>2017-02-02T12:28:48Z</time>
      </trkpt>
      <trkpt lat="46.08391" lon="4.56478">
        <ele>741</ele>
        <time>2017-02-02T12:28:49Z</time>
      </trkpt>
      <trkpt lat="46.08385" lon="4.56469">
        <ele>741</ele>
        <time>2017-02-02T12:28:56Z</time>
      </trkpt>
      <trkpt lat="46.08384" lon="4.56467">
        <ele>741</ele>
        <time>2017-02-02T12:28:57Z</time>
      </trkpt>
      <trkpt lat="46.0838" lon="4.56458">
        <ele>740</ele>
        <time>2017-02-02T12:29:04Z</time>
      </trkpt>
      <trkpt lat="46.08379" lon="4.56456">
        <ele>740</ele>
        <time>2017-02-02T12:29:05Z</time>
      </trkpt>
      <trkpt lat="46.08375" lon="4.56446">
        <ele>741</ele>
        <time>2017-02-02T12:29:13Z</time>
      </trkpt>
      <trkpt lat="46.08374" lon="4.56445">
        <ele>741</ele>
        <time>2017-02-02T12:29:14Z</time>
      </trkpt>
      <trkpt lat="46.08369" lon="4.56435">
        <ele>741</ele>
        <time>2017-02-02T12:29:21Z</time>
      </trkpt>
      <trkpt lat="46.08368" lon="4.56434">
        <ele>741</ele>
        <time>2017-02-02T12:29:22Z</time>
      </trkpt>
      <trkpt lat="46.08362" lon="4.56427">
        <ele>741</ele>
        <time>2017-02-02T12:29:29Z</time>
      </trkpt>
      <trkpt lat="46.08362" lon="4.56426">
        <ele>741</ele>
        <time>2017-02-02T12:29:30Z</time>
      </trkpt>
      <trkpt lat="46.08356" lon="4.56418">
        <ele>742</ele>
        <time>2017-02-02T12:29:37Z</time>
      </trkpt>
      <trkpt lat="46.08355" lon="4.56417">
        <ele>742</ele>
        <time>2017-02-02T12:29:38Z</time>
      </trkpt>
      <trkpt lat="46.08353" lon="4.56405">
        <ele>741</ele>
        <time>2017-02-02T12:29:46Z</time>
      </trkpt>
      <trkpt lat="46.08353" lon="4.56404">
        <ele>741</ele>
        <time>2017-02-02T12:29:47Z</time>
      </trkpt>
      <trkpt lat="46.08349" lon="4.56394">
        <ele>741</ele>
        <time>2017-02-02T12:29:57Z</time>
      </trkpt>
      <trkpt lat="46.08349" lon="4.56392">
        <ele>741</ele>
        <time>2017-02-02T12:29:58Z</time>
      </trkpt>
      <trkpt lat="46.08344" lon="4.56383">
        <ele>741</ele>
        <time>2017-02-02T12:30:06Z</time>
      </trkpt>
      <trkpt lat="46.08344" lon="4.56381">
        <ele>741</ele>
        <time>2017-02-02T12:30:07Z</time>
      </trkpt>
      <trkpt lat="46.08339" lon="4.56371">
        <ele>741</ele>
        <time>2017-02-02T12:30:24Z</time>
      </trkpt>
      <trkpt lat="46.08339" lon="4.56369">
        <ele>741</ele>
        <time>2017-02-02T12:30:25Z</time>
      </trkpt>
      <trkpt lat="46.08334" lon="4.56359">
        <ele>741</ele>
        <time>2017-02-02T12:30:33Z</time>
      </trkpt>
      <trkpt lat="46.08334" lon="4.56358">
        <ele>742</ele>
        <time>2017-02-02T12:30:34Z</time>
      </trkpt>
      <trkpt lat="46.08331" lon="4.56346">
        <ele>743</ele>
        <time>2017-02-02T12:30:43Z</time>
      </trkpt>
      <trkpt lat="46.0833" lon="4.56345">
        <ele>743</ele>
        <time>2017-02-02T12:30:44Z</time>
      </trkpt>
      <trkpt lat="46.08324" lon="4.56336">
        <ele>744</ele>
        <time>2017-02-02T12:30:51Z</time>
      </trkpt>
      <trkpt lat="46.08323" lon="4.56335">
        <ele>744</ele>
        <time>2017-02-02T12:30:52Z</time>
      </trkpt>
      <trkpt lat="46.08317" lon="4.56326">
        <ele>744</ele>
        <time>2017-02-02T12:31:00Z</time>
      </trkpt>
      <trkpt lat="46.08316" lon="4.56325">
        <ele>744</ele>
        <time>2017-02-02T12:31:01Z</time>
      </trkpt>
      <trkpt lat="46.08311" lon="4.56316">
        <ele>743</ele>
        <time>2017-02-02T12:31:08Z</time>
      </trkpt>
      <trkpt lat="46.0831" lon="4.56314">
        <ele>743</ele>
        <time>2017-02-02T12:31:09Z</time>
      </trkpt>
      <trkpt lat="46.08305" lon="4.56304">
        <ele>743</ele>
        <time>2017-02-02T12:31:16Z</time>
      </trkpt>
      <trkpt lat="46.08304" lon="4.56303">
        <ele>743</ele>
        <time>2017-02-02T12:31:17Z</time>
      </trkpt>
      <trkpt lat="46.08302" lon="4.56291">
        <ele>743</ele>
        <time>2017-02-02T12:31:24Z</time>
      </trkpt>
      <trkpt lat="46.08301" lon="4.56289">
        <ele>743</ele>
        <time>2017-02-02T12:31:25Z</time>
      </trkpt>
      <trkpt lat="46.083" lon="4.56276">
        <ele>743</ele>
        <time>2017-02-02T12:31:33Z</time>
      </trkpt>
      <trkpt lat="46.08299" lon="4.56275">
        <ele>743</ele>
        <time>2017-02-02T12:31:34Z</time>
      </trkpt>
      <trkpt lat="46.08298" lon="4.56263">
        <ele>743</ele>
        <time>2017-02-02T12:31:42Z</time>
      </trkpt>
      <trkpt lat="46.08298" lon="4.56262">
        <ele>743</ele>
        <time>2017-02-02T12:31:43Z</time>
      </trkpt>
      <trkpt lat="46.08297" lon="4.5625">
        <ele>743</ele>
        <time>2017-02-02T12:31:51Z</time>
      </trkpt>
      <trkpt lat="46.08297" lon="4.56249">
        <ele>743</ele>
        <time>2017-02-02T12:31:52Z</time>
      </trkpt>
      <trkpt lat="46.08297" lon="4.56237">
        <ele>743</ele>
        <time>2017-02-02T12:32:02Z</time>
      </trkpt>
      <trkpt lat="46.08297" lon="4.56235">
        <ele>743</ele>
        <time>2017-02-02T12:32:03Z</time>
      </trkpt>
      <trkpt lat="46.08299" lon="4.56223">
        <ele>743</ele>
        <time>2017-02-02T12:32:11Z</time>
      </trkpt>
      <trkpt lat="46.08299" lon="4.56222">
        <ele>743</ele>
        <time>2017-02-02T12:32:12Z</time>
      </trkpt>
      <trkpt lat="46.08297" lon="4.56209">
        <ele>743</ele>
        <time>2017-02-02T12:32:20Z</time>
      </trkpt>
      <trkpt lat="46.08297" lon="4.56208">
        <ele>743</ele>
        <time>2017-02-02T12:32:21Z</time>
      </trkpt>
      <trkpt lat="46.08298" lon="4.56197">
        <ele>743</ele>
        <time>2017-02-02T12:32:28Z</time>
      </trkpt>
      <trkpt lat="46.08299" lon="4.56195">
        <ele>743</ele>
        <time>2017-02-02T12:32:29Z</time>
      </trkpt>
      <trkpt lat="46.08301" lon="4.56184">
        <ele>743</ele>
        <time>2017-02-02T12:32:35Z</time>
      </trkpt>
      <trkpt lat="46.08301" lon="4.56182">
        <ele>743</ele>
        <time>2017-02-02T12:32:36Z</time>
      </trkpt>
      <trkpt lat="46.08303" lon="4.56171">
        <ele>743</ele>
        <time>2017-02-02T12:32:43Z</time>
      </trkpt>
      <trkpt lat="46.08303" lon="4.56169">
        <ele>743</ele>
        <time>2017-02-02T12:32:44Z</time>
      </trkpt>
      <trkpt lat="46.08304" lon="4.56157">
        <ele>742</ele>
        <time>2017-02-02T12:32:52Z</time>
      </trkpt>
      <trkpt lat="46.08304" lon="4.56155">
        <ele>742</ele>
        <time>2017-02-02T12:32:53Z</time>
      </trkpt>
      <trkpt lat="46.08305" lon="4.56143">
        <ele>742</ele>
        <time>2017-02-02T12:32:59Z</time>
      </trkpt>
      <trkpt lat="46.08306" lon="4.56141">
        <ele>742</ele>
        <time>2017-02-02T12:33:00Z</time>
      </trkpt>
      <trkpt lat="46.08302" lon="4.56129">
        <ele>742</ele>
        <time>2017-02-02T12:33:09Z</time>
      </trkpt>
      <trkpt lat="46.08301" lon="4.56129">
        <ele>742</ele>
        <time>2017-02-02T12:33:10Z</time>
      </trkpt>
      <trkpt lat="46.08297" lon="4.56118">
        <ele>741</ele>
        <time>2017-02-02T12:33:18Z</time>
      </trkpt>
      <trkpt lat="46.08296" lon="4.56116">
        <ele>741</ele>
        <time>2017-02-02T12:33:19Z</time>
      </trkpt>
      <trkpt lat="46.08294" lon="4.56105">
        <ele>741</ele>
        <time>2017-02-02T12:33:27Z</time>
      </trkpt>
      <trkpt lat="46.08294" lon="4.56103">
        <ele>741</ele>
        <time>2017-02-02T12:33:28Z</time>
      </trkpt>
      <trkpt lat="46.08294" lon="4.56091">
        <ele>741</ele>
        <time>2017-02-02T12:33:35Z</time>
      </trkpt>
      <trkpt lat="46.08294" lon="4.56089">
        <ele>741</ele>
        <time>2017-02-02T12:33:36Z</time>
      </trkpt>
      <trkpt lat="46.08294" lon="4.56077">
        <ele>737</ele>
        <time>2017-02-02T12:33:43Z</time>
      </trkpt>
      <trkpt lat="46.08294" lon="4.56076">
        <ele>737</ele>
        <time>2017-02-02T12:33:44Z</time>
      </trkpt>
      <trkpt lat="46.08296" lon="4.56064">
        <ele>737</ele>
        <time>2017-02-02T12:33:51Z</time>
      </trkpt>
      <trkpt lat="46.08296" lon="4.56063">
        <ele>737</ele>
        <time>2017-02-02T12:33:52Z</time>
      </trkpt>
      <trkpt lat="46.08298" lon="4.5605">
        <ele>736</ele>
        <time>2017-02-02T12:34:00Z</time>
      </trkpt>
      <trkpt lat="46.08298" lon="4.56049">
        <ele>736</ele>
        <time>2017-02-02T12:34:01Z</time>
      </trkpt>
      <trkpt lat="46.08301" lon="4.56037">
        <ele>736</ele>
        <time>2017-02-02T12:34:11Z</time>
      </trkpt>
      <trkpt lat="46.08302" lon="4.56036">
        <ele>736</ele>
        <time>2017-02-02T12:34:12Z</time>
      </trkpt>
      <trkpt lat="46.08307" lon="4.56027">
        <ele>736</ele>
        <time>2017-02-02T12:34:20Z</time>
      </trkpt>
      <trkpt lat="46.08308" lon="4.56026">
        <ele>736</ele>
        <time>2017-02-02T12:34:21Z</time>
      </trkpt>
      <trkpt lat="46.08309" lon="4.56014">
        <ele>736</ele>
        <time>2017-02-02T12:34:30Z</time>
      </trkpt>
      <trkpt lat="46.08309" lon="4.56013">
        <ele>736</ele>
        <time>2017-02-02T12:34:31Z</time>
      </trkpt>
      <trkpt lat="46.08313" lon="4.56002">
        <ele>736</ele>
        <time>2017-02-02T12:34:38Z</time>
      </trkpt>
      <trkpt lat="46.08313" lon="4.56">
        <ele>731</ele>
        <time>2017-02-02T12:34:39Z</time>
      </trkpt>
      <trkpt lat="46.08315" lon="4.55988">
        <ele>731</ele>
        <time>2017-02-02T12:34:46Z</time>
      </trkpt>
      <trkpt lat="46.08315" lon="4.55987">
        <ele>731</ele>
        <time>2017-02-02T12:34:47Z</time>
      </trkpt>
      <trkpt lat="46.08317" lon="4.55975">
        <ele>729</ele>
        <time>2017-02-02T12:34:54Z</time>
      </trkpt>
      <trkpt lat="46.08317" lon="4.55974">
        <ele>729</ele>
        <time>2017-02-02T12:34:55Z</time>
      </trkpt>
      <trkpt lat="46.08322" lon="4.55964">
        <ele>729</ele>
        <time>2017-02-02T12:35:02Z</time>
      </trkpt>
      <trkpt lat="46.08322" lon="4.55963">
        <ele>729</ele>
        <time>2017-02-02T12:35:03Z</time>
      </trkpt>
      <trkpt lat="46.08324" lon="4.55951">
        <ele>728</ele>
        <time>2017-02-02T12:35:11Z</time>
      </trkpt>
      <trkpt lat="46.08324" lon="4.55949">
        <ele>728</ele>
        <time>2017-02-02T12:35:12Z</time>
      </trkpt>
      <trkpt lat="46.08324" lon="4.55938">
        <ele>728</ele>
        <time>2017-02-02T12:35:19Z</time>
      </trkpt>
      <trkpt lat="46.08325" lon="4.55936">
        <ele>728</ele>
        <time>2017-02-02T12:35:20Z</time>
      </trkpt>
      <trkpt lat="46.08323" lon="4.55924">
        <ele>729</ele>
        <time>2017-02-02T12:35:30Z</time>
      </trkpt>
      <trkpt lat="46.08322" lon="4.55923">
        <ele>729</ele>
        <time>2017-02-02T12:35:31Z</time>
      </trkpt>
      <trkpt lat="46.08321" lon="4.5591">
        <ele>724</ele>
        <time>2017-02-02T12:35:42Z</time>
      </trkpt>
      <trkpt lat="46.0832" lon="4.55909">
        <ele>724</ele>
        <time>2017-02-02T12:35:43Z</time>
      </trkpt>
      <trkpt lat="46.08319" lon="4.55896">
        <ele>721</ele>
        <time>2017-02-02T12:35:53Z</time>
      </trkpt>
      <trkpt lat="46.08319" lon="4.55895">
        <ele>721</ele>
        <time>2017-02-02T12:35:54Z</time>
      </trkpt>
      <trkpt lat="46.08318" lon="4.55883">
        <ele>718</ele>
        <time>2017-02-02T12:36:02Z</time>
      </trkpt>
      <trkpt lat="46.08318" lon="4.55881">
        <ele>718</ele>
        <time>2017-02-02T12:36:03Z</time>
      </trkpt>
      <trkpt lat="46.08321" lon="4.55869">
        <ele>717</ele>
        <time>2017-02-02T12:36:10Z</time>
      </trkpt>
      <trkpt lat="46.08321" lon="4.55868">
        <ele>717</ele>
        <time>2017-02-02T12:36:11Z</time>
      </trkpt>
      <trkpt lat="46.08325" lon="4.55856">
        <ele>717</ele>
        <time>2017-02-02T12:36:18Z</time>
      </trkpt>
      <trkpt lat="46.08325" lon="4.55854">
        <ele>717</ele>
        <time>2017-02-02T12:36:19Z</time>
      </trkpt>
      <trkpt lat="46.08329" lon="4.55844">
        <ele>718</ele>
        <time>2017-02-02T12:36:27Z</time>
      </trkpt>
      <trkpt lat="46.0833" lon="4.55843">
        <ele>718</ele>
        <time>2017-02-02T12:36:28Z</time>
      </trkpt>
      <trkpt lat="46.08336" lon="4.55833">
        <ele>719</ele>
        <time>2017-02-02T12:36:36Z</time>
      </trkpt>
      <trkpt lat="46.08336" lon="4.55832">
        <ele>719</ele>
        <time>2017-02-02T12:36:37Z</time>
      </trkpt>
      <trkpt lat="46.08341" lon="4.55821">
        <ele>715</ele>
        <time>2017-02-02T12:36:47Z</time>
      </trkpt>
      <trkpt lat="46.08342" lon="4.5582">
        <ele>715</ele>
        <time>2017-02-02T12:36:48Z</time>
      </trkpt>
      <trkpt lat="46.08344" lon="4.55808">
        <ele>713</ele>
        <time>2017-02-02T12:36:55Z</time>
      </trkpt>
      <trkpt lat="46.08344" lon="4.55806">
        <ele>712</ele>
        <time>2017-02-02T12:36:56Z</time>
      </trkpt>
      <trkpt lat="46.08347" lon="4.55795">
        <ele>711</ele>
        <time>2017-02-02T12:37:02Z</time>
      </trkpt>
      <trkpt lat="46.08348" lon="4.55793">
        <ele>711</ele>
        <time>2017-02-02T12:37:03Z</time>
      </trkpt>
      <trkpt lat="46.08348" lon="4.55781">
        <ele>710</ele>
        <time>2017-02-02T12:37:12Z</time>
      </trkpt>
      <trkpt lat="46.08348" lon="4.5578">
        <ele>710</ele>
        <time>2017-02-02T12:37:13Z</time>
      </trkpt>
      <trkpt lat="46.08342" lon="4.55771">
        <ele>709</ele>
        <time>2017-02-02T12:37:19Z</time>
      </trkpt>
      <trkpt lat="46.08342" lon="4.5577">
        <ele>709</ele>
        <time>2017-02-02T12:37:20Z</time>
      </trkpt>
      <trkpt lat="46.08343" lon="4.55758">
        <ele>708</ele>
        <time>2017-02-02T12:37:25Z</time>
      </trkpt>
      <trkpt lat="46.08343" lon="4.55756">
        <ele>708</ele>
        <time>2017-02-02T12:37:26Z</time>
      </trkpt>
      <trkpt lat="46.08342" lon="4.55744">
        <ele>708</ele>
        <time>2017-02-02T12:37:32Z</time>
      </trkpt>
      <trkpt lat="46.08342" lon="4.55742">
        <ele>708</ele>
        <time>2017-02-02T12:37:33Z</time>
      </trkpt>
      <trkpt lat="46.0834" lon="4.55731">
        <ele>708</ele>
        <time>2017-02-02T12:37:40Z</time>
      </trkpt>
      <trkpt lat="46.0834" lon="4.55729">
        <ele>708</ele>
        <time>2017-02-02T12:37:41Z</time>
      </trkpt>
      <trkpt lat="46.08341" lon="4.55716">
        <ele>708</ele>
        <time>2017-02-02T12:37:48Z</time>
      </trkpt>
      <trkpt lat="46.0834" lon="4.55715">
        <ele>708</ele>
        <time>2017-02-02T12:37:49Z</time>
      </trkpt>
      <trkpt lat="46.08339" lon="4.55702">
        <ele>709</ele>
        <time>2017-02-02T12:37:56Z</time>
      </trkpt>
      <trkpt lat="46.08338" lon="4.557">
        <ele>709</ele>
        <time>2017-02-02T12:37:57Z</time>
      </trkpt>
      <trkpt lat="46.08339" lon="4.55689">
        <ele>710</ele>
        <time>2017-02-02T12:38:04Z</time>
      </trkpt>
      <trkpt lat="46.08338" lon="4.55687">
        <ele>710</ele>
        <time>2017-02-02T12:38:05Z</time>
      </trkpt>
      <trkpt lat="46.0834" lon="4.55675">
        <ele>711</ele>
        <time>2017-02-02T12:38:34Z</time>
      </trkpt>
      <trkpt lat="46.08341" lon="4.55674">
        <ele>711</ele>
        <time>2017-02-02T12:38:35Z</time>
      </trkpt>
      <trkpt lat="46.08341" lon="4.55662">
        <ele>712</ele>
        <time>2017-02-02T12:38:43Z</time>
      </trkpt>
      <trkpt lat="46.08341" lon="4.55661">
        <ele>712</ele>
        <time>2017-02-02T12:38:44Z</time>
      </trkpt>
      <trkpt lat="46.08349" lon="4.55655">
        <ele>712</ele>
        <time>2017-02-02T12:39:24Z</time>
      </trkpt>
      <trkpt lat="46.0835" lon="4.55655">
        <ele>712</ele>
        <time>2017-02-02T12:39:25Z</time>
      </trkpt>
      <trkpt lat="46.08349" lon="4.55643">
        <ele>712</ele>
        <time>2017-02-02T12:42:03Z</time>
      </trkpt>
      <trkpt lat="46.08349" lon="4.55641">
        <ele>712</ele>
        <time>2017-02-02T12:42:04Z</time>
      </trkpt>
      <trkpt lat="46.08345" lon="4.5563">
        <ele>712</ele>
        <time>2017-02-02T12:42:12Z</time>
      </trkpt>
      <trkpt lat="46.08344" lon="4.55628">
        <ele>712</ele>
        <time>2017-02-02T12:42:13Z</time>
      </trkpt>
      <trkpt lat="46.08341" lon="4.55617">
        <ele>712</ele>
        <time>2017-02-02T12:42:21Z</time>
      </trkpt>
      <trkpt lat="46.08341" lon="4.55615">
        <ele>712</ele>
        <time>2017-02-02T12:42:22Z</time>
      </trkpt>
      <trkpt lat="46.08339" lon="4.55604">
        <ele>713</ele>
        <time>2017-02-02T12:42:31Z</time>
      </trkpt>
      <trkpt lat="46.08339" lon="4.55602">
        <ele>713</ele>
        <time>2017-02-02T12:42:32Z</time>
      </trkpt>
      <trkpt lat="46.08338" lon="4.5559">
        <ele>713</ele>
        <time>2017-02-02T12:42:40Z</time>
      </trkpt>
      <trkpt lat="46.08338" lon="4.55589">
        <ele>713</ele>
        <time>2017-02-02T12:42:41Z</time>
      </trkpt>
      <trkpt lat="46.08337" lon="4.55577">
        <ele>713</ele>
        <time>2017-02-02T12:42:49Z</time>
      </trkpt>
      <trkpt lat="46.08337" lon="4.55575">
        <ele>714</ele>
        <time>2017-02-02T12:42:50Z</time>
      </trkpt>
      <trkpt lat="46.08336" lon="4.55563">
        <ele>714</ele>
        <time>2017-02-02T12:42:58Z</time>
      </trkpt>
      <trkpt lat="46.08336" lon="4.55561">
        <ele>714</ele>
        <time>2017-02-02T12:42:59Z</time>
      </trkpt>
      <trkpt lat="46.08338" lon="4.5555">
        <ele>714</ele>
        <time>2017-02-02T12:43:08Z</time>
      </trkpt>
      <trkpt lat="46.08338" lon="4.55548">
        <ele>714</ele>
        <time>2017-02-02T12:43:09Z</time>
      </trkpt>
      <trkpt lat="46.08341" lon="4.55537">
        <ele>715</ele>
        <time>2017-02-02T12:43:17Z</time>
      </trkpt>
      <trkpt lat="46.08341" lon="4.55535">
        <ele>715</ele>
        <time>2017-02-02T12:43:18Z</time>
      </trkpt>
      <trkpt lat="46.0834" lon="4.55524">
        <ele>715</ele>
        <time>2017-02-02T12:43:26Z</time>
      </trkpt>
      <trkpt lat="46.0834" lon="4.55522">
        <ele>715</ele>
        <time>2017-02-02T12:43:27Z</time>
      </trkpt>
      <trkpt lat="46.08344" lon="4.55511">
        <ele>715</ele>
        <time>2017-02-02T12:43:35Z</time>
      </trkpt>
      <trkpt lat="46.08344" lon="4.5551">
        <ele>715</ele>
        <time>2017-02-02T12:43:36Z</time>
      </trkpt>
      <trkpt lat="46.08348" lon="4.55498">
        <ele>716</ele>
        <time>2017-02-02T12:43:46Z</time>
      </trkpt>
      <trkpt lat="46.08348" lon="4.55497">
        <ele>716</ele>
        <time>2017-02-02T12:43:47Z</time>
      </trkpt>
      <trkpt lat="46.08352" lon="4.55486">
        <ele>717</ele>
        <time>2017-02-02T12:43:56Z</time>
      </trkpt>
      <trkpt lat="46.08352" lon="4.55485">
        <ele>717</ele>
        <time>2017-02-02T12:43:57Z</time>
      </trkpt>
      <trkpt lat="46.08355" lon="4.55474">
        <ele>717</ele>
        <time>2017-02-02T12:44:07Z</time>
      </trkpt>
      <trkpt lat="46.08356" lon="4.55473">
        <ele>717</ele>
        <time>2017-02-02T12:44:08Z</time>
      </trkpt>
      <trkpt lat="46.0836" lon="4.55461">
        <ele>718</ele>
        <time>2017-02-02T12:44:19Z</time>
      </trkpt>
      <trkpt lat="46.0836" lon="4.5546">
        <ele>718</ele>
        <time>2017-02-02T12:44:20Z</time>
      </trkpt>
      <trkpt lat="46.08362" lon="4.55448">
        <ele>718</ele>
        <time>2017-02-02T12:44:30Z</time>
      </trkpt>
      <trkpt lat="46.08363" lon="4.55447">
        <ele>718</ele>
        <time>2017-02-02T12:44:31Z</time>
      </trkpt>
      <trkpt lat="46.08364" lon="4.55435">
        <ele>718</ele>
        <time>2017-02-02T12:44:43Z</time>
      </trkpt>
      <trkpt lat="46.08364" lon="4.55434">
        <ele>718</ele>
        <time>2017-02-02T12:44:44Z</time>
      </trkpt>
      <trkpt lat="46.08367" lon="4.55422">
        <ele>718</ele>
        <time>2017-02-02T12:44:55Z</time>
      </trkpt>
      <trkpt lat="46.08367" lon="4.55421">
        <ele>719</ele>
        <time>2017-02-02T12:44:56Z</time>
      </trkpt>
      <trkpt lat="46.0837" lon="4.5541">
        <ele>722</ele>
        <time>2017-02-02T12:45:06Z</time>
      </trkpt>
      <trkpt lat="46.0837" lon="4.55409">
        <ele>722</ele>
        <time>2017-02-02T12:45:07Z</time>
      </trkpt>
      <trkpt lat="46.08371" lon="4.55396">
        <ele>722</ele>
        <time>2017-02-02T12:45:18Z</time>
      </trkpt>
      <trkpt lat="46.08372" lon="4.55395">
        <ele>722</ele>
        <time>2017-02-02T12:45:19Z</time>
      </trkpt>
      <trkpt lat="46.08374" lon="4.55384">
        <ele>723</ele>
        <time>2017-02-02T12:45:29Z</time>
      </trkpt>
      <trkpt lat="46.08374" lon="4.55382">
        <ele>723</ele>
        <time>2017-02-02T12:45:30Z</time>
      </trkpt>
      <trkpt lat="46.08376" lon="4.5537">
        <ele>723</ele>
        <time>2017-02-02T12:45:38Z</time>
      </trkpt>
      <trkpt lat="46.08377" lon="4.55369">
        <ele>723</ele>
        <time>2017-02-02T12:45:39Z</time>
      </trkpt>
      <trkpt lat="46.0838" lon="4.55357">
        <ele>724</ele>
        <time>2017-02-02T12:45:48Z</time>
      </trkpt>
      <trkpt lat="46.08381" lon="4.55357">
        <ele>724</ele>
        <time>2017-02-02T12:45:49Z</time>
      </trkpt>
      <trkpt lat="46.08386" lon="4.55346">
        <ele>725</ele>
        <time>2017-02-02T12:45:59Z</time>
      </trkpt>
      <trkpt lat="46.08387" lon="4.55345">
        <ele>725</ele>
        <time>2017-02-02T12:46:00Z</time>
      </trkpt>
      <trkpt lat="46.0839" lon="4.55334">
        <ele>726</ele>
        <time>2017-02-02T12:46:10Z</time>
      </trkpt>
      <trkpt lat="46.0839" lon="4.55333">
        <ele>729</ele>
        <time>2017-02-02T12:46:11Z</time>
      </trkpt>
      <trkpt lat="46.08392" lon="4.55321">
        <ele>729</ele>
        <time>2017-02-02T12:46:22Z</time>
      </trkpt>
      <trkpt lat="46.08392" lon="4.5532">
        <ele>729</ele>
        <time>2017-02-02T12:46:23Z</time>
      </trkpt>
      <trkpt lat="46.08393" lon="4.55308">
        <ele>730</ele>
        <time>2017-02-02T12:46:32Z</time>
      </trkpt>
      <trkpt lat="46.08394" lon="4.55307">
        <ele>730</ele>
        <time>2017-02-02T12:46:33Z</time>
      </trkpt>
      <trkpt lat="46.08395" lon="4.55295">
        <ele>730</ele>
        <time>2017-02-02T12:46:42Z</time>
      </trkpt>
      <trkpt lat="46.08395" lon="4.55294">
        <ele>730</ele>
        <time>2017-02-02T12:46:43Z</time>
      </trkpt>
      <trkpt lat="46.08396" lon="4.55282">
        <ele>731</ele>
        <time>2017-02-02T12:46:51Z</time>
      </trkpt>
      <trkpt lat="46.08396" lon="4.5528">
        <ele>731</ele>
        <time>2017-02-02T12:46:52Z</time>
      </trkpt>
      <trkpt lat="46.08397" lon="4.55268">
        <ele>733</ele>
        <time>2017-02-02T12:46:59Z</time>
      </trkpt>
      <trkpt lat="46.08397" lon="4.55267">
        <ele>733</ele>
        <time>2017-02-02T12:47:00Z</time>
      </trkpt>
      <trkpt lat="46.08397" lon="4.55255">
        <ele>734</ele>
        <time>2017-02-02T12:47:08Z</time>
      </trkpt>
      <trkpt lat="46.08397" lon="4.55254">
        <ele>734</ele>
        <time>2017-02-02T12:47:09Z</time>
      </trkpt>
      <trkpt lat="46.08399" lon="4.55242">
        <ele>738</ele>
        <time>2017-02-02T12:47:18Z</time>
      </trkpt>
      <trkpt lat="46.08399" lon="4.5524">
        <ele>738</ele>
        <time>2017-02-02T12:47:19Z</time>
      </trkpt>
      <trkpt lat="46.08399" lon="4.55229">
        <ele>737</ele>
        <time>2017-02-02T12:47:27Z</time>
      </trkpt>
      <trkpt lat="46.084" lon="4.55227">
        <ele>737</ele>
        <time>2017-02-02T12:47:28Z</time>
      </trkpt>
      <trkpt lat="46.08401" lon="4.55215">
        <ele>737</ele>
        <time>2017-02-02T12:47:37Z</time>
      </trkpt>
      <trkpt lat="46.08401" lon="4.55213">
        <ele>737</ele>
        <time>2017-02-02T12:47:38Z</time>
      </trkpt>
      <trkpt lat="46.084" lon="4.55201">
        <ele>738</ele>
        <time>2017-02-02T12:47:47Z</time>
      </trkpt>
      <trkpt lat="46.084" lon="4.552">
        <ele>738</ele>
        <time>2017-02-02T12:47:48Z</time>
      </trkpt>
      <trkpt lat="46.08399" lon="4.55188">
        <ele>739</ele>
        <time>2017-02-02T12:47:59Z</time>
      </trkpt>
      <trkpt lat="46.08399" lon="4.55187">
        <ele>740</ele>
        <time>2017-02-02T12:48:00Z</time>
      </trkpt>
      <trkpt lat="46.084" lon="4.55174">
        <ele>742</ele>
        <time>2017-02-02T12:48:09Z</time>
      </trkpt>
      <trkpt lat="46.08401" lon="4.55173">
        <ele>742</ele>
        <time>2017-02-02T12:48:10Z</time>
      </trkpt>
      <trkpt lat="46.08404" lon="4.55161">
        <ele>748</ele>
        <time>2017-02-02T12:48:18Z</time>
      </trkpt>
      <trkpt lat="46.08404" lon="4.5516">
        <ele>748</ele>
        <time>2017-02-02T12:48:19Z</time>
      </trkpt>
      <trkpt lat="46.08404" lon="4.55148">
        <ele>747</ele>
        <time>2017-02-02T12:48:31Z</time>
      </trkpt>
      <trkpt lat="46.08404" lon="4.55147">
        <ele>747</ele>
        <time>2017-02-02T12:48:32Z</time>
      </trkpt>
      <trkpt lat="46.08408" lon="4.55137">
        <ele>748</ele>
        <time>2017-02-02T12:48:41Z</time>
      </trkpt>
      <trkpt lat="46.08409" lon="4.55135">
        <ele>748</ele>
        <time>2017-02-02T12:48:42Z</time>
      </trkpt>
      <trkpt lat="46.08411" lon="4.55123">
        <ele>749</ele>
        <time>2017-02-02T12:48:52Z</time>
      </trkpt>
      <trkpt lat="46.08411" lon="4.55123">
        <ele>749</ele>
        <time>2017-02-02T12:48:53Z</time>
      </trkpt>
      <trkpt lat="46.08416" lon="4.55112">
        <ele>751</ele>
        <time>2017-02-02T12:49:13Z</time>
      </trkpt>
      <trkpt lat="46.08416" lon="4.55111">
        <ele>752</ele>
        <time>2017-02-02T12:49:14Z</time>
      </trkpt>
      <trkpt lat="46.08418" lon="4.55098">
        <ele>762</ele>
        <time>2017-02-02T12:49:29Z</time>
      </trkpt>
      <trkpt lat="46.08418" lon="4.55097">
        <ele>762</ele>
        <time>2017-02-02T12:49:30Z</time>
      </trkpt>
      <trkpt lat="46.08422" lon="4.55086">
        <ele>763</ele>
        <time>2017-02-02T12:49:43Z</time>
      </trkpt>
      <trkpt lat="46.08423" lon="4.55086">
        <ele>763</ele>
        <time>2017-02-02T12:49:44Z</time>
      </trkpt>
      <trkpt lat="46.08427" lon="4.55074">
        <ele>767</ele>
        <time>2017-02-02T12:49:56Z</time>
      </trkpt>
      <trkpt lat="46.08427" lon="4.55074">
        <ele>767</ele>
        <time>2017-02-02T12:49:57Z</time>
      </trkpt>
      <trkpt lat="46.08424" lon="4.55062">
        <ele>769</ele>
        <time>2017-02-02T12:50:11Z</time>
      </trkpt>
      <trkpt lat="46.08424" lon="4.55061">
        <ele>769</ele>
        <time>2017-02-02T12:50:12Z</time>
      </trkpt>
      <trkpt lat="46.08421" lon="4.5505">
        <ele>770</ele>
        <time>2017-02-02T12:50:23Z</time>
      </trkpt>
      <trkpt lat="46.0842" lon="4.55049">
        <ele>770</ele>
        <time>2017-02-02T12:50:24Z</time>
      </trkpt>
      <trkpt lat="46.08418" lon="4.55037">
        <ele>772</ele>
        <time>2017-02-02T12:50:33Z</time>
      </trkpt>
      <trkpt lat="46.08418" lon="4.55035">
        <ele>772</ele>
        <time>2017-02-02T12:50:34Z</time>
      </trkpt>
      <trkpt lat="46.08417" lon="4.55023">
        <ele>773</ele>
        <time>2017-02-02T12:50:43Z</time>
      </trkpt>
      <trkpt lat="46.08417" lon="4.55022">
        <ele>773</ele>
        <time>2017-02-02T12:50:44Z</time>
      </trkpt>
      <trkpt lat="46.08413" lon="4.5501">
        <ele>771</ele>
        <time>2017-02-02T12:50:53Z</time>
      </trkpt>
      <trkpt lat="46.08413" lon="4.55009">
        <ele>771</ele>
        <time>2017-02-02T12:50:54Z</time>
      </trkpt>
      <trkpt lat="46.08406" lon="4.55001">
        <ele>771</ele>
        <time>2017-02-02T12:51:07Z</time>
      </trkpt>
      <trkpt lat="46.08406" lon="4.55001">
        <ele>771</ele>
        <time>2017-02-02T12:51:08Z</time>
      </trkpt>
      <trkpt lat="46.08398" lon="4.54997">
        <ele>771</ele>
        <time>2017-02-02T12:51:19Z</time>
      </trkpt>
      <trkpt lat="46.08397" lon="4.54996">
        <ele>771</ele>
        <time>2017-02-02T12:51:20Z</time>
      </trkpt>
      <trkpt lat="46.0839" lon="4.54988">
        <ele>769</ele>
        <time>2017-02-02T12:51:27Z</time>
      </trkpt>
      <trkpt lat="46.08389" lon="4.54987">
        <ele>769</ele>
        <time>2017-02-02T12:51:28Z</time>
      </trkpt>
      <trkpt lat="46.08385" lon="4.54977">
        <ele>768</ele>
        <time>2017-02-02T12:51:35Z</time>
      </trkpt>
      <trkpt lat="46.08384" lon="4.54976">
        <ele>768</ele>
        <time>2017-02-02T12:51:36Z</time>
      </trkpt>
      <trkpt lat="46.08376" lon="4.54969">
        <ele>767</ele>
        <time>2017-02-02T12:51:44Z</time>
      </trkpt>
      <trkpt lat="46.08375" lon="4.54968">
        <ele>767</ele>
        <time>2017-02-02T12:51:45Z</time>
      </trkpt>
      <trkpt lat="46.08367" lon="4.54964">
        <ele>766</ele>
        <time>2017-02-02T12:51:53Z</time>
      </trkpt>
      <trkpt lat="46.08367" lon="4.54964">
        <ele>766</ele>
        <time>2017-02-02T12:51:54Z</time>
      </trkpt>
      <trkpt lat="46.08358" lon="4.54962">
        <ele>765</ele>
        <time>2017-02-02T12:52:03Z</time>
      </trkpt>
      <trkpt lat="46.08357" lon="4.54961">
        <ele>765</ele>
        <time>2017-02-02T12:52:04Z</time>
      </trkpt>
      <trkpt lat="46.08348" lon="4.54961">
        <ele>764</ele>
        <time>2017-02-02T12:52:13Z</time>
      </trkpt>
      <trkpt lat="46.08347" lon="4.54962">
        <ele>764</ele>
        <time>2017-02-02T12:52:14Z</time>
      </trkpt>
      <trkpt lat="46.08339" lon="4.54966">
        <ele>763</ele>
        <time>2017-02-02T12:53:53Z</time>
      </trkpt>
      <trkpt lat="46.08339" lon="4.54966">
        <ele>763</ele>
        <time>2017-02-02T12:53:54Z</time>
      </trkpt>
      <trkpt lat="46.08347" lon="4.54961">
        <ele>764</ele>
        <time>2017-02-02T12:57:46Z</time>
      </trkpt>
      <trkpt lat="46.08348" lon="4.54962">
        <ele>764</ele>
        <time>2017-02-02T12:57:47Z</time>
      </trkpt>
      <trkpt lat="46.08357" lon="4.54962">
        <ele>765</ele>
        <time>2017-02-02T12:57:56Z</time>
      </trkpt>
      <trkpt lat="46.08358" lon="4.54961">
        <ele>765</ele>
        <time>2017-02-02T12:57:57Z</time>
      </trkpt>
      <trkpt lat="46.08365" lon="4.54954">
        <ele>765</ele>
        <time>2017-02-02T12:58:05Z</time>
      </trkpt>
      <trkpt lat="46.08366" lon="4.54953">
        <ele>766</ele>
        <time>2017-02-02T12:58:06Z</time>
      </trkpt>
      <trkpt lat="46.08372" lon="4.54962">
        <ele>766</ele>
        <time>2017-02-02T12:59:52Z</time>
      </trkpt>
      <trkpt lat="46.08371" lon="4.54964">
        <ele>766</ele>
        <time>2017-02-02T12:59:53Z</time>
      </trkpt>
      <trkpt lat="46.08376" lon="4.54974">
        <ele>767</ele>
        <time>2017-02-02T13:00:01Z</time>
      </trkpt>
      <trkpt lat="46.08377" lon="4.54975">
        <ele>767</ele>
        <time>2017-02-02T13:00:02Z</time>
      </trkpt>
      <trkpt lat="46.08382" lon="4.54984">
        <ele>768</ele>
        <time>2017-02-02T13:00:13Z</time>
      </trkpt>
      <trkpt lat="46.08383" lon="4.54985">
        <ele>768</ele>
        <time>2017-02-02T13:00:14Z</time>
      </trkpt>
      <trkpt lat="46.08389" lon="4.54994">
        <ele>769</ele>
        <time>2017-02-02T13:00:22Z</time>
      </trkpt>
      <trkpt lat="46.0839" lon="4.54994">
        <ele>769</ele>
        <time>2017-02-02T13:00:23Z</time>
      </trkpt>
      <trkpt lat="46.08398" lon="4.54999">
        <ele>771</ele>
        <time>2017-02-02T13:00:38Z</time>
      </trkpt>
      <trkpt lat="46.08399" lon="4.55">
        <ele>771</ele>
        <time>2017-02-02T13:00:39Z</time>
      </trkpt>
      <trkpt lat="46.08406" lon="4.55006">
        <ele>770</ele>
        <time>2017-02-02T13:00:47Z</time>
      </trkpt>
      <trkpt lat="46.08407" lon="4.55008">
        <ele>770</ele>
        <time>2017-02-02T13:00:48Z</time>
      </trkpt>
      <trkpt lat="46.0841" lon="4.55019">
        <ele>767</ele>
        <time>2017-02-02T13:00:55Z</time>
      </trkpt>
      <trkpt lat="46.08411" lon="4.55021">
        <ele>767</ele>
        <time>2017-02-02T13:00:56Z</time>
      </trkpt>
      <trkpt lat="46.08413" lon="4.55032">
        <ele>765</ele>
        <time>2017-02-02T13:01:03Z</time>
      </trkpt>
      <trkpt lat="46.08414" lon="4.55034">
        <ele>764</ele>
        <time>2017-02-02T13:01:04Z</time>
      </trkpt>
      <trkpt lat="46.08419" lon="4.55043">
        <ele>771</ele>
        <time>2017-02-02T13:01:11Z</time>
      </trkpt>
      <trkpt lat="46.08419" lon="4.55045">
        <ele>771</ele>
        <time>2017-02-02T13:01:12Z</time>
      </trkpt>
      <trkpt lat="46.08424" lon="4.55054">
        <ele>770</ele>
        <time>2017-02-02T13:01:20Z</time>
      </trkpt>
      <trkpt lat="46.08424" lon="4.55055">
        <ele>769</ele>
        <time>2017-02-02T13:01:21Z</time>
      </trkpt>
      <trkpt lat="46.08426" lon="4.55067">
        <ele>768</ele>
        <time>2017-02-02T13:01:30Z</time>
      </trkpt>
      <trkpt lat="46.08425" lon="4.55068">
        <ele>768</ele>
        <time>2017-02-02T13:01:31Z</time>
      </trkpt>
      <trkpt lat="46.08422" lon="4.5508">
        <ele>766</ele>
        <time>2017-02-02T13:01:43Z</time>
      </trkpt>
      <trkpt lat="46.08422" lon="4.55081">
        <ele>765</ele>
        <time>2017-02-02T13:01:44Z</time>
      </trkpt>
      <trkpt lat="46.08422" lon="4.55093">
        <ele>763</ele>
        <time>2017-02-02T13:01:56Z</time>
      </trkpt>
      <trkpt lat="46.08421" lon="4.55094">
        <ele>763</ele>
        <time>2017-02-02T13:01:57Z</time>
      </trkpt>
      <trkpt lat="46.08419" lon="4.55107">
        <ele>761</ele>
        <time>2017-02-02T13:02:09Z</time>
      </trkpt>
      <trkpt lat="46.08418" lon="4.55108">
        <ele>761</ele>
        <time>2017-02-02T13:02:10Z</time>
      </trkpt>
      <trkpt lat="46.08414" lon="4.55119">
        <ele>750</ele>
        <time>2017-02-02T13:02:19Z</time>
      </trkpt>
      <trkpt lat="46.08413" lon="4.5512">
        <ele>750</ele>
        <time>2017-02-02T13:02:20Z</time>
      </trkpt>
      <trkpt lat="46.08412" lon="4.55133">
        <ele>748</ele>
        <time>2017-02-02T13:02:29Z</time>
      </trkpt>
      <trkpt lat="46.08412" lon="4.55135">
        <ele>748</ele>
        <time>2017-02-02T13:02:30Z</time>
      </trkpt>
      <trkpt lat="46.08413" lon="4.55146">
        <ele>748</ele>
        <time>2017-02-02T13:02:36Z</time>
      </trkpt>
      <trkpt lat="46.08413" lon="4.55148">
        <ele>748</ele>
        <time>2017-02-02T13:02:37Z</time>
      </trkpt>
      <trkpt lat="46.08407" lon="4.55157">
        <ele>748</ele>
        <time>2017-02-02T13:02:43Z</time>
      </trkpt>
      <trkpt lat="46.08407" lon="4.55159">
        <ele>748</ele>
        <time>2017-02-02T13:02:44Z</time>
      </trkpt>
      <trkpt lat="46.08407" lon="4.5517">
        <ele>745</ele>
        <time>2017-02-02T13:02:50Z</time>
      </trkpt>
      <trkpt lat="46.08407" lon="4.55172">
        <ele>745</ele>
        <time>2017-02-02T13:02:51Z</time>
      </trkpt>
      <trkpt lat="46.08409" lon="4.55184">
        <ele>742</ele>
        <time>2017-02-02T13:02:59Z</time>
      </trkpt>
      <trkpt lat="46.08409" lon="4.55186">
        <ele>742</ele>
        <time>2017-02-02T13:03:00Z</time>
      </trkpt>
      <trkpt lat="46.08409" lon="4.55197">
        <ele>739</ele>
        <time>2017-02-02T13:03:07Z</time>
      </trkpt>
      <trkpt lat="46.08409" lon="4.55199">
        <ele>739</ele>
        <time>2017-02-02T13:03:08Z</time>
      </trkpt>
      <trkpt lat="46.08409" lon="4.5521">
        <ele>738</ele>
        <time>2017-02-02T13:03:14Z</time>
      </trkpt>
      <trkpt lat="46.08409" lon="4.55212">
        <ele>738</ele>
        <time>2017-02-02T13:03:15Z</time>
      </trkpt>
      <trkpt lat="46.08408" lon="4.55223">
        <ele>738</ele>
        <time>2017-02-02T13:03:20Z</time>
      </trkpt>
      <trkpt lat="46.08408" lon="4.55225">
        <ele>738</ele>
        <time>2017-02-02T13:03:21Z</time>
      </trkpt>
      <trkpt lat="46.08405" lon="4.55235">
        <ele>738</ele>
        <time>2017-02-02T13:03:26Z</time>
      </trkpt>
      <trkpt lat="46.08405" lon="4.55238">
        <ele>739</ele>
        <time>2017-02-02T13:03:27Z</time>
      </trkpt>
      <trkpt lat="46.08405" lon="4.5525">
        <ele>739</ele>
        <time>2017-02-02T13:03:36Z</time>
      </trkpt>
      <trkpt lat="46.08404" lon="4.55252">
        <ele>737</ele>
        <time>2017-02-02T13:03:37Z</time>
      </trkpt>
      <trkpt lat="46.08403" lon="4.55264">
        <ele>735</ele>
        <time>2017-02-02T13:03:44Z</time>
      </trkpt>
      <trkpt lat="46.08402" lon="4.55266">
        <ele>734</ele>
        <time>2017-02-02T13:03:45Z</time>
      </trkpt>
      <trkpt lat="46.08402" lon="4.55277">
        <ele>732</ele>
        <time>2017-02-02T13:03:52Z</time>
      </trkpt>
      <trkpt lat="46.08401" lon="4.55279">
        <ele>732</ele>
        <time>2017-02-02T13:03:53Z</time>
      </trkpt>
      <trkpt lat="46.08399" lon="4.5529">
        <ele>731</ele>
        <time>2017-02-02T13:04:00Z</time>
      </trkpt>
      <trkpt lat="46.08398" lon="4.55292">
        <ele>731</ele>
        <time>2017-02-02T13:04:01Z</time>
      </trkpt>
      <trkpt lat="46.08398" lon="4.55304">
        <ele>730</ele>
        <time>2017-02-02T13:04:08Z</time>
      </trkpt>
      <trkpt lat="46.08398" lon="4.55306">
        <ele>730</ele>
        <time>2017-02-02T13:04:09Z</time>
      </trkpt>
      <trkpt lat="46.084" lon="4.55317">
        <ele>730</ele>
        <time>2017-02-02T13:04:15Z</time>
      </trkpt>
      <trkpt lat="46.084" lon="4.55319">
        <ele>730</ele>
        <time>2017-02-02T13:04:16Z</time>
      </trkpt>
      <trkpt lat="46.08395" lon="4.55327">
        <ele>730</ele>
        <time>2017-02-02T13:04:21Z</time>
      </trkpt>
      <trkpt lat="46.08393" lon="4.55329">
        <ele>730</ele>
        <time>2017-02-02T13:04:22Z</time>
      </trkpt>
      <trkpt lat="46.08388" lon="4.55337">
        <ele>726</ele>
        <time>2017-02-02T13:04:27Z</time>
      </trkpt>
      <trkpt lat="46.08387" lon="4.55339">
        <ele>726</ele>
        <time>2017-02-02T13:04:28Z</time>
      </trkpt>
      <trkpt lat="46.08382" lon="4.55347">
        <ele>725</ele>
        <time>2017-02-02T13:04:33Z</time>
      </trkpt>
      <trkpt lat="46.08381" lon="4.55349">
        <ele>724</ele>
        <time>2017-02-02T13:04:34Z</time>
      </trkpt>
      <trkpt lat="46.08377" lon="4.5536">
        <ele>724</ele>
        <time>2017-02-02T13:04:40Z</time>
      </trkpt>
      <trkpt lat="46.08377" lon="4.55362">
        <ele>724</ele>
        <time>2017-02-02T13:04:41Z</time>
      </trkpt>
      <trkpt lat="46.08374" lon="4.55373">
        <ele>723</ele>
        <time>2017-02-02T13:04:49Z</time>
      </trkpt>
      <trkpt lat="46.08373" lon="4.55375">
        <ele>723</ele>
        <time>2017-02-02T13:04:50Z</time>
      </trkpt>
      <trkpt lat="46.08376" lon="4.55386">
        <ele>723</ele>
        <time>2017-02-02T13:04:59Z</time>
      </trkpt>
      <trkpt lat="46.08377" lon="4.55387">
        <ele>723</ele>
        <time>2017-02-02T13:05:00Z</time>
      </trkpt>
      <trkpt lat="46.08376" lon="4.554">
        <ele>722</ele>
        <time>2017-02-02T13:05:10Z</time>
      </trkpt>
      <trkpt lat="46.08375" lon="4.55401">
        <ele>722</ele>
        <time>2017-02-02T13:05:11Z</time>
      </trkpt>
      <trkpt lat="46.08372" lon="4.55412">
        <ele>722</ele>
        <time>2017-02-02T13:05:17Z</time>
      </trkpt>
      <trkpt lat="46.08372" lon="4.55414">
        <ele>722</ele>
        <time>2017-02-02T13:05:18Z</time>
      </trkpt>
      <trkpt lat="46.08371" lon="4.55426">
        <ele>719</ele>
        <time>2017-02-02T13:05:24Z</time>
      </trkpt>
      <trkpt lat="46.08371" lon="4.55427">
        <ele>719</ele>
        <time>2017-02-02T13:05:25Z</time>
      </trkpt>
      <trkpt lat="46.0837" lon="4.55439">
        <ele>718</ele>
        <time>2017-02-02T13:05:31Z</time>
      </trkpt>
      <trkpt lat="46.08369" lon="4.55441">
        <ele>718</ele>
        <time>2017-02-02T13:05:32Z</time>
      </trkpt>
      <trkpt lat="46.08365" lon="4.55451">
        <ele>718</ele>
        <time>2017-02-02T13:05:37Z</time>
      </trkpt>
      <trkpt lat="46.08364" lon="4.55452">
        <ele>718</ele>
        <time>2017-02-02T13:05:38Z</time>
      </trkpt>
      <trkpt lat="46.08361" lon="4.55464">
        <ele>718</ele>
        <time>2017-02-02T13:05:45Z</time>
      </trkpt>
      <trkpt lat="46.0836" lon="4.55465">
        <ele>718</ele>
        <time>2017-02-02T13:05:46Z</time>
      </trkpt>
      <trkpt lat="46.08355" lon="4.55474">
        <ele>717</ele>
        <time>2017-02-02T13:05:53Z</time>
      </trkpt>
      <trkpt lat="46.08355" lon="4.55476">
        <ele>717</ele>
        <time>2017-02-02T13:05:54Z</time>
      </trkpt>
      <trkpt lat="46.08354" lon="4.55488">
        <ele>717</ele>
        <time>2017-02-02T13:06:01Z</time>
      </trkpt>
      <trkpt lat="46.08353" lon="4.55489">
        <ele>717</ele>
        <time>2017-02-02T13:06:02Z</time>
      </trkpt>
      <trkpt lat="46.08349" lon="4.55501">
        <ele>715</ele>
        <time>2017-02-02T13:06:09Z</time>
      </trkpt>
      <trkpt lat="46.08348" lon="4.55502">
        <ele>715</ele>
        <time>2017-02-02T13:06:10Z</time>
      </trkpt>
      <trkpt lat="46.08344" lon="4.55514">
        <ele>715</ele>
        <time>2017-02-02T13:06:18Z</time>
      </trkpt>
      <trkpt lat="46.08344" lon="4.55515">
        <ele>715</ele>
        <time>2017-02-02T13:06:19Z</time>
      </trkpt>
      <trkpt lat="46.08342" lon="4.55527">
        <ele>715</ele>
        <time>2017-02-02T13:06:26Z</time>
      </trkpt>
      <trkpt lat="46.08341" lon="4.55529">
        <ele>715</ele>
        <time>2017-02-02T13:06:27Z</time>
      </trkpt>
      <trkpt lat="46.0834" lon="4.5554">
        <ele>715</ele>
        <time>2017-02-02T13:06:32Z</time>
      </trkpt>
      <trkpt lat="46.08339" lon="4.55542">
        <ele>714</ele>
        <time>2017-02-02T13:06:33Z</time>
      </trkpt>
      <trkpt lat="46.08338" lon="4.55553">
        <ele>714</ele>
        <time>2017-02-02T13:06:38Z</time>
      </trkpt>
      <trkpt lat="46.08338" lon="4.55555">
        <ele>714</ele>
        <time>2017-02-02T13:06:39Z</time>
      </trkpt>
      <trkpt lat="46.08338" lon="4.55568">
        <ele>714</ele>
        <time>2017-02-02T13:06:45Z</time>
      </trkpt>
      <trkpt lat="46.08338" lon="4.5557">
        <ele>714</ele>
        <time>2017-02-02T13:06:46Z</time>
      </trkpt>
      <trkpt lat="46.08339" lon="4.55581">
        <ele>713</ele>
        <time>2017-02-02T13:06:51Z</time>
      </trkpt>
      <trkpt lat="46.08339" lon="4.55583">
        <ele>713</ele>
        <time>2017-02-02T13:06:52Z</time>
      </trkpt>
      <trkpt lat="46.0834" lon="4.55594">
        <ele>713</ele>
        <time>2017-02-02T13:06:57Z</time>
      </trkpt>
      <trkpt lat="46.0834" lon="4.55596">
        <ele>713</ele>
        <time>2017-02-02T13:06:58Z</time>
      </trkpt>
      <trkpt lat="46.0834" lon="4.55608">
        <ele>713</ele>
        <time>2017-02-02T13:07:04Z</time>
      </trkpt>
      <trkpt lat="46.0834" lon="4.5561">
        <ele>713</ele>
        <time>2017-02-02T13:07:05Z</time>
      </trkpt>
      <trkpt lat="46.08342" lon="4.55621">
        <ele>712</ele>
        <time>2017-02-02T13:07:10Z</time>
      </trkpt>
      <trkpt lat="46.08342" lon="4.55623">
        <ele>712</ele>
        <time>2017-02-02T13:07:11Z</time>
      </trkpt>
      <trkpt lat="46.08344" lon="4.55635">
        <ele>712</ele>
        <time>2017-02-02T13:07:17Z</time>
      </trkpt>
      <trkpt lat="46.08344" lon="4.55637">
        <ele>712</ele>
        <time>2017-02-02T13:07:18Z</time>
      </trkpt>
      <trkpt lat="46.08345" lon="4.5565">
        <ele>712</ele>
        <time>2017-02-02T13:07:24Z</time>
      </trkpt>
      <trkpt lat="46.08345" lon="4.55652">
        <ele>712</ele>
        <time>2017-02-02T13:07:25Z</time>
      </trkpt>
      <trkpt lat="46.08343" lon="4.55663">
        <ele>712</ele>
        <time>2017-02-02T13:07:31Z</time>
      </trkpt>
      <trkpt lat="46.08342" lon="4.55665">
        <ele>712</ele>
        <time>2017-02-02T13:07:32Z</time>
      </trkpt>
      <trkpt lat="46.08342" lon="4.55678">
        <ele>710</ele>
        <time>2017-02-02T13:07:38Z</time>
      </trkpt>
      <trkpt lat="46.08342" lon="4.5568">
        <ele>710</ele>
        <time>2017-02-02T13:07:39Z</time>
      </trkpt>
      <trkpt lat="46.08344" lon="4.55691">
        <ele>709</ele>
        <time>2017-02-02T13:07:44Z</time>
      </trkpt>
      <trkpt lat="46.08344" lon="4.55693">
        <ele>709</ele>
        <time>2017-02-02T13:07:45Z</time>
      </trkpt>
      <trkpt lat="46.08346" lon="4.55705">
        <ele>709</ele>
        <time>2017-02-02T13:07:51Z</time>
      </trkpt>
      <trkpt lat="46.08346" lon="4.55707">
        <ele>708</ele>
        <time>2017-02-02T13:07:52Z</time>
      </trkpt>
      <trkpt lat="46.08346" lon="4.55719">
        <ele>708</ele>
        <time>2017-02-02T13:07:58Z</time>
      </trkpt>
      <trkpt lat="46.08346" lon="4.55721">
        <ele>708</ele>
        <time>2017-02-02T13:07:59Z</time>
      </trkpt>
      <trkpt lat="46.08348" lon="4.55732">
        <ele>708</ele>
        <time>2017-02-02T13:08:05Z</time>
      </trkpt>
      <trkpt lat="46.08349" lon="4.55734">
        <ele>708</ele>
        <time>2017-02-02T13:08:06Z</time>
      </trkpt>
      <trkpt lat="46.08351" lon="4.55745">
        <ele>708</ele>
        <time>2017-02-02T13:08:12Z</time>
      </trkpt>
      <trkpt lat="46.08351" lon="4.55747">
        <ele>708</ele>
        <time>2017-02-02T13:08:13Z</time>
      </trkpt>
      <trkpt lat="46.08353" lon="4.55758">
        <ele>708</ele>
        <time>2017-02-02T13:08:19Z</time>
      </trkpt>
      <trkpt lat="46.08354" lon="4.55759">
        <ele>708</ele>
        <time>2017-02-02T13:08:20Z</time>
      </trkpt>
      <trkpt lat="46.08356" lon="4.55771">
        <ele>709</ele>
        <time>2017-02-02T13:08:27Z</time>
      </trkpt>
      <trkpt lat="46.08356" lon="4.55772">
        <ele>709</ele>
        <time>2017-02-02T13:08:28Z</time>
      </trkpt>
      <trkpt lat="46.08355" lon="4.55785">
        <ele>710</ele>
        <time>2017-02-02T13:08:38Z</time>
      </trkpt>
      <trkpt lat="46.08355" lon="4.55786">
        <ele>710</ele>
        <time>2017-02-02T13:08:39Z</time>
      </trkpt>
      <trkpt lat="46.08355" lon="4.55798">
        <ele>711</ele>
        <time>2017-02-02T13:08:48Z</time>
      </trkpt>
      <trkpt lat="46.08355" lon="4.558">
        <ele>711</ele>
        <time>2017-02-02T13:08:49Z</time>
      </trkpt>
      <trkpt lat="46.08354" lon="4.55812">
        <ele>712</ele>
        <time>2017-02-02T13:08:58Z</time>
      </trkpt>
      <trkpt lat="46.08354" lon="4.55813">
        <ele>712</ele>
        <time>2017-02-02T13:08:59Z</time>
      </trkpt>
      <trkpt lat="46.08352" lon="4.55825">
        <ele>714</ele>
        <time>2017-02-02T13:09:08Z</time>
      </trkpt>
      <trkpt lat="46.08351" lon="4.55827">
        <ele>714</ele>
        <time>2017-02-02T13:09:09Z</time>
      </trkpt>
      <trkpt lat="46.08344" lon="4.55832">
        <ele>716</ele>
        <time>2017-02-02T13:09:15Z</time>
      </trkpt>
      <trkpt lat="46.08343" lon="4.55833">
        <ele>719</ele>
        <time>2017-02-02T13:09:16Z</time>
      </trkpt>
      <trkpt lat="46.08337" lon="4.55841">
        <ele>720</ele>
        <time>2017-02-02T13:09:24Z</time>
      </trkpt>
      <trkpt lat="46.08336" lon="4.55843">
        <ele>720</ele>
        <time>2017-02-02T13:09:25Z</time>
      </trkpt>
      <trkpt lat="46.08331" lon="4.55853">
        <ele>718</ele>
        <time>2017-02-02T13:09:32Z</time>
      </trkpt>
      <trkpt lat="46.08331" lon="4.55854">
        <ele>718</ele>
        <time>2017-02-02T13:09:33Z</time>
      </trkpt>
      <trkpt lat="46.08326" lon="4.55865">
        <ele>717</ele>
        <time>2017-02-02T13:09:42Z</time>
      </trkpt>
      <trkpt lat="46.08326" lon="4.55866">
        <ele>717</ele>
        <time>2017-02-02T13:09:43Z</time>
      </trkpt>
      <trkpt lat="46.08324" lon="4.55878">
        <ele>718</ele>
        <time>2017-02-02T13:09:53Z</time>
      </trkpt>
      <trkpt lat="46.08324" lon="4.55879">
        <ele>718</ele>
        <time>2017-02-02T13:09:54Z</time>
      </trkpt>
      <trkpt lat="46.08323" lon="4.55891">
        <ele>720</ele>
        <time>2017-02-02T13:10:05Z</time>
      </trkpt>
      <trkpt lat="46.08323" lon="4.55892">
        <ele>720</ele>
        <time>2017-02-02T13:10:06Z</time>
      </trkpt>
      <trkpt lat="46.08328" lon="4.55902">
        <ele>724</ele>
        <time>2017-02-02T13:10:18Z</time>
      </trkpt>
      <trkpt lat="46.08328" lon="4.55903">
        <ele>724</ele>
        <time>2017-02-02T13:10:19Z</time>
      </trkpt>
      <trkpt lat="46.08331" lon="4.55915">
        <ele>730</ele>
        <time>2017-02-02T13:10:31Z</time>
      </trkpt>
      <trkpt lat="46.08331" lon="4.55916">
        <ele>730</ele>
        <time>2017-02-02T13:10:32Z</time>
      </trkpt>
      <trkpt lat="46.08333" lon="4.55928">
        <ele>730</ele>
        <time>2017-02-02T13:10:42Z</time>
      </trkpt>
      <trkpt lat="46.08333" lon="4.55929">
        <ele>730</ele>
        <time>2017-02-02T13:10:43Z</time>
      </trkpt>
      <trkpt lat="46.08333" lon="4.55941">
        <ele>729</ele>
        <time>2017-02-02T13:10:54Z</time>
      </trkpt>
      <trkpt lat="46.08333" lon="4.55942">
        <ele>729</ele>
        <time>2017-02-02T13:10:55Z</time>
      </trkpt>
      <trkpt lat="46.08333" lon="4.55955">
        <ele>729</ele>
        <time>2017-02-02T13:11:06Z</time>
      </trkpt>
      <trkpt lat="46.08333" lon="4.55956">
        <ele>729</ele>
        <time>2017-02-02T13:11:07Z</time>
      </trkpt>
      <trkpt lat="46.08329" lon="4.55967">
        <ele>730</ele>
        <time>2017-02-02T13:11:16Z</time>
      </trkpt>
      <trkpt lat="46.08329" lon="4.55968">
        <ele>730</ele>
        <time>2017-02-02T13:11:17Z</time>
      </trkpt>
      <trkpt lat="46.08326" lon="4.55979">
        <ele>731</ele>
        <time>2017-02-02T13:11:25Z</time>
      </trkpt>
      <trkpt lat="46.08325" lon="4.55981">
        <ele>731</ele>
        <time>2017-02-02T13:11:26Z</time>
      </trkpt>
      <trkpt lat="46.08324" lon="4.55993">
        <ele>733</ele>
        <time>2017-02-02T13:11:35Z</time>
      </trkpt>
      <trkpt lat="46.08324" lon="4.55994">
        <ele>733</ele>
        <time>2017-02-02T13:11:36Z</time>
      </trkpt>
      <trkpt lat="46.08321" lon="4.56005">
        <ele>737</ele>
        <time>2017-02-02T13:11:45Z</time>
      </trkpt>
      <trkpt lat="46.08321" lon="4.56006">
        <ele>737</ele>
        <time>2017-02-02T13:11:46Z</time>
      </trkpt>
      <trkpt lat="46.08319" lon="4.56018">
        <ele>736</ele>
        <time>2017-02-02T13:11:56Z</time>
      </trkpt>
      <trkpt lat="46.08319" lon="4.56019">
        <ele>736</ele>
        <time>2017-02-02T13:11:57Z</time>
      </trkpt>
      <trkpt lat="46.08313" lon="4.56029">
        <ele>736</ele>
        <time>2017-02-02T13:12:05Z</time>
      </trkpt>
      <trkpt lat="46.08313" lon="4.5603">
        <ele>736</ele>
        <time>2017-02-02T13:12:06Z</time>
      </trkpt>
      <trkpt lat="46.0831" lon="4.56041">
        <ele>737</ele>
        <time>2017-02-02T13:12:12Z</time>
      </trkpt>
      <trkpt lat="46.08309" lon="4.56042">
        <ele>737</ele>
        <time>2017-02-02T13:12:13Z</time>
      </trkpt>
      <trkpt lat="46.08305" lon="4.56052">
        <ele>737</ele>
        <time>2017-02-02T13:12:20Z</time>
      </trkpt>
      <trkpt lat="46.08304" lon="4.56053">
        <ele>737</ele>
        <time>2017-02-02T13:12:21Z</time>
      </trkpt>
      <trkpt lat="46.08298" lon="4.56063">
        <ele>737</ele>
        <time>2017-02-02T13:12:31Z</time>
      </trkpt>
      <trkpt lat="46.08298" lon="4.56063">
        <ele>737</ele>
        <time>2017-02-02T13:12:32Z</time>
      </trkpt>
      <trkpt lat="46.08296" lon="4.56075">
        <ele>737</ele>
        <time>2017-02-02T13:12:41Z</time>
      </trkpt>
      <trkpt lat="46.08296" lon="4.56077">
        <ele>737</ele>
        <time>2017-02-02T13:12:42Z</time>
      </trkpt>
      <trkpt lat="46.08294" lon="4.56089">
        <ele>741</ele>
        <time>2017-02-02T13:12:49Z</time>
      </trkpt>
      <trkpt lat="46.08294" lon="4.56091">
        <ele>741</ele>
        <time>2017-02-02T13:12:50Z</time>
      </trkpt>
      <trkpt lat="46.08293" lon="4.56102">
        <ele>741</ele>
        <time>2017-02-02T13:12:57Z</time>
      </trkpt>
      <trkpt lat="46.08293" lon="4.56104">
        <ele>741</ele>
        <time>2017-02-02T13:12:58Z</time>
      </trkpt>
      <trkpt lat="46.08298" lon="4.56114">
        <ele>741</ele>
        <time>2017-02-02T13:13:06Z</time>
      </trkpt>
      <trkpt lat="46.08299" lon="4.56115">
        <ele>741</ele>
        <time>2017-02-02T13:13:07Z</time>
      </trkpt>
      <trkpt lat="46.08303" lon="4.56126">
        <ele>742</ele>
        <time>2017-02-02T13:13:19Z</time>
      </trkpt>
      <trkpt lat="46.08304" lon="4.56127">
        <ele>742</ele>
        <time>2017-02-02T13:13:20Z</time>
      </trkpt>
      <trkpt lat="46.08304" lon="4.56139">
        <ele>742</ele>
        <time>2017-02-02T13:13:27Z</time>
      </trkpt>
      <trkpt lat="46.08304" lon="4.56141">
        <ele>742</ele>
        <time>2017-02-02T13:13:28Z</time>
      </trkpt>
      <trkpt lat="46.08307" lon="4.56152">
        <ele>742</ele>
        <time>2017-02-02T13:13:34Z</time>
      </trkpt>
      <trkpt lat="46.08307" lon="4.56154">
        <ele>742</ele>
        <time>2017-02-02T13:13:35Z</time>
      </trkpt>
      <trkpt lat="46.08308" lon="4.56165">
        <ele>742</ele>
        <time>2017-02-02T13:13:40Z</time>
      </trkpt>
      <trkpt lat="46.08307" lon="4.56167">
        <ele>743</ele>
        <time>2017-02-02T13:13:41Z</time>
      </trkpt>
      <trkpt lat="46.08304" lon="4.56178">
        <ele>743</ele>
        <time>2017-02-02T13:13:48Z</time>
      </trkpt>
      <trkpt lat="46.08303" lon="4.5618">
        <ele>743</ele>
        <time>2017-02-02T13:13:49Z</time>
      </trkpt>
      <trkpt lat="46.08302" lon="4.56192">
        <ele>743</ele>
        <time>2017-02-02T13:13:56Z</time>
      </trkpt>
      <trkpt lat="46.08301" lon="4.56194">
        <ele>743</ele>
        <time>2017-02-02T13:13:57Z</time>
      </trkpt>
      <trkpt lat="46.08299" lon="4.56205">
        <ele>743</ele>
        <time>2017-02-02T13:14:04Z</time>
      </trkpt>
      <trkpt lat="46.08299" lon="4.56206">
        <ele>743</ele>
        <time>2017-02-02T13:14:05Z</time>
      </trkpt>
      <trkpt lat="46.08297" lon="4.56219">
        <ele>743</ele>
        <time>2017-02-02T13:14:13Z</time>
      </trkpt>
      <trkpt lat="46.08297" lon="4.56221">
        <ele>743</ele>
        <time>2017-02-02T13:14:14Z</time>
      </trkpt>
      <trkpt lat="46.08298" lon="4.56233">
        <ele>743</ele>
        <time>2017-02-02T13:14:20Z</time>
      </trkpt>
      <trkpt lat="46.08298" lon="4.56235">
        <ele>743</ele>
        <time>2017-02-02T13:14:21Z</time>
      </trkpt>
      <trkpt lat="46.08297" lon="4.56247">
        <ele>743</ele>
        <time>2017-02-02T13:14:27Z</time>
      </trkpt>
      <trkpt lat="46.08297" lon="4.56249">
        <ele>743</ele>
        <time>2017-02-02T13:14:28Z</time>
      </trkpt>
      <trkpt lat="46.08299" lon="4.5626">
        <ele>743</ele>
        <time>2017-02-02T13:14:34Z</time>
      </trkpt>
      <trkpt lat="46.08299" lon="4.56262">
        <ele>743</ele>
        <time>2017-02-02T13:14:35Z</time>
      </trkpt>
      <trkpt lat="46.083" lon="4.56274">
        <ele>743</ele>
        <time>2017-02-02T13:14:41Z</time>
      </trkpt>
      <trkpt lat="46.083" lon="4.56276">
        <ele>743</ele>
        <time>2017-02-02T13:14:42Z</time>
      </trkpt>
      <trkpt lat="46.08302" lon="4.56287">
        <ele>743</ele>
        <time>2017-02-02T13:14:48Z</time>
      </trkpt>
      <trkpt lat="46.08303" lon="4.56289">
        <ele>743</ele>
        <time>2017-02-02T13:14:49Z</time>
      </trkpt>
      <trkpt lat="46.08307" lon="4.56299">
        <ele>743</ele>
        <time>2017-02-02T13:14:55Z</time>
      </trkpt>
      <trkpt lat="46.08307" lon="4.563">
        <ele>743</ele>
        <time>2017-02-02T13:14:56Z</time>
      </trkpt>
      <trkpt lat="46.08311" lon="4.56311">
        <ele>743</ele>
        <time>2017-02-02T13:15:03Z</time>
      </trkpt>
      <trkpt lat="46.08312" lon="4.56313">
        <ele>743</ele>
        <time>2017-02-02T13:15:04Z</time>
      </trkpt>
      <trkpt lat="46.08317" lon="4.56322">
        <ele>744</ele>
        <time>2017-02-02T13:15:12Z</time>
      </trkpt>
      <trkpt lat="46.08318" lon="4.56323">
        <ele>744</ele>
        <time>2017-02-02T13:15:13Z</time>
      </trkpt>
      <trkpt lat="46.08323" lon="4.56333">
        <ele>744</ele>
        <time>2017-02-02T13:15:21Z</time>
      </trkpt>
      <trkpt lat="46.08324" lon="4.56334">
        <ele>744</ele>
        <time>2017-02-02T13:15:22Z</time>
      </trkpt>
      <trkpt lat="46.0833" lon="4.56341">
        <ele>744</ele>
        <time>2017-02-02T13:15:29Z</time>
      </trkpt>
      <trkpt lat="46.08331" lon="4.56342">
        <ele>744</ele>
        <time>2017-02-02T13:15:30Z</time>
      </trkpt>
      <trkpt lat="46.08335" lon="4.56353">
        <ele>742</ele>
        <time>2017-02-02T13:15:38Z</time>
      </trkpt>
      <trkpt lat="46.08336" lon="4.56354">
        <ele>742</ele>
        <time>2017-02-02T13:15:39Z</time>
      </trkpt>
      <trkpt lat="46.08339" lon="4.56365">
        <ele>741</ele>
        <time>2017-02-02T13:15:48Z</time>
      </trkpt>
      <trkpt lat="46.08339" lon="4.56366">
        <ele>741</ele>
        <time>2017-02-02T13:15:49Z</time>
      </trkpt>
      <trkpt lat="46.08343" lon="4.56377">
        <ele>741</ele>
        <time>2017-02-02T13:15:57Z</time>
      </trkpt>
      <trkpt lat="46.08343" lon="4.56378">
        <ele>741</ele>
        <time>2017-02-02T13:15:58Z</time>
      </trkpt>
      <trkpt lat="46.08347" lon="4.56388">
        <ele>741</ele>
        <time>2017-02-02T13:16:05Z</time>
      </trkpt>
      <trkpt lat="46.08348" lon="4.5639">
        <ele>741</ele>
        <time>2017-02-02T13:16:06Z</time>
      </trkpt>
      <trkpt lat="46.08351" lon="4.564">
        <ele>741</ele>
        <time>2017-02-02T13:16:14Z</time>
      </trkpt>
      <trkpt lat="46.08351" lon="4.56402">
        <ele>741</ele>
        <time>2017-02-02T13:16:15Z</time>
      </trkpt>
      <trkpt lat="46.08352" lon="4.56415">
        <ele>742</ele>
        <time>2017-02-02T13:16:22Z</time>
      </trkpt>
      <trkpt lat="46.08352" lon="4.56416">
        <ele>742</ele>
        <time>2017-02-02T13:16:23Z</time>
      </trkpt>
      <trkpt lat="46.08359" lon="4.56424">
        <ele>742</ele>
        <time>2017-02-02T13:16:29Z</time>
      </trkpt>
      <trkpt lat="46.08361" lon="4.56425">
        <ele>741</ele>
        <time>2017-02-02T13:16:30Z</time>
      </trkpt>
      <trkpt lat="46.08367" lon="4.56432">
        <ele>741</ele>
        <time>2017-02-02T13:16:35Z</time>
      </trkpt>
      <trkpt lat="46.08368" lon="4.56433">
        <ele>741</ele>
        <time>2017-02-02T13:16:36Z</time>
      </trkpt>
      <trkpt lat="46.08372" lon="4.56443">
        <ele>741</ele>
        <time>2017-02-02T13:16:41Z</time>
      </trkpt>
      <trkpt lat="46.08373" lon="4.56445">
        <ele>741</ele>
        <time>2017-02-02T13:16:42Z</time>
      </trkpt>
      <trkpt lat="46.08378" lon="4.56454">
        <ele>741</ele>
        <time>2017-02-02T13:16:47Z</time>
      </trkpt>
      <trkpt lat="46.08379" lon="4.56455">
        <ele>740</ele>
        <time>2017-02-02T13:16:48Z</time>
      </trkpt>
      <trkpt lat="46.08383" lon="4.56465">
        <ele>741</ele>
        <time>2017-02-02T13:16:55Z</time>
      </trkpt>
      <trkpt lat="46.08384" lon="4.56466">
        <ele>741</ele>
        <time>2017-02-02T13:16:56Z</time>
      </trkpt>
      <trkpt lat="46.0839" lon="4.56475">
        <ele>741</ele>
        <time>2017-02-02T13:17:03Z</time>
      </trkpt>
      <trkpt lat="46.08391" lon="4.56477">
        <ele>741</ele>
        <time>2017-02-02T13:17:04Z</time>
      </trkpt>
      <trkpt lat="46.08395" lon="4.56488">
        <ele>741</ele>
        <time>2017-02-02T13:17:10Z</time>
      </trkpt>
      <trkpt lat="46.08395" lon="4.56489">
        <ele>741</ele>
        <time>2017-02-02T13:17:11Z</time>
      </trkpt>
      <trkpt lat="46.084" lon="4.565">
        <ele>742</ele>
        <time>2017-02-02T13:17:18Z</time>
      </trkpt>
      <trkpt lat="46.08401" lon="4.56501">
        <ele>741</ele>
        <time>2017-02-02T13:17:19Z</time>
      </trkpt>
      <trkpt lat="46.08409" lon="4.56507">
        <ele>742</ele>
        <time>2017-02-02T13:17:25Z</time>
      </trkpt>
      <trkpt lat="46.0841" lon="4.56508">
        <ele>742</ele>
        <time>2017-02-02T13:17:26Z</time>
      </trkpt>
      <trkpt lat="46.08417" lon="4.56516">
        <ele>741</ele>
        <time>2017-02-02T13:17:32Z</time>
      </trkpt>
      <trkpt lat="46.08418" lon="4.56517">
        <ele>740</ele>
        <time>2017-02-02T13:17:33Z</time>
      </trkpt>
      <trkpt lat="46.08426" lon="4.56522">
        <ele>739</ele>
        <time>2017-02-02T13:17:39Z</time>
      </trkpt>
      <trkpt lat="46.08427" lon="4.56523">
        <ele>739</ele>
        <time>2017-02-02T13:17:40Z</time>
      </trkpt>
      <trkpt lat="46.08431" lon="4.56532">
        <ele>738</ele>
        <time>2017-02-02T13:17:47Z</time>
      </trkpt>
      <trkpt lat="46.08432" lon="4.56534">
        <ele>738</ele>
        <time>2017-02-02T13:17:48Z</time>
      </trkpt>
      <trkpt lat="46.08436" lon="4.56543">
        <ele>738</ele>
        <time>2017-02-02T13:17:54Z</time>
      </trkpt>
      <trkpt lat="46.08437" lon="4.56544">
        <ele>738</ele>
        <time>2017-02-02T13:17:55Z</time>
      </trkpt>
      <trkpt lat="46.0844" lon="4.56555">
        <ele>738</ele>
        <time>2017-02-02T13:18:01Z</time>
      </trkpt>
      <trkpt lat="46.0844" lon="4.56557">
        <ele>738</ele>
        <time>2017-02-02T13:18:02Z</time>
      </trkpt>
      <trkpt lat="46.08443" lon="4.56568">
        <ele>738</ele>
        <time>2017-02-02T13:18:08Z</time>
      </trkpt>
      <trkpt lat="46.08443" lon="4.56569">
        <ele>738</ele>
        <time>2017-02-02T13:18:09Z</time>
      </trkpt>
      <trkpt lat="46.08448" lon="4.56578">
        <ele>737</ele>
        <time>2017-02-02T13:18:16Z</time>
      </trkpt>
      <trkpt lat="46.08449" lon="4.5658">
        <ele>737</ele>
        <time>2017-02-02T13:18:17Z</time>
      </trkpt>
      <trkpt lat="46.08451" lon="4.56592">
        <ele>737</ele>
        <time>2017-02-02T13:18:24Z</time>
      </trkpt>
      <trkpt lat="46.08451" lon="4.56594">
        <ele>736</ele>
        <time>2017-02-02T13:18:25Z</time>
      </trkpt>
      <trkpt lat="46.08452" lon="4.56605">
        <ele>736</ele>
        <time>2017-02-02T13:18:32Z</time>
      </trkpt>
      <trkpt lat="46.08452" lon="4.56607">
        <ele>736</ele>
        <time>2017-02-02T13:18:33Z</time>
      </trkpt>
      <trkpt lat="46.08456" lon="4.56618">
        <ele>736</ele>
        <time>2017-02-02T13:18:40Z</time>
      </trkpt>
      <trkpt lat="46.08456" lon="4.56619">
        <ele>736</ele>
        <time>2017-02-02T13:18:41Z</time>
      </trkpt>
      <trkpt lat="46.08458" lon="4.56631">
        <ele>735</ele>
        <time>2017-02-02T13:18:48Z</time>
      </trkpt>
      <trkpt lat="46.08458" lon="4.56632">
        <ele>735</ele>
        <time>2017-02-02T13:18:49Z</time>
      </trkpt>
      <trkpt lat="46.0846" lon="4.56644">
        <ele>735</ele>
        <time>2017-02-02T13:18:56Z</time>
      </trkpt>
      <trkpt lat="46.0846" lon="4.56646">
        <ele>735</ele>
        <time>2017-02-02T13:18:57Z</time>
      </trkpt>
      <trkpt lat="46.08462" lon="4.56657">
        <ele>735</ele>
        <time>2017-02-02T13:19:03Z</time>
      </trkpt>
      <trkpt lat="46.08462" lon="4.56659">
        <ele>735</ele>
        <time>2017-02-02T13:19:04Z</time>
      </trkpt>
      <trkpt lat="46.0846" lon="4.56671">
        <ele>730</ele>
        <time>2017-02-02T13:19:10Z</time>
      </trkpt>
      <trkpt lat="46.0846" lon="4.56673">
        <ele>730</ele>
        <time>2017-02-02T13:19:11Z</time>
      </trkpt>
      <trkpt lat="46.08463" lon="4.56684">
        <ele>730</ele>
        <time>2017-02-02T13:19:17Z</time>
      </trkpt>
      <trkpt lat="46.08464" lon="4.56686">
        <ele>730</ele>
        <time>2017-02-02T13:19:18Z</time>
      </trkpt>
      <trkpt lat="46.08469" lon="4.56695">
        <ele>729</ele>
        <time>2017-02-02T13:19:23Z</time>
      </trkpt>
      <trkpt lat="46.08469" lon="4.56698">
        <ele>729</ele>
        <time>2017-02-02T13:19:24Z</time>
      </trkpt>
      <trkpt lat="46.08469" lon="4.5671">
        <ele>729</ele>
        <time>2017-02-02T13:19:30Z</time>
      </trkpt>
      <trkpt lat="46.0847" lon="4.56711">
        <ele>729</ele>
        <time>2017-02-02T13:19:31Z</time>
      </trkpt>
      <trkpt lat="46.08469" lon="4.56723">
        <ele>728</ele>
        <time>2017-02-02T13:19:37Z</time>
      </trkpt>
      <trkpt lat="46.08469" lon="4.56725">
        <ele>728</ele>
        <time>2017-02-02T13:19:38Z</time>
      </trkpt>
      <trkpt lat="46.08475" lon="4.56735">
        <ele>728</ele>
        <time>2017-02-02T13:19:45Z</time>
      </trkpt>
      <trkpt lat="46.08475" lon="4.56736">
        <ele>727</ele>
        <time>2017-02-02T13:19:46Z</time>
      </trkpt>
      <trkpt lat="46.08478" lon="4.56748">
        <ele>727</ele>
        <time>2017-02-02T13:19:53Z</time>
      </trkpt>
      <trkpt lat="46.08478" lon="4.5675">
        <ele>727</ele>
        <time>2017-02-02T13:19:54Z</time>
      </trkpt>
      <trkpt lat="46.08481" lon="4.56761">
        <ele>720</ele>
        <time>2017-02-02T13:20:01Z</time>
      </trkpt>
      <trkpt lat="46.08482" lon="4.56762">
        <ele>720</ele>
        <time>2017-02-02T13:20:02Z</time>
      </trkpt>
      <trkpt lat="46.08486" lon="4.56772">
        <ele>719</ele>
        <time>2017-02-02T13:20:10Z</time>
      </trkpt>
      <trkpt lat="46.08486" lon="4.56774">
        <ele>719</ele>
        <time>2017-02-02T13:20:11Z</time>
      </trkpt>
      <trkpt lat="46.08486" lon="4.56785">
        <ele>717</ele>
        <time>2017-02-02T13:20:17Z</time>
      </trkpt>
      <trkpt lat="46.08487" lon="4.56787">
        <ele>717</ele>
        <time>2017-02-02T13:20:18Z</time>
      </trkpt>
      <trkpt lat="46.08488" lon="4.56799">
        <ele>716</ele>
        <time>2017-02-02T13:20:25Z</time>
      </trkpt>
      <trkpt lat="46.08488" lon="4.56801">
        <ele>715</ele>
        <time>2017-02-02T13:20:26Z</time>
      </trkpt>
      <trkpt lat="46.08494" lon="4.56811">
        <ele>715</ele>
        <time>2017-02-02T13:20:32Z</time>
      </trkpt>
      <trkpt lat="46.08495" lon="4.56812">
        <ele>715</ele>
        <time>2017-02-02T13:20:33Z</time>
      </trkpt>
      <trkpt lat="46.085" lon="4.56821">
        <ele>714</ele>
        <time>2017-02-02T13:20:39Z</time>
      </trkpt>
      <trkpt lat="46.085" lon="4.56823">
        <ele>713</ele>
        <time>2017-02-02T13:20:40Z</time>
      </trkpt>
      <trkpt lat="46.08504" lon="4.56833">
        <ele>713</ele>
        <time>2017-02-02T13:20:46Z</time>
      </trkpt>
      <trkpt lat="46.08504" lon="4.56835">
        <ele>712</ele>
        <time>2017-02-02T13:20:47Z</time>
      </trkpt>
      <trkpt lat="46.08508" lon="4.56847">
        <ele>709</ele>
        <time>2017-02-02T13:20:55Z</time>
      </trkpt>
      <trkpt lat="46.08508" lon="4.56848">
        <ele>709</ele>
        <time>2017-02-02T13:20:56Z</time>
      </trkpt>
      <trkpt lat="46.08509" lon="4.5686">
        <ele>707</ele>
        <time>2017-02-02T13:21:03Z</time>
      </trkpt>
      <trkpt lat="46.08509" lon="4.56861">
        <ele>707</ele>
        <time>2017-02-02T13:21:04Z</time>
      </trkpt>
      <trkpt lat="46.0851" lon="4.56872">
        <ele>706</ele>
        <time>2017-02-02T13:21:10Z</time>
      </trkpt>
      <trkpt lat="46.0851" lon="4.56874">
        <ele>706</ele>
        <time>2017-02-02T13:21:11Z</time>
      </trkpt>
      <trkpt lat="46.08512" lon="4.56886">
        <ele>705</ele>
        <time>2017-02-02T13:21:17Z</time>
      </trkpt>
      <trkpt lat="46.08513" lon="4.56888">
        <ele>705</ele>
        <time>2017-02-02T13:21:18Z</time>
      </trkpt>
      <trkpt lat="46.08517" lon="4.56897">
        <ele>705</ele>
        <time>2017-02-02T13:21:23Z</time>
      </trkpt>
      <trkpt lat="46.08517" lon="4.56899">
        <ele>705</ele>
        <time>2017-02-02T13:21:24Z</time>
      </trkpt>
      <trkpt lat="46.08518" lon="4.56911">
        <ele>705</ele>
        <time>2017-02-02T13:21:30Z</time>
      </trkpt>
      <trkpt lat="46.08518" lon="4.56913">
        <ele>705</ele>
        <time>2017-02-02T13:21:31Z</time>
      </trkpt>
      <trkpt lat="46.08522" lon="4.56922">
        <ele>702</ele>
        <time>2017-02-02T13:21:36Z</time>
      </trkpt>
      <trkpt lat="46.08522" lon="4.56925">
        <ele>702</ele>
        <time>2017-02-02T13:21:37Z</time>
      </trkpt>
      <trkpt lat="46.08521" lon="4.56935">
        <ele>701</ele>
        <time>2017-02-02T13:21:42Z</time>
      </trkpt>
      <trkpt lat="46.0852" lon="4.56937">
        <ele>701</ele>
        <time>2017-02-02T13:21:43Z</time>
      </trkpt>
      <trkpt lat="46.08521" lon="4.56948">
        <ele>701</ele>
        <time>2017-02-02T13:21:49Z</time>
      </trkpt>
      <trkpt lat="46.08521" lon="4.5695">
        <ele>701</ele>
        <time>2017-02-02T13:21:50Z</time>
      </trkpt>
      <trkpt lat="46.08522" lon="4.56961">
        <ele>700</ele>
        <time>2017-02-02T13:21:55Z</time>
      </trkpt>
      <trkpt lat="46.08522" lon="4.56964">
        <ele>700</ele>
        <time>2017-02-02T13:21:56Z</time>
      </trkpt>
      <trkpt lat="46.08524" lon="4.56975">
        <ele>700</ele>
        <time>2017-02-02T13:22:02Z</time>
      </trkpt>
      <trkpt lat="46.08524" lon="4.56977">
        <ele>700</ele>
        <time>2017-02-02T13:22:03Z</time>
      </trkpt>
      <trkpt lat="46.08523" lon="4.56989">
        <ele>699</ele>
        <time>2017-02-02T13:22:09Z</time>
      </trkpt>
      <trkpt lat="46.08523" lon="4.56991">
        <ele>699</ele>
        <time>2017-02-02T13:22:10Z</time>
      </trkpt>
      <trkpt lat="46.08525" lon="4.57003">
        <ele>698</ele>
        <time>2017-02-02T13:22:16Z</time>
      </trkpt>
      <trkpt lat="46.08525" lon="4.57004">
        <ele>698</ele>
        <time>2017-02-02T13:22:17Z</time>
      </trkpt>
      <trkpt lat="46.08526" lon="4.57016">
        <ele>698</ele>
        <time>2017-02-02T13:22:23Z</time>
      </trkpt>
      <trkpt lat="46.08528" lon="4.57018">
        <ele>698</ele>
        <time>2017-02-02T13:22:24Z</time>
      </trkpt>
      <trkpt lat="46.0853" lon="4.57029">
        <ele>698</ele>
        <time>2017-02-02T13:22:30Z</time>
      </trkpt>
      <trkpt lat="46.0853" lon="4.57031">
        <ele>698</ele>
        <time>2017-02-02T13:22:31Z</time>
      </trkpt>
      <trkpt lat="46.0853" lon="4.57042">
        <ele>698</ele>
        <time>2017-02-02T13:22:37Z</time>
      </trkpt>
      <trkpt lat="46.0853" lon="4.57044">
        <ele>698</ele>
        <time>2017-02-02T13:22:38Z</time>
      </trkpt>
      <trkpt lat="46.0853" lon="4.57056">
        <ele>698</ele>
        <time>2017-02-02T13:22:44Z</time>
      </trkpt>
      <trkpt lat="46.0853" lon="4.57058">
        <ele>698</ele>
        <time>2017-02-02T13:22:45Z</time>
      </trkpt>
      <trkpt lat="46.08532" lon="4.57069">
        <ele>698</ele>
        <time>2017-02-02T13:22:51Z</time>
      </trkpt>
      <trkpt lat="46.08532" lon="4.57071">
        <ele>698</ele>
        <time>2017-02-02T13:22:52Z</time>
      </trkpt>
      <trkpt lat="46.08533" lon="4.57083">
        <ele>698</ele>
        <time>2017-02-02T13:22:59Z</time>
      </trkpt>
      <trkpt lat="46.08533" lon="4.57085">
        <ele>697</ele>
        <time>2017-02-02T13:23:00Z</time>
      </trkpt>
      <trkpt lat="46.08536" lon="4.57096">
        <ele>697</ele>
        <time>2017-02-02T13:23:07Z</time>
      </trkpt>
      <trkpt lat="46.08537" lon="4.57098">
        <ele>697</ele>
        <time>2017-02-02T13:23:08Z</time>
      </trkpt>
      <trkpt lat="46.08541" lon="4.57108">
        <ele>697</ele>
        <time>2017-02-02T13:23:14Z</time>
      </trkpt>
      <trkpt lat="46.08541" lon="4.5711">
        <ele>697</ele>
        <time>2017-02-02T13:23:15Z</time>
      </trkpt>
      <trkpt lat="46.08544" lon="4.57122">
        <ele>697</ele>
        <time>2017-02-02T13:23:21Z</time>
      </trkpt>
      <trkpt lat="46.08544" lon="4.57124">
        <ele>697</ele>
        <time>2017-02-02T13:23:22Z</time>
      </trkpt>
      <trkpt lat="46.08542" lon="4.57136">
        <ele>697</ele>
        <time>2017-02-02T13:23:29Z</time>
      </trkpt>
      <trkpt lat="46.08542" lon="4.57138">
        <ele>697</ele>
        <time>2017-02-02T13:23:30Z</time>
      </trkpt>
      <trkpt lat="46.08545" lon="4.57149">
        <ele>696</ele>
        <time>2017-02-02T13:23:36Z</time>
      </trkpt>
      <trkpt lat="46.08545" lon="4.57151">
        <ele>696</ele>
        <time>2017-02-02T13:23:37Z</time>
      </trkpt>
      <trkpt lat="46.08549" lon="4.57162">
        <ele>696</ele>
        <time>2017-02-02T13:23:44Z</time>
      </trkpt>
      <trkpt lat="46.0855" lon="4.57164">
        <ele>696</ele>
        <time>2017-02-02T13:23:45Z</time>
      </trkpt>
      <trkpt lat="46.08554" lon="4.57175">
        <ele>696</ele>
        <time>2017-02-02T13:23:52Z</time>
      </trkpt>
      <trkpt lat="46.08553" lon="4.57177">
        <ele>696</ele>
        <time>2017-02-02T13:23:53Z</time>
      </trkpt>
      <trkpt lat="46.08551" lon="4.57188">
        <ele>696</ele>
        <time>2017-02-02T13:23:59Z</time>
      </trkpt>
      <trkpt lat="46.0855" lon="4.57189">
        <ele>696</ele>
        <time>2017-02-02T13:24:00Z</time>
      </trkpt>
      <trkpt lat="46.08547" lon="4.57202">
        <ele>696</ele>
        <time>2017-02-02T13:24:07Z</time>
      </trkpt>
      <trkpt lat="46.08546" lon="4.57203">
        <ele>696</ele>
        <time>2017-02-02T13:24:08Z</time>
      </trkpt>
      <trkpt lat="46.08541" lon="4.57214">
        <ele>696</ele>
        <time>2017-02-02T13:24:14Z</time>
      </trkpt>
      <trkpt lat="46.0854" lon="4.57215">
        <ele>696</ele>
        <time>2017-02-02T13:24:15Z</time>
      </trkpt>
      <trkpt lat="46.08539" lon="4.57228">
        <ele>696</ele>
        <time>2017-02-02T13:24:21Z</time>
      </trkpt>
      <trkpt lat="46.08538" lon="4.57229">
        <ele>696</ele>
        <time>2017-02-02T13:24:22Z</time>
      </trkpt>
      <trkpt lat="46.08533" lon="4.57237">
        <ele>696</ele>
        <time>2017-02-02T13:24:27Z</time>
      </trkpt>
      <trkpt lat="46.08531" lon="4.57239">
        <ele>696</ele>
        <time>2017-02-02T13:24:28Z</time>
      </trkpt>
      <trkpt lat="46.08535" lon="4.57249">
        <ele>696</ele>
        <time>2017-02-02T13:24:35Z</time>
      </trkpt>
      <trkpt lat="46.08536" lon="4.57251">
        <ele>697</ele>
        <time>2017-02-02T13:24:36Z</time>
      </trkpt>
      <trkpt lat="46.08536" lon="4.57263">
        <ele>697</ele>
        <time>2017-02-02T13:24:45Z</time>
      </trkpt>
      <trkpt lat="46.08535" lon="4.57264">
        <ele>697</ele>
        <time>2017-02-02T13:24:46Z</time>
      </trkpt>
      <trkpt lat="46.08542" lon="4.57271">
        <ele>697</ele>
        <time>2017-02-02T13:25:36Z</time>
      </trkpt>
      <trkpt lat="46.08543" lon="4.57271">
        <ele>697</ele>
        <time>2017-02-02T13:25:37Z</time>
      </trkpt>
      <trkpt lat="46.08551" lon="4.57278">
        <ele>697</ele>
        <time>2017-02-02T13:25:44Z</time>
      </trkpt>
      <trkpt lat="46.08552" lon="4.57279">
        <ele>697</ele>
        <time>2017-02-02T13:25:45Z</time>
      </trkpt>
      <trkpt lat="46.0856" lon="4.57282">
        <ele>697</ele>
        <time>2017-02-02T13:25:54Z</time>
      </trkpt>
      <trkpt lat="46.08561" lon="4.57283">
        <ele>697</ele>
        <time>2017-02-02T13:25:55Z</time>
      </trkpt>
      <trkpt lat="46.08566" lon="4.57293">
        <ele>697</ele>
        <time>2017-02-02T13:26:01Z</time>
      </trkpt>
      <trkpt lat="46.08567" lon="4.57295">
        <ele>697</ele>
        <time>2017-02-02T13:26:02Z</time>
      </trkpt>
      <trkpt lat="46.08574" lon="4.57303">
        <ele>698</ele>
        <time>2017-02-02T13:26:08Z</time>
      </trkpt>
      <trkpt lat="46.08575" lon="4.57303">
        <ele>698</ele>
        <time>2017-02-02T13:26:09Z</time>
      </trkpt>
      <trkpt lat="46.08579" lon="4.57313">
        <ele>698</ele>
        <time>2017-02-02T13:26:17Z</time>
      </trkpt>
      <trkpt lat="46.08579" lon="4.57315">
        <ele>698</ele>
        <time>2017-02-02T13:26:18Z</time>
      </trkpt>
      <trkpt lat="46.08583" lon="4.57326">
        <ele>699</ele>
        <time>2017-02-02T13:26:25Z</time>
      </trkpt>
      <trkpt lat="46.08584" lon="4.57328">
        <ele>697</ele>
        <time>2017-02-02T13:26:26Z</time>
      </trkpt>
      <trkpt lat="46.08589" lon="4.57337">
        <ele>698</ele>
        <time>2017-02-02T13:26:35Z</time>
      </trkpt>
      <trkpt lat="46.08589" lon="4.57339">
        <ele>697</ele>
        <time>2017-02-02T13:26:36Z</time>
      </trkpt>
      <trkpt lat="46.08593" lon="4.57349">
        <ele>696</ele>
        <time>2017-02-02T13:26:43Z</time>
      </trkpt>
      <trkpt lat="46.08594" lon="4.5735">
        <ele>696</ele>
        <time>2017-02-02T13:26:44Z</time>
      </trkpt>
      <trkpt lat="46.08599" lon="4.5736">
        <ele>695</ele>
        <time>2017-02-02T13:26:52Z</time>
      </trkpt>
      <trkpt lat="46.086" lon="4.57362">
        <ele>695</ele>
        <time>2017-02-02T13:26:53Z</time>
      </trkpt>
      <trkpt lat="46.08605" lon="4.5737">
        <ele>694</ele>
        <time>2017-02-02T13:26:59Z</time>
      </trkpt>
      <trkpt lat="46.08606" lon="4.57372">
        <ele>694</ele>
        <time>2017-02-02T13:27:00Z</time>
      </trkpt>
      <trkpt lat="46.08612" lon="4.57381">
        <ele>694</ele>
        <time>2017-02-02T13:27:06Z</time>
      </trkpt>
      <trkpt lat="46.08613" lon="4.57383">
        <ele>694</ele>
        <time>2017-02-02T13:27:07Z</time>
      </trkpt>
      <trkpt lat="46.0862" lon="4.5739">
        <ele>694</ele>
        <time>2017-02-02T13:27:13Z</time>
      </trkpt>
      <trkpt lat="46.08621" lon="4.57391">
        <ele>694</ele>
        <time>2017-02-02T13:27:14Z</time>
      </trkpt>
      <trkpt lat="46.08625" lon="4.57401">
        <ele>694</ele>
        <time>2017-02-02T13:27:19Z</time>
      </trkpt>
      <trkpt lat="46.08626" lon="4.57403">
        <ele>694</ele>
        <time>2017-02-02T13:27:20Z</time>
      </trkpt>
      <trkpt lat="46.08631" lon="4.57412">
        <ele>694</ele>
        <time>2017-02-02T13:27:26Z</time>
      </trkpt>
      <trkpt lat="46.08632" lon="4.57414">
        <ele>694</ele>
        <time>2017-02-02T13:27:27Z</time>
      </trkpt>
      <trkpt lat="46.08639" lon="4.57421">
        <ele>691</ele>
        <time>2017-02-02T13:27:32Z</time>
      </trkpt>
      <trkpt lat="46.08641" lon="4.57422">
        <ele>691</ele>
        <time>2017-02-02T13:27:33Z</time>
      </trkpt>
      <trkpt lat="46.08648" lon="4.57428">
        <ele>691</ele>
        <time>2017-02-02T13:27:39Z</time>
      </trkpt>
      <trkpt lat="46.0865" lon="4.57429">
        <ele>691</ele>
        <time>2017-02-02T13:27:40Z</time>
      </trkpt>
      <trkpt lat="46.08657" lon="4.57434">
        <ele>692</ele>
        <time>2017-02-02T13:27:46Z</time>
      </trkpt>
      <trkpt lat="46.08658" lon="4.57435">
        <ele>691</ele>
        <time>2017-02-02T13:27:47Z</time>
      </trkpt>
      <trkpt lat="46.08665" lon="4.57443">
        <ele>691</ele>
        <time>2017-02-02T13:27:54Z</time>
      </trkpt>
      <trkpt lat="46.08665" lon="4.57443">
        <ele>691</ele>
        <time>2017-02-02T13:27:55Z</time>
      </trkpt>
      <trkpt lat="46.08673" lon="4.57446">
        <ele>693</ele>
        <time>2017-02-02T13:28:03Z</time>
      </trkpt>
      <trkpt lat="46.08674" lon="4.57446">
        <ele>693</ele>
        <time>2017-02-02T13:28:04Z</time>
      </trkpt>
      <trkpt lat="46.08681" lon="4.57452">
        <ele>693</ele>
        <time>2017-02-02T13:28:11Z</time>
      </trkpt>
      <trkpt lat="46.08682" lon="4.57452">
        <ele>693</ele>
        <time>2017-02-02T13:28:12Z</time>
      </trkpt>
      <trkpt lat="46.08691" lon="4.57453">
        <ele>693</ele>
        <time>2017-02-02T13:28:18Z</time>
      </trkpt>
      <trkpt lat="46.08692" lon="4.57454">
        <ele>693</ele>
        <time>2017-02-02T13:28:19Z</time>
      </trkpt>
      <trkpt lat="46.08698" lon="4.57462">
        <ele>693</ele>
        <time>2017-02-02T13:28:25Z</time>
      </trkpt>
      <trkpt lat="46.08699" lon="4.57464">
        <ele>693</ele>
        <time>2017-02-02T13:28:26Z</time>
      </trkpt>
      <trkpt lat="46.08706" lon="4.57471">
        <ele>693</ele>
        <time>2017-02-02T13:28:33Z</time>
      </trkpt>
      <trkpt lat="46.08707" lon="4.57472">
        <ele>694</ele>
        <time>2017-02-02T13:28:34Z</time>
      </trkpt>
      <trkpt lat="46.08715" lon="4.57479">
        <ele>694</ele>
        <time>2017-02-02T13:28:41Z</time>
      </trkpt>
      <trkpt lat="46.08716" lon="4.5748">
        <ele>694</ele>
        <time>2017-02-02T13:28:42Z</time>
      </trkpt>
      <trkpt lat="46.08723" lon="4.57487">
        <ele>695</ele>
        <time>2017-02-02T13:28:49Z</time>
      </trkpt>
      <trkpt lat="46.08724" lon="4.57488">
        <ele>695</ele>
        <time>2017-02-02T13:28:50Z</time>
      </trkpt>
      <trkpt lat="46.08731" lon="4.57494">
        <ele>696</ele>
        <time>2017-02-02T13:28:57Z</time>
      </trkpt>
      <trkpt lat="46.08733" lon="4.57494">
        <ele>696</ele>
        <time>2017-02-02T13:28:58Z</time>
      </trkpt>
      <trkpt lat="46.0874" lon="4.57497">
        <ele>697</ele>
        <time>2017-02-02T13:29:05Z</time>
      </trkpt>
      <trkpt lat="46.08741" lon="4.57498">
        <ele>697</ele>
        <time>2017-02-02T13:29:06Z</time>
      </trkpt>
      <trkpt lat="46.08747" lon="4.57507">
        <ele>696</ele>
        <time>2017-02-02T13:29:14Z</time>
      </trkpt>
      <trkpt lat="46.08748" lon="4.57508">
        <ele>696</ele>
        <time>2017-02-02T13:29:15Z</time>
      </trkpt>
      <trkpt lat="46.08754" lon="4.57515">
        <ele>696</ele>
        <time>2017-02-02T13:29:22Z</time>
      </trkpt>
      <trkpt lat="46.08755" lon="4.57517">
        <ele>695</ele>
        <time>2017-02-02T13:29:23Z</time>
      </trkpt>
      <trkpt lat="46.0876" lon="4.57526">
        <ele>694</ele>
        <time>2017-02-02T13:29:29Z</time>
      </trkpt>
      <trkpt lat="46.08761" lon="4.57528">
        <ele>694</ele>
        <time>2017-02-02T13:29:30Z</time>
      </trkpt>
      <trkpt lat="46.08765" lon="4.57539">
        <ele>693</ele>
        <time>2017-02-02T13:29:36Z</time>
      </trkpt>
      <trkpt lat="46.08766" lon="4.5754">
        <ele>693</ele>
        <time>2017-02-02T13:29:37Z</time>
      </trkpt>
      <trkpt lat="46.08773" lon="4.57547">
        <ele>692</ele>
        <time>2017-02-02T13:29:44Z</time>
      </trkpt>
      <trkpt lat="46.08773" lon="4.57549">
        <ele>692</ele>
        <time>2017-02-02T13:29:45Z</time>
      </trkpt>
      <trkpt lat="46.08779" lon="4.57558">
        <ele>692</ele>
        <time>2017-02-02T13:29:52Z</time>
      </trkpt>
      <trkpt lat="46.0878" lon="4.5756">
        <ele>692</ele>
        <time>2017-02-02T13:29:53Z</time>
      </trkpt>
      <trkpt lat="46.08785" lon="4.5757">
        <ele>692</ele>
        <time>2017-02-02T13:30:00Z</time>
      </trkpt>
      <trkpt lat="46.08786" lon="4.57571">
        <ele>692</ele>
        <time>2017-02-02T13:30:01Z</time>
      </trkpt>
      <trkpt lat="46.08791" lon="4.57581">
        <ele>692</ele>
        <time>2017-02-02T13:30:08Z</time>
      </trkpt>
      <trkpt lat="46.08792" lon="4.57582">
        <ele>692</ele>
        <time>2017-02-02T13:30:09Z</time>
      </trkpt>
      <trkpt lat="46.08796" lon="4.57593">
        <ele>687</ele>
        <time>2017-02-02T13:30:15Z</time>
      </trkpt>
      <trkpt lat="46.08797" lon="4.57595">
        <ele>687</ele>
        <time>2017-02-02T13:30:16Z</time>
      </trkpt>
      <trkpt lat="46.08798" lon="4.57606">
        <ele>687</ele>
        <time>2017-02-02T13:30:21Z</time>
      </trkpt>
      <trkpt lat="46.08798" lon="4.57608">
        <ele>686</ele>
        <time>2017-02-02T13:30:22Z</time>
      </trkpt>
      <trkpt lat="46.08802" lon="4.57619">
        <ele>686</ele>
        <time>2017-02-02T13:30:28Z</time>
      </trkpt>
      <trkpt lat="46.08802" lon="4.57621">
        <ele>686</ele>
        <time>2017-02-02T13:30:29Z</time>
      </trkpt>
      <trkpt lat="46.08801" lon="4.57633">
        <ele>685</ele>
        <time>2017-02-02T13:30:35Z</time>
      </trkpt>
      <trkpt lat="46.08801" lon="4.57635">
        <ele>685</ele>
        <time>2017-02-02T13:30:36Z</time>
      </trkpt>
      <trkpt lat="46.08803" lon="4.57647">
        <ele>685</ele>
        <time>2017-02-02T13:30:42Z</time>
      </trkpt>
      <trkpt lat="46.08803" lon="4.57649">
        <ele>685</ele>
        <time>2017-02-02T13:30:43Z</time>
      </trkpt>
      <trkpt lat="46.08808" lon="4.57659">
        <ele>685</ele>
        <time>2017-02-02T13:30:50Z</time>
      </trkpt>
      <trkpt lat="46.08807" lon="4.5766">
        <ele>685</ele>
        <time>2017-02-02T13:30:51Z</time>
      </trkpt>
      <trkpt lat="46.08807" lon="4.57672">
        <ele>679</ele>
        <time>2017-02-02T13:30:57Z</time>
      </trkpt>
      <trkpt lat="46.08808" lon="4.57674">
        <ele>679</ele>
        <time>2017-02-02T13:30:58Z</time>
      </trkpt>
      <trkpt lat="46.08811" lon="4.57686">
        <ele>678</ele>
        <time>2017-02-02T13:31:04Z</time>
      </trkpt>
      <trkpt lat="46.08812" lon="4.57687">
        <ele>678</ele>
        <time>2017-02-02T13:31:05Z</time>
      </trkpt>
      <trkpt lat="46.08814" lon="4.57698">
        <ele>677</ele>
        <time>2017-02-02T13:31:11Z</time>
      </trkpt>
      <trkpt lat="46.08815" lon="4.577">
        <ele>677</ele>
        <time>2017-02-02T13:31:12Z</time>
      </trkpt>
      <trkpt lat="46.08818" lon="4.57712">
        <ele>676</ele>
        <time>2017-02-02T13:31:18Z</time>
      </trkpt>
      <trkpt lat="46.08819" lon="4.57714">
        <ele>676</ele>
        <time>2017-02-02T13:31:19Z</time>
      </trkpt>
      <trkpt lat="46.08821" lon="4.57726">
        <ele>676</ele>
        <time>2017-02-02T13:31:25Z</time>
      </trkpt>
      <trkpt lat="46.08822" lon="4.57728">
        <ele>676</ele>
        <time>2017-02-02T13:31:26Z</time>
      </trkpt>
      <trkpt lat="46.08827" lon="4.57738">
        <ele>677</ele>
        <time>2017-02-02T13:31:33Z</time>
      </trkpt>
      <trkpt lat="46.08827" lon="4.5774">
        <ele>677</ele>
        <time>2017-02-02T13:31:34Z</time>
      </trkpt>
      <trkpt lat="46.08827" lon="4.57752">
        <ele>676</ele>
        <time>2017-02-02T13:31:41Z</time>
      </trkpt>
      <trkpt lat="46.08828" lon="4.57753">
        <ele>676</ele>
        <time>2017-02-02T13:31:42Z</time>
      </trkpt>
      <trkpt lat="46.08832" lon="4.57763">
        <ele>674</ele>
        <time>2017-02-02T13:31:48Z</time>
      </trkpt>
      <trkpt lat="46.08833" lon="4.57765">
        <ele>673</ele>
        <time>2017-02-02T13:31:49Z</time>
      </trkpt>
      <trkpt lat="46.08838" lon="4.57773">
        <ele>675</ele>
        <time>2017-02-02T13:31:54Z</time>
      </trkpt>
      <trkpt lat="46.08839" lon="4.57775">
        <ele>674</ele>
        <time>2017-02-02T13:31:55Z</time>
      </trkpt>
      <trkpt lat="46.08836" lon="4.57787">
        <ele>674</ele>
        <time>2017-02-02T13:32:01Z</time>
      </trkpt>
      <trkpt lat="46.08837" lon="4.57789">
        <ele>673</ele>
        <time>2017-02-02T13:32:02Z</time>
      </trkpt>
      <trkpt lat="46.08839" lon="4.578">
        <ele>673</ele>
        <time>2017-02-02T13:32:07Z</time>
      </trkpt>
      <trkpt lat="46.08839" lon="4.57802">
        <ele>673</ele>
        <time>2017-02-02T13:32:08Z</time>
      </trkpt>
      <trkpt lat="46.0884" lon="4.57814">
        <ele>673</ele>
        <time>2017-02-02T13:32:14Z</time>
      </trkpt>
      <trkpt lat="46.0884" lon="4.57816">
        <ele>673</ele>
        <time>2017-02-02T13:32:15Z</time>
      </trkpt>
      <trkpt lat="46.08836" lon="4.57826">
        <ele>673</ele>
        <time>2017-02-02T13:32:20Z</time>
      </trkpt>
      <trkpt lat="46.08836" lon="4.57828">
        <ele>673</ele>
        <time>2017-02-02T13:32:21Z</time>
      </trkpt>
      <trkpt lat="46.08834" lon="4.57841">
        <ele>672</ele>
        <time>2017-02-02T13:32:28Z</time>
      </trkpt>
      <trkpt lat="46.08834" lon="4.57843">
        <ele>672</ele>
        <time>2017-02-02T13:32:29Z</time>
      </trkpt>
      <trkpt lat="46.08832" lon="4.57854">
        <ele>669</ele>
        <time>2017-02-02T13:32:35Z</time>
      </trkpt>
      <trkpt lat="46.08832" lon="4.57856">
        <ele>669</ele>
        <time>2017-02-02T13:32:36Z</time>
      </trkpt>
      <trkpt lat="46.08829" lon="4.57867">
        <ele>668</ele>
        <time>2017-02-02T13:32:44Z</time>
      </trkpt>
      <trkpt lat="46.08829" lon="4.57868">
        <ele>668</ele>
        <time>2017-02-02T13:32:45Z</time>
      </trkpt>
      <trkpt lat="46.08836" lon="4.57873">
        <ele>671</ele>
        <time>2017-02-02T13:33:10Z</time>
      </trkpt>
      <trkpt lat="46.08836" lon="4.57875">
        <ele>671</ele>
        <time>2017-02-02T13:33:11Z</time>
      </trkpt>
      <trkpt lat="46.08835" lon="4.57888">
        <ele>672</ele>
        <time>2017-02-02T13:33:17Z</time>
      </trkpt>
      <trkpt lat="46.08835" lon="4.5789">
        <ele>672</ele>
        <time>2017-02-02T13:33:18Z</time>
      </trkpt>
      <trkpt lat="46.08832" lon="4.57902">
        <ele>670</ele>
        <time>2017-02-02T13:33:24Z</time>
      </trkpt>
      <trkpt lat="46.08833" lon="4.57904">
        <ele>671</ele>
        <time>2017-02-02T13:33:25Z</time>
      </trkpt>
      <trkpt lat="46.08836" lon="4.57916">
        <ele>674</ele>
        <time>2017-02-02T13:33:32Z</time>
      </trkpt>
      <trkpt lat="46.08836" lon="4.57917">
        <ele>674</ele>
        <time>2017-02-02T13:33:33Z</time>
      </trkpt>
      <trkpt lat="46.08838" lon="4.57929">
        <ele>673</ele>
        <time>2017-02-02T13:33:41Z</time>
      </trkpt>
      <trkpt lat="46.08838" lon="4.57931">
        <ele>673</ele>
        <time>2017-02-02T13:33:42Z</time>
      </trkpt>
      <trkpt lat="46.08836" lon="4.57943">
        <ele>673</ele>
        <time>2017-02-02T13:33:49Z</time>
      </trkpt>
      <trkpt lat="46.08835" lon="4.57944">
        <ele>673</ele>
        <time>2017-02-02T13:33:50Z</time>
      </trkpt>
      <trkpt lat="46.08834" lon="4.57957">
        <ele>673</ele>
        <time>2017-02-02T13:33:58Z</time>
      </trkpt>
      <trkpt lat="46.08834" lon="4.57958">
        <ele>673</ele>
        <time>2017-02-02T13:33:59Z</time>
      </trkpt>
      <trkpt lat="46.0883" lon="4.57968">
        <ele>674</ele>
        <time>2017-02-02T13:34:06Z</time>
      </trkpt>
      <trkpt lat="46.08829" lon="4.57969">
        <ele>674</ele>
        <time>2017-02-02T13:34:07Z</time>
      </trkpt>
      <trkpt lat="46.08825" lon="4.5798">
        <ele>675</ele>
        <time>2017-02-02T13:34:16Z</time>
      </trkpt>
      <trkpt lat="46.08825" lon="4.57981">
        <ele>675</ele>
        <time>2017-02-02T13:34:17Z</time>
      </trkpt>
      <trkpt lat="46.08827" lon="4.57993">
        <ele>677</ele>
        <time>2017-02-02T13:34:25Z</time>
      </trkpt>
      <trkpt lat="46.08827" lon="4.57994">
        <ele>677</ele>
        <time>2017-02-02T13:34:26Z</time>
      </trkpt>
      <trkpt lat="46.08827" lon="4.58006">
        <ele>680</ele>
        <time>2017-02-02T13:34:35Z</time>
      </trkpt>
      <trkpt lat="46.08827" lon="4.58007">
        <ele>680</ele>
        <time>2017-02-02T13:34:36Z</time>
      </trkpt>
      <trkpt lat="46.08825" lon="4.58019">
        <ele>679</ele>
        <time>2017-02-02T13:34:48Z</time>
      </trkpt>
      <trkpt lat="46.08824" lon="4.5802">
        <ele>679</ele>
        <time>2017-02-02T13:34:49Z</time>
      </trkpt>
      <trkpt lat="46.08825" lon="4.58032">
        <ele>680</ele>
        <time>2017-02-02T13:34:58Z</time>
      </trkpt>
      <trkpt lat="46.08826" lon="4.58034">
        <ele>680</ele>
        <time>2017-02-02T13:34:59Z</time>
      </trkpt>
      <trkpt lat="46.08822" lon="4.58045">
        <ele>680</ele>
        <time>2017-02-02T13:35:08Z</time>
      </trkpt>
      <trkpt lat="46.08821" lon="4.58047">
        <ele>680</ele>
        <time>2017-02-02T13:35:09Z</time>
      </trkpt>
      <trkpt lat="46.08817" lon="4.58057">
        <ele>680</ele>
        <time>2017-02-02T13:35:18Z</time>
      </trkpt>
      <trkpt lat="46.08816" lon="4.58058">
        <ele>680</ele>
        <time>2017-02-02T13:35:19Z</time>
      </trkpt>
      <trkpt lat="46.08814" lon="4.58069">
        <ele>681</ele>
        <time>2017-02-02T13:35:27Z</time>
      </trkpt>
      <trkpt lat="46.08814" lon="4.58071">
        <ele>681</ele>
        <time>2017-02-02T13:35:28Z</time>
      </trkpt>
      <trkpt lat="46.08811" lon="4.58083">
        <ele>681</ele>
        <time>2017-02-02T13:35:36Z</time>
      </trkpt>
      <trkpt lat="46.0881" lon="4.58084">
        <ele>682</ele>
        <time>2017-02-02T13:35:37Z</time>
      </trkpt>
      <trkpt lat="46.08803" lon="4.58088">
        <ele>682</ele>
        <time>2017-02-02T13:35:43Z</time>
      </trkpt>
      <trkpt lat="46.08801" lon="4.58089">
        <ele>682</ele>
        <time>2017-02-02T13:35:44Z</time>
      </trkpt>
      <trkpt lat="46.08795" lon="4.58098">
        <ele>682</ele>
        <time>2017-02-02T13:35:52Z</time>
      </trkpt>
      <trkpt lat="46.08795" lon="4.58099">
        <ele>682</ele>
        <time>2017-02-02T13:35:53Z</time>
      </trkpt>
      <trkpt lat="46.08793" lon="4.5811">
        <ele>682</ele>
        <time>2017-02-02T13:36:00Z</time>
      </trkpt>
      <trkpt lat="46.08791" lon="4.58111">
        <ele>682</ele>
        <time>2017-02-02T13:36:01Z</time>
      </trkpt>
      <trkpt lat="46.08784" lon="4.58119">
        <ele>682</ele>
        <time>2017-02-02T13:36:07Z</time>
      </trkpt>
      <trkpt lat="46.08783" lon="4.5812">
        <ele>682</ele>
        <time>2017-02-02T13:36:08Z</time>
      </trkpt>
      <trkpt lat="46.08776" lon="4.58126">
        <ele>682</ele>
        <time>2017-02-02T13:36:14Z</time>
      </trkpt>
      <trkpt lat="46.08775" lon="4.58128">
        <ele>682</ele>
        <time>2017-02-02T13:36:15Z</time>
      </trkpt>
      <trkpt lat="46.0877" lon="4.58136">
        <ele>683</ele>
        <time>2017-02-02T13:36:21Z</time>
      </trkpt>
      <trkpt lat="46.08769" lon="4.58137">
        <ele>683</ele>
        <time>2017-02-02T13:36:22Z</time>
      </trkpt>
      <trkpt lat="46.08762" lon="4.58144">
        <ele>683</ele>
        <time>2017-02-02T13:36:29Z</time>
      </trkpt>
      <trkpt lat="46.08761" lon="4.58145">
        <ele>684</ele>
        <time>2017-02-02T13:36:30Z</time>
      </trkpt>
      <trkpt lat="46.08755" lon="4.58155">
        <ele>685</ele>
        <time>2017-02-02T13:36:37Z</time>
      </trkpt>
      <trkpt lat="46.08755" lon="4.58156">
        <ele>685</ele>
        <time>2017-02-02T13:36:38Z</time>
      </trkpt>
      <trkpt lat="46.08751" lon="4.58166">
        <ele>688</ele>
        <time>2017-02-02T13:36:44Z</time>
      </trkpt>
      <trkpt lat="46.0875" lon="4.58167">
        <ele>688</ele>
        <time>2017-02-02T13:36:45Z</time>
      </trkpt>
      <trkpt lat="46.08742" lon="4.58173">
        <ele>687</ele>
        <time>2017-02-02T13:36:52Z</time>
      </trkpt>
      <trkpt lat="46.08742" lon="4.58174">
        <ele>687</ele>
        <time>2017-02-02T13:36:53Z</time>
      </trkpt>
      <trkpt lat="46.08735" lon="4.58182">
        <ele>687</ele>
        <time>2017-02-02T13:37:01Z</time>
      </trkpt>
      <trkpt lat="46.08733" lon="4.58183">
        <ele>687</ele>
        <time>2017-02-02T13:37:02Z</time>
      </trkpt>
      <trkpt lat="46.08726" lon="4.58188">
        <ele>687</ele>
        <time>2017-02-02T13:37:09Z</time>
      </trkpt>
      <trkpt lat="46.08725" lon="4.58189">
        <ele>687</ele>
        <time>2017-02-02T13:37:10Z</time>
      </trkpt>
      <trkpt lat="46.08717" lon="4.58194">
        <ele>687</ele>
        <time>2017-02-02T13:37:17Z</time>
      </trkpt>
      <trkpt lat="46.08716" lon="4.58195">
        <ele>687</ele>
        <time>2017-02-02T13:37:18Z</time>
      </trkpt>
      <trkpt lat="46.0871" lon="4.58205">
        <ele>687</ele>
        <time>2017-02-02T13:37:26Z</time>
      </trkpt>
      <trkpt lat="46.0871" lon="4.58206">
        <ele>687</ele>
        <time>2017-02-02T13:37:27Z</time>
      </trkpt>
      <trkpt lat="46.08704" lon="4.58216">
        <ele>688</ele>
        <time>2017-02-02T13:37:38Z</time>
      </trkpt>
      <trkpt lat="46.08703" lon="4.58217">
        <ele>688</ele>
        <time>2017-02-02T13:37:39Z</time>
      </trkpt>
      <trkpt lat="46.087" lon="4.58229">
        <ele>689</ele>
        <time>2017-02-02T13:40:18Z</time>
      </trkpt>
      <trkpt lat="46.087" lon="4.58229">
        <ele>689</ele>
        <time>2017-02-02T13:40:19Z</time>
      </trkpt>
      <trkpt lat="46.08702" lon="4.58241">
        <ele>689</ele>
        <time>2017-02-02T13:43:09Z</time>
      </trkpt>
      <trkpt lat="46.08701" lon="4.58242">
        <ele>689</ele>
        <time>2017-02-02T13:43:10Z</time>
      </trkpt>
      <trkpt lat="46.08701" lon="4.58254">
        <ele>695</ele>
        <time>2017-02-02T13:43:20Z</time>
      </trkpt>
      <trkpt lat="46.08702" lon="4.58255">
        <ele>695</ele>
        <time>2017-02-02T13:43:21Z</time>
      </trkpt>
      <trkpt lat="46.08705" lon="4.58266">
        <ele>695</ele>
        <time>2017-02-02T13:43:28Z</time>
      </trkpt>
      <trkpt lat="46.08706" lon="4.58268">
        <ele>695</ele>
        <time>2017-02-02T13:43:29Z</time>
      </trkpt>
      <trkpt lat="46.0871" lon="4.58279">
        <ele>695</ele>
        <time>2017-02-02T13:43:35Z</time>
      </trkpt>
      <trkpt lat="46.0871" lon="4.58281">
        <ele>695</ele>
        <time>2017-02-02T13:43:36Z</time>
      </trkpt>
      <trkpt lat="46.08713" lon="4.58291">
        <ele>695</ele>
        <time>2017-02-02T13:43:42Z</time>
      </trkpt>
      <trkpt lat="46.08713" lon="4.58293">
        <ele>695</ele>
        <time>2017-02-02T13:43:43Z</time>
      </trkpt>
      <trkpt lat="46.08717" lon="4.58304">
        <ele>695</ele>
        <time>2017-02-02T13:43:50Z</time>
      </trkpt>
      <trkpt lat="46.08717" lon="4.58306">
        <ele>695</ele>
        <time>2017-02-02T13:43:51Z</time>
      </trkpt>
      <trkpt lat="46.0872" lon="4.58318">
        <ele>695</ele>
        <time>2017-02-02T13:43:58Z</time>
      </trkpt>
      <trkpt lat="46.0872" lon="4.5832">
        <ele>695</ele>
        <time>2017-02-02T13:43:59Z</time>
      </trkpt>
      <trkpt lat="46.08724" lon="4.5833">
        <ele>694</ele>
        <time>2017-02-02T13:44:05Z</time>
      </trkpt>
      <trkpt lat="46.08724" lon="4.58332">
        <ele>694</ele>
        <time>2017-02-02T13:44:06Z</time>
      </trkpt>
      <trkpt lat="46.08726" lon="4.58343">
        <ele>698</ele>
        <time>2017-02-02T13:44:13Z</time>
      </trkpt>
      <trkpt lat="46.08726" lon="4.58345">
        <ele>698</ele>
        <time>2017-02-02T13:44:14Z</time>
      </trkpt>
      <trkpt lat="46.08727" lon="4.58357">
        <ele>699</ele>
        <time>2017-02-02T13:44:22Z</time>
      </trkpt>
      <trkpt lat="46.08727" lon="4.58358">
        <ele>699</ele>
        <time>2017-02-02T13:44:23Z</time>
      </trkpt>
      <trkpt lat="46.08728" lon="4.58371">
        <ele>700</ele>
        <time>2017-02-02T13:44:35Z</time>
      </trkpt>
      <trkpt lat="46.08728" lon="4.58372">
        <ele>700</ele>
        <time>2017-02-02T13:44:36Z</time>
      </trkpt>
      <trkpt lat="46.08733" lon="4.58381">
        <ele>700</ele>
        <time>2017-02-02T13:44:43Z</time>
      </trkpt>
      <trkpt lat="46.08733" lon="4.58382">
        <ele>700</ele>
        <time>2017-02-02T13:44:44Z</time>
      </trkpt>
      <trkpt lat="46.08735" lon="4.58395">
        <ele>700</ele>
        <time>2017-02-02T13:44:51Z</time>
      </trkpt>
      <trkpt lat="46.08734" lon="4.58397">
        <ele>700</ele>
        <time>2017-02-02T13:44:52Z</time>
      </trkpt>
      <trkpt lat="46.08736" lon="4.58407">
        <ele>699</ele>
        <time>2017-02-02T13:44:57Z</time>
      </trkpt>
      <trkpt lat="46.08736" lon="4.5841">
        <ele>699</ele>
        <time>2017-02-02T13:44:58Z</time>
      </trkpt>
      <trkpt lat="46.08739" lon="4.58421">
        <ele>698</ele>
        <time>2017-02-02T13:45:04Z</time>
      </trkpt>
      <trkpt lat="46.08739" lon="4.58423">
        <ele>698</ele>
        <time>2017-02-02T13:45:05Z</time>
      </trkpt>
      <trkpt lat="46.08742" lon="4.58433">
        <ele>699</ele>
        <time>2017-02-02T13:45:10Z</time>
      </trkpt>
      <trkpt lat="46.08743" lon="4.58436">
        <ele>699</ele>
        <time>2017-02-02T13:45:11Z</time>
      </trkpt>
      <trkpt lat="46.08748" lon="4.58447">
        <ele>699</ele>
        <time>2017-02-02T13:45:17Z</time>
      </trkpt>
      <trkpt lat="46.08748" lon="4.58448">
        <ele>699</ele>
        <time>2017-02-02T13:45:18Z</time>
      </trkpt>
      <trkpt lat="46.0875" lon="4.58459">
        <ele>699</ele>
        <time>2017-02-02T13:45:23Z</time>
      </trkpt>
      <trkpt lat="46.0875" lon="4.58461">
        <ele>699</ele>
        <time>2017-02-02T13:45:24Z</time>
      </trkpt>
      <trkpt lat="46.08751" lon="4.58473">
        <ele>688</ele>
        <time>2017-02-02T13:45:30Z</time>
      </trkpt>
      <trkpt lat="46.08751" lon="4.58474">
        <ele>688</ele>
        <time>2017-02-02T13:45:31Z</time>
      </trkpt>
      <trkpt lat="46.08755" lon="4.58485">
        <ele>690</ele>
        <time>2017-02-02T13:45:40Z</time>
      </trkpt>
      <trkpt lat="46.08755" lon="4.58487">
        <ele>690</ele>
        <time>2017-02-02T13:45:41Z</time>
      </trkpt>
      <trkpt lat="46.0876" lon="4.58497">
        <ele>691</ele>
        <time>2017-02-02T13:45:48Z</time>
      </trkpt>
      <trkpt lat="46.0876" lon="4.58499">
        <ele>691</ele>
        <time>2017-02-02T13:45:49Z</time>
      </trkpt>
      <trkpt lat="46.08765" lon="4.58509">
        <ele>690</ele>
        <time>2017-02-02T13:45:55Z</time>
      </trkpt>
      <trkpt lat="46.08766" lon="4.58511">
        <ele>690</ele>
        <time>2017-02-02T13:45:56Z</time>
      </trkpt>
      <trkpt lat="46.0877" lon="4.58521">
        <ele>689</ele>
        <time>2017-02-02T13:46:02Z</time>
      </trkpt>
      <trkpt lat="46.08771" lon="4.58522">
        <ele>689</ele>
        <time>2017-02-02T13:46:03Z</time>
      </trkpt>
      <trkpt lat="46.08775" lon="4.58532">
        <ele>688</ele>
        <time>2017-02-02T13:46:09Z</time>
      </trkpt>
      <trkpt lat="46.08776" lon="4.58534">
        <ele>688</ele>
        <time>2017-02-02T13:46:10Z</time>
      </trkpt>
      <trkpt lat="46.08781" lon="4.58543">
        <ele>687</ele>
        <time>2017-02-02T13:46:16Z</time>
      </trkpt>
      <trkpt lat="46.08782" lon="4.58544">
        <ele>687</ele>
        <time>2017-02-02T13:46:17Z</time>
      </trkpt>
      <trkpt lat="46.08789" lon="4.5855">
        <ele>687</ele>
        <time>2017-02-02T13:46:24Z</time>
      </trkpt>
      <trkpt lat="46.08789" lon="4.58551">
        <ele>687</ele>
        <time>2017-02-02T13:46:25Z</time>
      </trkpt>
      <trkpt lat="46.08795" lon="4.58561">
        <ele>686</ele>
        <time>2017-02-02T13:46:33Z</time>
      </trkpt>
      <trkpt lat="46.08795" lon="4.58563">
        <ele>686</ele>
        <time>2017-02-02T13:46:34Z</time>
      </trkpt>
      <trkpt lat="46.08799" lon="4.58573">
        <ele>686</ele>
        <time>2017-02-02T13:46:41Z</time>
      </trkpt>
      <trkpt lat="46.088" lon="4.58574">
        <ele>686</ele>
        <time>2017-02-02T13:46:42Z</time>
      </trkpt>
      <trkpt lat="46.08805" lon="4.58583">
        <ele>685</ele>
        <time>2017-02-02T13:46:48Z</time>
      </trkpt>
      <trkpt lat="46.08806" lon="4.58584">
        <ele>683</ele>
        <time>2017-02-02T13:46:49Z</time>
      </trkpt>
      <trkpt lat="46.08815" lon="4.58587">
        <ele>683</ele>
        <time>2017-02-02T13:47:01Z</time>
      </trkpt>
      <trkpt lat="46.08816" lon="4.58587">
        <ele>683</ele>
        <time>2017-02-02T13:47:02Z</time>
      </trkpt>
      <trkpt lat="46.08824" lon="4.58589">
        <ele>683</ele>
        <time>2017-02-02T13:47:08Z</time>
      </trkpt>
      <trkpt lat="46.08825" lon="4.58589">
        <ele>683</ele>
        <time>2017-02-02T13:47:09Z</time>
      </trkpt>
      <trkpt lat="46.08834" lon="4.58593">
        <ele>681</ele>
        <time>2017-02-02T13:47:15Z</time>
      </trkpt>
      <trkpt lat="46.08835" lon="4.58594">
        <ele>681</ele>
        <time>2017-02-02T13:47:16Z</time>
      </trkpt>
      <trkpt lat="46.08843" lon="4.58597">
        <ele>681</ele>
        <time>2017-02-02T13:47:23Z</time>
      </trkpt>
      <trkpt lat="46.08845" lon="4.58598">
        <ele>680</ele>
        <time>2017-02-02T13:47:24Z</time>
      </trkpt>
      <trkpt lat="46.08852" lon="4.58604">
        <ele>680</ele>
        <time>2017-02-02T13:47:31Z</time>
      </trkpt>
      <trkpt lat="46.08853" lon="4.58605">
        <ele>680</ele>
        <time>2017-02-02T13:47:32Z</time>
      </trkpt>
      <trkpt lat="46.08859" lon="4.58613">
        <ele>679</ele>
        <time>2017-02-02T13:47:39Z</time>
      </trkpt>
      <trkpt lat="46.0886" lon="4.58614">
        <ele>679</ele>
        <time>2017-02-02T13:47:40Z</time>
      </trkpt>
      <trkpt lat="46.08867" lon="4.5862">
        <ele>679</ele>
        <time>2017-02-02T13:47:47Z</time>
      </trkpt>
      <trkpt lat="46.08868" lon="4.58621">
        <ele>679</ele>
        <time>2017-02-02T13:47:48Z</time>
      </trkpt>
      <trkpt lat="46.08874" lon="4.58629">
        <ele>679</ele>
        <time>2017-02-02T13:47:54Z</time>
      </trkpt>
      <trkpt lat="46.08875" lon="4.5863">
        <ele>679</ele>
        <time>2017-02-02T13:47:55Z</time>
      </trkpt>
      <trkpt lat="46.08882" lon="4.58635">
        <ele>678</ele>
        <time>2017-02-02T13:48:00Z</time>
      </trkpt>
      <trkpt lat="46.08884" lon="4.58636">
        <ele>678</ele>
        <time>2017-02-02T13:48:01Z</time>
      </trkpt>
      <trkpt lat="46.08892" lon="4.58639">
        <ele>678</ele>
        <time>2017-02-02T13:48:07Z</time>
      </trkpt>
      <trkpt lat="46.08893" lon="4.58639">
        <ele>678</ele>
        <time>2017-02-02T13:48:08Z</time>
      </trkpt>
      <trkpt lat="46.08902" lon="4.58641">
        <ele>678</ele>
        <time>2017-02-02T13:48:17Z</time>
      </trkpt>
      <trkpt lat="46.08902" lon="4.58641">
        <ele>678</ele>
        <time>2017-02-02T13:48:18Z</time>
      </trkpt>
      <trkpt lat="46.08911" lon="4.58642">
        <ele>678</ele>
        <time>2017-02-02T13:48:26Z</time>
      </trkpt>
      <trkpt lat="46.08912" lon="4.58642">
        <ele>678</ele>
        <time>2017-02-02T13:48:27Z</time>
      </trkpt>
      <trkpt lat="46.0892" lon="4.58647">
        <ele>672</ele>
        <time>2017-02-02T13:48:33Z</time>
      </trkpt>
      <trkpt lat="46.08921" lon="4.58647">
        <ele>672</ele>
        <time>2017-02-02T13:48:34Z</time>
      </trkpt>
      <trkpt lat="46.08929" lon="4.58652">
        <ele>672</ele>
        <time>2017-02-02T13:48:42Z</time>
      </trkpt>
      <trkpt lat="46.0893" lon="4.58652">
        <ele>672</ele>
        <time>2017-02-02T13:48:43Z</time>
      </trkpt>
      <trkpt lat="46.08937" lon="4.58658">
        <ele>671</ele>
        <time>2017-02-02T13:48:50Z</time>
      </trkpt>
      <trkpt lat="46.08938" lon="4.5866">
        <ele>671</ele>
        <time>2017-02-02T13:48:51Z</time>
      </trkpt>
      <trkpt lat="46.08944" lon="4.58668">
        <ele>673</ele>
        <time>2017-02-02T13:48:57Z</time>
      </trkpt>
      <trkpt lat="46.08945" lon="4.58669">
        <ele>673</ele>
        <time>2017-02-02T13:48:58Z</time>
      </trkpt>
      <trkpt lat="46.08951" lon="4.58678">
        <ele>672</ele>
        <time>2017-02-02T13:49:04Z</time>
      </trkpt>
      <trkpt lat="46.08952" lon="4.58679">
        <ele>672</ele>
        <time>2017-02-02T13:49:05Z</time>
      </trkpt>
      <trkpt lat="46.08958" lon="4.58689">
        <ele>671</ele>
        <time>2017-02-02T13:49:11Z</time>
      </trkpt>
      <trkpt lat="46.08959" lon="4.58691">
        <ele>671</ele>
        <time>2017-02-02T13:49:12Z</time>
      </trkpt>
      <trkpt lat="46.08965" lon="4.58697">
        <ele>671</ele>
        <time>2017-02-02T13:49:19Z</time>
      </trkpt>
      <trkpt lat="46.08967" lon="4.58698">
        <ele>671</ele>
        <time>2017-02-02T13:49:20Z</time>
      </trkpt>
      <trkpt lat="46.08973" lon="4.58706">
        <ele>670</ele>
        <time>2017-02-02T13:49:27Z</time>
      </trkpt>
      <trkpt lat="46.08974" lon="4.58707">
        <ele>670</ele>
        <time>2017-02-02T13:49:28Z</time>
      </trkpt>
      <trkpt lat="46.0898" lon="4.58712">
        <ele>670</ele>
        <time>2017-02-02T13:49:34Z</time>
      </trkpt>
      <trkpt lat="46.08982" lon="4.58713">
        <ele>670</ele>
        <time>2017-02-02T13:49:35Z</time>
      </trkpt>
      <trkpt lat="46.08989" lon="4.5872">
        <ele>670</ele>
        <time>2017-02-02T13:49:41Z</time>
      </trkpt>
      <trkpt lat="46.0899" lon="4.58721">
        <ele>670</ele>
        <time>2017-02-02T13:49:42Z</time>
      </trkpt>
      <trkpt lat="46.08997" lon="4.58728">
        <ele>669</ele>
        <time>2017-02-02T13:49:47Z</time>
      </trkpt>
      <trkpt lat="46.08998" lon="4.58729">
        <ele>669</ele>
        <time>2017-02-02T13:49:48Z</time>
      </trkpt>
      <trkpt lat="46.09005" lon="4.58735">
        <ele>664</ele>
        <time>2017-02-02T13:49:53Z</time>
      </trkpt>
      <trkpt lat="46.09006" lon="4.58736">
        <ele>664</ele>
        <time>2017-02-02T13:49:54Z</time>
      </trkpt>
      <trkpt lat="46.09013" lon="4.58744">
        <ele>664</ele>
        <time>2017-02-02T13:50:01Z</time>
      </trkpt>
      <trkpt lat="46.09014" lon="4.58745">
        <ele>664</ele>
        <time>2017-02-02T13:50:02Z</time>
      </trkpt>
      <trkpt lat="46.09022" lon="4.58748">
        <ele>663</ele>
        <time>2017-02-02T13:50:11Z</time>
      </trkpt>
      <trkpt lat="46.09023" lon="4.58749">
        <ele>663</ele>
        <time>2017-02-02T13:50:12Z</time>
      </trkpt>
      <trkpt lat="46.09031" lon="4.58751">
        <ele>661</ele>
        <time>2017-02-02T13:50:20Z</time>
      </trkpt>
      <trkpt lat="46.09032" lon="4.58751">
        <ele>661</ele>
        <time>2017-02-02T13:50:21Z</time>
      </trkpt>
      <trkpt lat="46.0904" lon="4.58749">
        <ele>660</ele>
        <time>2017-02-02T13:50:28Z</time>
      </trkpt>
      <trkpt lat="46.09041" lon="4.58748">
        <ele>660</ele>
        <time>2017-02-02T13:50:29Z</time>
      </trkpt>
      <trkpt lat="46.09049" lon="4.58749">
        <ele>659</ele>
        <time>2017-02-02T13:50:35Z</time>
      </trkpt>
      <trkpt lat="46.09051" lon="4.58749">
        <ele>659</ele>
        <time>2017-02-02T13:50:36Z</time>
      </trkpt>
      <trkpt lat="46.09059" lon="4.58753">
        <ele>658</ele>
        <time>2017-02-02T13:50:43Z</time>
      </trkpt>
      <trkpt lat="46.0906" lon="4.58753">
        <ele>658</ele>
        <time>2017-02-02T13:50:44Z</time>
      </trkpt>
      <trkpt lat="46.09069" lon="4.58754">
        <ele>657</ele>
        <time>2017-02-02T13:50:52Z</time>
      </trkpt>
      <trkpt lat="46.0907" lon="4.58753">
        <ele>657</ele>
        <time>2017-02-02T13:50:53Z</time>
      </trkpt>
      <trkpt lat="46.09078" lon="4.58752">
        <ele>656</ele>
        <time>2017-02-02T13:51:02Z</time>
      </trkpt>
      <trkpt lat="46.09079" lon="4.58752">
        <ele>656</ele>
        <time>2017-02-02T13:51:03Z</time>
      </trkpt>
      <trkpt lat="46.09088" lon="4.58754">
        <ele>654</ele>
        <time>2017-02-02T13:51:11Z</time>
      </trkpt>
      <trkpt lat="46.09089" lon="4.58754">
        <ele>653</ele>
        <time>2017-02-02T13:51:12Z</time>
      </trkpt>
      <trkpt lat="46.09097" lon="4.58753">
        <ele>651</ele>
        <time>2017-02-02T13:51:19Z</time>
      </trkpt>
      <trkpt lat="46.09098" lon="4.58753">
        <ele>651</ele>
        <time>2017-02-02T13:51:20Z</time>
      </trkpt>
      <trkpt lat="46.09107" lon="4.58752">
        <ele>649</ele>
        <time>2017-02-02T13:51:27Z</time>
      </trkpt>
      <trkpt lat="46.09108" lon="4.58752">
        <ele>649</ele>
        <time>2017-02-02T13:51:28Z</time>
      </trkpt>
      <trkpt lat="46.09117" lon="4.58753">
        <ele>647</ele>
        <time>2017-02-02T13:51:36Z</time>
      </trkpt>
      <trkpt lat="46.09118" lon="4.58754">
        <ele>647</ele>
        <time>2017-02-02T13:51:37Z</time>
      </trkpt>
      <trkpt lat="46.09125" lon="4.58757">
        <ele>646</ele>
        <time>2017-02-02T13:51:45Z</time>
      </trkpt>
      <trkpt lat="46.09126" lon="4.58757">
        <ele>646</ele>
        <time>2017-02-02T13:51:46Z</time>
      </trkpt>
      <trkpt lat="46.09134" lon="4.5876">
        <ele>645</ele>
        <time>2017-02-02T13:51:54Z</time>
      </trkpt>
      <trkpt lat="46.09135" lon="4.58761">
        <ele>645</ele>
        <time>2017-02-02T13:51:55Z</time>
      </trkpt>
      <trkpt lat="46.09144" lon="4.58763">
        <ele>644</ele>
        <time>2017-02-02T13:52:03Z</time>
      </trkpt>
      <trkpt lat="46.09145" lon="4.58762">
        <ele>644</ele>
        <time>2017-02-02T13:52:04Z</time>
      </trkpt>
      <trkpt lat="46.09153" lon="4.58764">
        <ele>644</ele>
        <time>2017-02-02T13:52:15Z</time>
      </trkpt>
      <trkpt lat="46.09154" lon="4.58764">
        <ele>643</ele>
        <time>2017-02-02T13:52:16Z</time>
      </trkpt>
      <trkpt lat="46.09162" lon="4.58764">
        <ele>643</ele>
        <time>2017-02-02T13:52:25Z</time>
      </trkpt>
      <trkpt lat="46.09163" lon="4.58764">
        <ele>643</ele>
        <time>2017-02-02T13:52:26Z</time>
      </trkpt>
      <trkpt lat="46.09171" lon="4.58766">
        <ele>636</ele>
        <time>2017-02-02T13:52:34Z</time>
      </trkpt>
      <trkpt lat="46.09172" lon="4.58767">
        <ele>635</ele>
        <time>2017-02-02T13:52:35Z</time>
      </trkpt>
      <trkpt lat="46.09181" lon="4.58769">
        <ele>634</ele>
        <time>2017-02-02T13:52:44Z</time>
      </trkpt>
      <trkpt lat="46.09182" lon="4.58769">
        <ele>634</ele>
        <time>2017-02-02T13:52:45Z</time>
      </trkpt>
      <trkpt lat="46.0919" lon="4.58772">
        <ele>632</ele>
        <time>2017-02-02T13:52:55Z</time>
      </trkpt>
      <trkpt lat="46.0919" lon="4.58772">
        <ele>632</ele>
        <time>2017-02-02T13:52:56Z</time>
      </trkpt>
      <trkpt lat="46.09199" lon="4.58775">
        <ele>630</ele>
        <time>2017-02-02T13:53:09Z</time>
      </trkpt>
      <trkpt lat="46.092" lon="4.58775">
        <ele>630</ele>
        <time>2017-02-02T13:53:10Z</time>
      </trkpt>
      <trkpt lat="46.09208" lon="4.58776">
        <ele>629</ele>
        <time>2017-02-02T13:53:19Z</time>
      </trkpt>
      <trkpt lat="46.09209" lon="4.58776">
        <ele>629</ele>
        <time>2017-02-02T13:53:20Z</time>
      </trkpt>
      <trkpt lat="46.09218" lon="4.58777">
        <ele>628</ele>
        <time>2017-02-02T13:53:28Z</time>
      </trkpt>
      <trkpt lat="46.09219" lon="4.58777">
        <ele>628</ele>
        <time>2017-02-02T13:53:29Z</time>
      </trkpt>
      <trkpt lat="46.09226" lon="4.58778">
        <ele>627</ele>
        <time>2017-02-02T13:53:36Z</time>
      </trkpt>
      <trkpt lat="46.09228" lon="4.58778">
        <ele>627</ele>
        <time>2017-02-02T13:53:37Z</time>
      </trkpt>
      <trkpt lat="46.09236" lon="4.58781">
        <ele>626</ele>
        <time>2017-02-02T13:53:45Z</time>
      </trkpt>
      <trkpt lat="46.09237" lon="4.58781">
        <ele>626</ele>
        <time>2017-02-02T13:53:46Z</time>
      </trkpt>
      <trkpt lat="46.09246" lon="4.58783">
        <ele>625</ele>
        <time>2017-02-02T13:53:53Z</time>
      </trkpt>
      <trkpt lat="46.09247" lon="4.58783">
        <ele>625</ele>
        <time>2017-02-02T13:53:54Z</time>
      </trkpt>
      <trkpt lat="46.09255" lon="4.58786">
        <ele>616</ele>
        <time>2017-02-02T13:54:01Z</time>
      </trkpt>
      <trkpt lat="46.09257" lon="4.58786">
        <ele>616</ele>
        <time>2017-02-02T13:54:02Z</time>
      </trkpt>
      <trkpt lat="46.09265" lon="4.58788">
        <ele>615</ele>
        <time>2017-02-02T13:54:09Z</time>
      </trkpt>
      <trkpt lat="46.09266" lon="4.58789">
        <ele>615</ele>
        <time>2017-02-02T13:54:10Z</time>
      </trkpt>
      <trkpt lat="46.09274" lon="4.58791">
        <ele>615</ele>
        <time>2017-02-02T13:54:17Z</time>
      </trkpt>
      <trkpt lat="46.09275" lon="4.58791">
        <ele>615</ele>
        <time>2017-02-02T13:54:18Z</time>
      </trkpt>
      <trkpt lat="46.09284" lon="4.58791">
        <ele>614</ele>
        <time>2017-02-02T13:54:26Z</time>
      </trkpt>
      <trkpt lat="46.09285" lon="4.58791">
        <ele>614</ele>
        <time>2017-02-02T13:54:27Z</time>
      </trkpt>
      <trkpt lat="46.09293" lon="4.58793">
        <ele>614</ele>
        <time>2017-02-02T13:54:35Z</time>
      </trkpt>
      <trkpt lat="46.09294" lon="4.58793">
        <ele>614</ele>
        <time>2017-02-02T13:54:36Z</time>
      </trkpt>
      <trkpt lat="46.09303" lon="4.58793">
        <ele>613</ele>
        <time>2017-02-02T13:54:43Z</time>
      </trkpt>
      <trkpt lat="46.09304" lon="4.58793">
        <ele>613</ele>
        <time>2017-02-02T13:54:44Z</time>
      </trkpt>
      <trkpt lat="46.09313" lon="4.58793">
        <ele>613</ele>
        <time>2017-02-02T13:54:51Z</time>
      </trkpt>
      <trkpt lat="46.09315" lon="4.58793">
        <ele>613</ele>
        <time>2017-02-02T13:54:52Z</time>
      </trkpt>
      <trkpt lat="46.09322" lon="4.58794">
        <ele>612</ele>
        <time>2017-02-02T13:54:58Z</time>
      </trkpt>
      <trkpt lat="46.09324" lon="4.58795">
        <ele>612</ele>
        <time>2017-02-02T13:54:59Z</time>
      </trkpt>
      <trkpt lat="46.09331" lon="4.58796">
        <ele>612</ele>
        <time>2017-02-02T13:55:05Z</time>
      </trkpt>
      <trkpt lat="46.09333" lon="4.58796">
        <ele>612</ele>
        <time>2017-02-02T13:55:06Z</time>
      </trkpt>
      <trkpt lat="46.09341" lon="4.58797">
        <ele>607</ele>
        <time>2017-02-02T13:55:13Z</time>
      </trkpt>
      <trkpt lat="46.09343" lon="4.58798">
        <ele>607</ele>
        <time>2017-02-02T13:55:14Z</time>
      </trkpt>
      <trkpt lat="46.09352" lon="4.58798">
        <ele>607</ele>
        <time>2017-02-02T13:55:21Z</time>
      </trkpt>
      <trkpt lat="46.09353" lon="4.58799">
        <ele>607</ele>
        <time>2017-02-02T13:55:22Z</time>
      </trkpt>
      <trkpt lat="46.09361" lon="4.588">
        <ele>607</ele>
        <time>2017-02-02T13:55:28Z</time>
      </trkpt>
      <trkpt lat="46.09362" lon="4.58801">
        <ele>607</ele>
        <time>2017-02-02T13:55:29Z</time>
      </trkpt>
      <trkpt lat="46.0937" lon="4.58804">
        <ele>607</ele>
        <time>2017-02-02T13:55:35Z</time>
      </trkpt>
      <trkpt lat="46.09371" lon="4.58806">
        <ele>606</ele>
        <time>2017-02-02T13:55:36Z</time>
      </trkpt>
      <trkpt lat="46.09378" lon="4.58815">
        <ele>606</ele>
        <time>2017-02-02T13:55:42Z</time>
      </trkpt>
      <trkpt lat="46.09378" lon="4.58816">
        <ele>606</ele>
        <time>2017-02-02T13:55:43Z</time>
      </trkpt>
      <trkpt lat="46.09384" lon="4.58825">
        <ele>606</ele>
        <time>2017-02-02T13:55:48Z</time>
      </trkpt>
      <trkpt lat="46.09385" lon="4.58826">
        <ele>606</ele>
        <time>2017-02-02T13:55:49Z</time>
      </trkpt>
      <trkpt lat="46.09392" lon="4.58833">
        <ele>606</ele>
        <time>2017-02-02T13:55:55Z</time>
      </trkpt>
      <trkpt lat="46.09393" lon="4.58834">
        <ele>603</ele>
        <time>2017-02-02T13:55:56Z</time>
      </trkpt>
      <trkpt lat="46.09401" lon="4.5884">
        <ele>603</ele>
        <time>2017-02-02T13:56:02Z</time>
      </trkpt>
      <trkpt lat="46.09402" lon="4.58841">
        <ele>603</ele>
        <time>2017-02-02T13:56:03Z</time>
      </trkpt>
      <trkpt lat="46.09409" lon="4.58846">
        <ele>603</ele>
        <time>2017-02-02T13:56:09Z</time>
      </trkpt>
      <trkpt lat="46.0941" lon="4.58847">
        <ele>603</ele>
        <time>2017-02-02T13:56:10Z</time>
      </trkpt>
      <trkpt lat="46.09417" lon="4.58852">
        <ele>601</ele>
        <time>2017-02-02T13:56:17Z</time>
      </trkpt>
      <trkpt lat="46.09419" lon="4.58853">
        <ele>601</ele>
        <time>2017-02-02T13:56:18Z</time>
      </trkpt>
      <trkpt lat="46.09426" lon="4.58859">
        <ele>600</ele>
        <time>2017-02-02T13:56:26Z</time>
      </trkpt>
      <trkpt lat="46.09426" lon="4.58861">
        <ele>600</ele>
        <time>2017-02-02T13:56:27Z</time>
      </trkpt>
      <trkpt lat="46.09432" lon="4.5887">
        <ele>599</ele>
        <time>2017-02-02T13:56:33Z</time>
      </trkpt>
      <trkpt lat="46.09434" lon="4.58871">
        <ele>599</ele>
        <time>2017-02-02T13:56:34Z</time>
      </trkpt>
      <trkpt lat="46.0944" lon="4.58879">
        <ele>599</ele>
        <time>2017-02-02T13:56:40Z</time>
      </trkpt>
      <trkpt lat="46.09441" lon="4.5888">
        <ele>599</ele>
        <time>2017-02-02T13:56:41Z</time>
      </trkpt>
      <trkpt lat="46.09447" lon="4.58887">
        <ele>598</ele>
        <time>2017-02-02T13:56:48Z</time>
      </trkpt>
      <trkpt lat="46.09448" lon="4.58888">
        <ele>598</ele>
        <time>2017-02-02T13:56:49Z</time>
      </trkpt>
      <trkpt lat="46.09454" lon="4.58897">
        <ele>598</ele>
        <time>2017-02-02T13:56:56Z</time>
      </trkpt>
      <trkpt lat="46.09455" lon="4.58897">
        <ele>598</ele>
        <time>2017-02-02T13:56:57Z</time>
      </trkpt>
      <trkpt lat="46.09462" lon="4.58903">
        <ele>598</ele>
        <time>2017-02-02T13:57:04Z</time>
      </trkpt>
      <trkpt lat="46.09463" lon="4.58904">
        <ele>598</ele>
        <time>2017-02-02T13:57:05Z</time>
      </trkpt>
      <trkpt lat="46.09471" lon="4.58906">
        <ele>598</ele>
        <time>2017-02-02T13:57:13Z</time>
      </trkpt>
      <trkpt lat="46.09472" lon="4.58906">
        <ele>598</ele>
        <time>2017-02-02T13:57:14Z</time>
      </trkpt>
      <trkpt lat="46.09479" lon="4.58911">
        <ele>598</ele>
        <time>2017-02-02T13:57:22Z</time>
      </trkpt>
      <trkpt lat="46.09481" lon="4.58912">
        <ele>598</ele>
        <time>2017-02-02T13:57:23Z</time>
      </trkpt>
      <trkpt lat="46.09487" lon="4.58918">
        <ele>595</ele>
        <time>2017-02-02T13:57:28Z</time>
      </trkpt>
      <trkpt lat="46.09488" lon="4.58919">
        <ele>596</ele>
        <time>2017-02-02T13:57:29Z</time>
      </trkpt>
      <trkpt lat="46.09496" lon="4.58922">
        <ele>596</ele>
        <time>2017-02-02T13:57:36Z</time>
      </trkpt>
      <trkpt lat="46.09498" lon="4.58922">
        <ele>597</ele>
        <time>2017-02-02T13:57:37Z</time>
      </trkpt>
      <trkpt lat="46.09505" lon="4.58924">
        <ele>595</ele>
        <time>2017-02-02T13:57:43Z</time>
      </trkpt>
      <trkpt lat="46.09507" lon="4.58924">
        <ele>595</ele>
        <time>2017-02-02T13:57:44Z</time>
      </trkpt>
      <trkpt lat="46.09515" lon="4.58925">
        <ele>594</ele>
        <time>2017-02-02T13:57:51Z</time>
      </trkpt>
      <trkpt lat="46.09516" lon="4.58925">
        <ele>594</ele>
        <time>2017-02-02T13:57:52Z</time>
      </trkpt>
      <trkpt lat="46.09523" lon="4.58929">
        <ele>592</ele>
        <time>2017-02-02T13:57:58Z</time>
      </trkpt>
      <trkpt lat="46.09524" lon="4.5893">
        <ele>592</ele>
        <time>2017-02-02T13:57:59Z</time>
      </trkpt>
      <trkpt lat="46.09532" lon="4.58936">
        <ele>591</ele>
        <time>2017-02-02T13:58:06Z</time>
      </trkpt>
      <trkpt lat="46.09533" lon="4.58937">
        <ele>591</ele>
        <time>2017-02-02T13:58:07Z</time>
      </trkpt>
      <trkpt lat="46.0954" lon="4.58939">
        <ele>590</ele>
        <time>2017-02-02T13:58:14Z</time>
      </trkpt>
      <trkpt lat="46.09541" lon="4.5894">
        <ele>590</ele>
        <time>2017-02-02T13:58:15Z</time>
      </trkpt>
      <trkpt lat="46.0955" lon="4.58941">
        <ele>590</ele>
        <time>2017-02-02T13:58:22Z</time>
      </trkpt>
      <trkpt lat="46.09551" lon="4.58941">
        <ele>590</ele>
        <time>2017-02-02T13:58:23Z</time>
      </trkpt>
      <trkpt lat="46.09559" lon="4.58943">
        <ele>589</ele>
        <time>2017-02-02T13:58:30Z</time>
      </trkpt>
      <trkpt lat="46.0956" lon="4.58943">
        <ele>589</ele>
        <time>2017-02-02T13:58:31Z</time>
      </trkpt>
      <trkpt lat="46.09569" lon="4.58945">
        <ele>589</ele>
        <time>2017-02-02T13:58:39Z</time>
      </trkpt>
      <trkpt lat="46.0957" lon="4.58945">
        <ele>589</ele>
        <time>2017-02-02T13:58:40Z</time>
      </trkpt>
      <trkpt lat="46.09578" lon="4.58945">
        <ele>589</ele>
        <time>2017-02-02T13:58:47Z</time>
      </trkpt>
      <trkpt lat="46.09579" lon="4.58945">
        <ele>589</ele>
        <time>2017-02-02T13:58:48Z</time>
      </trkpt>
      <trkpt lat="46.09587" lon="4.5895">
        <ele>584</ele>
        <time>2017-02-02T13:58:55Z</time>
      </trkpt>
      <trkpt lat="46.09588" lon="4.58951">
        <ele>584</ele>
        <time>2017-02-02T13:58:56Z</time>
      </trkpt>
      <trkpt lat="46.09597" lon="4.58954">
        <ele>584</ele>
        <time>2017-02-02T13:59:04Z</time>
      </trkpt>
      <trkpt lat="46.09598" lon="4.58955">
        <ele>584</ele>
        <time>2017-02-02T13:59:05Z</time>
      </trkpt>
      <trkpt lat="46.09606" lon="4.5896">
        <ele>584</ele>
        <time>2017-02-02T13:59:13Z</time>
      </trkpt>
      <trkpt lat="46.09608" lon="4.5896">
        <ele>584</ele>
        <time>2017-02-02T13:59:14Z</time>
      </trkpt>
      <trkpt lat="46.09616" lon="4.5896">
        <ele>583</ele>
        <time>2017-02-02T13:59:20Z</time>
      </trkpt>
      <trkpt lat="46.09617" lon="4.58959">
        <ele>583</ele>
        <time>2017-02-02T13:59:21Z</time>
      </trkpt>
      <trkpt lat="46.09625" lon="4.58959">
        <ele>583</ele>
        <time>2017-02-02T13:59:27Z</time>
      </trkpt>
      <trkpt lat="46.09626" lon="4.58959">
        <ele>583</ele>
        <time>2017-02-02T13:59:28Z</time>
      </trkpt>
      <trkpt lat="46.09635" lon="4.5896">
        <ele>583</ele>
        <time>2017-02-02T13:59:35Z</time>
      </trkpt>
      <trkpt lat="46.09636" lon="4.58961">
        <ele>583</ele>
        <time>2017-02-02T13:59:36Z</time>
      </trkpt>
      <trkpt lat="46.09645" lon="4.58964">
        <ele>582</ele>
        <time>2017-02-02T13:59:44Z</time>
      </trkpt>
      <trkpt lat="46.09646" lon="4.58964">
        <ele>582</ele>
        <time>2017-02-02T13:59:45Z</time>
      </trkpt>
      <trkpt lat="46.09654" lon="4.58967">
        <ele>582</ele>
        <time>2017-02-02T13:59:52Z</time>
      </trkpt>
      <trkpt lat="46.09655" lon="4.58967">
        <ele>582</ele>
        <time>2017-02-02T13:59:53Z</time>
      </trkpt>
      <trkpt lat="46.09663" lon="4.58972">
        <ele>582</ele>
        <time>2017-02-02T13:59:59Z</time>
      </trkpt>
      <trkpt lat="46.09664" lon="4.58972">
        <ele>582</ele>
        <time>2017-02-02T14:00:00Z</time>
      </trkpt>
      <trkpt lat="46.09671" lon="4.58976">
        <ele>578</ele>
        <time>2017-02-02T14:00:06Z</time>
      </trkpt>
      <trkpt lat="46.09673" lon="4.58977">
        <ele>578</ele>
        <time>2017-02-02T14:00:07Z</time>
      </trkpt>
      <trkpt lat="46.0968" lon="4.58983">
        <ele>578</ele>
        <time>2017-02-02T14:00:13Z</time>
      </trkpt>
      <trkpt lat="46.09681" lon="4.58983">
        <ele>578</ele>
        <time>2017-02-02T14:00:14Z</time>
      </trkpt>
      <trkpt lat="46.09689" lon="4.58989">
        <ele>578</ele>
        <time>2017-02-02T14:00:21Z</time>
      </trkpt>
      <trkpt lat="46.0969" lon="4.5899">
        <ele>578</ele>
        <time>2017-02-02T14:00:22Z</time>
      </trkpt>
      <trkpt lat="46.09696" lon="4.58998">
        <ele>577</ele>
        <time>2017-02-02T14:00:29Z</time>
      </trkpt>
      <trkpt lat="46.09697" lon="4.58999">
        <ele>577</ele>
        <time>2017-02-02T14:00:30Z</time>
      </trkpt>
      <trkpt lat="46.09704" lon="4.59006">
        <ele>576</ele>
        <time>2017-02-02T14:00:37Z</time>
      </trkpt>
      <trkpt lat="46.09705" lon="4.59007">
        <ele>576</ele>
        <time>2017-02-02T14:00:38Z</time>
      </trkpt>
      <trkpt lat="46.09712" lon="4.59014">
        <ele>576</ele>
        <time>2017-02-02T14:00:46Z</time>
      </trkpt>
      <trkpt lat="46.09713" lon="4.59015">
        <ele>576</ele>
        <time>2017-02-02T14:00:47Z</time>
      </trkpt>
      <trkpt lat="46.09719" lon="4.59024">
        <ele>575</ele>
        <time>2017-02-02T14:00:55Z</time>
      </trkpt>
      <trkpt lat="46.09719" lon="4.59025">
        <ele>575</ele>
        <time>2017-02-02T14:00:56Z</time>
      </trkpt>
      <trkpt lat="46.09727" lon="4.59032">
        <ele>575</ele>
        <time>2017-02-02T14:01:07Z</time>
      </trkpt>
      <trkpt lat="46.09727" lon="4.59032">
        <ele>575</ele>
        <time>2017-02-02T14:01:08Z</time>
      </trkpt>
      <trkpt lat="46.09734" lon="4.59039">
        <ele>575</ele>
        <time>2017-02-02T14:01:19Z</time>
      </trkpt>
      <trkpt lat="46.09734" lon="4.5904">
        <ele>575</ele>
        <time>2017-02-02T14:01:20Z</time>
      </trkpt>
      <trkpt lat="46.09742" lon="4.59047">
        <ele>575</ele>
        <time>2017-02-02T14:01:32Z</time>
      </trkpt>
      <trkpt lat="46.09742" lon="4.59047">
        <ele>575</ele>
        <time>2017-02-02T14:01:33Z</time>
      </trkpt>
      <trkpt lat="46.09748" lon="4.59056">
        <ele>575</ele>
        <time>2017-02-02T14:01:41Z</time>
      </trkpt>
      <trkpt lat="46.09749" lon="4.59058">
        <ele>575</ele>
        <time>2017-02-02T14:01:42Z</time>
      </trkpt>
      <trkpt lat="46.09755" lon="4.59067">
        <ele>572</ele>
        <time>2017-02-02T14:01:49Z</time>
      </trkpt>
      <trkpt lat="46.09756" lon="4.59068">
        <ele>572</ele>
        <time>2017-02-02T14:01:50Z</time>
      </trkpt>
      <trkpt lat="46.09761" lon="4.59078">
        <ele>572</ele>
        <time>2017-02-02T14:01:56Z</time>
      </trkpt>
      <trkpt lat="46.09762" lon="4.59079">
        <ele>572</ele>
        <time>2017-02-02T14:01:57Z</time>
      </trkpt>
      <trkpt lat="46.09769" lon="4.59086">
        <ele>572</ele>
        <time>2017-02-02T14:02:03Z</time>
      </trkpt>
      <trkpt lat="46.0977" lon="4.59087">
        <ele>572</ele>
        <time>2017-02-02T14:02:04Z</time>
      </trkpt>
      <trkpt lat="46.09776" lon="4.59094">
        <ele>572</ele>
        <time>2017-02-02T14:02:10Z</time>
      </trkpt>
      <trkpt lat="46.09777" lon="4.59095">
        <ele>572</ele>
        <time>2017-02-02T14:02:11Z</time>
      </trkpt>
      <trkpt lat="46.09781" lon="4.59104">
        <ele>571</ele>
        <time>2017-02-02T14:02:16Z</time>
      </trkpt>
      <trkpt lat="46.09782" lon="4.59107">
        <ele>571</ele>
        <time>2017-02-02T14:02:17Z</time>
      </trkpt>
      <trkpt lat="46.09787" lon="4.59115">
        <ele>571</ele>
        <time>2017-02-02T14:02:22Z</time>
      </trkpt>
      <trkpt lat="46.09788" lon="4.59116">
        <ele>571</ele>
        <time>2017-02-02T14:02:23Z</time>
      </trkpt>
      <trkpt lat="46.09794" lon="4.59123">
        <ele>571</ele>
        <time>2017-02-02T14:02:30Z</time>
      </trkpt>
      <trkpt lat="46.09795" lon="4.59124">
        <ele>571</ele>
        <time>2017-02-02T14:02:31Z</time>
      </trkpt>
      <trkpt lat="46.09802" lon="4.59131">
        <ele>571</ele>
        <time>2017-02-02T14:02:40Z</time>
      </trkpt>
      <trkpt lat="46.09802" lon="4.59132">
        <ele>571</ele>
        <time>2017-02-02T14:02:41Z</time>
      </trkpt>
      <trkpt lat="46.09809" lon="4.59139">
        <ele>572</ele>
        <time>2017-02-02T14:02:50Z</time>
      </trkpt>
      <trkpt lat="46.0981" lon="4.5914">
        <ele>572</ele>
        <time>2017-02-02T14:02:51Z</time>
      </trkpt>
      <trkpt lat="46.09817" lon="4.59146">
        <ele>573</ele>
        <time>2017-02-02T14:02:57Z</time>
      </trkpt>
      <trkpt lat="46.09818" lon="4.59148">
        <ele>573</ele>
        <time>2017-02-02T14:02:58Z</time>
      </trkpt>
      <trkpt lat="46.09825" lon="4.59156">
        <ele>574</ele>
        <time>2017-02-02T14:03:06Z</time>
      </trkpt>
      <trkpt lat="46.09825" lon="4.59158">
        <ele>574</ele>
        <time>2017-02-02T14:03:07Z</time>
      </trkpt>
      <trkpt lat="46.09832" lon="4.59165">
        <ele>577</ele>
        <time>2017-02-02T14:03:15Z</time>
      </trkpt>
      <trkpt lat="46.09833" lon="4.59166">
        <ele>577</ele>
        <time>2017-02-02T14:03:16Z</time>
      </trkpt>
      <trkpt lat="46.0984" lon="4.59174">
        <ele>575</ele>
        <time>2017-02-02T14:03:23Z</time>
      </trkpt>
      <trkpt lat="46.0984" lon="4.59175">
        <ele>575</ele>
        <time>2017-02-02T14:03:24Z</time>
      </trkpt>
      <trkpt lat="46.09847" lon="4.59183">
        <ele>574</ele>
        <time>2017-02-02T14:03:31Z</time>
      </trkpt>
      <trkpt lat="46.09848" lon="4.59184">
        <ele>573</ele>
        <time>2017-02-02T14:03:32Z</time>
      </trkpt>
      <trkpt lat="46.09856" lon="4.5919">
        <ele>573</ele>
        <time>2017-02-02T14:03:38Z</time>
      </trkpt>
      <trkpt lat="46.09857" lon="4.59191">
        <ele>572</ele>
        <time>2017-02-02T14:03:39Z</time>
      </trkpt>
      <trkpt lat="46.09864" lon="4.59198">
        <ele>572</ele>
        <time>2017-02-02T14:03:45Z</time>
      </trkpt>
      <trkpt lat="46.09865" lon="4.59198">
        <ele>572</ele>
        <time>2017-02-02T14:03:46Z</time>
      </trkpt>
      <trkpt lat="46.09873" lon="4.59202">
        <ele>571</ele>
        <time>2017-02-02T14:03:55Z</time>
      </trkpt>
      <trkpt lat="46.09874" lon="4.59203">
        <ele>571</ele>
        <time>2017-02-02T14:03:56Z</time>
      </trkpt>
      <trkpt lat="46.09882" lon="4.59205">
        <ele>571</ele>
        <time>2017-02-02T14:04:02Z</time>
      </trkpt>
      <trkpt lat="46.09883" lon="4.59205">
        <ele>571</ele>
        <time>2017-02-02T14:04:03Z</time>
      </trkpt>
      <trkpt lat="46.09891" lon="4.59207">
        <ele>571</ele>
        <time>2017-02-02T14:04:13Z</time>
      </trkpt>
      <trkpt lat="46.09892" lon="4.59208">
        <ele>571</ele>
        <time>2017-02-02T14:04:14Z</time>
      </trkpt>
      <trkpt lat="46.099" lon="4.59211">
        <ele>571</ele>
        <time>2017-02-02T14:04:21Z</time>
      </trkpt>
      <trkpt lat="46.09901" lon="4.59211">
        <ele>570</ele>
        <time>2017-02-02T14:04:22Z</time>
      </trkpt>
      <trkpt lat="46.09909" lon="4.59213">
        <ele>570</ele>
        <time>2017-02-02T14:04:29Z</time>
      </trkpt>
      <trkpt lat="46.09911" lon="4.59213">
        <ele>570</ele>
        <time>2017-02-02T14:04:30Z</time>
      </trkpt>
      <trkpt lat="46.09919" lon="4.59215">
        <ele>567</ele>
        <time>2017-02-02T14:04:37Z</time>
      </trkpt>
      <trkpt lat="46.0992" lon="4.59216">
        <ele>567</ele>
        <time>2017-02-02T14:04:38Z</time>
      </trkpt>
      <trkpt lat="46.09928" lon="4.59217">
        <ele>567</ele>
        <time>2017-02-02T14:04:45Z</time>
      </trkpt>
      <trkpt lat="46.09929" lon="4.59217">
        <ele>567</ele>
        <time>2017-02-02T14:04:46Z</time>
      </trkpt>
      <trkpt lat="46.09938" lon="4.59219">
        <ele>566</ele>
        <time>2017-02-02T14:04:56Z</time>
      </trkpt>
      <trkpt lat="46.09939" lon="4.59219">
        <ele>566</ele>
        <time>2017-02-02T14:04:57Z</time>
      </trkpt>
      <trkpt lat="46.09947" lon="4.5922">
        <ele>566</ele>
        <time>2017-02-02T14:05:05Z</time>
      </trkpt>
      <trkpt lat="46.09948" lon="4.5922">
        <ele>566</ele>
        <time>2017-02-02T14:05:06Z</time>
      </trkpt>
      <trkpt lat="46.09957" lon="4.59221">
        <ele>566</ele>
        <time>2017-02-02T14:05:13Z</time>
      </trkpt>
      <trkpt lat="46.09958" lon="4.59221">
        <ele>566</ele>
        <time>2017-02-02T14:05:14Z</time>
      </trkpt>
      <trkpt lat="46.09966" lon="4.59217">
        <ele>565</ele>
        <time>2017-02-02T14:05:22Z</time>
      </trkpt>
      <trkpt lat="46.09967" lon="4.59217">
        <ele>565</ele>
        <time>2017-02-02T14:05:23Z</time>
      </trkpt>
      <trkpt lat="46.09976" lon="4.59215">
        <ele>565</ele>
        <time>2017-02-02T14:05:31Z</time>
      </trkpt>
      <trkpt lat="46.09977" lon="4.59215">
        <ele>565</ele>
        <time>2017-02-02T14:05:32Z</time>
      </trkpt>
      <trkpt lat="46.09985" lon="4.59214">
        <ele>565</ele>
        <time>2017-02-02T14:05:39Z</time>
      </trkpt>
      <trkpt lat="46.09986" lon="4.59214">
        <ele>565</ele>
        <time>2017-02-02T14:05:40Z</time>
      </trkpt>
      <trkpt lat="46.09995" lon="4.59214">
        <ele>565</ele>
        <time>2017-02-02T14:05:47Z</time>
      </trkpt>
      <trkpt lat="46.09996" lon="4.59214">
        <ele>565</ele>
        <time>2017-02-02T14:05:48Z</time>
      </trkpt>
      <trkpt lat="46.10004" lon="4.59214">
        <ele>563</ele>
        <time>2017-02-02T14:05:55Z</time>
      </trkpt>
      <trkpt lat="46.10006" lon="4.59214">
        <ele>563</ele>
        <time>2017-02-02T14:05:56Z</time>
      </trkpt>
      <trkpt lat="46.10014" lon="4.59215">
        <ele>563</ele>
        <time>2017-02-02T14:06:03Z</time>
      </trkpt>
      <trkpt lat="46.10015" lon="4.59215">
        <ele>563</ele>
        <time>2017-02-02T14:06:04Z</time>
      </trkpt>
      <trkpt lat="46.10024" lon="4.59214">
        <ele>563</ele>
        <time>2017-02-02T14:06:11Z</time>
      </trkpt>
      <trkpt lat="46.10025" lon="4.59214">
        <ele>563</ele>
        <time>2017-02-02T14:06:12Z</time>
      </trkpt>
      <trkpt lat="46.10033" lon="4.59215">
        <ele>563</ele>
        <time>2017-02-02T14:06:18Z</time>
      </trkpt>
      <trkpt lat="46.10034" lon="4.59215">
        <ele>563</ele>
        <time>2017-02-02T14:06:19Z</time>
      </trkpt>
      <trkpt lat="46.10042" lon="4.59217">
        <ele>563</ele>
        <time>2017-02-02T14:06:29Z</time>
      </trkpt>
      <trkpt lat="46.10043" lon="4.59218">
        <ele>563</ele>
        <time>2017-02-02T14:06:30Z</time>
      </trkpt>
      <trkpt lat="46.10051" lon="4.59223">
        <ele>563</ele>
        <time>2017-02-02T14:06:37Z</time>
      </trkpt>
      <trkpt lat="46.10052" lon="4.59224">
        <ele>563</ele>
        <time>2017-02-02T14:06:38Z</time>
      </trkpt>
      <trkpt lat="46.1006" lon="4.59226">
        <ele>563</ele>
        <time>2017-02-02T14:06:45Z</time>
      </trkpt>
      <trkpt lat="46.10061" lon="4.59226">
        <ele>563</ele>
        <time>2017-02-02T14:06:46Z</time>
      </trkpt>
      <trkpt lat="46.10069" lon="4.59227">
        <ele>563</ele>
        <time>2017-02-02T14:06:53Z</time>
      </trkpt>
      <trkpt lat="46.1007" lon="4.59227">
        <ele>563</ele>
        <time>2017-02-02T14:06:54Z</time>
      </trkpt>
      <trkpt lat="46.10079" lon="4.59229">
        <ele>563</ele>
        <time>2017-02-02T14:07:01Z</time>
      </trkpt>
      <trkpt lat="46.1008" lon="4.5923">
        <ele>563</ele>
        <time>2017-02-02T14:07:02Z</time>
      </trkpt>
      <trkpt lat="46.10088" lon="4.5923">
        <ele>564</ele>
        <time>2017-02-02T14:07:09Z</time>
      </trkpt>
      <trkpt lat="46.10089" lon="4.5923">
        <ele>564</ele>
        <time>2017-02-02T14:07:10Z</time>
      </trkpt>
      <trkpt lat="46.10098" lon="4.59231">
        <ele>564</ele>
        <time>2017-02-02T14:07:18Z</time>
      </trkpt>
      <trkpt lat="46.10099" lon="4.59231">
        <ele>564</ele>
        <time>2017-02-02T14:07:19Z</time>
      </trkpt>
      <trkpt lat="46.10108" lon="4.59232">
        <ele>564</ele>
        <time>2017-02-02T14:07:29Z</time>
      </trkpt>
      <trkpt lat="46.10109" lon="4.59232">
        <ele>564</ele>
        <time>2017-02-02T14:07:30Z</time>
      </trkpt>
      <trkpt lat="46.10117" lon="4.59236">
        <ele>565</ele>
        <time>2017-02-02T14:07:38Z</time>
      </trkpt>
      <trkpt lat="46.10118" lon="4.59236">
        <ele>565</ele>
        <time>2017-02-02T14:07:39Z</time>
      </trkpt>
      <trkpt lat="46.10126" lon="4.5924">
        <ele>565</ele>
        <time>2017-02-02T14:07:49Z</time>
      </trkpt>
      <trkpt lat="46.10127" lon="4.59241">
        <ele>565</ele>
        <time>2017-02-02T14:07:50Z</time>
      </trkpt>
      <trkpt lat="46.10134" lon="4.59245">
        <ele>565</ele>
        <time>2017-02-02T14:07:58Z</time>
      </trkpt>
      <trkpt lat="46.10135" lon="4.59245">
        <ele>565</ele>
        <time>2017-02-02T14:07:59Z</time>
      </trkpt>
      <trkpt lat="46.10143" lon="4.5925">
        <ele>565</ele>
        <time>2017-02-02T14:08:06Z</time>
      </trkpt>
      <trkpt lat="46.10144" lon="4.59251">
        <ele>563</ele>
        <time>2017-02-02T14:08:07Z</time>
      </trkpt>
      <trkpt lat="46.1015" lon="4.59259">
        <ele>563</ele>
        <time>2017-02-02T14:08:15Z</time>
      </trkpt>
      <trkpt lat="46.10151" lon="4.5926">
        <ele>563</ele>
        <time>2017-02-02T14:08:16Z</time>
      </trkpt>
      <trkpt lat="46.10155" lon="4.5927">
        <ele>563</ele>
        <time>2017-02-02T14:08:24Z</time>
      </trkpt>
      <trkpt lat="46.10156" lon="4.59272">
        <ele>563</ele>
        <time>2017-02-02T14:08:25Z</time>
      </trkpt>
      <trkpt lat="46.10162" lon="4.59281">
        <ele>562</ele>
        <time>2017-02-02T14:08:36Z</time>
      </trkpt>
      <trkpt lat="46.10163" lon="4.59282">
        <ele>562</ele>
        <time>2017-02-02T14:08:37Z</time>
      </trkpt>
      <trkpt lat="46.10169" lon="4.5929">
        <ele>558</ele>
        <time>2017-02-02T14:08:43Z</time>
      </trkpt>
      <trkpt lat="46.1017" lon="4.59292">
        <ele>558</ele>
        <time>2017-02-02T14:08:44Z</time>
      </trkpt>
      <trkpt lat="46.10176" lon="4.59301">
        <ele>557</ele>
        <time>2017-02-02T14:08:50Z</time>
      </trkpt>
      <trkpt lat="46.10177" lon="4.59302">
        <ele>557</ele>
        <time>2017-02-02T14:08:51Z</time>
      </trkpt>
      <trkpt lat="46.10183" lon="4.5931">
        <ele>556</ele>
        <time>2017-02-02T14:08:57Z</time>
      </trkpt>
      <trkpt lat="46.10183" lon="4.59312">
        <ele>556</ele>
        <time>2017-02-02T14:08:58Z</time>
      </trkpt>
      <trkpt lat="46.10185" lon="4.59324">
        <ele>556</ele>
        <time>2017-02-02T14:09:06Z</time>
      </trkpt>
      <trkpt lat="46.10186" lon="4.59325">
        <ele>556</ele>
        <time>2017-02-02T14:09:07Z</time>
      </trkpt>
      <trkpt lat="46.10191" lon="4.59335">
        <ele>551</ele>
        <time>2017-02-02T14:09:15Z</time>
      </trkpt>
      <trkpt lat="46.10191" lon="4.59337">
        <ele>551</ele>
        <time>2017-02-02T14:09:16Z</time>
      </trkpt>
      <trkpt lat="46.10193" lon="4.59349">
        <ele>550</ele>
        <time>2017-02-02T14:09:24Z</time>
      </trkpt>
      <trkpt lat="46.10193" lon="4.5935">
        <ele>550</ele>
        <time>2017-02-02T14:09:25Z</time>
      </trkpt>
      <trkpt lat="46.10194" lon="4.59362">
        <ele>549</ele>
        <time>2017-02-02T14:09:34Z</time>
      </trkpt>
      <trkpt lat="46.10194" lon="4.59363">
        <ele>549</ele>
        <time>2017-02-02T14:09:35Z</time>
      </trkpt>
      <trkpt lat="46.10198" lon="4.59374">
        <ele>548</ele>
        <time>2017-02-02T14:09:43Z</time>
      </trkpt>
      <trkpt lat="46.10199" lon="4.59376">
        <ele>548</ele>
        <time>2017-02-02T14:09:44Z</time>
      </trkpt>
      <trkpt lat="46.10204" lon="4.59387">
        <ele>547</ele>
        <time>2017-02-02T14:09:52Z</time>
      </trkpt>
      <trkpt lat="46.10204" lon="4.59388">
        <ele>547</ele>
        <time>2017-02-02T14:09:53Z</time>
      </trkpt>
      <trkpt lat="46.10208" lon="4.59398">
        <ele>546</ele>
        <time>2017-02-02T14:10:00Z</time>
      </trkpt>
      <trkpt lat="46.10209" lon="4.59399">
        <ele>546</ele>
        <time>2017-02-02T14:10:01Z</time>
      </trkpt>
      <trkpt lat="46.10214" lon="4.5941">
        <ele>546</ele>
        <time>2017-02-02T14:10:11Z</time>
      </trkpt>
      <trkpt lat="46.10215" lon="4.59411">
        <ele>546</ele>
        <time>2017-02-02T14:10:12Z</time>
      </trkpt>
      <trkpt lat="46.10222" lon="4.59418">
        <ele>542</ele>
        <time>2017-02-02T14:10:22Z</time>
      </trkpt>
      <trkpt lat="46.10223" lon="4.59419">
        <ele>542</ele>
        <time>2017-02-02T14:10:23Z</time>
      </trkpt>
      <trkpt lat="46.10226" lon="4.59429">
        <ele>542</ele>
        <time>2017-02-02T14:10:29Z</time>
      </trkpt>
      <trkpt lat="46.10227" lon="4.59431">
        <ele>542</ele>
        <time>2017-02-02T14:10:30Z</time>
      </trkpt>
      <trkpt lat="46.10231" lon="4.5944">
        <ele>541</ele>
        <time>2017-02-02T14:10:34Z</time>
      </trkpt>
      <trkpt lat="46.10232" lon="4.59442">
        <ele>541</ele>
        <time>2017-02-02T14:10:35Z</time>
      </trkpt>
      <trkpt lat="46.10237" lon="4.59452">
        <ele>541</ele>
        <time>2017-02-02T14:10:40Z</time>
      </trkpt>
      <trkpt lat="46.10237" lon="4.59453">
        <ele>541</ele>
        <time>2017-02-02T14:10:41Z</time>
      </trkpt>
      <trkpt lat="46.1024" lon="4.59464">
        <ele>541</ele>
        <time>2017-02-02T14:10:50Z</time>
      </trkpt>
      <trkpt lat="46.10241" lon="4.59465">
        <ele>541</ele>
        <time>2017-02-02T14:10:51Z</time>
      </trkpt>
      <trkpt lat="46.10246" lon="4.59475">
        <ele>541</ele>
        <time>2017-02-02T14:10:58Z</time>
      </trkpt>
      <trkpt lat="46.10247" lon="4.59477">
        <ele>541</ele>
        <time>2017-02-02T14:10:59Z</time>
      </trkpt>
      <trkpt lat="46.10251" lon="4.59486">
        <ele>541</ele>
        <time>2017-02-02T14:11:05Z</time>
      </trkpt>
      <trkpt lat="46.10251" lon="4.59488">
        <ele>541</ele>
        <time>2017-02-02T14:11:06Z</time>
      </trkpt>
      <trkpt lat="46.10254" lon="4.595">
        <ele>543</ele>
        <time>2017-02-02T14:11:13Z</time>
      </trkpt>
      <trkpt lat="46.10254" lon="4.59502">
        <ele>544</ele>
        <time>2017-02-02T14:11:14Z</time>
      </trkpt>
      <trkpt lat="46.10255" lon="4.59513">
        <ele>543</ele>
        <time>2017-02-02T14:11:21Z</time>
      </trkpt>
      <trkpt lat="46.10255" lon="4.59515">
        <ele>543</ele>
        <time>2017-02-02T14:11:22Z</time>
      </trkpt>
      <trkpt lat="46.10257" lon="4.59525">
        <ele>542</ele>
        <time>2017-02-02T14:11:29Z</time>
      </trkpt>
      <trkpt lat="46.10258" lon="4.59527">
        <ele>542</ele>
        <time>2017-02-02T14:11:30Z</time>
      </trkpt>
      <trkpt lat="46.10263" lon="4.59536">
        <ele>542</ele>
        <time>2017-02-02T14:11:35Z</time>
      </trkpt>
      <trkpt lat="46.10264" lon="4.59538">
        <ele>542</ele>
        <time>2017-02-02T14:11:36Z</time>
      </trkpt>
      <trkpt lat="46.10267" lon="4.59549">
        <ele>542</ele>
        <time>2017-02-02T14:11:42Z</time>
      </trkpt>
      <trkpt lat="46.10267" lon="4.59551">
        <ele>542</ele>
        <time>2017-02-02T14:11:43Z</time>
      </trkpt>
      <trkpt lat="46.10271" lon="4.59562">
        <ele>542</ele>
        <time>2017-02-02T14:11:51Z</time>
      </trkpt>
      <trkpt lat="46.10271" lon="4.59563">
        <ele>542</ele>
        <time>2017-02-02T14:11:52Z</time>
      </trkpt>
      <trkpt lat="46.10273" lon="4.59574">
        <ele>543</ele>
        <time>2017-02-02T14:12:00Z</time>
      </trkpt>
      <trkpt lat="46.10273" lon="4.59575">
        <ele>543</ele>
        <time>2017-02-02T14:12:01Z</time>
      </trkpt>
      <trkpt lat="46.10274" lon="4.59587">
        <ele>542</ele>
        <time>2017-02-02T14:12:08Z</time>
      </trkpt>
      <trkpt lat="46.10274" lon="4.59589">
        <ele>542</ele>
        <time>2017-02-02T14:12:09Z</time>
      </trkpt>
      <trkpt lat="46.10277" lon="4.59599">
        <ele>542</ele>
        <time>2017-02-02T14:12:15Z</time>
      </trkpt>
      <trkpt lat="46.10278" lon="4.59601">
        <ele>542</ele>
        <time>2017-02-02T14:12:16Z</time>
      </trkpt>
      <trkpt lat="46.10283" lon="4.59611">
        <ele>542</ele>
        <time>2017-02-02T14:12:23Z</time>
      </trkpt>
      <trkpt lat="46.10284" lon="4.59612">
        <ele>542</ele>
        <time>2017-02-02T14:12:24Z</time>
      </trkpt>
      <trkpt lat="46.10291" lon="4.59618">
        <ele>542</ele>
        <time>2017-02-02T14:12:31Z</time>
      </trkpt>
      <trkpt lat="46.10292" lon="4.59619">
        <ele>542</ele>
        <time>2017-02-02T14:12:32Z</time>
      </trkpt>
      <trkpt lat="46.10298" lon="4.59627">
        <ele>542</ele>
        <time>2017-02-02T14:12:37Z</time>
      </trkpt>
      <trkpt lat="46.10299" lon="4.59628">
        <ele>542</ele>
        <time>2017-02-02T14:12:38Z</time>
      </trkpt>
      <trkpt lat="46.10306" lon="4.59635">
        <ele>543</ele>
        <time>2017-02-02T14:12:43Z</time>
      </trkpt>
      <trkpt lat="46.10307" lon="4.59635">
        <ele>543</ele>
        <time>2017-02-02T14:12:44Z</time>
      </trkpt>
      <trkpt lat="46.10314" lon="4.59642">
        <ele>543</ele>
        <time>2017-02-02T14:12:52Z</time>
      </trkpt>
      <trkpt lat="46.10315" lon="4.59643">
        <ele>543</ele>
        <time>2017-02-02T14:12:53Z</time>
      </trkpt>
      <trkpt lat="46.10323" lon="4.59649">
        <ele>544</ele>
        <time>2017-02-02T14:13:00Z</time>
      </trkpt>
      <trkpt lat="46.10324" lon="4.59649">
        <ele>544</ele>
        <time>2017-02-02T14:13:01Z</time>
      </trkpt>
      <trkpt lat="46.10331" lon="4.59655">
        <ele>545</ele>
        <time>2017-02-02T14:13:09Z</time>
      </trkpt>
      <trkpt lat="46.10332" lon="4.59655">
        <ele>545</ele>
        <time>2017-02-02T14:13:10Z</time>
      </trkpt>
      <trkpt lat="46.1034" lon="4.59659">
        <ele>545</ele>
        <time>2017-02-02T14:13:19Z</time>
      </trkpt>
      <trkpt lat="46.10341" lon="4.5966">
        <ele>544</ele>
        <time>2017-02-02T14:13:20Z</time>
      </trkpt>
      <trkpt lat="46.10349" lon="4.59666">
        <ele>544</ele>
        <time>2017-02-02T14:13:32Z</time>
      </trkpt>
      <trkpt lat="46.10349" lon="4.59666">
        <ele>543</ele>
        <time>2017-02-02T14:13:33Z</time>
      </trkpt>
      <trkpt lat="46.10357" lon="4.59672">
        <ele>542</ele>
        <time>2017-02-02T14:19:11Z</time>
      </trkpt>
      <trkpt lat="46.10357" lon="4.59672">
        <ele>542</ele>
        <time>2017-02-02T14:19:12Z</time>
      </trkpt>
      <trkpt lat="46.10365" lon="4.59667">
        <ele>541</ele>
        <time>2017-02-02T14:20:55Z</time>
      </trkpt>
      <trkpt lat="46.10366" lon="4.59666">
        <ele>541</ele>
        <time>2017-02-02T14:20:56Z</time>
      </trkpt>
      <trkpt lat="46.10373" lon="4.59657">
        <ele>540</ele>
        <time>2017-02-02T14:21:09Z</time>
      </trkpt>
      <trkpt lat="46.10373" lon="4.59656">
        <ele>540</ele>
        <time>2017-02-02T14:21:10Z</time>
      </trkpt>
      <trkpt lat="46.10376" lon="4.59645">
        <ele>540</ele>
        <time>2017-02-02T14:21:19Z</time>
      </trkpt>
      <trkpt lat="46.10376" lon="4.59644">
        <ele>540</ele>
        <time>2017-02-02T14:21:20Z</time>
      </trkpt>
      <trkpt lat="46.10376" lon="4.59631">
        <ele>539</ele>
        <time>2017-02-02T14:21:29Z</time>
      </trkpt>
      <trkpt lat="46.10377" lon="4.59629">
        <ele>539</ele>
        <time>2017-02-02T14:21:30Z</time>
      </trkpt>
      <trkpt lat="46.10378" lon="4.59617">
        <ele>538</ele>
        <time>2017-02-02T14:21:38Z</time>
      </trkpt>
      <trkpt lat="46.10378" lon="4.59616">
        <ele>538</ele>
        <time>2017-02-02T14:21:39Z</time>
      </trkpt>
      <trkpt lat="46.10378" lon="4.59605">
        <ele>538</ele>
        <time>2017-02-02T14:21:46Z</time>
      </trkpt>
      <trkpt lat="46.10378" lon="4.59603">
        <ele>538</ele>
        <time>2017-02-02T14:21:47Z</time>
      </trkpt>
      <trkpt lat="46.10374" lon="4.59593">
        <ele>538</ele>
        <time>2017-02-02T14:21:54Z</time>
      </trkpt>
      <trkpt lat="46.10374" lon="4.59591">
        <ele>538</ele>
        <time>2017-02-02T14:21:55Z</time>
      </trkpt>
      <trkpt lat="46.10371" lon="4.59579">
        <ele>532</ele>
        <time>2017-02-02T14:22:02Z</time>
      </trkpt>
      <trkpt lat="46.10371" lon="4.59577">
        <ele>532</ele>
        <time>2017-02-02T14:22:03Z</time>
      </trkpt>
      <trkpt lat="46.1037" lon="4.59566">
        <ele>531</ele>
        <time>2017-02-02T14:22:11Z</time>
      </trkpt>
      <trkpt lat="46.10369" lon="4.59564">
        <ele>531</ele>
        <time>2017-02-02T14:22:12Z</time>
      </trkpt>
      <trkpt lat="46.10364" lon="4.59557">
        <ele>531</ele>
        <time>2017-02-02T14:22:17Z</time>
      </trkpt>
      <trkpt lat="46.10363" lon="4.59555">
        <ele>531</ele>
        <time>2017-02-02T14:22:18Z</time>
      </trkpt>
      <trkpt lat="46.10358" lon="4.59546">
        <ele>531</ele>
        <time>2017-02-02T14:22:24Z</time>
      </trkpt>
      <trkpt lat="46.10357" lon="4.59544">
        <ele>531</ele>
        <time>2017-02-02T14:22:25Z</time>
      </trkpt>
      <trkpt lat="46.10354" lon="4.59534">
        <ele>531</ele>
        <time>2017-02-02T14:22:31Z</time>
      </trkpt>
      <trkpt lat="46.10353" lon="4.59532">
        <ele>531</ele>
        <time>2017-02-02T14:22:32Z</time>
      </trkpt>
      <trkpt lat="46.10351" lon="4.59519">
        <ele>531</ele>
        <time>2017-02-02T14:22:42Z</time>
      </trkpt>
      <trkpt lat="46.10351" lon="4.59518">
        <ele>531</ele>
        <time>2017-02-02T14:22:43Z</time>
      </trkpt>
      <trkpt lat="46.10345" lon="4.5951">
        <ele>532</ele>
        <time>2017-02-02T14:22:49Z</time>
      </trkpt>
      <trkpt lat="46.10343" lon="4.59509">
        <ele>532</ele>
        <time>2017-02-02T14:22:50Z</time>
      </trkpt>
      <trkpt lat="46.1034" lon="4.59499">
        <ele>530</ele>
        <time>2017-02-02T14:22:57Z</time>
      </trkpt>
      <trkpt lat="46.10339" lon="4.59497">
        <ele>530</ele>
        <time>2017-02-02T14:22:58Z</time>
      </trkpt>
      <trkpt lat="46.10335" lon="4.59487">
        <ele>526</ele>
        <time>2017-02-02T14:23:04Z</time>
      </trkpt>
      <trkpt lat="46.10335" lon="4.59485">
        <ele>525</ele>
        <time>2017-02-02T14:23:05Z</time>
      </trkpt>
      <trkpt lat="46.1033" lon="4.59474">
        <ele>534</ele>
        <time>2017-02-02T14:23:11Z</time>
      </trkpt>
      <trkpt lat="46.10329" lon="4.59472">
        <ele>534</ele>
        <time>2017-02-02T14:23:12Z</time>
      </trkpt>
      <trkpt lat="46.10328" lon="4.59461">
        <ele>533</ele>
        <time>2017-02-02T14:23:20Z</time>
      </trkpt>
      <trkpt lat="46.10328" lon="4.59459">
        <ele>533</ele>
        <time>2017-02-02T14:23:21Z</time>
      </trkpt>
      <trkpt lat="46.10324" lon="4.59448">
        <ele>532</ele>
        <time>2017-02-02T14:23:29Z</time>
      </trkpt>
      <trkpt lat="46.10324" lon="4.59446">
        <ele>532</ele>
        <time>2017-02-02T14:23:30Z</time>
      </trkpt>
      <trkpt lat="46.1032" lon="4.59436">
        <ele>530</ele>
        <time>2017-02-02T14:23:37Z</time>
      </trkpt>
      <trkpt lat="46.10319" lon="4.59434">
        <ele>530</ele>
        <time>2017-02-02T14:23:38Z</time>
      </trkpt>
      <trkpt lat="46.10315" lon="4.59423">
        <ele>529</ele>
        <time>2017-02-02T14:23:45Z</time>
      </trkpt>
      <trkpt lat="46.10315" lon="4.59421">
        <ele>529</ele>
        <time>2017-02-02T14:23:46Z</time>
      </trkpt>
      <trkpt lat="46.10315" lon="4.5941">
        <ele>527</ele>
        <time>2017-02-02T14:23:53Z</time>
      </trkpt>
      <trkpt lat="46.10315" lon="4.59408">
        <ele>527</ele>
        <time>2017-02-02T14:23:54Z</time>
      </trkpt>
      <trkpt lat="46.10312" lon="4.59396">
        <ele>528</ele>
        <time>2017-02-02T14:24:00Z</time>
      </trkpt>
      <trkpt lat="46.10311" lon="4.59395">
        <ele>528</ele>
        <time>2017-02-02T14:24:01Z</time>
      </trkpt>
      <trkpt lat="46.10305" lon="4.59386">
        <ele>529</ele>
        <time>2017-02-02T14:24:06Z</time>
      </trkpt>
      <trkpt lat="46.10304" lon="4.59384">
        <ele>530</ele>
        <time>2017-02-02T14:24:07Z</time>
      </trkpt>
      <trkpt lat="46.10303" lon="4.59372">
        <ele>529</ele>
        <time>2017-02-02T14:24:14Z</time>
      </trkpt>
      <trkpt lat="46.10304" lon="4.5937">
        <ele>529</ele>
        <time>2017-02-02T14:24:15Z</time>
      </trkpt>
      <trkpt lat="46.10303" lon="4.59359">
        <ele>529</ele>
        <time>2017-02-02T14:24:21Z</time>
      </trkpt>
      <trkpt lat="46.10302" lon="4.59358">
        <ele>529</ele>
        <time>2017-02-02T14:24:22Z</time>
      </trkpt>
      <trkpt lat="46.10296" lon="4.59348">
        <ele>530</ele>
        <time>2017-02-02T14:24:29Z</time>
      </trkpt>
      <trkpt lat="46.10296" lon="4.59347">
        <ele>530</ele>
        <time>2017-02-02T14:24:30Z</time>
      </trkpt>
      <trkpt lat="46.10296" lon="4.59334">
        <ele>530</ele>
        <time>2017-02-02T14:24:38Z</time>
      </trkpt>
      <trkpt lat="46.10296" lon="4.59332">
        <ele>530</ele>
        <time>2017-02-02T14:24:39Z</time>
      </trkpt>
      <trkpt lat="46.10301" lon="4.59324">
        <ele>529</ele>
        <time>2017-02-02T14:24:45Z</time>
      </trkpt>
      <trkpt lat="46.10302" lon="4.59323">
        <ele>528</ele>
        <time>2017-02-02T14:24:46Z</time>
      </trkpt>
      <trkpt lat="46.10303" lon="4.59311">
        <ele>529</ele>
        <time>2017-02-02T14:24:55Z</time>
      </trkpt>
      <trkpt lat="46.10303" lon="4.59309">
        <ele>529</ele>
        <time>2017-02-02T14:24:56Z</time>
      </trkpt>
      <trkpt lat="46.10301" lon="4.59297">
        <ele>530</ele>
        <time>2017-02-02T14:25:05Z</time>
      </trkpt>
      <trkpt lat="46.10302" lon="4.59295">
        <ele>530</ele>
        <time>2017-02-02T14:25:06Z</time>
      </trkpt>
      <trkpt lat="46.10302" lon="4.59283">
        <ele>530</ele>
        <time>2017-02-02T14:25:12Z</time>
      </trkpt>
      <trkpt lat="46.10302" lon="4.59281">
        <ele>530</ele>
        <time>2017-02-02T14:25:13Z</time>
      </trkpt>
      <trkpt lat="46.10299" lon="4.59274">
        <ele>531</ele>
        <time>2017-02-02T14:25:17Z</time>
      </trkpt>
      <trkpt lat="46.10296" lon="4.59272">
        <ele>531</ele>
        <time>2017-02-02T14:25:18Z</time>
      </trkpt>
      <trkpt lat="46.10298" lon="4.5926">
        <ele>531</ele>
        <time>2017-02-02T14:25:29Z</time>
      </trkpt>
      <trkpt lat="46.10299" lon="4.59258">
        <ele>531</ele>
        <time>2017-02-02T14:25:30Z</time>
      </trkpt>
      <trkpt lat="46.10304" lon="4.5925">
        <ele>531</ele>
        <time>2017-02-02T14:25:35Z</time>
      </trkpt>
      <trkpt lat="46.10304" lon="4.59247">
        <ele>531</ele>
        <time>2017-02-02T14:25:36Z</time>
      </trkpt>
      <trkpt lat="46.10306" lon="4.59235">
        <ele>531</ele>
        <time>2017-02-02T14:25:44Z</time>
      </trkpt>
      <trkpt lat="46.10307" lon="4.59233">
        <ele>531</ele>
        <time>2017-02-02T14:25:45Z</time>
      </trkpt>
      <trkpt lat="46.10311" lon="4.59222">
        <ele>531</ele>
        <time>2017-02-02T14:25:56Z</time>
      </trkpt>
      <trkpt lat="46.10312" lon="4.59221">
        <ele>531</ele>
        <time>2017-02-02T14:25:57Z</time>
      </trkpt>
      <trkpt lat="46.10317" lon="4.59212">
        <ele>531</ele>
        <time>2017-02-02T14:26:03Z</time>
      </trkpt>
      <trkpt lat="46.10319" lon="4.59211">
        <ele>531</ele>
        <time>2017-02-02T14:26:04Z</time>
      </trkpt>
      <trkpt lat="46.10326" lon="4.59206">
        <ele>530</ele>
        <time>2017-02-02T14:26:08Z</time>
      </trkpt>
      <trkpt lat="46.10327" lon="4.59205">
        <ele>530</ele>
        <time>2017-02-02T14:26:09Z</time>
      </trkpt>
      <trkpt lat="46.10335" lon="4.59199">
        <ele>510</ele>
        <time>2017-02-02T14:26:15Z</time>
      </trkpt>
      <trkpt lat="46.10336" lon="4.59197">
        <ele>511</ele>
        <time>2017-02-02T14:26:16Z</time>
      </trkpt>
      <trkpt lat="46.1034" lon="4.59186">
        <ele>513</ele>
        <time>2017-02-02T14:26:22Z</time>
      </trkpt>
      <trkpt lat="46.10341" lon="4.59184">
        <ele>513</ele>
        <time>2017-02-02T14:26:23Z</time>
      </trkpt>
      <trkpt lat="46.10345" lon="4.59174">
        <ele>515</ele>
        <time>2017-02-02T14:26:28Z</time>
      </trkpt>
      <trkpt lat="46.10346" lon="4.59172">
        <ele>515</ele>
        <time>2017-02-02T14:26:29Z</time>
      </trkpt>
      <trkpt lat="46.10351" lon="4.59163">
        <ele>516</ele>
        <time>2017-02-02T14:26:35Z</time>
      </trkpt>
      <trkpt lat="46.10352" lon="4.59162">
        <ele>515</ele>
        <time>2017-02-02T14:26:36Z</time>
      </trkpt>
      <trkpt lat="46.10359" lon="4.59155">
        <ele>513</ele>
        <time>2017-02-02T14:26:40Z</time>
      </trkpt>
      <trkpt lat="46.1036" lon="4.59153">
        <ele>513</ele>
        <time>2017-02-02T14:26:41Z</time>
      </trkpt>
      <trkpt lat="46.10368" lon="4.59145">
        <ele>511</ele>
        <time>2017-02-02T14:26:48Z</time>
      </trkpt>
      <trkpt lat="46.10369" lon="4.59144">
        <ele>511</ele>
        <time>2017-02-02T14:26:49Z</time>
      </trkpt>
      <trkpt lat="46.10376" lon="4.59136">
        <ele>510</ele>
        <time>2017-02-02T14:27:00Z</time>
      </trkpt>
      <trkpt lat="46.10377" lon="4.59135">
        <ele>510</ele>
        <time>2017-02-02T14:27:01Z</time>
      </trkpt>
      <trkpt lat="46.10383" lon="4.59126">
        <ele>509</ele>
        <time>2017-02-02T14:27:09Z</time>
      </trkpt>
      <trkpt lat="46.10384" lon="4.59125">
        <ele>509</ele>
        <time>2017-02-02T14:27:10Z</time>
      </trkpt>
      <trkpt lat="46.1039" lon="4.59117">
        <ele>508</ele>
        <time>2017-02-02T14:27:16Z</time>
      </trkpt>
      <trkpt lat="46.10392" lon="4.59115">
        <ele>508</ele>
        <time>2017-02-02T14:27:17Z</time>
      </trkpt>
      <trkpt lat="46.10398" lon="4.59107">
        <ele>508</ele>
        <time>2017-02-02T14:27:22Z</time>
      </trkpt>
      <trkpt lat="46.10399" lon="4.59106">
        <ele>507</ele>
        <time>2017-02-02T14:27:23Z</time>
      </trkpt>
      <trkpt lat="46.10404" lon="4.59098">
        <ele>507</ele>
        <time>2017-02-02T14:27:30Z</time>
      </trkpt>
      <trkpt lat="46.10405" lon="4.59096">
        <ele>506</ele>
        <time>2017-02-02T14:27:31Z</time>
      </trkpt>
      <trkpt lat="46.10411" lon="4.59087">
        <ele>505</ele>
        <time>2017-02-02T14:27:40Z</time>
      </trkpt>
      <trkpt lat="46.10412" lon="4.59087">
        <ele>505</ele>
        <time>2017-02-02T14:27:41Z</time>
      </trkpt>
      <trkpt lat="46.10418" lon="4.59095">
        <ele>495</ele>
        <time>2017-02-02T14:28:00Z</time>
      </trkpt>
      <trkpt lat="46.10418" lon="4.59096">
        <ele>495</ele>
        <time>2017-02-02T14:28:01Z</time>
      </trkpt>
      <trkpt lat="46.10414" lon="4.59106">
        <ele>506</ele>
        <time>2017-02-02T14:28:12Z</time>
      </trkpt>
      <trkpt lat="46.10413" lon="4.59108">
        <ele>506</ele>
        <time>2017-02-02T14:28:13Z</time>
      </trkpt>
      <trkpt lat="46.10407" lon="4.59118">
        <ele>506</ele>
        <time>2017-02-02T14:28:21Z</time>
      </trkpt>
      <trkpt lat="46.10407" lon="4.5912">
        <ele>506</ele>
        <time>2017-02-02T14:28:22Z</time>
      </trkpt>
      <trkpt lat="46.10402" lon="4.59129">
        <ele>506</ele>
        <time>2017-02-02T14:28:28Z</time>
      </trkpt>
      <trkpt lat="46.10402" lon="4.59131">
        <ele>506</ele>
        <time>2017-02-02T14:28:29Z</time>
      </trkpt>
      <trkpt lat="46.10397" lon="4.59141">
        <ele>505</ele>
        <time>2017-02-02T14:28:38Z</time>
      </trkpt>
      <trkpt lat="46.10397" lon="4.59143">
        <ele>505</ele>
        <time>2017-02-02T14:28:39Z</time>
      </trkpt>
      <trkpt lat="46.10393" lon="4.59154">
        <ele>504</ele>
        <time>2017-02-02T14:28:48Z</time>
      </trkpt>
      <trkpt lat="46.10393" lon="4.59155">
        <ele>504</ele>
        <time>2017-02-02T14:28:49Z</time>
      </trkpt>
      <trkpt lat="46.10388" lon="4.59163">
        <ele>505</ele>
        <time>2017-02-02T14:28:55Z</time>
      </trkpt>
      <trkpt lat="46.10387" lon="4.59165">
        <ele>506</ele>
        <time>2017-02-02T14:28:56Z</time>
      </trkpt>
      <trkpt lat="46.10381" lon="4.59173">
        <ele>503</ele>
        <time>2017-02-02T14:29:02Z</time>
      </trkpt>
      <trkpt lat="46.1038" lon="4.59174">
        <ele>503</ele>
        <time>2017-02-02T14:29:03Z</time>
      </trkpt>
      <trkpt lat="46.10378" lon="4.59187">
        <ele>503</ele>
        <time>2017-02-02T14:29:11Z</time>
      </trkpt>
      <trkpt lat="46.10378" lon="4.59189">
        <ele>503</ele>
        <time>2017-02-02T14:29:12Z</time>
      </trkpt>
      <trkpt lat="46.10376" lon="4.59201">
        <ele>503</ele>
        <time>2017-02-02T14:29:18Z</time>
      </trkpt>
      <trkpt lat="46.10376" lon="4.59203">
        <ele>503</ele>
        <time>2017-02-02T14:29:19Z</time>
      </trkpt>
      <trkpt lat="46.10373" lon="4.59215">
        <ele>503</ele>
        <time>2017-02-02T14:29:25Z</time>
      </trkpt>
      <trkpt lat="46.10373" lon="4.59217">
        <ele>503</ele>
        <time>2017-02-02T14:29:26Z</time>
      </trkpt>
      <trkpt lat="46.10372" lon="4.59229">
        <ele>503</ele>
        <time>2017-02-02T14:29:33Z</time>
      </trkpt>
      <trkpt lat="46.10371" lon="4.5923">
        <ele>503</ele>
        <time>2017-02-02T14:29:34Z</time>
      </trkpt>
      <trkpt lat="46.10374" lon="4.59242">
        <ele>502</ele>
        <time>2017-02-02T14:29:43Z</time>
      </trkpt>
      <trkpt lat="46.10375" lon="4.59244">
        <ele>502</ele>
        <time>2017-02-02T14:29:44Z</time>
      </trkpt>
      <trkpt lat="46.10379" lon="4.59254">
        <ele>498</ele>
        <time>2017-02-02T14:29:52Z</time>
      </trkpt>
      <trkpt lat="46.10379" lon="4.59255">
        <ele>498</ele>
        <time>2017-02-02T14:29:53Z</time>
      </trkpt>
      <trkpt lat="46.10386" lon="4.59263">
        <ele>496</ele>
        <time>2017-02-02T14:30:02Z</time>
      </trkpt>
      <trkpt lat="46.10386" lon="4.59265">
        <ele>496</ele>
        <time>2017-02-02T14:30:03Z</time>
      </trkpt>
      <trkpt lat="46.10391" lon="4.59276">
        <ele>495</ele>
        <time>2017-02-02T14:30:16Z</time>
      </trkpt>
      <trkpt lat="46.10392" lon="4.59276">
        <ele>495</ele>
        <time>2017-02-02T14:30:17Z</time>
      </trkpt>
      <trkpt lat="46.10397" lon="4.59285">
        <ele>495</ele>
        <time>2017-02-02T14:30:25Z</time>
      </trkpt>
      <trkpt lat="46.10398" lon="4.59286">
        <ele>494</ele>
        <time>2017-02-02T14:30:26Z</time>
      </trkpt>
      <trkpt lat="46.10403" lon="4.59295">
        <ele>494</ele>
        <time>2017-02-02T14:30:34Z</time>
      </trkpt>
      <trkpt lat="46.10405" lon="4.59296">
        <ele>493</ele>
        <time>2017-02-02T14:30:35Z</time>
      </trkpt>
      <trkpt lat="46.10411" lon="4.59304">
        <ele>492</ele>
        <time>2017-02-02T14:30:42Z</time>
      </trkpt>
      <trkpt lat="46.10412" lon="4.59305">
        <ele>492</ele>
        <time>2017-02-02T14:30:43Z</time>
      </trkpt>
      <trkpt lat="46.10418" lon="4.59312">
        <ele>474</ele>
        <time>2017-02-02T14:30:52Z</time>
      </trkpt>
      <trkpt lat="46.10419" lon="4.59313">
        <ele>474</ele>
        <time>2017-02-02T14:30:53Z</time>
      </trkpt>
      <trkpt lat="46.10424" lon="4.59323">
        <ele>476</ele>
        <time>2017-02-02T14:30:59Z</time>
      </trkpt>
      <trkpt lat="46.10425" lon="4.59324">
        <ele>476</ele>
        <time>2017-02-02T14:31:00Z</time>
      </trkpt>
      <trkpt lat="46.10433" lon="4.59331">
        <ele>474</ele>
        <time>2017-02-02T14:31:07Z</time>
      </trkpt>
      <trkpt lat="46.10433" lon="4.59331">
        <ele>474</ele>
        <time>2017-02-02T14:31:08Z</time>
      </trkpt>
      <trkpt lat="46.1044" lon="4.59339">
        <ele>475</ele>
        <time>2017-02-02T14:31:16Z</time>
      </trkpt>
      <trkpt lat="46.10441" lon="4.5934">
        <ele>474</ele>
        <time>2017-02-02T14:31:17Z</time>
      </trkpt>
      <trkpt lat="46.10448" lon="4.59347">
        <ele>473</ele>
        <time>2017-02-02T14:31:25Z</time>
      </trkpt>
      <trkpt lat="46.10449" lon="4.59348">
        <ele>473</ele>
        <time>2017-02-02T14:31:26Z</time>
      </trkpt>
      <trkpt lat="46.10455" lon="4.59356">
        <ele>471</ele>
        <time>2017-02-02T14:31:35Z</time>
      </trkpt>
      <trkpt lat="46.10456" lon="4.59357">
        <ele>471</ele>
        <time>2017-02-02T14:31:36Z</time>
      </trkpt>
      <trkpt lat="46.10463" lon="4.59365">
        <ele>471</ele>
        <time>2017-02-02T14:31:46Z</time>
      </trkpt>
      <trkpt lat="46.10463" lon="4.59365">
        <ele>470</ele>
        <time>2017-02-02T14:31:47Z</time>
      </trkpt>
      <trkpt lat="46.10471" lon="4.59371">
        <ele>470</ele>
        <time>2017-02-02T14:31:56Z</time>
      </trkpt>
      <trkpt lat="46.10472" lon="4.59371">
        <ele>469</ele>
        <time>2017-02-02T14:31:57Z</time>
      </trkpt>
      <trkpt lat="46.1048" lon="4.59378">
        <ele>469</ele>
        <time>2017-02-02T14:32:05Z</time>
      </trkpt>
      <trkpt lat="46.10481" lon="4.59379">
        <ele>469</ele>
        <time>2017-02-02T14:32:06Z</time>
      </trkpt>
      <trkpt lat="46.10488" lon="4.59386">
        <ele>468</ele>
        <time>2017-02-02T14:32:18Z</time>
      </trkpt>
      <trkpt lat="46.10489" lon="4.59387">
        <ele>468</ele>
        <time>2017-02-02T14:32:19Z</time>
      </trkpt>
      <trkpt lat="46.10496" lon="4.59394">
        <ele>468</ele>
        <time>2017-02-02T14:32:26Z</time>
      </trkpt>
      <trkpt lat="46.10496" lon="4.59394">
        <ele>468</ele>
        <time>2017-02-02T14:32:27Z</time>
      </trkpt>
      <trkpt lat="46.10504" lon="4.59401">
        <ele>455</ele>
        <time>2017-02-02T14:32:36Z</time>
      </trkpt>
      <trkpt lat="46.10505" lon="4.59402">
        <ele>455</ele>
        <time>2017-02-02T14:32:37Z</time>
      </trkpt>
      <trkpt lat="46.10513" lon="4.59408">
        <ele>455</ele>
        <time>2017-02-02T14:32:44Z</time>
      </trkpt>
      <trkpt lat="46.10514" lon="4.59409">
        <ele>455</ele>
        <time>2017-02-02T14:32:45Z</time>
      </trkpt>
      <trkpt lat="46.1052" lon="4.59415">
        <ele>453</ele>
        <time>2017-02-02T14:32:52Z</time>
      </trkpt>
      <trkpt lat="46.10521" lon="4.59416">
        <ele>453</ele>
        <time>2017-02-02T14:32:53Z</time>
      </trkpt>
      <trkpt lat="46.10528" lon="4.59423">
        <ele>460</ele>
        <time>2017-02-02T14:32:59Z</time>
      </trkpt>
      <trkpt lat="46.10529" lon="4.59424">
        <ele>460</ele>
        <time>2017-02-02T14:33:00Z</time>
      </trkpt>
      <trkpt lat="46.10537" lon="4.59428">
        <ele>458</ele>
        <time>2017-02-02T14:33:06Z</time>
      </trkpt>
      <trkpt lat="46.10538" lon="4.59428">
        <ele>458</ele>
        <time>2017-02-02T14:33:07Z</time>
      </trkpt>
      <trkpt lat="46.10545" lon="4.59432">
        <ele>457</ele>
        <time>2017-02-02T14:33:15Z</time>
      </trkpt>
      <trkpt lat="46.10546" lon="4.59432">
        <ele>456</ele>
        <time>2017-02-02T14:33:16Z</time>
      </trkpt>
      <trkpt lat="46.10554" lon="4.59433">
        <ele>455</ele>
        <time>2017-02-02T14:33:24Z</time>
      </trkpt>
      <trkpt lat="46.10555" lon="4.59434">
        <ele>454</ele>
        <time>2017-02-02T14:33:25Z</time>
      </trkpt>
      <trkpt lat="46.10564" lon="4.59435">
        <ele>452</ele>
        <time>2017-02-02T14:33:33Z</time>
      </trkpt>
      <trkpt lat="46.10565" lon="4.59435">
        <ele>452</ele>
        <time>2017-02-02T14:33:34Z</time>
      </trkpt>
      <trkpt lat="46.10572" lon="4.5944">
        <ele>452</ele>
        <time>2017-02-02T14:33:40Z</time>
      </trkpt>
      <trkpt lat="46.10574" lon="4.59441">
        <ele>452</ele>
        <time>2017-02-02T14:33:41Z</time>
      </trkpt>
      <trkpt lat="46.10582" lon="4.59446">
        <ele>452</ele>
        <time>2017-02-02T14:33:48Z</time>
      </trkpt>
      <trkpt lat="46.10583" lon="4.59447">
        <ele>452</ele>
        <time>2017-02-02T14:33:49Z</time>
      </trkpt>
      <trkpt lat="46.10591" lon="4.59452">
        <ele>438</ele>
        <time>2017-02-02T14:33:55Z</time>
      </trkpt>
      <trkpt lat="46.10592" lon="4.59453">
        <ele>438</ele>
        <time>2017-02-02T14:33:56Z</time>
      </trkpt>
      <trkpt lat="46.10601" lon="4.59456">
        <ele>438</ele>
        <time>2017-02-02T14:34:02Z</time>
      </trkpt>
      <trkpt lat="46.10602" lon="4.59457">
        <ele>438</ele>
        <time>2017-02-02T14:34:03Z</time>
      </trkpt>
      <trkpt lat="46.1061" lon="4.59462">
        <ele>438</ele>
        <time>2017-02-02T14:34:10Z</time>
      </trkpt>
      <trkpt lat="46.10611" lon="4.59462">
        <ele>438</ele>
        <time>2017-02-02T14:34:11Z</time>
      </trkpt>
      <trkpt lat="46.1062" lon="4.59466">
        <ele>437</ele>
        <time>2017-02-02T14:34:21Z</time>
      </trkpt>
      <trkpt lat="46.10621" lon="4.59466">
        <ele>437</ele>
        <time>2017-02-02T14:34:22Z</time>
      </trkpt>
      <trkpt lat="46.10629" lon="4.5947">
        <ele>436</ele>
        <time>2017-02-02T14:34:30Z</time>
      </trkpt>
      <trkpt lat="46.1063" lon="4.59471">
        <ele>436</ele>
        <time>2017-02-02T14:34:31Z</time>
      </trkpt>
      <trkpt lat="46.10638" lon="4.59477">
        <ele>435</ele>
        <time>2017-02-02T14:34:37Z</time>
      </trkpt>
      <trkpt lat="46.10639" lon="4.59478">
        <ele>435</ele>
        <time>2017-02-02T14:34:38Z</time>
      </trkpt>
      <trkpt lat="46.10646" lon="4.59482">
        <ele>434</ele>
        <time>2017-02-02T14:34:44Z</time>
      </trkpt>
      <trkpt lat="46.10647" lon="4.59483">
        <ele>434</ele>
        <time>2017-02-02T14:34:45Z</time>
      </trkpt>
      <trkpt lat="46.10656" lon="4.59486">
        <ele>433</ele>
        <time>2017-02-02T14:34:51Z</time>
      </trkpt>
      <trkpt lat="46.10657" lon="4.59487">
        <ele>433</ele>
        <time>2017-02-02T14:34:52Z</time>
      </trkpt>
      <trkpt lat="46.10665" lon="4.59491">
        <ele>432</ele>
        <time>2017-02-02T14:34:58Z</time>
      </trkpt>
      <trkpt lat="46.10666" lon="4.59492">
        <ele>432</ele>
        <time>2017-02-02T14:34:59Z</time>
      </trkpt>
      <trkpt lat="46.10674" lon="4.59498">
        <ele>426</ele>
        <time>2017-02-02T14:35:06Z</time>
      </trkpt>
      <trkpt lat="46.10675" lon="4.59499">
        <ele>426</ele>
        <time>2017-02-02T14:35:07Z</time>
      </trkpt>
      <trkpt lat="46.10683" lon="4.59504">
        <ele>427</ele>
        <time>2017-02-02T14:35:13Z</time>
      </trkpt>
      <trkpt lat="46.10685" lon="4.59506">
        <ele>426</ele>
        <time>2017-02-02T14:35:14Z</time>
      </trkpt>
      <trkpt lat="46.10691" lon="4.59512">
        <ele>425</ele>
        <time>2017-02-02T14:35:19Z</time>
      </trkpt>
      <trkpt lat="46.10693" lon="4.59514">
        <ele>425</ele>
        <time>2017-02-02T14:35:20Z</time>
      </trkpt>
      <trkpt lat="46.10699" lon="4.59521">
        <ele>424</ele>
        <time>2017-02-02T14:35:25Z</time>
      </trkpt>
      <trkpt lat="46.107" lon="4.59522">
        <ele>423</ele>
        <time>2017-02-02T14:35:26Z</time>
      </trkpt>
      <trkpt lat="46.10706" lon="4.59531">
        <ele>423</ele>
        <time>2017-02-02T14:35:32Z</time>
      </trkpt>
      <trkpt lat="46.10707" lon="4.59533">
        <ele>422</ele>
        <time>2017-02-02T14:35:33Z</time>
      </trkpt>
      <trkpt lat="46.10712" lon="4.59543">
        <ele>422</ele>
        <time>2017-02-02T14:35:38Z</time>
      </trkpt>
      <trkpt lat="46.10713" lon="4.59544">
        <ele>422</ele>
        <time>2017-02-02T14:35:39Z</time>
      </trkpt>
      <trkpt lat="46.10721" lon="4.5954">
        <ele>421</ele>
        <time>2017-02-02T14:35:53Z</time>
      </trkpt>
      <trkpt lat="46.10721" lon="4.5954">
        <ele>420</ele>
        <time>2017-02-02T14:35:54Z</time>
      </trkpt>
      <trkpt lat="46.10724" lon="4.59528">
        <ele>419</ele>
        <time>2017-02-02T14:36:07Z</time>
      </trkpt>
      <trkpt lat="46.10725" lon="4.59527">
        <ele>419</ele>
        <time>2017-02-02T14:36:08Z</time>
      </trkpt>
      <trkpt lat="46.10726" lon="4.59514">
        <ele>418</ele>
        <time>2017-02-02T14:36:17Z</time>
      </trkpt>
      <trkpt lat="46.10726" lon="4.59513">
        <ele>417</ele>
        <time>2017-02-02T14:36:18Z</time>
      </trkpt>
      <trkpt lat="46.10727" lon="4.59501">
        <ele>416</ele>
        <time>2017-02-02T14:36:27Z</time>
      </trkpt>
      <trkpt lat="46.10727" lon="4.595">
        <ele>411</ele>
        <time>2017-02-02T14:36:28Z</time>
      </trkpt>
      <trkpt lat="46.10729" lon="4.59488">
        <ele>411</ele>
        <time>2017-02-02T14:36:34Z</time>
      </trkpt>
      <trkpt lat="46.10729" lon="4.59486">
        <ele>411</ele>
        <time>2017-02-02T14:36:35Z</time>
      </trkpt>
      <trkpt lat="46.10729" lon="4.59473">
        <ele>411</ele>
        <time>2017-02-02T14:36:42Z</time>
      </trkpt>
      <trkpt lat="46.10728" lon="4.59471">
        <ele>411</ele>
        <time>2017-02-02T14:36:43Z</time>
      </trkpt>
      <trkpt lat="46.10728" lon="4.59459">
        <ele>410</ele>
        <time>2017-02-02T14:36:50Z</time>
      </trkpt>
      <trkpt lat="46.10728" lon="4.59458">
        <ele>410</ele>
        <time>2017-02-02T14:36:51Z</time>
      </trkpt>
      <trkpt lat="46.10724" lon="4.59448">
        <ele>409</ele>
        <time>2017-02-02T14:36:58Z</time>
      </trkpt>
      <trkpt lat="46.10723" lon="4.59446">
        <ele>409</ele>
        <time>2017-02-02T14:36:59Z</time>
      </trkpt>
      <trkpt lat="46.10718" lon="4.59437">
        <ele>409</ele>
        <time>2017-02-02T14:37:05Z</time>
      </trkpt>
      <trkpt lat="46.10718" lon="4.59435">
        <ele>409</ele>
        <time>2017-02-02T14:37:06Z</time>
      </trkpt>
      <trkpt lat="46.10713" lon="4.59425">
        <ele>410</ele>
        <time>2017-02-02T14:37:14Z</time>
      </trkpt>
      <trkpt lat="46.10712" lon="4.59424">
        <ele>410</ele>
        <time>2017-02-02T14:37:15Z</time>
      </trkpt>
      <trkpt lat="46.10705" lon="4.59415">
        <ele>402</ele>
        <time>2017-02-02T14:37:22Z</time>
      </trkpt>
      <trkpt lat="46.10704" lon="4.59414">
        <ele>402</ele>
        <time>2017-02-02T14:37:23Z</time>
      </trkpt>
      <trkpt lat="46.10705" lon="4.59401">
        <ele>401</ele>
        <time>2017-02-02T14:37:31Z</time>
      </trkpt>
      <trkpt lat="46.10705" lon="4.594">
        <ele>401</ele>
        <time>2017-02-02T14:37:32Z</time>
      </trkpt>
      <trkpt lat="46.10699" lon="4.59391">
        <ele>401</ele>
        <time>2017-02-02T14:37:40Z</time>
      </trkpt>
      <trkpt lat="46.10699" lon="4.59389">
        <ele>401</ele>
        <time>2017-02-02T14:37:41Z</time>
      </trkpt>
      <trkpt lat="46.10695" lon="4.5938">
        <ele>401</ele>
        <time>2017-02-02T14:37:51Z</time>
      </trkpt>
      <trkpt lat="46.10694" lon="4.59379">
        <ele>401</ele>
        <time>2017-02-02T14:37:52Z</time>
      </trkpt>
      <trkpt lat="46.10689" lon="4.5937">
        <ele>400</ele>
        <time>2017-02-02T14:37:58Z</time>
      </trkpt>
      <trkpt lat="46.10687" lon="4.59368">
        <ele>400</ele>
        <time>2017-02-02T14:37:59Z</time>
      </trkpt>
      <trkpt lat="46.10681" lon="4.59362">
        <ele>400</ele>
        <time>2017-02-02T14:38:03Z</time>
      </trkpt>
      <trkpt lat="46.1068" lon="4.5936">
        <ele>400</ele>
        <time>2017-02-02T14:38:04Z</time>
      </trkpt>
      <trkpt lat="46.10678" lon="4.59348">
        <ele>399</ele>
        <time>2017-02-02T14:38:14Z</time>
      </trkpt>
      <trkpt lat="46.10677" lon="4.59347">
        <ele>399</ele>
        <time>2017-02-02T14:38:15Z</time>
      </trkpt>
      <trkpt lat="46.10672" lon="4.59338">
        <ele>400</ele>
        <time>2017-02-02T14:38:23Z</time>
      </trkpt>
      <trkpt lat="46.10671" lon="4.59336">
        <ele>400</ele>
        <time>2017-02-02T14:38:24Z</time>
      </trkpt>
      <trkpt lat="46.10667" lon="4.59327">
        <ele>402</ele>
        <time>2017-02-02T14:38:31Z</time>
      </trkpt>
      <trkpt lat="46.10666" lon="4.59325">
        <ele>403</ele>
        <time>2017-02-02T14:38:32Z</time>
      </trkpt>
      <trkpt lat="46.10661" lon="4.59315">
        <ele>405</ele>
        <time>2017-02-02T14:38:38Z</time>
      </trkpt>
      <trkpt lat="46.1066" lon="4.59313">
        <ele>405</ele>
        <time>2017-02-02T14:38:39Z</time>
      </trkpt>
      <trkpt lat="46.10654" lon="4.59304">
        <ele>406</ele>
        <time>2017-02-02T14:38:46Z</time>
      </trkpt>
      <trkpt lat="46.10654" lon="4.59302">
        <ele>406</ele>
        <time>2017-02-02T14:38:47Z</time>
      </trkpt>
      <trkpt lat="46.10654" lon="4.59291">
        <ele>406</ele>
        <time>2017-02-02T14:38:55Z</time>
      </trkpt>
      <trkpt lat="46.10655" lon="4.59289">
        <ele>406</ele>
        <time>2017-02-02T14:38:56Z</time>
      </trkpt>
      <trkpt lat="46.10655" lon="4.59277">
        <ele>405</ele>
        <time>2017-02-02T14:39:42Z</time>
      </trkpt>
      <trkpt lat="46.10656" lon="4.59276">
        <ele>405</ele>
        <time>2017-02-02T14:39:43Z</time>
      </trkpt>
      <trkpt lat="46.10661" lon="4.59267">
        <ele>403</ele>
        <time>2017-02-02T14:39:50Z</time>
      </trkpt>
      <trkpt lat="46.10662" lon="4.59267">
        <ele>403</ele>
        <time>2017-02-02T14:39:51Z</time>
      </trkpt>
      <trkpt lat="46.1067" lon="4.59261">
        <ele>394</ele>
        <time>2017-02-02T14:39:57Z</time>
      </trkpt>
      <trkpt lat="46.10671" lon="4.5926">
        <ele>394</ele>
        <time>2017-02-02T14:39:58Z</time>
      </trkpt>
      <trkpt lat="46.10678" lon="4.59253">
        <ele>393</ele>
        <time>2017-02-02T14:40:04Z</time>
      </trkpt>
      <trkpt lat="46.10679" lon="4.59252">
        <ele>393</ele>
        <time>2017-02-02T14:40:05Z</time>
      </trkpt>
      <trkpt lat="46.10687" lon="4.59248">
        <ele>392</ele>
        <time>2017-02-02T14:40:13Z</time>
      </trkpt>
      <trkpt lat="46.10688" lon="4.59248">
        <ele>391</ele>
        <time>2017-02-02T14:40:14Z</time>
      </trkpt>
      <trkpt lat="46.10696" lon="4.59246">
        <ele>390</ele>
        <time>2017-02-02T14:40:22Z</time>
      </trkpt>
      <trkpt lat="46.10697" lon="4.59245">
        <ele>390</ele>
        <time>2017-02-02T14:40:23Z</time>
      </trkpt>
      <trkpt lat="46.10705" lon="4.59243">
        <ele>388</ele>
        <time>2017-02-02T14:40:30Z</time>
      </trkpt>
      <trkpt lat="46.10706" lon="4.59242">
        <ele>388</ele>
        <time>2017-02-02T14:40:31Z</time>
      </trkpt>
      <trkpt lat="46.10714" lon="4.59237">
        <ele>386</ele>
        <time>2017-02-02T14:40:40Z</time>
      </trkpt>
      <trkpt lat="46.10714" lon="4.59237">
        <ele>386</ele>
        <time>2017-02-02T14:40:41Z</time>
      </trkpt>
      <trkpt lat="46.10722" lon="4.59232">
        <ele>385</ele>
        <time>2017-02-02T14:40:56Z</time>
      </trkpt>
      <trkpt lat="46.10723" lon="4.59232">
        <ele>384</ele>
        <time>2017-02-02T14:40:57Z</time>
      </trkpt>
      <trkpt lat="46.10731" lon="4.59229">
        <ele>383</ele>
        <time>2017-02-02T14:41:03Z</time>
      </trkpt>
      <trkpt lat="46.10732" lon="4.59229">
        <ele>383</ele>
        <time>2017-02-02T14:41:04Z</time>
      </trkpt>
      <trkpt lat="46.1074" lon="4.59228">
        <ele>382</ele>
        <time>2017-02-02T14:41:09Z</time>
      </trkpt>
      <trkpt lat="46.10742" lon="4.59228">
        <ele>382</ele>
        <time>2017-02-02T14:41:10Z</time>
      </trkpt>
      <trkpt lat="46.10751" lon="4.59225">
        <ele>367</ele>
        <time>2017-02-02T14:41:15Z</time>
      </trkpt>
      <trkpt lat="46.10752" lon="4.59224">
        <ele>367</ele>
        <time>2017-02-02T14:41:16Z</time>
      </trkpt>
      <trkpt lat="46.10761" lon="4.59223">
        <ele>366</ele>
        <time>2017-02-02T14:41:24Z</time>
      </trkpt>
      <trkpt lat="46.10761" lon="4.59223">
        <ele>366</ele>
        <time>2017-02-02T14:41:25Z</time>
      </trkpt>
      <trkpt lat="46.1077" lon="4.59222">
        <ele>365</ele>
        <time>2017-02-02T14:41:36Z</time>
      </trkpt>
      <trkpt lat="46.10771" lon="4.59222">
        <ele>365</ele>
        <time>2017-02-02T14:41:37Z</time>
      </trkpt>
      <trkpt lat="46.10779" lon="4.5922">
        <ele>364</ele>
        <time>2017-02-02T14:41:43Z</time>
      </trkpt>
      <trkpt lat="46.10781" lon="4.5922">
        <ele>364</ele>
        <time>2017-02-02T14:41:44Z</time>
      </trkpt>
      <trkpt lat="46.10789" lon="4.59217">
        <ele>362</ele>
        <time>2017-02-02T14:41:50Z</time>
      </trkpt>
      <trkpt lat="46.1079" lon="4.59217">
        <ele>362</ele>
        <time>2017-02-02T14:41:51Z</time>
      </trkpt>
      <trkpt lat="46.10797" lon="4.59213">
        <ele>361</ele>
        <time>2017-02-02T14:41:56Z</time>
      </trkpt>
      <trkpt lat="46.10799" lon="4.59212">
        <ele>361</ele>
        <time>2017-02-02T14:41:57Z</time>
      </trkpt>
      <trkpt lat="46.10806" lon="4.59207">
        <ele>360</ele>
        <time>2017-02-02T14:42:03Z</time>
      </trkpt>
      <trkpt lat="46.10807" lon="4.59206">
        <ele>360</ele>
        <time>2017-02-02T14:42:04Z</time>
      </trkpt>
      <trkpt lat="46.10814" lon="4.592">
        <ele>359</ele>
        <time>2017-02-02T14:42:08Z</time>
      </trkpt>
      <trkpt lat="46.10815" lon="4.59198">
        <ele>359</ele>
        <time>2017-02-02T14:42:09Z</time>
      </trkpt>
      <trkpt lat="46.1082" lon="4.59189">
        <ele>358</ele>
        <time>2017-02-02T14:42:15Z</time>
      </trkpt>
      <trkpt lat="46.1082" lon="4.59187">
        <ele>358</ele>
        <time>2017-02-02T14:42:16Z</time>
      </trkpt>
      <trkpt lat="46.10825" lon="4.59177">
        <ele>356</ele>
        <time>2017-02-02T14:42:23Z</time>
      </trkpt>
      <trkpt lat="46.10825" lon="4.59175">
        <ele>355</ele>
        <time>2017-02-02T14:42:24Z</time>
      </trkpt>
      <trkpt lat="46.10826" lon="4.59164">
        <ele>354</ele>
        <time>2017-02-02T14:42:32Z</time>
      </trkpt>
      <trkpt lat="46.10827" lon="4.59162">
        <ele>355</ele>
        <time>2017-02-02T14:42:33Z</time>
      </trkpt>
      <trkpt lat="46.10826" lon="4.5915">
        <ele>357</ele>
        <time>2017-02-02T14:42:40Z</time>
      </trkpt>
      <trkpt lat="46.10826" lon="4.59148">
        <ele>357</ele>
        <time>2017-02-02T14:42:41Z</time>
      </trkpt>
      <trkpt lat="46.10826" lon="4.59136">
        <ele>359</ele>
        <time>2017-02-02T14:42:47Z</time>
      </trkpt>
      <trkpt lat="46.10826" lon="4.59135">
        <ele>359</ele>
        <time>2017-02-02T14:42:48Z</time>
      </trkpt>
      <trkpt lat="46.10826" lon="4.59123">
        <ele>359</ele>
        <time>2017-02-02T14:42:55Z</time>
      </trkpt>
      <trkpt lat="46.10827" lon="4.59121">
        <ele>359</ele>
        <time>2017-02-02T14:42:56Z</time>
      </trkpt>
      <trkpt lat="46.10829" lon="4.59109">
        <ele>358</ele>
        <time>2017-02-02T14:43:03Z</time>
      </trkpt>
      <trkpt lat="46.10829" lon="4.59108">
        <ele>357</ele>
        <time>2017-02-02T14:43:04Z</time>
      </trkpt>
      <trkpt lat="46.10829" lon="4.59096">
        <ele>355</ele>
        <time>2017-02-02T14:43:11Z</time>
      </trkpt>
      <trkpt lat="46.10829" lon="4.59094">
        <ele>355</ele>
        <time>2017-02-02T14:43:12Z</time>
      </trkpt>
      <trkpt lat="46.10829" lon="4.59082">
        <ele>352</ele>
        <time>2017-02-02T14:43:19Z</time>
      </trkpt>
      <trkpt lat="46.10829" lon="4.5908">
        <ele>352</ele>
        <time>2017-02-02T14:43:20Z</time>
      </trkpt>
      <trkpt lat="46.10825" lon="4.59069">
        <ele>355</ele>
        <time>2017-02-02T14:43:29Z</time>
      </trkpt>
      <trkpt lat="46.10825" lon="4.59067">
        <ele>355</ele>
        <time>2017-02-02T14:43:30Z</time>
      </trkpt>
      <trkpt lat="46.10826" lon="4.59055">
        <ele>356</ele>
        <time>2017-02-02T14:43:38Z</time>
      </trkpt>
      <trkpt lat="46.10826" lon="4.59053">
        <ele>356</ele>
        <time>2017-02-02T14:43:39Z</time>
      </trkpt>
      <trkpt lat="46.1083" lon="4.59042">
        <ele>356</ele>
        <time>2017-02-02T14:43:45Z</time>
      </trkpt>
      <trkpt lat="46.1083" lon="4.5904">
        <ele>355</ele>
        <time>2017-02-02T14:43:46Z</time>
      </trkpt>
      <trkpt lat="46.10829" lon="4.59028">
        <ele>354</ele>
        <time>2017-02-02T14:43:54Z</time>
      </trkpt>
      <trkpt lat="46.10829" lon="4.59027">
        <ele>354</ele>
        <time>2017-02-02T14:43:55Z</time>
      </trkpt>
      <trkpt lat="46.10828" lon="4.59016">
        <ele>352</ele>
        <time>2017-02-02T14:44:02Z</time>
      </trkpt>
      <trkpt lat="46.10829" lon="4.59014">
        <ele>351</ele>
        <time>2017-02-02T14:44:03Z</time>
      </trkpt>
      <trkpt lat="46.10828" lon="4.59002">
        <ele>348</ele>
        <time>2017-02-02T14:44:08Z</time>
      </trkpt>
      <trkpt lat="46.10828" lon="4.58999">
        <ele>347</ele>
        <time>2017-02-02T14:44:09Z</time>
      </trkpt>
      <trkpt lat="46.10827" lon="4.58988">
        <ele>349</ele>
        <time>2017-02-02T14:44:14Z</time>
      </trkpt>
      <trkpt lat="46.10828" lon="4.58986">
        <ele>349</ele>
        <time>2017-02-02T14:44:15Z</time>
      </trkpt>
      <trkpt lat="46.10828" lon="4.58973">
        <ele>350</ele>
        <time>2017-02-02T14:44:21Z</time>
      </trkpt>
      <trkpt lat="46.10829" lon="4.58971">
        <ele>350</ele>
        <time>2017-02-02T14:44:22Z</time>
      </trkpt>
      <trkpt lat="46.10827" lon="4.5896">
        <ele>350</ele>
        <time>2017-02-02T14:44:29Z</time>
      </trkpt>
      <trkpt lat="46.10825" lon="4.58958">
        <ele>350</ele>
        <time>2017-02-02T14:44:30Z</time>
      </trkpt>
      <trkpt lat="46.10821" lon="4.58947">
        <ele>350</ele>
        <time>2017-02-02T14:44:37Z</time>
      </trkpt>
      <trkpt lat="46.10821" lon="4.58946">
        <ele>349</ele>
        <time>2017-02-02T14:44:38Z</time>
      </trkpt>
      <trkpt lat="46.10819" lon="4.58933">
        <ele>347</ele>
        <time>2017-02-02T14:44:47Z</time>
      </trkpt>
      <trkpt lat="46.10819" lon="4.58933">
        <ele>347</ele>
        <time>2017-02-02T14:44:48Z</time>
      </trkpt>
      <trkpt lat="46.10826" lon="4.58939">
        <ele>347</ele>
        <time>2017-02-02T14:45:14Z</time>
      </trkpt>
      <trkpt lat="46.10827" lon="4.5894">
        <ele>347</ele>
        <time>2017-02-02T14:45:15Z</time>
      </trkpt>
      <trkpt lat="46.10835" lon="4.58945">
        <ele>332</ele>
        <time>2017-02-02T14:45:25Z</time>
      </trkpt>
      <trkpt lat="46.10836" lon="4.58945">
        <ele>332</ele>
        <time>2017-02-02T14:45:26Z</time>
      </trkpt>
      <trkpt lat="46.10843" lon="4.58952">
        <ele>332</ele>
        <time>2017-02-02T14:45:34Z</time>
      </trkpt>
      <trkpt lat="46.10844" lon="4.58952">
        <ele>332</ele>
        <time>2017-02-02T14:45:35Z</time>
      </trkpt>
      <trkpt lat="46.10849" lon="4.5896">
        <ele>332</ele>
        <time>2017-02-02T14:45:41Z</time>
      </trkpt>
      <trkpt lat="46.1085" lon="4.58962">
        <ele>332</ele>
        <time>2017-02-02T14:45:42Z</time>
      </trkpt>
      <trkpt lat="46.10855" lon="4.5897">
        <ele>332</ele>
        <time>2017-02-02T14:45:48Z</time>
      </trkpt>
      <trkpt lat="46.10856" lon="4.58972">
        <ele>332</ele>
        <time>2017-02-02T14:45:49Z</time>
      </trkpt>
      <trkpt lat="46.10861" lon="4.58982">
        <ele>332</ele>
        <time>2017-02-02T14:45:56Z</time>
      </trkpt>
      <trkpt lat="46.10862" lon="4.58983">
        <ele>332</ele>
        <time>2017-02-02T14:45:57Z</time>
      </trkpt>
      <trkpt lat="46.10865" lon="4.58994">
        <ele>332</ele>
        <time>2017-02-02T14:46:03Z</time>
      </trkpt>
      <trkpt lat="46.10866" lon="4.58996">
        <ele>331</ele>
        <time>2017-02-02T14:46:04Z</time>
      </trkpt>
      <trkpt lat="46.10871" lon="4.59005">
        <ele>333</ele>
        <time>2017-02-02T14:46:10Z</time>
      </trkpt>
      <trkpt lat="46.10872" lon="4.59006">
        <ele>333</ele>
        <time>2017-02-02T14:46:11Z</time>
      </trkpt>
      <trkpt lat="46.10877" lon="4.59016">
        <ele>332</ele>
        <time>2017-02-02T14:46:18Z</time>
      </trkpt>
      <trkpt lat="46.10878" lon="4.59018">
        <ele>331</ele>
        <time>2017-02-02T14:46:19Z</time>
      </trkpt>
      <trkpt lat="46.10882" lon="4.59027">
        <ele>331</ele>
        <time>2017-02-02T14:46:24Z</time>
      </trkpt>
      <trkpt lat="46.10882" lon="4.59029">
        <ele>331</ele>
        <time>2017-02-02T14:46:25Z</time>
      </trkpt>
      <trkpt lat="46.10887" lon="4.59039">
        <ele>330</ele>
        <time>2017-02-02T14:46:31Z</time>
      </trkpt>
      <trkpt lat="46.10888" lon="4.59041">
        <ele>330</ele>
        <time>2017-02-02T14:46:32Z</time>
      </trkpt>
      <trkpt lat="46.10893" lon="4.59049">
        <ele>329</ele>
        <time>2017-02-02T14:46:37Z</time>
      </trkpt>
      <trkpt lat="46.10894" lon="4.5905">
        <ele>329</ele>
        <time>2017-02-02T14:46:38Z</time>
      </trkpt>
      <trkpt lat="46.109" lon="4.5906">
        <ele>328</ele>
        <time>2017-02-02T14:46:44Z</time>
      </trkpt>
      <trkpt lat="46.10901" lon="4.59061">
        <ele>328</ele>
        <time>2017-02-02T14:46:45Z</time>
      </trkpt>
      <trkpt lat="46.10907" lon="4.5907">
        <ele>325</ele>
        <time>2017-02-02T14:46:51Z</time>
      </trkpt>
      <trkpt lat="46.10908" lon="4.5907">
        <ele>325</ele>
        <time>2017-02-02T14:46:52Z</time>
      </trkpt>
      <trkpt lat="46.10915" lon="4.59077">
        <ele>322</ele>
        <time>2017-02-02T14:47:00Z</time>
      </trkpt>
      <trkpt lat="46.10916" lon="4.59078">
        <ele>322</ele>
        <time>2017-02-02T14:47:01Z</time>
      </trkpt>
      <trkpt lat="46.10923" lon="4.59084">
        <ele>318</ele>
        <time>2017-02-02T14:47:09Z</time>
      </trkpt>
      <trkpt lat="46.10924" lon="4.59086">
        <ele>318</ele>
        <time>2017-02-02T14:47:10Z</time>
      </trkpt>
      <trkpt lat="46.10931" lon="4.59092">
        <ele>318</ele>
        <time>2017-02-02T14:47:16Z</time>
      </trkpt>
      <trkpt lat="46.10932" lon="4.59093">
        <ele>318</ele>
        <time>2017-02-02T14:47:17Z</time>
      </trkpt>
      <trkpt lat="46.10939" lon="4.59099">
        <ele>317</ele>
        <time>2017-02-02T14:47:23Z</time>
      </trkpt>
      <trkpt lat="46.10941" lon="4.591">
        <ele>317</ele>
        <time>2017-02-02T14:47:24Z</time>
      </trkpt>
      <trkpt lat="46.10948" lon="4.59106">
        <ele>317</ele>
        <time>2017-02-02T14:47:30Z</time>
      </trkpt>
      <trkpt lat="46.10949" lon="4.59108">
        <ele>316</ele>
        <time>2017-02-02T14:47:31Z</time>
      </trkpt>
      <trkpt lat="46.10949" lon="4.5912">
        <ele>316</ele>
        <time>2017-02-02T14:47:38Z</time>
      </trkpt>
      <trkpt lat="46.1095" lon="4.59121">
        <ele>316</ele>
        <time>2017-02-02T14:47:39Z</time>
      </trkpt>
      <trkpt lat="46.10952" lon="4.59134">
        <ele>316</ele>
        <time>2017-02-02T14:47:47Z</time>
      </trkpt>
      <trkpt lat="46.10952" lon="4.59135">
        <ele>316</ele>
        <time>2017-02-02T14:47:48Z</time>
      </trkpt>
      <trkpt lat="46.10954" lon="4.59146">
        <ele>316</ele>
        <time>2017-02-02T14:47:57Z</time>
      </trkpt>
      <trkpt lat="46.10954" lon="4.59148">
        <ele>316</ele>
        <time>2017-02-02T14:47:58Z</time>
      </trkpt>
      <trkpt lat="46.10955" lon="4.59159">
        <ele>316</ele>
        <time>2017-02-02T14:48:05Z</time>
      </trkpt>
      <trkpt lat="46.10955" lon="4.59161">
        <ele>316</ele>
        <time>2017-02-02T14:48:06Z</time>
      </trkpt>
      <trkpt lat="46.10956" lon="4.59174">
        <ele>317</ele>
        <time>2017-02-02T14:48:13Z</time>
      </trkpt>
      <trkpt lat="46.10956" lon="4.59176">
        <ele>317</ele>
        <time>2017-02-02T14:48:14Z</time>
      </trkpt>
      <trkpt lat="46.10958" lon="4.59187">
        <ele>317</ele>
        <time>2017-02-02T14:48:20Z</time>
      </trkpt>
      <trkpt lat="46.10958" lon="4.59189">
        <ele>317</ele>
        <time>2017-02-02T14:48:21Z</time>
      </trkpt>
      <trkpt lat="46.1096" lon="4.59201">
        <ele>317</ele>
        <time>2017-02-02T14:48:28Z</time>
      </trkpt>
      <trkpt lat="46.1096" lon="4.59203">
        <ele>317</ele>
        <time>2017-02-02T14:48:29Z</time>
      </trkpt>
      <trkpt lat="46.10961" lon="4.59215">
        <ele>317</ele>
        <time>2017-02-02T14:48:36Z</time>
      </trkpt>
      <trkpt lat="46.10961" lon="4.59217">
        <ele>317</ele>
        <time>2017-02-02T14:48:37Z</time>
      </trkpt>
      <trkpt lat="46.10963" lon="4.59229">
        <ele>317</ele>
        <time>2017-02-02T14:48:45Z</time>
      </trkpt>
      <trkpt lat="46.10963" lon="4.59231">
        <ele>317</ele>
        <time>2017-02-02T14:48:46Z</time>
      </trkpt>
      <trkpt lat="46.10968" lon="4.59241">
        <ele>317</ele>
        <time>2017-02-02T14:48:53Z</time>
      </trkpt>
      <trkpt lat="46.10969" lon="4.59242">
        <ele>317</ele>
        <time>2017-02-02T14:48:54Z</time>
      </trkpt>
      <trkpt lat="46.10974" lon="4.59252">
        <ele>318</ele>
        <time>2017-02-02T14:49:01Z</time>
      </trkpt>
      <trkpt lat="46.10974" lon="4.59253">
        <ele>318</ele>
        <time>2017-02-02T14:49:02Z</time>
      </trkpt>
      <trkpt lat="46.10977" lon="4.59265">
        <ele>318</ele>
        <time>2017-02-02T14:49:09Z</time>
      </trkpt>
      <trkpt lat="46.10978" lon="4.59267">
        <ele>318</ele>
        <time>2017-02-02T14:49:10Z</time>
      </trkpt>
      <trkpt lat="46.10979" lon="4.5928">
        <ele>319</ele>
        <time>2017-02-02T14:49:17Z</time>
      </trkpt>
      <trkpt lat="46.1098" lon="4.59281">
        <ele>319</ele>
        <time>2017-02-02T14:49:18Z</time>
      </trkpt>
      <trkpt lat="46.10983" lon="4.59292">
        <ele>319</ele>
        <time>2017-02-02T14:49:24Z</time>
      </trkpt>
      <trkpt lat="46.10983" lon="4.59294">
        <ele>319</ele>
        <time>2017-02-02T14:49:25Z</time>
      </trkpt>
      <trkpt lat="46.10985" lon="4.59305">
        <ele>319</ele>
        <time>2017-02-02T14:49:31Z</time>
      </trkpt>
      <trkpt lat="46.10985" lon="4.59307">
        <ele>319</ele>
        <time>2017-02-02T14:49:32Z</time>
      </trkpt>
      <trkpt lat="46.10986" lon="4.59319">
        <ele>319</ele>
        <time>2017-02-02T14:49:38Z</time>
      </trkpt>
      <trkpt lat="46.10986" lon="4.59321">
        <ele>319</ele>
        <time>2017-02-02T14:49:39Z</time>
      </trkpt>
      <trkpt lat="46.10987" lon="4.59333">
        <ele>318</ele>
        <time>2017-02-02T14:49:45Z</time>
      </trkpt>
      <trkpt lat="46.10988" lon="4.59335">
        <ele>319</ele>
        <time>2017-02-02T14:49:46Z</time>
      </trkpt>
      <trkpt lat="46.10989" lon="4.59346">
        <ele>320</ele>
        <time>2017-02-02T14:49:52Z</time>
      </trkpt>
      <trkpt lat="46.10989" lon="4.59347">
        <ele>320</ele>
        <time>2017-02-02T14:49:53Z</time>
      </trkpt>
      <trkpt lat="46.1099" lon="4.5936">
        <ele>321</ele>
        <time>2017-02-02T14:49:59Z</time>
      </trkpt>
      <trkpt lat="46.1099" lon="4.59362">
        <ele>321</ele>
        <time>2017-02-02T14:50:00Z</time>
      </trkpt>
      <trkpt lat="46.10992" lon="4.59372">
        <ele>321</ele>
        <time>2017-02-02T14:50:05Z</time>
      </trkpt>
      <trkpt lat="46.10992" lon="4.59375">
        <ele>321</ele>
        <time>2017-02-02T14:50:06Z</time>
      </trkpt>
      <trkpt lat="46.10991" lon="4.59386">
        <ele>321</ele>
        <time>2017-02-02T14:50:11Z</time>
      </trkpt>
      <trkpt lat="46.10991" lon="4.59389">
        <ele>321</ele>
        <time>2017-02-02T14:50:12Z</time>
      </trkpt>
      <trkpt lat="46.1099" lon="4.59401">
        <ele>320</ele>
        <time>2017-02-02T14:50:18Z</time>
      </trkpt>
      <trkpt lat="46.1099" lon="4.59403">
        <ele>319</ele>
        <time>2017-02-02T14:50:19Z</time>
      </trkpt>
      <trkpt lat="46.1099" lon="4.59416">
        <ele>318</ele>
        <time>2017-02-02T14:50:25Z</time>
      </trkpt>
      <trkpt lat="46.1099" lon="4.59418">
        <ele>319</ele>
        <time>2017-02-02T14:50:26Z</time>
      </trkpt>
      <trkpt lat="46.10993" lon="4.59428">
        <ele>320</ele>
        <time>2017-02-02T14:50:31Z</time>
      </trkpt>
      <trkpt lat="46.10993" lon="4.5943">
        <ele>320</ele>
        <time>2017-02-02T14:50:32Z</time>
      </trkpt>
      <trkpt lat="46.10993" lon="4.59443">
        <ele>322</ele>
        <time>2017-02-02T14:50:39Z</time>
      </trkpt>
      <trkpt lat="46.10993" lon="4.59445">
        <ele>322</ele>
        <time>2017-02-02T14:50:40Z</time>
      </trkpt>
      <trkpt lat="46.10993" lon="4.59457">
        <ele>323</ele>
        <time>2017-02-02T14:50:46Z</time>
      </trkpt>
      <trkpt lat="46.10993" lon="4.59459">
        <ele>323</ele>
        <time>2017-02-02T14:50:47Z</time>
      </trkpt>
      <trkpt lat="46.10993" lon="4.5947">
        <ele>322</ele>
        <time>2017-02-02T14:50:53Z</time>
      </trkpt>
      <trkpt lat="46.10993" lon="4.59472">
        <ele>322</ele>
        <time>2017-02-02T14:50:54Z</time>
      </trkpt>
      <trkpt lat="46.10996" lon="4.59482">
        <ele>321</ele>
        <time>2017-02-02T14:50:59Z</time>
      </trkpt>
      <trkpt lat="46.10996" lon="4.59484">
        <ele>320</ele>
        <time>2017-02-02T14:51:00Z</time>
      </trkpt>
      <trkpt lat="46.10998" lon="4.59496">
        <ele>317</ele>
        <time>2017-02-02T14:51:06Z</time>
      </trkpt>
      <trkpt lat="46.10998" lon="4.59498">
        <ele>316</ele>
        <time>2017-02-02T14:51:07Z</time>
      </trkpt>
      <trkpt lat="46.10998" lon="4.5951">
        <ele>320</ele>
        <time>2017-02-02T14:51:13Z</time>
      </trkpt>
      <trkpt lat="46.10998" lon="4.59512">
        <ele>320</ele>
        <time>2017-02-02T14:51:14Z</time>
      </trkpt>
      <trkpt lat="46.10995" lon="4.59524">
        <ele>323</ele>
        <time>2017-02-02T14:51:21Z</time>
      </trkpt>
      <trkpt lat="46.10995" lon="4.59526">
        <ele>323</ele>
        <time>2017-02-02T14:51:22Z</time>
      </trkpt>
      <trkpt lat="46.10995" lon="4.59538">
        <ele>324</ele>
        <time>2017-02-02T14:51:28Z</time>
      </trkpt>
      <trkpt lat="46.10995" lon="4.5954">
        <ele>324</ele>
        <time>2017-02-02T14:51:29Z</time>
      </trkpt>
      <trkpt lat="46.10995" lon="4.59551">
        <ele>324</ele>
        <time>2017-02-02T14:51:35Z</time>
      </trkpt>
      <trkpt lat="46.10995" lon="4.59553">
        <ele>324</ele>
        <time>2017-02-02T14:51:36Z</time>
      </trkpt>
      <trkpt lat="46.10997" lon="4.59565">
        <ele>323</ele>
        <time>2017-02-02T14:51:43Z</time>
      </trkpt>
      <trkpt lat="46.10997" lon="4.59567">
        <ele>322</ele>
        <time>2017-02-02T14:51:44Z</time>
      </trkpt>
      <trkpt lat="46.10999" lon="4.59579">
        <ele>319</ele>
        <time>2017-02-02T14:51:51Z</time>
      </trkpt>
      <trkpt lat="46.10999" lon="4.59581">
        <ele>318</ele>
        <time>2017-02-02T14:51:52Z</time>
      </trkpt>
      <trkpt lat="46.10999" lon="4.59592">
        <ele>321</ele>
        <time>2017-02-02T14:51:58Z</time>
      </trkpt>
      <trkpt lat="46.10998" lon="4.59594">
        <ele>321</ele>
        <time>2017-02-02T14:51:59Z</time>
      </trkpt>
      <trkpt lat="46.10997" lon="4.59607">
        <ele>324</ele>
        <time>2017-02-02T14:52:05Z</time>
      </trkpt>
      <trkpt lat="46.10997" lon="4.59609">
        <ele>324</ele>
        <time>2017-02-02T14:52:06Z</time>
      </trkpt>
      <trkpt lat="46.10997" lon="4.5962">
        <ele>325</ele>
        <time>2017-02-02T14:52:12Z</time>
      </trkpt>
      <trkpt lat="46.10998" lon="4.59622">
        <ele>325</ele>
        <time>2017-02-02T14:52:13Z</time>
      </trkpt>
      <trkpt lat="46.11" lon="4.59634">
        <ele>325</ele>
        <time>2017-02-02T14:52:19Z</time>
      </trkpt>
      <trkpt lat="46.11" lon="4.59636">
        <ele>313</ele>
        <time>2017-02-02T14:52:20Z</time>
      </trkpt>
      <trkpt lat="46.11003" lon="4.59648">
        <ele>314</ele>
        <time>2017-02-02T14:52:26Z</time>
      </trkpt>
      <trkpt lat="46.11004" lon="4.59649">
        <ele>314</ele>
        <time>2017-02-02T14:52:27Z</time>
      </trkpt>
      <trkpt lat="46.11005" lon="4.59661">
        <ele>315</ele>
        <time>2017-02-02T14:52:33Z</time>
      </trkpt>
      <trkpt lat="46.11005" lon="4.59663">
        <ele>315</ele>
        <time>2017-02-02T14:52:34Z</time>
      </trkpt>
      <trkpt lat="46.11005" lon="4.59675">
        <ele>315</ele>
        <time>2017-02-02T14:52:40Z</time>
      </trkpt>
      <trkpt lat="46.11004" lon="4.59677">
        <ele>315</ele>
        <time>2017-02-02T14:52:41Z</time>
      </trkpt>
      <trkpt lat="46.11002" lon="4.59689">
        <ele>314</ele>
        <time>2017-02-02T14:52:47Z</time>
      </trkpt>
      <trkpt lat="46.11002" lon="4.59691">
        <ele>314</ele>
        <time>2017-02-02T14:52:48Z</time>
      </trkpt>
      <trkpt lat="46.11002" lon="4.59703">
        <ele>314</ele>
        <time>2017-02-02T14:52:55Z</time>
      </trkpt>
      <trkpt lat="46.11002" lon="4.59704">
        <ele>314</ele>
        <time>2017-02-02T14:52:56Z</time>
      </trkpt>
      <trkpt lat="46.11004" lon="4.59716">
        <ele>314</ele>
        <time>2017-02-02T14:53:02Z</time>
      </trkpt>
      <trkpt lat="46.11005" lon="4.59718">
        <ele>314</ele>
        <time>2017-02-02T14:53:03Z</time>
      </trkpt>
      <trkpt lat="46.11006" lon="4.5973">
        <ele>315</ele>
        <time>2017-02-02T14:53:10Z</time>
      </trkpt>
      <trkpt lat="46.11006" lon="4.59732">
        <ele>315</ele>
        <time>2017-02-02T14:53:11Z</time>
      </trkpt>
      <trkpt lat="46.11004" lon="4.59743">
        <ele>316</ele>
        <time>2017-02-02T14:53:17Z</time>
      </trkpt>
      <trkpt lat="46.11004" lon="4.59745">
        <ele>317</ele>
        <time>2017-02-02T14:53:18Z</time>
      </trkpt>
      <trkpt lat="46.11004" lon="4.59757">
        <ele>316</ele>
        <time>2017-02-02T14:53:26Z</time>
      </trkpt>
      <trkpt lat="46.11004" lon="4.59759">
        <ele>316</ele>
        <time>2017-02-02T14:53:27Z</time>
      </trkpt>
      <trkpt lat="46.11004" lon="4.59771">
        <ele>315</ele>
        <time>2017-02-02T14:53:35Z</time>
      </trkpt>
      <trkpt lat="46.11003" lon="4.59773">
        <ele>314</ele>
        <time>2017-02-02T14:53:36Z</time>
      </trkpt>
      <trkpt lat="46.11001" lon="4.59784">
        <ele>314</ele>
        <time>2017-02-02T14:53:41Z</time>
      </trkpt>
      <trkpt lat="46.11001" lon="4.59786">
        <ele>314</ele>
        <time>2017-02-02T14:53:42Z</time>
      </trkpt>
      <trkpt lat="46.11001" lon="4.59797">
        <ele>314</ele>
        <time>2017-02-02T14:53:47Z</time>
      </trkpt>
      <trkpt lat="46.11001" lon="4.598">
        <ele>314</ele>
        <time>2017-02-02T14:53:48Z</time>
      </trkpt>
      <trkpt lat="46.11002" lon="4.59812">
        <ele>315</ele>
        <time>2017-02-02T14:53:53Z</time>
      </trkpt>
      <trkpt lat="46.11002" lon="4.59814">
        <ele>315</ele>
        <time>2017-02-02T14:53:54Z</time>
      </trkpt>
      <trkpt lat="46.11001" lon="4.59826">
        <ele>317</ele>
        <time>2017-02-02T14:54:01Z</time>
      </trkpt>
      <trkpt lat="46.11001" lon="4.59828">
        <ele>317</ele>
        <time>2017-02-02T14:54:02Z</time>
      </trkpt>
      <trkpt lat="46.10998" lon="4.59838">
        <ele>321</ele>
        <time>2017-02-02T14:54:09Z</time>
      </trkpt>
      <trkpt lat="46.10997" lon="4.5984">
        <ele>322</ele>
        <time>2017-02-02T14:54:10Z</time>
      </trkpt>
      <trkpt lat="46.10997" lon="4.59852">
        <ele>325</ele>
        <time>2017-02-02T14:54:17Z</time>
      </trkpt>
      <trkpt lat="46.10996" lon="4.59853">
        <ele>325</ele>
        <time>2017-02-02T14:54:18Z</time>
      </trkpt>
      <trkpt lat="46.10995" lon="4.59865">
        <ele>327</ele>
        <time>2017-02-02T14:54:25Z</time>
      </trkpt>
      <trkpt lat="46.10995" lon="4.59867">
        <ele>327</ele>
        <time>2017-02-02T14:54:26Z</time>
      </trkpt>
      <trkpt lat="46.10992" lon="4.59879">
        <ele>327</ele>
        <time>2017-02-02T14:54:32Z</time>
      </trkpt>
      <trkpt lat="46.10992" lon="4.59881">
        <ele>327</ele>
        <time>2017-02-02T14:54:33Z</time>
      </trkpt>
      <trkpt lat="46.10992" lon="4.59892">
        <ele>326</ele>
        <time>2017-02-02T14:54:39Z</time>
      </trkpt>
      <trkpt lat="46.10992" lon="4.59894">
        <ele>326</ele>
        <time>2017-02-02T14:54:40Z</time>
      </trkpt>
      <trkpt lat="46.1099" lon="4.59906">
        <ele>324</ele>
        <time>2017-02-02T14:54:46Z</time>
      </trkpt>
      <trkpt lat="46.1099" lon="4.59907">
        <ele>324</ele>
        <time>2017-02-02T14:54:47Z</time>
      </trkpt>
      <trkpt lat="46.10989" lon="4.5992">
        <ele>323</ele>
        <time>2017-02-02T14:54:54Z</time>
      </trkpt>
      <trkpt lat="46.10989" lon="4.59922">
        <ele>323</ele>
        <time>2017-02-02T14:54:55Z</time>
      </trkpt>
      <trkpt lat="46.10989" lon="4.59933">
        <ele>325</ele>
        <time>2017-02-02T14:55:01Z</time>
      </trkpt>
      <trkpt lat="46.10989" lon="4.59935">
        <ele>326</ele>
        <time>2017-02-02T14:55:02Z</time>
      </trkpt>
      <trkpt lat="46.10989" lon="4.59948">
        <ele>327</ele>
        <time>2017-02-02T14:55:09Z</time>
      </trkpt>
      <trkpt lat="46.10989" lon="4.59949">
        <ele>327</ele>
        <time>2017-02-02T14:55:10Z</time>
      </trkpt>
      <trkpt lat="46.1099" lon="4.59961">
        <ele>327</ele>
        <time>2017-02-02T14:55:17Z</time>
      </trkpt>
      <trkpt lat="46.10989" lon="4.59963">
        <ele>327</ele>
        <time>2017-02-02T14:55:18Z</time>
      </trkpt>
      <trkpt lat="46.10989" lon="4.59975">
        <ele>327</ele>
        <time>2017-02-02T14:55:25Z</time>
      </trkpt>
      <trkpt lat="46.10989" lon="4.59977">
        <ele>327</ele>
        <time>2017-02-02T14:55:26Z</time>
      </trkpt>
      <trkpt lat="46.1099" lon="4.5999">
        <ele>325</ele>
        <time>2017-02-02T14:55:33Z</time>
      </trkpt>
      <trkpt lat="46.1099" lon="4.59991">
        <ele>325</ele>
        <time>2017-02-02T14:55:34Z</time>
      </trkpt>
      <trkpt lat="46.10991" lon="4.60003">
        <ele>323</ele>
        <time>2017-02-02T14:55:40Z</time>
      </trkpt>
      <trkpt lat="46.10991" lon="4.60005">
        <ele>324</ele>
        <time>2017-02-02T14:55:41Z</time>
      </trkpt>
      <trkpt lat="46.10989" lon="4.60017">
        <ele>326</ele>
        <time>2017-02-02T14:55:47Z</time>
      </trkpt>
      <trkpt lat="46.10989" lon="4.60019">
        <ele>326</ele>
        <time>2017-02-02T14:55:48Z</time>
      </trkpt>
      <trkpt lat="46.10986" lon="4.60029">
        <ele>327</ele>
        <time>2017-02-02T14:55:54Z</time>
      </trkpt>
      <trkpt lat="46.10985" lon="4.60031">
        <ele>327</ele>
        <time>2017-02-02T14:55:55Z</time>
      </trkpt>
      <trkpt lat="46.10981" lon="4.60041">
        <ele>328</ele>
        <time>2017-02-02T14:56:01Z</time>
      </trkpt>
      <trkpt lat="46.1098" lon="4.60042">
        <ele>328</ele>
        <time>2017-02-02T14:56:02Z</time>
      </trkpt>
      <trkpt lat="46.10976" lon="4.60052">
        <ele>328</ele>
        <time>2017-02-02T14:56:08Z</time>
      </trkpt>
      <trkpt lat="46.10975" lon="4.60054">
        <ele>328</ele>
        <time>2017-02-02T14:56:09Z</time>
      </trkpt>
      <trkpt lat="46.10972" lon="4.60066">
        <ele>328</ele>
        <time>2017-02-02T14:56:15Z</time>
      </trkpt>
      <trkpt lat="46.10972" lon="4.60068">
        <ele>328</ele>
        <time>2017-02-02T14:56:16Z</time>
      </trkpt>
      <trkpt lat="46.10972" lon="4.60081">
        <ele>327</ele>
        <time>2017-02-02T14:56:23Z</time>
      </trkpt>
      <trkpt lat="46.10972" lon="4.60083">
        <ele>327</ele>
        <time>2017-02-02T14:56:24Z</time>
      </trkpt>
      <trkpt lat="46.10971" lon="4.60094">
        <ele>326</ele>
        <time>2017-02-02T14:56:30Z</time>
      </trkpt>
      <trkpt lat="46.10971" lon="4.60096">
        <ele>326</ele>
        <time>2017-02-02T14:56:31Z</time>
      </trkpt>
      <trkpt lat="46.1097" lon="4.60107">
        <ele>326</ele>
        <time>2017-02-02T14:56:37Z</time>
      </trkpt>
      <trkpt lat="46.1097" lon="4.60109">
        <ele>326</ele>
        <time>2017-02-02T14:56:38Z</time>
      </trkpt>
      <trkpt lat="46.10972" lon="4.60121">
        <ele>326</ele>
        <time>2017-02-02T14:56:44Z</time>
      </trkpt>
      <trkpt lat="46.10972" lon="4.60124">
        <ele>326</ele>
        <time>2017-02-02T14:56:45Z</time>
      </trkpt>
      <trkpt lat="46.10973" lon="4.60135">
        <ele>325</ele>
        <time>2017-02-02T14:56:51Z</time>
      </trkpt>
      <trkpt lat="46.10973" lon="4.60137">
        <ele>325</ele>
        <time>2017-02-02T14:56:52Z</time>
      </trkpt>
      <trkpt lat="46.10971" lon="4.60149">
        <ele>325</ele>
        <time>2017-02-02T14:56:59Z</time>
      </trkpt>
      <trkpt lat="46.10971" lon="4.60151">
        <ele>325</ele>
        <time>2017-02-02T14:57:00Z</time>
      </trkpt>
      <trkpt lat="46.1097" lon="4.60162">
        <ele>325</ele>
        <time>2017-02-02T14:57:06Z</time>
      </trkpt>
      <trkpt lat="46.10969" lon="4.60164">
        <ele>325</ele>
        <time>2017-02-02T14:57:07Z</time>
      </trkpt>
      <trkpt lat="46.10965" lon="4.60175">
        <ele>323</ele>
        <time>2017-02-02T14:57:13Z</time>
      </trkpt>
      <trkpt lat="46.10964" lon="4.60178">
        <ele>323</ele>
        <time>2017-02-02T14:57:14Z</time>
      </trkpt>
      <trkpt lat="46.10963" lon="4.60189">
        <ele>324</ele>
        <time>2017-02-02T14:57:20Z</time>
      </trkpt>
      <trkpt lat="46.10962" lon="4.6019">
        <ele>324</ele>
        <time>2017-02-02T14:57:21Z</time>
      </trkpt>
      <trkpt lat="46.10964" lon="4.60202">
        <ele>323</ele>
        <time>2017-02-02T14:57:27Z</time>
      </trkpt>
      <trkpt lat="46.10963" lon="4.60203">
        <ele>323</ele>
        <time>2017-02-02T14:57:28Z</time>
      </trkpt>
      <trkpt lat="46.10961" lon="4.60214">
        <ele>323</ele>
        <time>2017-02-02T14:57:34Z</time>
      </trkpt>
      <trkpt lat="46.1096" lon="4.60216">
        <ele>323</ele>
        <time>2017-02-02T14:57:35Z</time>
      </trkpt>
      <trkpt lat="46.10957" lon="4.60226">
        <ele>324</ele>
        <time>2017-02-02T14:57:41Z</time>
      </trkpt>
      <trkpt lat="46.10956" lon="4.60228">
        <ele>324</ele>
        <time>2017-02-02T14:57:42Z</time>
      </trkpt>
      <trkpt lat="46.10952" lon="4.6024">
        <ele>324</ele>
        <time>2017-02-02T14:57:49Z</time>
      </trkpt>
      <trkpt lat="46.10952" lon="4.60242">
        <ele>324</ele>
        <time>2017-02-02T14:57:50Z</time>
      </trkpt>
      <trkpt lat="46.10949" lon="4.60254">
        <ele>322</ele>
        <time>2017-02-02T14:57:57Z</time>
      </trkpt>
      <trkpt lat="46.10949" lon="4.60255">
        <ele>322</ele>
        <time>2017-02-02T14:57:58Z</time>
      </trkpt>
      <trkpt lat="46.10947" lon="4.60268">
        <ele>322</ele>
        <time>2017-02-02T14:58:08Z</time>
      </trkpt>
      <trkpt lat="46.10946" lon="4.60269">
        <ele>322</ele>
        <time>2017-02-02T14:58:09Z</time>
      </trkpt>
      <trkpt lat="46.10944" lon="4.60279">
        <ele>322</ele>
        <time>2017-02-02T14:58:16Z</time>
      </trkpt>
      <trkpt lat="46.10943" lon="4.60281">
        <ele>322</ele>
        <time>2017-02-02T14:58:17Z</time>
      </trkpt>
      <trkpt lat="46.10942" lon="4.60293">
        <ele>322</ele>
        <time>2017-02-02T14:58:23Z</time>
      </trkpt>
      <trkpt lat="46.10942" lon="4.60296">
        <ele>322</ele>
        <time>2017-02-02T14:58:24Z</time>
      </trkpt>
      <trkpt lat="46.10941" lon="4.60308">
        <ele>322</ele>
        <time>2017-02-02T14:58:30Z</time>
      </trkpt>
      <trkpt lat="46.10941" lon="4.6031">
        <ele>322</ele>
        <time>2017-02-02T14:58:31Z</time>
      </trkpt>
      <trkpt lat="46.10939" lon="4.60323">
        <ele>323</ele>
        <time>2017-02-02T14:58:37Z</time>
      </trkpt>
      <trkpt lat="46.10939" lon="4.60324">
        <ele>323</ele>
        <time>2017-02-02T14:58:38Z</time>
      </trkpt>
      <trkpt lat="46.10937" lon="4.60335">
        <ele>322</ele>
        <time>2017-02-02T14:58:44Z</time>
      </trkpt>
      <trkpt lat="46.10937" lon="4.60337">
        <ele>322</ele>
        <time>2017-02-02T14:58:45Z</time>
      </trkpt>
      <trkpt lat="46.10938" lon="4.60349">
        <ele>320</ele>
        <time>2017-02-02T14:58:51Z</time>
      </trkpt>
      <trkpt lat="46.10938" lon="4.60351">
        <ele>320</ele>
        <time>2017-02-02T14:58:52Z</time>
      </trkpt>
      <trkpt lat="46.1094" lon="4.60363">
        <ele>319</ele>
        <time>2017-02-02T14:58:58Z</time>
      </trkpt>
      <trkpt lat="46.1094" lon="4.60365">
        <ele>319</ele>
        <time>2017-02-02T14:58:59Z</time>
      </trkpt>
      <trkpt lat="46.10939" lon="4.60376">
        <ele>318</ele>
        <time>2017-02-02T14:59:04Z</time>
      </trkpt>
      <trkpt lat="46.1094" lon="4.60378">
        <ele>318</ele>
        <time>2017-02-02T14:59:05Z</time>
      </trkpt>
      <trkpt lat="46.10942" lon="4.6039">
        <ele>318</ele>
        <time>2017-02-02T14:59:11Z</time>
      </trkpt>
      <trkpt lat="46.10942" lon="4.60391">
        <ele>318</ele>
        <time>2017-02-02T14:59:12Z</time>
      </trkpt>
      <trkpt lat="46.10947" lon="4.60401">
        <ele>317</ele>
        <time>2017-02-02T14:59:19Z</time>
      </trkpt>
      <trkpt lat="46.10948" lon="4.60403">
        <ele>317</ele>
        <time>2017-02-02T14:59:20Z</time>
      </trkpt>
      <trkpt lat="46.10953" lon="4.60413">
        <ele>316</ele>
        <time>2017-02-02T14:59:26Z</time>
      </trkpt>
      <trkpt lat="46.10953" lon="4.60415">
        <ele>316</ele>
        <time>2017-02-02T14:59:27Z</time>
      </trkpt>
      <trkpt lat="46.10959" lon="4.60425">
        <ele>313</ele>
        <time>2017-02-02T14:59:33Z</time>
      </trkpt>
      <trkpt lat="46.10959" lon="4.60427">
        <ele>313</ele>
        <time>2017-02-02T14:59:34Z</time>
      </trkpt>
      <trkpt lat="46.10965" lon="4.60436">
        <ele>312</ele>
        <time>2017-02-02T14:59:41Z</time>
      </trkpt>
      <trkpt lat="46.10965" lon="4.60438">
        <ele>312</ele>
        <time>2017-02-02T14:59:42Z</time>
      </trkpt>
      <trkpt lat="46.10968" lon="4.60448">
        <ele>311</ele>
        <time>2017-02-02T14:59:48Z</time>
      </trkpt>
      <trkpt lat="46.1097" lon="4.60449">
        <ele>311</ele>
        <time>2017-02-02T14:59:49Z</time>
      </trkpt>
      <trkpt lat="46.10973" lon="4.6046">
        <ele>310</ele>
        <time>2017-02-02T14:59:55Z</time>
      </trkpt>
      <trkpt lat="46.10973" lon="4.60462">
        <ele>310</ele>
        <time>2017-02-02T14:59:56Z</time>
      </trkpt>
      <trkpt lat="46.10974" lon="4.60473">
        <ele>310</ele>
        <time>2017-02-02T15:00:02Z</time>
      </trkpt>
      <trkpt lat="46.10975" lon="4.60475">
        <ele>310</ele>
        <time>2017-02-02T15:00:03Z</time>
      </trkpt>
      <trkpt lat="46.10977" lon="4.60485">
        <ele>309</ele>
        <time>2017-02-02T15:00:09Z</time>
      </trkpt>
      <trkpt lat="46.10978" lon="4.60487">
        <ele>308</ele>
        <time>2017-02-02T15:00:10Z</time>
      </trkpt>
      <trkpt lat="46.10977" lon="4.60499">
        <ele>308</ele>
        <time>2017-02-02T15:00:16Z</time>
      </trkpt>
      <trkpt lat="46.10978" lon="4.60501">
        <ele>307</ele>
        <time>2017-02-02T15:00:17Z</time>
      </trkpt>
      <trkpt lat="46.1098" lon="4.60512">
        <ele>307</ele>
        <time>2017-02-02T15:00:23Z</time>
      </trkpt>
      <trkpt lat="46.1098" lon="4.60514">
        <ele>307</ele>
        <time>2017-02-02T15:00:24Z</time>
      </trkpt>
      <trkpt lat="46.10977" lon="4.60525">
        <ele>308</ele>
        <time>2017-02-02T15:00:30Z</time>
      </trkpt>
      <trkpt lat="46.10977" lon="4.60527">
        <ele>308</ele>
        <time>2017-02-02T15:00:31Z</time>
      </trkpt>
      <trkpt lat="46.1098" lon="4.60539">
        <ele>308</ele>
        <time>2017-02-02T15:00:37Z</time>
      </trkpt>
      <trkpt lat="46.1098" lon="4.60541">
        <ele>308</ele>
        <time>2017-02-02T15:00:38Z</time>
      </trkpt>
      <trkpt lat="46.10981" lon="4.60553">
        <ele>308</ele>
        <time>2017-02-02T15:00:44Z</time>
      </trkpt>
      <trkpt lat="46.10982" lon="4.60555">
        <ele>308</ele>
        <time>2017-02-02T15:00:45Z</time>
      </trkpt>
      <trkpt lat="46.10984" lon="4.60566">
        <ele>306</ele>
        <time>2017-02-02T15:00:51Z</time>
      </trkpt>
      <trkpt lat="46.10985" lon="4.60568">
        <ele>306</ele>
        <time>2017-02-02T15:00:52Z</time>
      </trkpt>
      <trkpt lat="46.10986" lon="4.60579">
        <ele>305</ele>
        <time>2017-02-02T15:00:58Z</time>
      </trkpt>
      <trkpt lat="46.10987" lon="4.6058">
        <ele>304</ele>
        <time>2017-02-02T15:00:59Z</time>
      </trkpt>
      <trkpt lat="46.10991" lon="4.60591">
        <ele>303</ele>
        <time>2017-02-02T15:01:05Z</time>
      </trkpt>
      <trkpt lat="46.10991" lon="4.60592">
        <ele>303</ele>
        <time>2017-02-02T15:01:06Z</time>
      </trkpt>
      <trkpt lat="46.10993" lon="4.60604">
        <ele>304</ele>
        <time>2017-02-02T15:01:13Z</time>
      </trkpt>
      <trkpt lat="46.10994" lon="4.60606">
        <ele>305</ele>
        <time>2017-02-02T15:01:14Z</time>
      </trkpt>
      <trkpt lat="46.10996" lon="4.60617">
        <ele>305</ele>
        <time>2017-02-02T15:01:20Z</time>
      </trkpt>
      <trkpt lat="46.10996" lon="4.60619">
        <ele>305</ele>
        <time>2017-02-02T15:01:21Z</time>
      </trkpt>
      <trkpt lat="46.10998" lon="4.60631">
        <ele>305</ele>
        <time>2017-02-02T15:01:28Z</time>
      </trkpt>
      <trkpt lat="46.10998" lon="4.60633">
        <ele>304</ele>
        <time>2017-02-02T15:01:29Z</time>
      </trkpt>
      <trkpt lat="46.10999" lon="4.60644">
        <ele>303</ele>
        <time>2017-02-02T15:01:35Z</time>
      </trkpt>
      <trkpt lat="46.10999" lon="4.60646">
        <ele>303</ele>
        <time>2017-02-02T15:01:36Z</time>
      </trkpt>
      <trkpt lat="46.11002" lon="4.60657">
        <ele>296</ele>
        <time>2017-02-02T15:01:42Z</time>
      </trkpt>
      <trkpt lat="46.11003" lon="4.60659">
        <ele>296</ele>
        <time>2017-02-02T15:01:43Z</time>
      </trkpt>
      <trkpt lat="46.11004" lon="4.60671">
        <ele>296</ele>
        <time>2017-02-02T15:01:49Z</time>
      </trkpt>
      <trkpt lat="46.11005" lon="4.60673">
        <ele>295</ele>
        <time>2017-02-02T15:01:50Z</time>
      </trkpt>
      <trkpt lat="46.11005" lon="4.60686">
        <ele>293</ele>
        <time>2017-02-02T15:01:57Z</time>
      </trkpt>
      <trkpt lat="46.11004" lon="4.60687">
        <ele>293</ele>
        <time>2017-02-02T15:01:58Z</time>
      </trkpt>
      <trkpt lat="46.11005" lon="4.60699">
        <ele>292</ele>
        <time>2017-02-02T15:02:05Z</time>
      </trkpt>
      <trkpt lat="46.11006" lon="4.607">
        <ele>292</ele>
        <time>2017-02-02T15:02:06Z</time>
      </trkpt>
      <trkpt lat="46.11008" lon="4.60713">
        <ele>292</ele>
        <time>2017-02-02T15:02:13Z</time>
      </trkpt>
      <trkpt lat="46.11008" lon="4.60714">
        <ele>292</ele>
        <time>2017-02-02T15:02:14Z</time>
      </trkpt>
      <trkpt lat="46.1101" lon="4.60726">
        <ele>292</ele>
        <time>2017-02-02T15:02:20Z</time>
      </trkpt>
      <trkpt lat="46.1101" lon="4.60727">
        <ele>292</ele>
        <time>2017-02-02T15:02:21Z</time>
      </trkpt>
      <trkpt lat="46.11015" lon="4.60737">
        <ele>291</ele>
        <time>2017-02-02T15:02:27Z</time>
      </trkpt>
      <trkpt lat="46.11016" lon="4.60738">
        <ele>291</ele>
        <time>2017-02-02T15:02:28Z</time>
      </trkpt>
      <trkpt lat="46.11021" lon="4.60749">
        <ele>291</ele>
        <time>2017-02-02T15:02:35Z</time>
      </trkpt>
      <trkpt lat="46.1102" lon="4.60751">
        <ele>290</ele>
        <time>2017-02-02T15:02:36Z</time>
      </trkpt>
      <trkpt lat="46.11024" lon="4.60761">
        <ele>289</ele>
        <time>2017-02-02T15:02:43Z</time>
      </trkpt>
      <trkpt lat="46.11025" lon="4.60762">
        <ele>289</ele>
        <time>2017-02-02T15:02:44Z</time>
      </trkpt>
      <trkpt lat="46.11028" lon="4.60773">
        <ele>288</ele>
        <time>2017-02-02T15:02:50Z</time>
      </trkpt>
      <trkpt lat="46.11028" lon="4.60775">
        <ele>288</ele>
        <time>2017-02-02T15:02:51Z</time>
      </trkpt>
      <trkpt lat="46.11029" lon="4.60787">
        <ele>288</ele>
        <time>2017-02-02T15:02:58Z</time>
      </trkpt>
      <trkpt lat="46.11029" lon="4.60789">
        <ele>288</ele>
        <time>2017-02-02T15:02:59Z</time>
      </trkpt>
      <trkpt lat="46.11032" lon="4.60799">
        <ele>287</ele>
        <time>2017-02-02T15:03:04Z</time>
      </trkpt>
      <trkpt lat="46.11033" lon="4.60801">
        <ele>287</ele>
        <time>2017-02-02T15:03:05Z</time>
      </trkpt>
      <trkpt lat="46.11034" lon="4.60813">
        <ele>287</ele>
        <time>2017-02-02T15:03:11Z</time>
      </trkpt>
      <trkpt lat="46.11034" lon="4.60815">
        <ele>287</ele>
        <time>2017-02-02T15:03:12Z</time>
      </trkpt>
      <trkpt lat="46.11035" lon="4.60827">
        <ele>287</ele>
        <time>2017-02-02T15:03:19Z</time>
      </trkpt>
      <trkpt lat="46.11036" lon="4.60829">
        <ele>287</ele>
        <time>2017-02-02T15:03:20Z</time>
      </trkpt>
      <trkpt lat="46.11037" lon="4.6084">
        <ele>286</ele>
        <time>2017-02-02T15:03:26Z</time>
      </trkpt>
      <trkpt lat="46.11037" lon="4.60842">
        <ele>286</ele>
        <time>2017-02-02T15:03:27Z</time>
      </trkpt>
      <trkpt lat="46.11038" lon="4.60853">
        <ele>286</ele>
        <time>2017-02-02T15:03:33Z</time>
      </trkpt>
      <trkpt lat="46.11038" lon="4.60855">
        <ele>286</ele>
        <time>2017-02-02T15:03:34Z</time>
      </trkpt>
      <trkpt lat="46.11035" lon="4.60867">
        <ele>286</ele>
        <time>2017-02-02T15:03:41Z</time>
      </trkpt>
      <trkpt lat="46.11035" lon="4.60868">
        <ele>286</ele>
        <time>2017-02-02T15:03:42Z</time>
      </trkpt>
      <trkpt lat="46.11032" lon="4.6088">
        <ele>286</ele>
        <time>2017-02-02T15:03:49Z</time>
      </trkpt>
      <trkpt lat="46.11031" lon="4.60881">
        <ele>286</ele>
        <time>2017-02-02T15:03:50Z</time>
      </trkpt>
      <trkpt lat="46.11027" lon="4.60891">
        <ele>286</ele>
        <time>2017-02-02T15:03:56Z</time>
      </trkpt>
      <trkpt lat="46.11026" lon="4.60893">
        <ele>286</ele>
        <time>2017-02-02T15:03:57Z</time>
      </trkpt>
      <trkpt lat="46.11022" lon="4.60904">
        <ele>287</ele>
        <time>2017-02-02T15:04:03Z</time>
      </trkpt>
      <trkpt lat="46.11021" lon="4.60906">
        <ele>287</ele>
        <time>2017-02-02T15:04:04Z</time>
      </trkpt>
      <trkpt lat="46.11017" lon="4.60916">
        <ele>288</ele>
        <time>2017-02-02T15:04:10Z</time>
      </trkpt>
      <trkpt lat="46.11016" lon="4.60917">
        <ele>287</ele>
        <time>2017-02-02T15:04:11Z</time>
      </trkpt>
      <trkpt lat="46.11012" lon="4.60928">
        <ele>287</ele>
        <time>2017-02-02T15:04:18Z</time>
      </trkpt>
      <trkpt lat="46.11011" lon="4.6093">
        <ele>287</ele>
        <time>2017-02-02T15:04:19Z</time>
      </trkpt>
      <trkpt lat="46.11005" lon="4.60939">
        <ele>286</ele>
        <time>2017-02-02T15:04:27Z</time>
      </trkpt>
      <trkpt lat="46.11004" lon="4.6094">
        <ele>286</ele>
        <time>2017-02-02T15:04:28Z</time>
      </trkpt>
      <trkpt lat="46.10998" lon="4.60948">
        <ele>291</ele>
        <time>2017-02-02T15:04:35Z</time>
      </trkpt>
      <trkpt lat="46.10997" lon="4.6095">
        <ele>291</ele>
        <time>2017-02-02T15:04:36Z</time>
      </trkpt>
      <trkpt lat="46.10991" lon="4.60959">
        <ele>291</ele>
        <time>2017-02-02T15:04:43Z</time>
      </trkpt>
      <trkpt lat="46.10991" lon="4.6096">
        <ele>291</ele>
        <time>2017-02-02T15:04:44Z</time>
      </trkpt>
      <trkpt lat="46.10986" lon="4.60971">
        <ele>290</ele>
        <time>2017-02-02T15:04:52Z</time>
      </trkpt>
      <trkpt lat="46.10986" lon="4.60972">
        <ele>290</ele>
        <time>2017-02-02T15:04:53Z</time>
      </trkpt>
      <trkpt lat="46.10983" lon="4.60984">
        <ele>289</ele>
        <time>2017-02-02T15:05:01Z</time>
      </trkpt>
      <trkpt lat="46.10983" lon="4.60986">
        <ele>289</ele>
        <time>2017-02-02T15:05:02Z</time>
      </trkpt>
      <trkpt lat="46.10981" lon="4.60998">
        <ele>289</ele>
        <time>2017-02-02T15:05:10Z</time>
      </trkpt>
      <trkpt lat="46.10981" lon="4.60999">
        <ele>288</ele>
        <time>2017-02-02T15:05:11Z</time>
      </trkpt>
      <trkpt lat="46.10984" lon="4.61011">
        <ele>285</ele>
        <time>2017-02-02T15:05:18Z</time>
      </trkpt>
      <trkpt lat="46.10984" lon="4.61012">
        <ele>285</ele>
        <time>2017-02-02T15:05:19Z</time>
      </trkpt>
      <trkpt lat="46.10986" lon="4.61024">
        <ele>285</ele>
        <time>2017-02-02T15:05:27Z</time>
      </trkpt>
      <trkpt lat="46.10986" lon="4.61026">
        <ele>285</ele>
        <time>2017-02-02T15:05:28Z</time>
      </trkpt>
      <trkpt lat="46.10987" lon="4.61038">
        <ele>285</ele>
        <time>2017-02-02T15:05:35Z</time>
      </trkpt>
      <trkpt lat="46.10988" lon="4.6104">
        <ele>285</ele>
        <time>2017-02-02T15:05:36Z</time>
      </trkpt>
      <trkpt lat="46.1099" lon="4.6105">
        <ele>284</ele>
        <time>2017-02-02T15:05:42Z</time>
      </trkpt>
      <trkpt lat="46.1099" lon="4.61052">
        <ele>284</ele>
        <time>2017-02-02T15:05:43Z</time>
      </trkpt>
      <trkpt lat="46.10994" lon="4.61064">
        <ele>283</ele>
        <time>2017-02-02T15:05:49Z</time>
      </trkpt>
      <trkpt lat="46.10994" lon="4.61066">
        <ele>283</ele>
        <time>2017-02-02T15:05:50Z</time>
      </trkpt>
      <trkpt lat="46.10997" lon="4.61077">
        <ele>281</ele>
        <time>2017-02-02T15:05:56Z</time>
      </trkpt>
      <trkpt lat="46.10998" lon="4.61078">
        <ele>281</ele>
        <time>2017-02-02T15:05:57Z</time>
      </trkpt>
      <trkpt lat="46.11005" lon="4.61083">
        <ele>280</ele>
        <time>2017-02-02T15:06:04Z</time>
      </trkpt>
      <trkpt lat="46.11006" lon="4.61084">
        <ele>280</ele>
        <time>2017-02-02T15:06:05Z</time>
      </trkpt>
      <trkpt lat="46.11011" lon="4.61092">
        <ele>280</ele>
        <time>2017-02-02T15:06:11Z</time>
      </trkpt>
      <trkpt lat="46.11011" lon="4.61094">
        <ele>280</ele>
        <time>2017-02-02T15:06:12Z</time>
      </trkpt>
      <trkpt lat="46.11019" lon="4.61099">
        <ele>280</ele>
        <time>2017-02-02T15:06:19Z</time>
      </trkpt>
      <trkpt lat="46.1102" lon="4.61099">
        <ele>280</ele>
        <time>2017-02-02T15:06:20Z</time>
      </trkpt>
      <trkpt lat="46.11028" lon="4.61104">
        <ele>280</ele>
        <time>2017-02-02T15:06:27Z</time>
      </trkpt>
      <trkpt lat="46.11029" lon="4.61105">
        <ele>280</ele>
        <time>2017-02-02T15:06:28Z</time>
      </trkpt>
      <trkpt lat="46.11035" lon="4.61114">
        <ele>280</ele>
        <time>2017-02-02T15:06:34Z</time>
      </trkpt>
      <trkpt lat="46.11036" lon="4.61115">
        <ele>280</ele>
        <time>2017-02-02T15:06:35Z</time>
      </trkpt>
      <trkpt lat="46.11043" lon="4.61121">
        <ele>280</ele>
        <time>2017-02-02T15:06:41Z</time>
      </trkpt>
      <trkpt lat="46.11045" lon="4.61121">
        <ele>280</ele>
        <time>2017-02-02T15:06:42Z</time>
      </trkpt>
      <trkpt lat="46.11051" lon="4.61127">
        <ele>280</ele>
        <time>2017-02-02T15:06:48Z</time>
      </trkpt>
      <trkpt lat="46.11052" lon="4.61128">
        <ele>280</ele>
        <time>2017-02-02T15:06:49Z</time>
      </trkpt>
      <trkpt lat="46.11056" lon="4.6114">
        <ele>280</ele>
        <time>2017-02-02T15:06:56Z</time>
      </trkpt>
      <trkpt lat="46.11056" lon="4.61142">
        <ele>280</ele>
        <time>2017-02-02T15:06:57Z</time>
      </trkpt>
      <trkpt lat="46.11051" lon="4.61152">
        <ele>280</ele>
        <time>2017-02-02T15:07:17Z</time>
      </trkpt>
      <trkpt lat="46.1105" lon="4.61152">
        <ele>280</ele>
        <time>2017-02-02T15:07:18Z</time>
      </trkpt>
      <trkpt lat="46.11042" lon="4.61156">
        <ele>280</ele>
        <time>2017-02-02T15:07:29Z</time>
      </trkpt>
      <trkpt lat="46.11041" lon="4.61157">
        <ele>280</ele>
        <time>2017-02-02T15:07:30Z</time>
      </trkpt>
      <trkpt lat="46.11035" lon="4.61165">
        <ele>280</ele>
        <time>2017-02-02T15:07:48Z</time>
      </trkpt>
      <trkpt lat="46.11034" lon="4.61166">
        <ele>280</ele>
        <time>2017-02-02T15:07:49Z</time>
      </trkpt>
      <trkpt lat="46.11035" lon="4.61179">
        <ele>281</ele>
        <time>2017-02-02T15:09:40Z</time>
      </trkpt>
      <trkpt lat="46.11035" lon="4.61179">
        <ele>281</ele>
        <time>2017-02-02T15:09:41Z</time>
      </trkpt>
      <trkpt lat="46.11041" lon="4.61188">
        <ele>281</ele>
        <time>2017-02-02T15:10:14Z</time>
      </trkpt>
      <trkpt lat="46.11042" lon="4.61189">
        <ele>281</ele>
        <time>2017-02-02T15:10:15Z</time>
      </trkpt>
      <trkpt lat="46.11048" lon="4.61198">
        <ele>281</ele>
        <time>2017-02-02T15:10:26Z</time>
      </trkpt>
      <trkpt lat="46.11048" lon="4.61199">
        <ele>281</ele>
        <time>2017-02-02T15:10:27Z</time>
      </trkpt>
      <trkpt lat="46.11049" lon="4.61211">
        <ele>281</ele>
        <time>2017-02-02T15:10:37Z</time>
      </trkpt>
      <trkpt lat="46.1105" lon="4.61212">
        <ele>281</ele>
        <time>2017-02-02T15:10:38Z</time>
      </trkpt>
      <trkpt lat="46.11056" lon="4.6122">
        <ele>281</ele>
        <time>2017-02-02T15:10:46Z</time>
      </trkpt>
      <trkpt lat="46.11057" lon="4.61221">
        <ele>281</ele>
        <time>2017-02-02T15:10:47Z</time>
      </trkpt>
      <trkpt lat="46.11061" lon="4.61231">
        <ele>280</ele>
        <time>2017-02-02T15:10:54Z</time>
      </trkpt>
      <trkpt lat="46.11062" lon="4.61232">
        <ele>280</ele>
        <time>2017-02-02T15:10:55Z</time>
      </trkpt>
      <trkpt lat="46.11067" lon="4.61242">
        <ele>280</ele>
        <time>2017-02-02T15:11:02Z</time>
      </trkpt>
      <trkpt lat="46.11068" lon="4.61243">
        <ele>280</ele>
        <time>2017-02-02T15:11:03Z</time>
      </trkpt>
      <trkpt lat="46.1107" lon="4.61254">
        <ele>280</ele>
        <time>2017-02-02T15:11:10Z</time>
      </trkpt>
      <trkpt lat="46.1107" lon="4.61256">
        <ele>280</ele>
        <time>2017-02-02T15:11:11Z</time>
      </trkpt>
      <trkpt lat="46.11073" lon="4.61267">
        <ele>281</ele>
        <time>2017-02-02T15:11:19Z</time>
      </trkpt>
      <trkpt lat="46.11073" lon="4.61269">
        <ele>281</ele>
        <time>2017-02-02T15:11:20Z</time>
      </trkpt>
      <trkpt lat="46.11076" lon="4.61279">
        <ele>281</ele>
        <time>2017-02-02T15:11:26Z</time>
      </trkpt>
      <trkpt lat="46.11077" lon="4.61282">
        <ele>281</ele>
        <time>2017-02-02T15:11:27Z</time>
      </trkpt>
      <trkpt lat="46.11082" lon="4.61291">
        <ele>281</ele>
        <time>2017-02-02T15:11:32Z</time>
      </trkpt>
      <trkpt lat="46.11083" lon="4.61293">
        <ele>281</ele>
        <time>2017-02-02T15:11:33Z</time>
      </trkpt>
      <trkpt lat="46.11086" lon="4.61303">
        <ele>278</ele>
        <time>2017-02-02T15:11:39Z</time>
      </trkpt>
      <trkpt lat="46.11087" lon="4.61305">
        <ele>278</ele>
        <time>2017-02-02T15:11:40Z</time>
      </trkpt>
      <trkpt lat="46.1109" lon="4.61315">
        <ele>278</ele>
        <time>2017-02-02T15:11:46Z</time>
      </trkpt>
      <trkpt lat="46.11091" lon="4.61316">
        <ele>278</ele>
        <time>2017-02-02T15:11:47Z</time>
      </trkpt>
      <trkpt lat="46.11095" lon="4.61326">
        <ele>278</ele>
        <time>2017-02-02T15:11:53Z</time>
      </trkpt>
      <trkpt lat="46.11096" lon="4.61328">
        <ele>278</ele>
        <time>2017-02-02T15:11:54Z</time>
      </trkpt>
      <trkpt lat="46.11101" lon="4.61336">
        <ele>278</ele>
        <time>2017-02-02T15:12:00Z</time>
      </trkpt>
      <trkpt lat="46.11102" lon="4.61337">
        <ele>278</ele>
        <time>2017-02-02T15:12:01Z</time>
      </trkpt>
      <trkpt lat="46.11109" lon="4.61346">
        <ele>278</ele>
        <time>2017-02-02T15:12:08Z</time>
      </trkpt>
      <trkpt lat="46.1111" lon="4.61347">
        <ele>278</ele>
        <time>2017-02-02T15:12:09Z</time>
      </trkpt>
      <trkpt lat="46.11116" lon="4.61354">
        <ele>277</ele>
        <time>2017-02-02T15:12:16Z</time>
      </trkpt>
      <trkpt lat="46.11117" lon="4.61355">
        <ele>277</ele>
        <time>2017-02-02T15:12:17Z</time>
      </trkpt>
      <trkpt lat="46.11125" lon="4.61361">
        <ele>277</ele>
        <time>2017-02-02T15:12:25Z</time>
      </trkpt>
      <trkpt lat="46.11126" lon="4.61362">
        <ele>277</ele>
        <time>2017-02-02T15:12:26Z</time>
      </trkpt>
      <trkpt lat="46.11133" lon="4.61364">
        <ele>277</ele>
        <time>2017-02-02T15:12:32Z</time>
      </trkpt>
      <trkpt lat="46.11135" lon="4.61364">
        <ele>277</ele>
        <time>2017-02-02T15:12:33Z</time>
      </trkpt>
      <trkpt lat="46.11144" lon="4.61364">
        <ele>276</ele>
        <time>2017-02-02T15:12:39Z</time>
      </trkpt>
      <trkpt lat="46.11145" lon="4.61365">
        <ele>276</ele>
        <time>2017-02-02T15:12:40Z</time>
      </trkpt>
      <trkpt lat="46.1115" lon="4.61374">
        <ele>276</ele>
        <time>2017-02-02T15:12:47Z</time>
      </trkpt>
      <trkpt lat="46.1115" lon="4.61376">
        <ele>276</ele>
        <time>2017-02-02T15:12:48Z</time>
      </trkpt>
      <trkpt lat="46.11152" lon="4.61388">
        <ele>276</ele>
        <time>2017-02-02T15:12:56Z</time>
      </trkpt>
      <trkpt lat="46.11152" lon="4.6139">
        <ele>276</ele>
        <time>2017-02-02T15:12:57Z</time>
      </trkpt>
      <trkpt lat="46.11153" lon="4.61402">
        <ele>275</ele>
        <time>2017-02-02T15:13:04Z</time>
      </trkpt>
      <trkpt lat="46.11153" lon="4.61404">
        <ele>275</ele>
        <time>2017-02-02T15:13:05Z</time>
      </trkpt>
      <trkpt lat="46.11152" lon="4.61415">
        <ele>275</ele>
        <time>2017-02-02T15:13:12Z</time>
      </trkpt>
      <trkpt lat="46.11152" lon="4.61417">
        <ele>275</ele>
        <time>2017-02-02T15:13:13Z</time>
      </trkpt>
      <trkpt lat="46.11152" lon="4.6143">
        <ele>275</ele>
        <time>2017-02-02T15:13:23Z</time>
      </trkpt>
      <trkpt lat="46.11152" lon="4.61431">
        <ele>275</ele>
        <time>2017-02-02T15:13:24Z</time>
      </trkpt>
      <trkpt lat="46.11151" lon="4.61442">
        <ele>276</ele>
        <time>2017-02-02T15:13:30Z</time>
      </trkpt>
      <trkpt lat="46.11151" lon="4.61444">
        <ele>276</ele>
        <time>2017-02-02T15:13:31Z</time>
      </trkpt>
      <trkpt lat="46.1115" lon="4.61456">
        <ele>276</ele>
        <time>2017-02-02T15:13:37Z</time>
      </trkpt>
      <trkpt lat="46.1115" lon="4.61458">
        <ele>276</ele>
        <time>2017-02-02T15:13:38Z</time>
      </trkpt>
      <trkpt lat="46.11148" lon="4.6147">
        <ele>275</ele>
        <time>2017-02-02T15:13:44Z</time>
      </trkpt>
      <trkpt lat="46.11148" lon="4.61472">
        <ele>275</ele>
        <time>2017-02-02T15:13:45Z</time>
      </trkpt>
      <trkpt lat="46.11148" lon="4.61484">
        <ele>275</ele>
        <time>2017-02-02T15:13:51Z</time>
      </trkpt>
      <trkpt lat="46.11148" lon="4.61486">
        <ele>275</ele>
        <time>2017-02-02T15:13:52Z</time>
      </trkpt>
      <trkpt lat="46.11147" lon="4.61497">
        <ele>275</ele>
        <time>2017-02-02T15:13:58Z</time>
      </trkpt>
      <trkpt lat="46.11147" lon="4.61499">
        <ele>275</ele>
        <time>2017-02-02T15:13:59Z</time>
      </trkpt>
      <trkpt lat="46.11147" lon="4.61511">
        <ele>275</ele>
        <time>2017-02-02T15:14:05Z</time>
      </trkpt>
      <trkpt lat="46.11147" lon="4.61513">
        <ele>276</ele>
        <time>2017-02-02T15:14:06Z</time>
      </trkpt>
      <trkpt lat="46.11147" lon="4.61525">
        <ele>276</ele>
        <time>2017-02-02T15:14:12Z</time>
      </trkpt>
      <trkpt lat="46.11147" lon="4.61526">
        <ele>276</ele>
        <time>2017-02-02T15:14:13Z</time>
      </trkpt>
      <trkpt lat="46.11147" lon="4.61538">
        <ele>277</ele>
        <time>2017-02-02T15:14:19Z</time>
      </trkpt>
      <trkpt lat="46.11147" lon="4.6154">
        <ele>277</ele>
        <time>2017-02-02T15:14:20Z</time>
      </trkpt>
      <trkpt lat="46.11147" lon="4.61551">
        <ele>277</ele>
        <time>2017-02-02T15:14:26Z</time>
      </trkpt>
      <trkpt lat="46.11147" lon="4.61553">
        <ele>277</ele>
        <time>2017-02-02T15:14:27Z</time>
      </trkpt>
      <trkpt lat="46.11147" lon="4.61564">
        <ele>276</ele>
        <time>2017-02-02T15:14:33Z</time>
      </trkpt>
      <trkpt lat="46.11148" lon="4.61566">
        <ele>276</ele>
        <time>2017-02-02T15:14:34Z</time>
      </trkpt>
      <trkpt lat="46.11148" lon="4.61577">
        <ele>276</ele>
        <time>2017-02-02T15:14:39Z</time>
      </trkpt>
      <trkpt lat="46.11148" lon="4.61579">
        <ele>276</ele>
        <time>2017-02-02T15:14:40Z</time>
      </trkpt>
      <trkpt lat="46.11147" lon="4.61591">
        <ele>277</ele>
        <time>2017-02-02T15:14:46Z</time>
      </trkpt>
      <trkpt lat="46.11147" lon="4.61593">
        <ele>278</ele>
        <time>2017-02-02T15:14:47Z</time>
      </trkpt>
      <trkpt lat="46.11148" lon="4.61605">
        <ele>278</ele>
        <time>2017-02-02T15:14:54Z</time>
      </trkpt>
      <trkpt lat="46.11148" lon="4.61607">
        <ele>278</ele>
        <time>2017-02-02T15:14:55Z</time>
      </trkpt>
      <trkpt lat="46.1115" lon="4.61619">
        <ele>279</ele>
        <time>2017-02-02T15:15:01Z</time>
      </trkpt>
      <trkpt lat="46.1115" lon="4.61621">
        <ele>279</ele>
        <time>2017-02-02T15:15:02Z</time>
      </trkpt>
      <trkpt lat="46.11151" lon="4.61634">
        <ele>279</ele>
        <time>2017-02-02T15:15:09Z</time>
      </trkpt>
      <trkpt lat="46.11151" lon="4.61636">
        <ele>279</ele>
        <time>2017-02-02T15:15:10Z</time>
      </trkpt>
      <trkpt lat="46.11153" lon="4.61648">
        <ele>278</ele>
        <time>2017-02-02T15:15:17Z</time>
      </trkpt>
      <trkpt lat="46.11153" lon="4.6165">
        <ele>278</ele>
        <time>2017-02-02T15:15:18Z</time>
      </trkpt>
      <trkpt lat="46.11151" lon="4.61662">
        <ele>277</ele>
        <time>2017-02-02T15:15:24Z</time>
      </trkpt>
      <trkpt lat="46.11151" lon="4.61664">
        <ele>277</ele>
        <time>2017-02-02T15:15:25Z</time>
      </trkpt>
      <trkpt lat="46.11152" lon="4.61676">
        <ele>279</ele>
        <time>2017-02-02T15:15:31Z</time>
      </trkpt>
      <trkpt lat="46.11152" lon="4.61678">
        <ele>280</ele>
        <time>2017-02-02T15:15:32Z</time>
      </trkpt>
      <trkpt lat="46.11154" lon="4.61689">
        <ele>281</ele>
        <time>2017-02-02T15:15:38Z</time>
      </trkpt>
      <trkpt lat="46.11154" lon="4.61691">
        <ele>281</ele>
        <time>2017-02-02T15:15:39Z</time>
      </trkpt>
      <trkpt lat="46.11156" lon="4.61702">
        <ele>282</ele>
        <time>2017-02-02T15:15:45Z</time>
      </trkpt>
      <trkpt lat="46.11156" lon="4.61704">
        <ele>282</ele>
        <time>2017-02-02T15:15:46Z</time>
      </trkpt>
      <trkpt lat="46.11158" lon="4.61715">
        <ele>282</ele>
        <time>2017-02-02T15:15:51Z</time>
      </trkpt>
      <trkpt lat="46.11158" lon="4.61717">
        <ele>282</ele>
        <time>2017-02-02T15:15:52Z</time>
      </trkpt>
      <trkpt lat="46.11159" lon="4.61729">
        <ele>280</ele>
        <time>2017-02-02T15:15:58Z</time>
      </trkpt>
      <trkpt lat="46.11159" lon="4.61731">
        <ele>280</ele>
        <time>2017-02-02T15:15:59Z</time>
      </trkpt>
      <trkpt lat="46.11161" lon="4.61743">
        <ele>277</ele>
        <time>2017-02-02T15:16:06Z</time>
      </trkpt>
      <trkpt lat="46.11162" lon="4.61745">
        <ele>277</ele>
        <time>2017-02-02T15:16:07Z</time>
      </trkpt>
      <trkpt lat="46.11166" lon="4.61757">
        <ele>278</ele>
        <time>2017-02-02T15:16:15Z</time>
      </trkpt>
      <trkpt lat="46.11166" lon="4.61759">
        <ele>279</ele>
        <time>2017-02-02T15:16:16Z</time>
      </trkpt>
      <trkpt lat="46.11166" lon="4.6177">
        <ele>282</ele>
        <time>2017-02-02T15:16:21Z</time>
      </trkpt>
      <trkpt lat="46.11166" lon="4.61772">
        <ele>282</ele>
        <time>2017-02-02T15:16:22Z</time>
      </trkpt>
      <trkpt lat="46.11168" lon="4.61785">
        <ele>272</ele>
        <time>2017-02-02T15:16:28Z</time>
      </trkpt>
      <trkpt lat="46.11168" lon="4.61787">
        <ele>272</ele>
        <time>2017-02-02T15:16:29Z</time>
      </trkpt>
      <trkpt lat="46.11171" lon="4.61797">
        <ele>272</ele>
        <time>2017-02-02T15:16:34Z</time>
      </trkpt>
      <trkpt lat="46.11171" lon="4.61799">
        <ele>272</ele>
        <time>2017-02-02T15:16:35Z</time>
      </trkpt>
      <trkpt lat="46.11175" lon="4.6181">
        <ele>273</ele>
        <time>2017-02-02T15:16:42Z</time>
      </trkpt>
      <trkpt lat="46.11175" lon="4.61811">
        <ele>273</ele>
        <time>2017-02-02T15:16:43Z</time>
      </trkpt>
      <trkpt lat="46.11177" lon="4.61823">
        <ele>274</ele>
        <time>2017-02-02T15:16:49Z</time>
      </trkpt>
      <trkpt lat="46.11177" lon="4.61825">
        <ele>274</ele>
        <time>2017-02-02T15:16:50Z</time>
      </trkpt>
      <trkpt lat="46.11178" lon="4.61837">
        <ele>274</ele>
        <time>2017-02-02T15:16:57Z</time>
      </trkpt>
      <trkpt lat="46.11178" lon="4.61839">
        <ele>274</ele>
        <time>2017-02-02T15:16:58Z</time>
      </trkpt>
      <trkpt lat="46.1118" lon="4.61851">
        <ele>274</ele>
        <time>2017-02-02T15:17:04Z</time>
      </trkpt>
      <trkpt lat="46.11181" lon="4.61853">
        <ele>273</ele>
        <time>2017-02-02T15:17:05Z</time>
      </trkpt>
      <trkpt lat="46.11185" lon="4.61863">
        <ele>273</ele>
        <time>2017-02-02T15:17:10Z</time>
      </trkpt>
      <trkpt lat="46.11186" lon="4.61865">
        <ele>273</ele>
        <time>2017-02-02T15:17:11Z</time>
      </trkpt>
      <trkpt lat="46.1119" lon="4.61874">
        <ele>273</ele>
        <time>2017-02-02T15:17:17Z</time>
      </trkpt>
      <trkpt lat="46.1119" lon="4.61876">
        <ele>273</ele>
        <time>2017-02-02T15:17:18Z</time>
      </trkpt>
      <trkpt lat="46.11191" lon="4.61887">
        <ele>273</ele>
        <time>2017-02-02T15:17:24Z</time>
      </trkpt>
      <trkpt lat="46.11192" lon="4.6189">
        <ele>273</ele>
        <time>2017-02-02T15:17:25Z</time>
      </trkpt>
      <trkpt lat="46.11194" lon="4.61902">
        <ele>274</ele>
        <time>2017-02-02T15:17:30Z</time>
      </trkpt>
      <trkpt lat="46.11193" lon="4.61904">
        <ele>274</ele>
        <time>2017-02-02T15:17:31Z</time>
      </trkpt>
      <trkpt lat="46.11196" lon="4.61916">
        <ele>274</ele>
        <time>2017-02-02T15:17:37Z</time>
      </trkpt>
      <trkpt lat="46.11197" lon="4.61918">
        <ele>274</ele>
        <time>2017-02-02T15:17:38Z</time>
      </trkpt>
      <trkpt lat="46.112" lon="4.61928">
        <ele>274</ele>
        <time>2017-02-02T15:17:43Z</time>
      </trkpt>
      <trkpt lat="46.112" lon="4.6193">
        <ele>273</ele>
        <time>2017-02-02T15:17:44Z</time>
      </trkpt>
      <trkpt lat="46.11204" lon="4.61941">
        <ele>273</ele>
        <time>2017-02-02T15:17:51Z</time>
      </trkpt>
      <trkpt lat="46.11203" lon="4.61943">
        <ele>273</ele>
        <time>2017-02-02T15:17:52Z</time>
      </trkpt>
      <trkpt lat="46.11205" lon="4.61954">
        <ele>273</ele>
        <time>2017-02-02T15:17:59Z</time>
      </trkpt>
      <trkpt lat="46.11206" lon="4.61956">
        <ele>273</ele>
        <time>2017-02-02T15:18:00Z</time>
      </trkpt>
      <trkpt lat="46.11209" lon="4.61968">
        <ele>272</ele>
        <time>2017-02-02T15:18:06Z</time>
      </trkpt>
      <trkpt lat="46.11209" lon="4.6197">
        <ele>272</ele>
        <time>2017-02-02T15:18:07Z</time>
      </trkpt>
      <trkpt lat="46.11212" lon="4.6198">
        <ele>272</ele>
        <time>2017-02-02T15:18:12Z</time>
      </trkpt>
      <trkpt lat="46.11213" lon="4.61982">
        <ele>272</ele>
        <time>2017-02-02T15:18:13Z</time>
      </trkpt>
      <trkpt lat="46.11216" lon="4.61993">
        <ele>271</ele>
        <time>2017-02-02T15:18:18Z</time>
      </trkpt>
      <trkpt lat="46.11216" lon="4.61995">
        <ele>271</ele>
        <time>2017-02-02T15:18:19Z</time>
      </trkpt>
      <trkpt lat="46.11218" lon="4.62006">
        <ele>271</ele>
        <time>2017-02-02T15:18:25Z</time>
      </trkpt>
      <trkpt lat="46.11218" lon="4.62008">
        <ele>271</ele>
        <time>2017-02-02T15:18:26Z</time>
      </trkpt>
      <trkpt lat="46.11222" lon="4.62018">
        <ele>271</ele>
        <time>2017-02-02T15:18:32Z</time>
      </trkpt>
      <trkpt lat="46.11223" lon="4.62019">
        <ele>271</ele>
        <time>2017-02-02T15:18:33Z</time>
      </trkpt>
      <trkpt lat="46.11228" lon="4.62029">
        <ele>271</ele>
        <time>2017-02-02T15:18:40Z</time>
      </trkpt>
      <trkpt lat="46.11228" lon="4.62031">
        <ele>271</ele>
        <time>2017-02-02T15:18:41Z</time>
      </trkpt>
      <trkpt lat="46.11232" lon="4.62042">
        <ele>271</ele>
        <time>2017-02-02T15:18:47Z</time>
      </trkpt>
      <trkpt lat="46.11233" lon="4.62044">
        <ele>271</ele>
        <time>2017-02-02T15:18:48Z</time>
      </trkpt>
      <trkpt lat="46.11238" lon="4.62054">
        <ele>270</ele>
        <time>2017-02-02T15:18:54Z</time>
      </trkpt>
      <trkpt lat="46.11238" lon="4.62055">
        <ele>270</ele>
        <time>2017-02-02T15:18:55Z</time>
      </trkpt>
      <trkpt lat="46.11243" lon="4.62064">
        <ele>269</ele>
        <time>2017-02-02T15:19:01Z</time>
      </trkpt>
      <trkpt lat="46.11244" lon="4.62066">
        <ele>269</ele>
        <time>2017-02-02T15:19:02Z</time>
      </trkpt>
      <trkpt lat="46.11252" lon="4.6207">
        <ele>264</ele>
        <time>2017-02-02T15:19:09Z</time>
      </trkpt>
      <trkpt lat="46.11253" lon="4.62071">
        <ele>264</ele>
        <time>2017-02-02T15:19:10Z</time>
      </trkpt>
      <trkpt lat="46.11261" lon="4.62073">
        <ele>264</ele>
        <time>2017-02-02T15:19:18Z</time>
      </trkpt>
      <trkpt lat="46.11262" lon="4.62073">
        <ele>264</ele>
        <time>2017-02-02T15:19:19Z</time>
      </trkpt>
      <trkpt lat="46.11271" lon="4.62072">
        <ele>264</ele>
        <time>2017-02-02T15:19:27Z</time>
      </trkpt>
      <trkpt lat="46.11272" lon="4.62072">
        <ele>264</ele>
        <time>2017-02-02T15:19:28Z</time>
      </trkpt>
      <trkpt lat="46.11281" lon="4.62069">
        <ele>264</ele>
        <time>2017-02-02T15:19:40Z</time>
      </trkpt>
      <trkpt lat="46.11282" lon="4.62069">
        <ele>264</ele>
        <time>2017-02-02T15:19:41Z</time>
      </trkpt>
      <trkpt lat="46.11289" lon="4.62064">
        <ele>264</ele>
        <time>2017-02-02T15:19:47Z</time>
      </trkpt>
      <trkpt lat="46.11291" lon="4.62063">
        <ele>264</ele>
        <time>2017-02-02T15:19:48Z</time>
      </trkpt>
      <trkpt lat="46.11299" lon="4.6206">
        <ele>264</ele>
        <time>2017-02-02T15:19:54Z</time>
      </trkpt>
      <trkpt lat="46.113" lon="4.62059">
        <ele>264</ele>
        <time>2017-02-02T15:19:55Z</time>
      </trkpt>
      <trkpt lat="46.11308" lon="4.62054">
        <ele>264</ele>
        <time>2017-02-02T15:20:01Z</time>
      </trkpt>
      <trkpt lat="46.11309" lon="4.62053">
        <ele>264</ele>
        <time>2017-02-02T15:20:02Z</time>
      </trkpt>
      <trkpt lat="46.11317" lon="4.6205">
        <ele>264</ele>
        <time>2017-02-02T15:20:08Z</time>
      </trkpt>
      <trkpt lat="46.11318" lon="4.62049">
        <ele>264</ele>
        <time>2017-02-02T15:20:09Z</time>
      </trkpt>
      <trkpt lat="46.11325" lon="4.62047">
        <ele>264</ele>
        <time>2017-02-02T15:20:14Z</time>
      </trkpt>
      <trkpt lat="46.11327" lon="4.62047">
        <ele>264</ele>
        <time>2017-02-02T15:20:15Z</time>
      </trkpt>
      <trkpt lat="46.11335" lon="4.62047">
        <ele>267</ele>
        <time>2017-02-02T15:20:21Z</time>
      </trkpt>
      <trkpt lat="46.11336" lon="4.62046">
        <ele>267</ele>
        <time>2017-02-02T15:20:22Z</time>
      </trkpt>
      <trkpt lat="46.11343" lon="4.6204">
        <ele>267</ele>
        <time>2017-02-02T15:20:29Z</time>
      </trkpt>
      <trkpt lat="46.11344" lon="4.62039">
        <ele>267</ele>
        <time>2017-02-02T15:20:30Z</time>
      </trkpt>
      <trkpt lat="46.11346" lon="4.62027">
        <ele>268</ele>
        <time>2017-02-02T15:20:38Z</time>
      </trkpt>
      <trkpt lat="46.11346" lon="4.62025">
        <ele>268</ele>
        <time>2017-02-02T15:20:39Z</time>
      </trkpt>
      <trkpt lat="46.11348" lon="4.62013">
        <ele>268</ele>
        <time>2017-02-02T15:20:49Z</time>
      </trkpt>
      <trkpt lat="46.11348" lon="4.62012">
        <ele>268</ele>
        <time>2017-02-02T15:20:50Z</time>
      </trkpt>
      <trkpt lat="46.1135" lon="4.62001">
        <ele>268</ele>
        <time>2017-02-02T15:23:44.105Z</time>
      </trkpt>
    </trkseg>
  </trk>
</gpx>